<?xml version="1.0" encoding="UTF-8" standalone="no" ?>
<gpx xmlns="http://www.topografix.com/GPX/1/1" xmlns:xsi="http://www.w3.org/2001/XMLSchema-instance" xsi:schemaLocation="http://www.topografix.com/GPX/1/1 http://www.topografix.com/GPX/1/1/gpx.xsd" version="1.1" creator="VisuGPX - https://www.visugpx.com">
  <metadata>
    <name>Saint pierre - les radars</name>
  </metadata>
  <trk>
    <name><![CDATA[SityTrail - st pierre - les radars]]></name>
    <extensions>
      <line xmlns="http://www.topografix.com/GPX/gpx_style/0/2">
        <color>0000FF</color>
        <width>4</width>
      </line>
    </extensions>
    <trkseg>
      <trkpt lat="43.18147" lon="3.18968">
        <ele>12</ele>
        <time>2024-03-31T07:42:31.518Z</time>
      </trkpt>
      <trkpt lat="43.18147" lon="3.18968">
        <ele>12</ele>
        <time>2024-03-31T07:42:31.518Z</time>
      </trkpt>
      <trkpt lat="43.18153" lon="3.18969">
        <ele>12</ele>
        <time>2024-03-31T07:45:48.511Z</time>
      </trkpt>
      <trkpt lat="43.18154" lon="3.18967">
        <ele>15</ele>
        <time>2024-03-31T07:45:52.511Z</time>
      </trkpt>
      <trkpt lat="43.18157" lon="3.18964">
        <ele>15</ele>
        <time>2024-03-31T07:45:57.511Z</time>
      </trkpt>
      <trkpt lat="43.18161" lon="3.1896">
        <ele>15</ele>
        <time>2024-03-31T07:46:01.511Z</time>
      </trkpt>
      <trkpt lat="43.18164" lon="3.18954">
        <ele>16</ele>
        <time>2024-03-31T07:46:06.511Z</time>
      </trkpt>
      <trkpt lat="43.18168" lon="3.18946">
        <ele>16</ele>
        <time>2024-03-31T07:46:11.511Z</time>
      </trkpt>
      <trkpt lat="43.1817" lon="3.18939">
        <ele>16</ele>
        <time>2024-03-31T07:46:16.511Z</time>
      </trkpt>
      <trkpt lat="43.18171" lon="3.18935">
        <ele>16</ele>
        <time>2024-03-31T07:46:20.511Z</time>
      </trkpt>
      <trkpt lat="43.18171" lon="3.18933">
        <ele>16</ele>
        <time>2024-03-31T07:46:25.511Z</time>
      </trkpt>
      <trkpt lat="43.18171" lon="3.18929">
        <ele>18</ele>
        <time>2024-03-31T07:46:29.511Z</time>
      </trkpt>
      <trkpt lat="43.18171" lon="3.18924">
        <ele>18</ele>
        <time>2024-03-31T07:46:33.511Z</time>
      </trkpt>
      <trkpt lat="43.18173" lon="3.18919">
        <ele>18</ele>
        <time>2024-03-31T07:46:38.511Z</time>
      </trkpt>
      <trkpt lat="43.18175" lon="3.18909">
        <ele>18</ele>
        <time>2024-03-31T07:46:43.511Z</time>
      </trkpt>
      <trkpt lat="43.18179" lon="3.18901">
        <ele>18</ele>
        <time>2024-03-31T07:46:48.511Z</time>
      </trkpt>
      <trkpt lat="43.18183" lon="3.18891">
        <ele>21</ele>
        <time>2024-03-31T07:46:53.511Z</time>
      </trkpt>
      <trkpt lat="43.18185" lon="3.18885">
        <ele>21</ele>
        <time>2024-03-31T07:46:57.511Z</time>
      </trkpt>
      <trkpt lat="43.18187" lon="3.18878">
        <ele>21</ele>
        <time>2024-03-31T07:47:01.511Z</time>
      </trkpt>
      <trkpt lat="43.18184" lon="3.18875">
        <ele>23</ele>
        <time>2024-03-31T07:47:05.511Z</time>
      </trkpt>
      <trkpt lat="43.18176" lon="3.18871">
        <ele>19</ele>
        <time>2024-03-31T07:47:10.511Z</time>
      </trkpt>
      <trkpt lat="43.18171" lon="3.18869">
        <ele>19</ele>
        <time>2024-03-31T07:47:14.511Z</time>
      </trkpt>
      <trkpt lat="43.18166" lon="3.18865">
        <ele>19</ele>
        <time>2024-03-31T07:47:19.511Z</time>
      </trkpt>
      <trkpt lat="43.18162" lon="3.18862">
        <ele>19</ele>
        <time>2024-03-31T07:47:23.511Z</time>
      </trkpt>
      <trkpt lat="43.18156" lon="3.18858">
        <ele>19</ele>
        <time>2024-03-31T07:47:28.511Z</time>
      </trkpt>
      <trkpt lat="43.18152" lon="3.18855">
        <ele>16</ele>
        <time>2024-03-31T07:47:32.511Z</time>
      </trkpt>
      <trkpt lat="43.18147" lon="3.1885">
        <ele>16</ele>
        <time>2024-03-31T07:47:37.511Z</time>
      </trkpt>
      <trkpt lat="43.18141" lon="3.18846">
        <ele>16</ele>
        <time>2024-03-31T07:47:42.511Z</time>
      </trkpt>
      <trkpt lat="43.18135" lon="3.18843">
        <ele>16</ele>
        <time>2024-03-31T07:47:47.511Z</time>
      </trkpt>
      <trkpt lat="43.1813" lon="3.18842">
        <ele>16</ele>
        <time>2024-03-31T07:47:51.511Z</time>
      </trkpt>
      <trkpt lat="43.18124" lon="3.18839">
        <ele>14</ele>
        <time>2024-03-31T07:47:56.511Z</time>
      </trkpt>
      <trkpt lat="43.18119" lon="3.18833">
        <ele>14</ele>
        <time>2024-03-31T07:48:11.511Z</time>
      </trkpt>
      <trkpt lat="43.1812" lon="3.18832">
        <ele>14</ele>
        <time>2024-03-31T07:48:16.511Z</time>
      </trkpt>
      <trkpt lat="43.18121" lon="3.18832">
        <ele>14</ele>
        <time>2024-03-31T07:48:20.511Z</time>
      </trkpt>
      <trkpt lat="43.18111" lon="3.1883">
        <ele>14</ele>
        <time>2024-03-31T07:48:39.511Z</time>
      </trkpt>
      <trkpt lat="43.18105" lon="3.18827">
        <ele>14</ele>
        <time>2024-03-31T07:48:44.511Z</time>
      </trkpt>
      <trkpt lat="43.18099" lon="3.18826">
        <ele>14</ele>
        <time>2024-03-31T07:48:49.511Z</time>
      </trkpt>
      <trkpt lat="43.18094" lon="3.18824">
        <ele>14</ele>
        <time>2024-03-31T07:48:53.511Z</time>
      </trkpt>
      <trkpt lat="43.18089" lon="3.18822">
        <ele>14</ele>
        <time>2024-03-31T07:48:58.511Z</time>
      </trkpt>
      <trkpt lat="43.18085" lon="3.18821">
        <ele>14</ele>
        <time>2024-03-31T07:49:02.511Z</time>
      </trkpt>
      <trkpt lat="43.18079" lon="3.18819">
        <ele>16</ele>
        <time>2024-03-31T07:49:07.511Z</time>
      </trkpt>
      <trkpt lat="43.18073" lon="3.18818">
        <ele>16</ele>
        <time>2024-03-31T07:49:12.511Z</time>
      </trkpt>
      <trkpt lat="43.18068" lon="3.18815">
        <ele>17</ele>
        <time>2024-03-31T07:49:17.511Z</time>
      </trkpt>
      <trkpt lat="43.18062" lon="3.18811">
        <ele>17</ele>
        <time>2024-03-31T07:49:22.511Z</time>
      </trkpt>
      <trkpt lat="43.18056" lon="3.18807">
        <ele>17</ele>
        <time>2024-03-31T07:49:26.511Z</time>
      </trkpt>
      <trkpt lat="43.1805" lon="3.18805">
        <ele>17</ele>
        <time>2024-03-31T07:49:31.511Z</time>
      </trkpt>
      <trkpt lat="43.18046" lon="3.18803">
        <ele>17</ele>
        <time>2024-03-31T07:49:35.511Z</time>
      </trkpt>
      <trkpt lat="43.18041" lon="3.18801">
        <ele>19</ele>
        <time>2024-03-31T07:49:40.511Z</time>
      </trkpt>
      <trkpt lat="43.18038" lon="3.18797">
        <ele>19</ele>
        <time>2024-03-31T07:49:44.511Z</time>
      </trkpt>
      <trkpt lat="43.18036" lon="3.18789">
        <ele>21</ele>
        <time>2024-03-31T07:49:49.511Z</time>
      </trkpt>
      <trkpt lat="43.18038" lon="3.18781">
        <ele>21</ele>
        <time>2024-03-31T07:49:54.511Z</time>
      </trkpt>
      <trkpt lat="43.18041" lon="3.18774">
        <ele>21</ele>
        <time>2024-03-31T07:49:59.511Z</time>
      </trkpt>
      <trkpt lat="43.18044" lon="3.18767">
        <ele>21</ele>
        <time>2024-03-31T07:50:04.511Z</time>
      </trkpt>
      <trkpt lat="43.18047" lon="3.1876">
        <ele>23</ele>
        <time>2024-03-31T07:50:09.511Z</time>
      </trkpt>
      <trkpt lat="43.1805" lon="3.18756">
        <ele>23</ele>
        <time>2024-03-31T07:50:13.511Z</time>
      </trkpt>
      <trkpt lat="43.18052" lon="3.18751">
        <ele>23</ele>
        <time>2024-03-31T07:50:18.511Z</time>
      </trkpt>
      <trkpt lat="43.18053" lon="3.18744">
        <ele>23</ele>
        <time>2024-03-31T07:50:23.511Z</time>
      </trkpt>
      <trkpt lat="43.18054" lon="3.18738">
        <ele>23</ele>
        <time>2024-03-31T07:50:28.511Z</time>
      </trkpt>
      <trkpt lat="43.18055" lon="3.18732">
        <ele>25</ele>
        <time>2024-03-31T07:50:32.511Z</time>
      </trkpt>
      <trkpt lat="43.18056" lon="3.18725">
        <ele>25</ele>
        <time>2024-03-31T07:50:37.511Z</time>
      </trkpt>
      <trkpt lat="43.18056" lon="3.18718">
        <ele>25</ele>
        <time>2024-03-31T07:50:42.511Z</time>
      </trkpt>
      <trkpt lat="43.18056" lon="3.18709">
        <ele>25</ele>
        <time>2024-03-31T07:50:47.511Z</time>
      </trkpt>
      <trkpt lat="43.18057" lon="3.18702">
        <ele>25</ele>
        <time>2024-03-31T07:50:51.511Z</time>
      </trkpt>
      <trkpt lat="43.18058" lon="3.18693">
        <ele>25</ele>
        <time>2024-03-31T07:50:56.511Z</time>
      </trkpt>
      <trkpt lat="43.18057" lon="3.18689">
        <ele>25</ele>
        <time>2024-03-31T07:51:00.511Z</time>
      </trkpt>
      <trkpt lat="43.18058" lon="3.18682">
        <ele>25</ele>
        <time>2024-03-31T07:51:05.511Z</time>
      </trkpt>
      <trkpt lat="43.1806" lon="3.18673">
        <ele>27</ele>
        <time>2024-03-31T07:51:10.511Z</time>
      </trkpt>
      <trkpt lat="43.1806" lon="3.18665">
        <ele>27</ele>
        <time>2024-03-31T07:51:15.511Z</time>
      </trkpt>
      <trkpt lat="43.18061" lon="3.18658">
        <ele>27</ele>
        <time>2024-03-31T07:51:20.511Z</time>
      </trkpt>
      <trkpt lat="43.18062" lon="3.1865">
        <ele>29</ele>
        <time>2024-03-31T07:51:25.511Z</time>
      </trkpt>
      <trkpt lat="43.18063" lon="3.18643">
        <ele>29</ele>
        <time>2024-03-31T07:51:30.511Z</time>
      </trkpt>
      <trkpt lat="43.18063" lon="3.18638">
        <ele>29</ele>
        <time>2024-03-31T07:51:35.511Z</time>
      </trkpt>
      <trkpt lat="43.18066" lon="3.18631">
        <ele>29</ele>
        <time>2024-03-31T07:51:40.511Z</time>
      </trkpt>
      <trkpt lat="43.18068" lon="3.18624">
        <ele>31</ele>
        <time>2024-03-31T07:51:45.511Z</time>
      </trkpt>
      <trkpt lat="43.1807" lon="3.18618">
        <ele>31</ele>
        <time>2024-03-31T07:51:50.511Z</time>
      </trkpt>
      <trkpt lat="43.18073" lon="3.1861">
        <ele>31</ele>
        <time>2024-03-31T07:51:55.511Z</time>
      </trkpt>
      <trkpt lat="43.18074" lon="3.18605">
        <ele>31</ele>
        <time>2024-03-31T07:51:59.512Z</time>
      </trkpt>
      <trkpt lat="43.18075" lon="3.18597">
        <ele>33</ele>
        <time>2024-03-31T07:52:04.512Z</time>
      </trkpt>
      <trkpt lat="43.18079" lon="3.1859">
        <ele>33</ele>
        <time>2024-03-31T07:52:09.512Z</time>
      </trkpt>
      <trkpt lat="43.18083" lon="3.18583">
        <ele>33</ele>
        <time>2024-03-31T07:52:14.512Z</time>
      </trkpt>
      <trkpt lat="43.18087" lon="3.18576">
        <ele>33</ele>
        <time>2024-03-31T07:52:19.512Z</time>
      </trkpt>
      <trkpt lat="43.18091" lon="3.1857">
        <ele>33</ele>
        <time>2024-03-31T07:52:24.512Z</time>
      </trkpt>
      <trkpt lat="43.18093" lon="3.18563">
        <ele>34</ele>
        <time>2024-03-31T07:52:29.512Z</time>
      </trkpt>
      <trkpt lat="43.18096" lon="3.18558">
        <ele>34</ele>
        <time>2024-03-31T07:52:34.512Z</time>
      </trkpt>
      <trkpt lat="43.18099" lon="3.18553">
        <ele>35</ele>
        <time>2024-03-31T07:52:38.512Z</time>
      </trkpt>
      <trkpt lat="43.18101" lon="3.18548">
        <ele>35</ele>
        <time>2024-03-31T07:52:42.512Z</time>
      </trkpt>
      <trkpt lat="43.18104" lon="3.18543">
        <ele>35</ele>
        <time>2024-03-31T07:52:47.512Z</time>
      </trkpt>
      <trkpt lat="43.18107" lon="3.18537">
        <ele>36</ele>
        <time>2024-03-31T07:52:51.512Z</time>
      </trkpt>
      <trkpt lat="43.1811" lon="3.18532">
        <ele>36</ele>
        <time>2024-03-31T07:52:56.512Z</time>
      </trkpt>
      <trkpt lat="43.18114" lon="3.18525">
        <ele>36</ele>
        <time>2024-03-31T07:53:01.512Z</time>
      </trkpt>
      <trkpt lat="43.18116" lon="3.18517">
        <ele>36</ele>
        <time>2024-03-31T07:53:06.512Z</time>
      </trkpt>
      <trkpt lat="43.18116" lon="3.1851">
        <ele>37</ele>
        <time>2024-03-31T07:53:11.512Z</time>
      </trkpt>
      <trkpt lat="43.18116" lon="3.18503">
        <ele>37</ele>
        <time>2024-03-31T07:53:16.512Z</time>
      </trkpt>
      <trkpt lat="43.18113" lon="3.18496">
        <ele>37</ele>
        <time>2024-03-31T07:53:21.512Z</time>
      </trkpt>
      <trkpt lat="43.18111" lon="3.1849">
        <ele>37</ele>
        <time>2024-03-31T07:53:25.512Z</time>
      </trkpt>
      <trkpt lat="43.18111" lon="3.18482">
        <ele>38</ele>
        <time>2024-03-31T07:53:30.512Z</time>
      </trkpt>
      <trkpt lat="43.18114" lon="3.18474">
        <ele>38</ele>
        <time>2024-03-31T07:53:34.512Z</time>
      </trkpt>
      <trkpt lat="43.18115" lon="3.18467">
        <ele>38</ele>
        <time>2024-03-31T07:53:39.512Z</time>
      </trkpt>
      <trkpt lat="43.18116" lon="3.1846">
        <ele>38</ele>
        <time>2024-03-31T07:53:44.512Z</time>
      </trkpt>
      <trkpt lat="43.18119" lon="3.18454">
        <ele>38</ele>
        <time>2024-03-31T07:53:49.512Z</time>
      </trkpt>
      <trkpt lat="43.18123" lon="3.18449">
        <ele>38</ele>
        <time>2024-03-31T07:53:54.512Z</time>
      </trkpt>
      <trkpt lat="43.18128" lon="3.18447">
        <ele>40</ele>
        <time>2024-03-31T07:53:59.512Z</time>
      </trkpt>
      <trkpt lat="43.18133" lon="3.18446">
        <ele>40</ele>
        <time>2024-03-31T07:54:03.512Z</time>
      </trkpt>
      <trkpt lat="43.18138" lon="3.18443">
        <ele>40</ele>
        <time>2024-03-31T07:54:08.512Z</time>
      </trkpt>
      <trkpt lat="43.18143" lon="3.18441">
        <ele>40</ele>
        <time>2024-03-31T07:54:13.512Z</time>
      </trkpt>
      <trkpt lat="43.18147" lon="3.18437">
        <ele>40</ele>
        <time>2024-03-31T07:54:17.512Z</time>
      </trkpt>
      <trkpt lat="43.1815" lon="3.18431">
        <ele>40</ele>
        <time>2024-03-31T07:54:22.512Z</time>
      </trkpt>
      <trkpt lat="43.18152" lon="3.18424">
        <ele>41</ele>
        <time>2024-03-31T07:54:27.512Z</time>
      </trkpt>
      <trkpt lat="43.18155" lon="3.18417">
        <ele>42</ele>
        <time>2024-03-31T07:54:32.512Z</time>
      </trkpt>
      <trkpt lat="43.18158" lon="3.1841">
        <ele>42</ele>
        <time>2024-03-31T07:54:37.512Z</time>
      </trkpt>
      <trkpt lat="43.1816" lon="3.18403">
        <ele>42</ele>
        <time>2024-03-31T07:54:42.512Z</time>
      </trkpt>
      <trkpt lat="43.18163" lon="3.18395">
        <ele>42</ele>
        <time>2024-03-31T07:54:47.512Z</time>
      </trkpt>
      <trkpt lat="43.18166" lon="3.18389">
        <ele>42</ele>
        <time>2024-03-31T07:54:51.512Z</time>
      </trkpt>
      <trkpt lat="43.18168" lon="3.18384">
        <ele>42</ele>
        <time>2024-03-31T07:54:55.512Z</time>
      </trkpt>
      <trkpt lat="43.1817" lon="3.18377">
        <ele>42</ele>
        <time>2024-03-31T07:55:00.512Z</time>
      </trkpt>
      <trkpt lat="43.18172" lon="3.1837">
        <ele>43</ele>
        <time>2024-03-31T07:55:05.512Z</time>
      </trkpt>
      <trkpt lat="43.18174" lon="3.18363">
        <ele>43</ele>
        <time>2024-03-31T07:55:10.512Z</time>
      </trkpt>
      <trkpt lat="43.18175" lon="3.18356">
        <ele>43</ele>
        <time>2024-03-31T07:55:15.512Z</time>
      </trkpt>
      <trkpt lat="43.18176" lon="3.18349">
        <ele>43</ele>
        <time>2024-03-31T07:55:19.512Z</time>
      </trkpt>
      <trkpt lat="43.18179" lon="3.18342">
        <ele>42</ele>
        <time>2024-03-31T07:55:24.512Z</time>
      </trkpt>
      <trkpt lat="43.18182" lon="3.18333">
        <ele>43</ele>
        <time>2024-03-31T07:55:29.512Z</time>
      </trkpt>
      <trkpt lat="43.18184" lon="3.18326">
        <ele>43</ele>
        <time>2024-03-31T07:55:34.512Z</time>
      </trkpt>
      <trkpt lat="43.18186" lon="3.18318">
        <ele>42</ele>
        <time>2024-03-31T07:55:39.512Z</time>
      </trkpt>
      <trkpt lat="43.18188" lon="3.18312">
        <ele>42</ele>
        <time>2024-03-31T07:55:43.512Z</time>
      </trkpt>
      <trkpt lat="43.1819" lon="3.18305">
        <ele>42</ele>
        <time>2024-03-31T07:55:48.512Z</time>
      </trkpt>
      <trkpt lat="43.18192" lon="3.183">
        <ele>42</ele>
        <time>2024-03-31T07:55:53.512Z</time>
      </trkpt>
      <trkpt lat="43.18194" lon="3.183">
        <ele>42</ele>
        <time>2024-03-31T07:55:58.512Z</time>
      </trkpt>
      <trkpt lat="43.18194" lon="3.183">
        <ele>42</ele>
        <time>2024-03-31T07:56:03.512Z</time>
      </trkpt>
      <trkpt lat="43.18197" lon="3.18297">
        <ele>42</ele>
        <time>2024-03-31T07:56:42.512Z</time>
      </trkpt>
      <trkpt lat="43.182" lon="3.18291">
        <ele>40</ele>
        <time>2024-03-31T07:56:46.512Z</time>
      </trkpt>
      <trkpt lat="43.18202" lon="3.18284">
        <ele>40</ele>
        <time>2024-03-31T07:56:51.512Z</time>
      </trkpt>
      <trkpt lat="43.18206" lon="3.1828">
        <ele>40</ele>
        <time>2024-03-31T07:56:56.512Z</time>
      </trkpt>
      <trkpt lat="43.1821" lon="3.18273">
        <ele>42</ele>
        <time>2024-03-31T07:57:01.512Z</time>
      </trkpt>
      <trkpt lat="43.18213" lon="3.18268">
        <ele>42</ele>
        <time>2024-03-31T07:57:06.512Z</time>
      </trkpt>
      <trkpt lat="43.18218" lon="3.18263">
        <ele>41</ele>
        <time>2024-03-31T07:57:10.512Z</time>
      </trkpt>
      <trkpt lat="43.18223" lon="3.18259">
        <ele>41</ele>
        <time>2024-03-31T07:57:15.512Z</time>
      </trkpt>
      <trkpt lat="43.18227" lon="3.18255">
        <ele>41</ele>
        <time>2024-03-31T07:57:19.512Z</time>
      </trkpt>
      <trkpt lat="43.18232" lon="3.1825">
        <ele>41</ele>
        <time>2024-03-31T07:57:24.512Z</time>
      </trkpt>
      <trkpt lat="43.18237" lon="3.18245">
        <ele>43</ele>
        <time>2024-03-31T07:57:29.512Z</time>
      </trkpt>
      <trkpt lat="43.18242" lon="3.1824">
        <ele>43</ele>
        <time>2024-03-31T07:57:34.512Z</time>
      </trkpt>
      <trkpt lat="43.18246" lon="3.18235">
        <ele>42</ele>
        <time>2024-03-31T07:57:38.512Z</time>
      </trkpt>
      <trkpt lat="43.18251" lon="3.18231">
        <ele>42</ele>
        <time>2024-03-31T07:57:43.512Z</time>
      </trkpt>
      <trkpt lat="43.18255" lon="3.18226">
        <ele>42</ele>
        <time>2024-03-31T07:57:48.512Z</time>
      </trkpt>
      <trkpt lat="43.1826" lon="3.18222">
        <ele>42</ele>
        <time>2024-03-31T07:57:53.512Z</time>
      </trkpt>
      <trkpt lat="43.18266" lon="3.18218">
        <ele>43</ele>
        <time>2024-03-31T07:57:58.512Z</time>
      </trkpt>
      <trkpt lat="43.1827" lon="3.18214">
        <ele>43</ele>
        <time>2024-03-31T07:58:02.512Z</time>
      </trkpt>
      <trkpt lat="43.18275" lon="3.1821">
        <ele>43</ele>
        <time>2024-03-31T07:58:07.512Z</time>
      </trkpt>
      <trkpt lat="43.18281" lon="3.18208">
        <ele>43</ele>
        <time>2024-03-31T07:58:12.512Z</time>
      </trkpt>
      <trkpt lat="43.18287" lon="3.18205">
        <ele>43</ele>
        <time>2024-03-31T07:58:17.512Z</time>
      </trkpt>
      <trkpt lat="43.18291" lon="3.18203">
        <ele>43</ele>
        <time>2024-03-31T07:58:21.512Z</time>
      </trkpt>
      <trkpt lat="43.18297" lon="3.18199">
        <ele>44</ele>
        <time>2024-03-31T07:58:26.512Z</time>
      </trkpt>
      <trkpt lat="43.18302" lon="3.18195">
        <ele>44</ele>
        <time>2024-03-31T07:58:31.512Z</time>
      </trkpt>
      <trkpt lat="43.18307" lon="3.1819">
        <ele>44</ele>
        <time>2024-03-31T07:58:36.512Z</time>
      </trkpt>
      <trkpt lat="43.1831" lon="3.18184">
        <ele>44</ele>
        <time>2024-03-31T07:58:41.512Z</time>
      </trkpt>
      <trkpt lat="43.18314" lon="3.18177">
        <ele>44</ele>
        <time>2024-03-31T07:58:46.512Z</time>
      </trkpt>
      <trkpt lat="43.18317" lon="3.18171">
        <ele>44</ele>
        <time>2024-03-31T07:58:51.512Z</time>
      </trkpt>
      <trkpt lat="43.18319" lon="3.18166">
        <ele>44</ele>
        <time>2024-03-31T07:58:55.512Z</time>
      </trkpt>
      <trkpt lat="43.18322" lon="3.1816">
        <ele>45</ele>
        <time>2024-03-31T07:59:00.512Z</time>
      </trkpt>
      <trkpt lat="43.18326" lon="3.18156">
        <ele>45</ele>
        <time>2024-03-31T07:59:05.512Z</time>
      </trkpt>
      <trkpt lat="43.18328" lon="3.1815">
        <ele>46</ele>
        <time>2024-03-31T07:59:10.512Z</time>
      </trkpt>
      <trkpt lat="43.18329" lon="3.18142">
        <ele>46</ele>
        <time>2024-03-31T07:59:14.512Z</time>
      </trkpt>
      <trkpt lat="43.1833" lon="3.18136">
        <ele>46</ele>
        <time>2024-03-31T07:59:18.512Z</time>
      </trkpt>
      <trkpt lat="43.1833" lon="3.18127">
        <ele>46</ele>
        <time>2024-03-31T07:59:23.512Z</time>
      </trkpt>
      <trkpt lat="43.18331" lon="3.1812">
        <ele>48</ele>
        <time>2024-03-31T07:59:28.512Z</time>
      </trkpt>
      <trkpt lat="43.18331" lon="3.18113">
        <ele>48</ele>
        <time>2024-03-31T07:59:32.512Z</time>
      </trkpt>
      <trkpt lat="43.18331" lon="3.18105">
        <ele>48</ele>
        <time>2024-03-31T07:59:37.512Z</time>
      </trkpt>
      <trkpt lat="43.1833" lon="3.18099">
        <ele>48</ele>
        <time>2024-03-31T07:59:41.512Z</time>
      </trkpt>
      <trkpt lat="43.1833" lon="3.18091">
        <ele>48</ele>
        <time>2024-03-31T07:59:46.512Z</time>
      </trkpt>
      <trkpt lat="43.1833" lon="3.18082">
        <ele>48</ele>
        <time>2024-03-31T07:59:51.512Z</time>
      </trkpt>
      <trkpt lat="43.18329" lon="3.18073">
        <ele>48</ele>
        <time>2024-03-31T08:00:00.512Z</time>
      </trkpt>
      <trkpt lat="43.18329" lon="3.18072">
        <ele>48</ele>
        <time>2024-03-31T08:00:05.512Z</time>
      </trkpt>
      <trkpt lat="43.18329" lon="3.18072">
        <ele>48</ele>
        <time>2024-03-31T08:00:10.512Z</time>
      </trkpt>
      <trkpt lat="43.18328" lon="3.18066">
        <ele>47</ele>
        <time>2024-03-31T08:00:19.512Z</time>
      </trkpt>
      <trkpt lat="43.18326" lon="3.18056">
        <ele>47</ele>
        <time>2024-03-31T08:00:24.512Z</time>
      </trkpt>
      <trkpt lat="43.18324" lon="3.18047">
        <ele>47</ele>
        <time>2024-03-31T08:00:29.512Z</time>
      </trkpt>
      <trkpt lat="43.18323" lon="3.18042">
        <ele>46</ele>
        <time>2024-03-31T08:00:33.512Z</time>
      </trkpt>
      <trkpt lat="43.18321" lon="3.18034">
        <ele>46</ele>
        <time>2024-03-31T08:00:38.512Z</time>
      </trkpt>
      <trkpt lat="43.18319" lon="3.18027">
        <ele>48</ele>
        <time>2024-03-31T08:00:43.512Z</time>
      </trkpt>
      <trkpt lat="43.18317" lon="3.18018">
        <ele>48</ele>
        <time>2024-03-31T08:00:48.512Z</time>
      </trkpt>
      <trkpt lat="43.18317" lon="3.18011">
        <ele>47</ele>
        <time>2024-03-31T08:00:52.512Z</time>
      </trkpt>
      <trkpt lat="43.18316" lon="3.18004">
        <ele>47</ele>
        <time>2024-03-31T08:00:57.512Z</time>
      </trkpt>
      <trkpt lat="43.18315" lon="3.17996">
        <ele>47</ele>
        <time>2024-03-31T08:01:02.512Z</time>
      </trkpt>
      <trkpt lat="43.18315" lon="3.17987">
        <ele>47</ele>
        <time>2024-03-31T08:01:07.512Z</time>
      </trkpt>
      <trkpt lat="43.18315" lon="3.17979">
        <ele>47</ele>
        <time>2024-03-31T08:01:12.512Z</time>
      </trkpt>
      <trkpt lat="43.18315" lon="3.1797">
        <ele>47</ele>
        <time>2024-03-31T08:01:17.512Z</time>
      </trkpt>
      <trkpt lat="43.18316" lon="3.17963">
        <ele>47</ele>
        <time>2024-03-31T08:01:22.512Z</time>
      </trkpt>
      <trkpt lat="43.18318" lon="3.17953">
        <ele>47</ele>
        <time>2024-03-31T08:01:27.512Z</time>
      </trkpt>
      <trkpt lat="43.18321" lon="3.17946">
        <ele>46</ele>
        <time>2024-03-31T08:01:32.512Z</time>
      </trkpt>
      <trkpt lat="43.18323" lon="3.17938">
        <ele>46</ele>
        <time>2024-03-31T08:01:37.512Z</time>
      </trkpt>
      <trkpt lat="43.18326" lon="3.17932">
        <ele>46</ele>
        <time>2024-03-31T08:01:42.512Z</time>
      </trkpt>
      <trkpt lat="43.1833" lon="3.17924">
        <ele>44</ele>
        <time>2024-03-31T08:01:47.512Z</time>
      </trkpt>
      <trkpt lat="43.18333" lon="3.17918">
        <ele>44</ele>
        <time>2024-03-31T08:01:52.512Z</time>
      </trkpt>
      <trkpt lat="43.18336" lon="3.17912">
        <ele>44</ele>
        <time>2024-03-31T08:01:57.512Z</time>
      </trkpt>
      <trkpt lat="43.18339" lon="3.17905">
        <ele>44</ele>
        <time>2024-03-31T08:02:02.512Z</time>
      </trkpt>
      <trkpt lat="43.18341" lon="3.17898">
        <ele>43</ele>
        <time>2024-03-31T08:02:07.512Z</time>
      </trkpt>
      <trkpt lat="43.18344" lon="3.17891">
        <ele>43</ele>
        <time>2024-03-31T08:02:12.512Z</time>
      </trkpt>
      <trkpt lat="43.18346" lon="3.17883">
        <ele>43</ele>
        <time>2024-03-31T08:02:17.512Z</time>
      </trkpt>
      <trkpt lat="43.18347" lon="3.17875">
        <ele>44</ele>
        <time>2024-03-31T08:02:22.512Z</time>
      </trkpt>
      <trkpt lat="43.18346" lon="3.17867">
        <ele>44</ele>
        <time>2024-03-31T08:02:27.512Z</time>
      </trkpt>
      <trkpt lat="43.18345" lon="3.17859">
        <ele>44</ele>
        <time>2024-03-31T08:02:32.512Z</time>
      </trkpt>
      <trkpt lat="43.18343" lon="3.1785">
        <ele>44</ele>
        <time>2024-03-31T08:02:37.512Z</time>
      </trkpt>
      <trkpt lat="43.18342" lon="3.17843">
        <ele>44</ele>
        <time>2024-03-31T08:02:42.513Z</time>
      </trkpt>
      <trkpt lat="43.18339" lon="3.17836">
        <ele>44</ele>
        <time>2024-03-31T08:02:47.513Z</time>
      </trkpt>
      <trkpt lat="43.18336" lon="3.1783">
        <ele>44</ele>
        <time>2024-03-31T08:02:52.513Z</time>
      </trkpt>
      <trkpt lat="43.18334" lon="3.17823">
        <ele>44</ele>
        <time>2024-03-31T08:02:57.513Z</time>
      </trkpt>
      <trkpt lat="43.18333" lon="3.17817">
        <ele>41</ele>
        <time>2024-03-31T08:03:02.513Z</time>
      </trkpt>
      <trkpt lat="43.18333" lon="3.17808">
        <ele>41</ele>
        <time>2024-03-31T08:03:07.513Z</time>
      </trkpt>
      <trkpt lat="43.18333" lon="3.17801">
        <ele>41</ele>
        <time>2024-03-31T08:03:11.513Z</time>
      </trkpt>
      <trkpt lat="43.18335" lon="3.17794">
        <ele>41</ele>
        <time>2024-03-31T08:03:16.513Z</time>
      </trkpt>
      <trkpt lat="43.18337" lon="3.17787">
        <ele>40</ele>
        <time>2024-03-31T08:03:21.513Z</time>
      </trkpt>
      <trkpt lat="43.1834" lon="3.1778">
        <ele>40</ele>
        <time>2024-03-31T08:03:26.513Z</time>
      </trkpt>
      <trkpt lat="43.18342" lon="3.1777">
        <ele>40</ele>
        <time>2024-03-31T08:03:31.513Z</time>
      </trkpt>
      <trkpt lat="43.18343" lon="3.17762">
        <ele>40</ele>
        <time>2024-03-31T08:03:36.513Z</time>
      </trkpt>
      <trkpt lat="43.18343" lon="3.17753">
        <ele>40</ele>
        <time>2024-03-31T08:03:41.513Z</time>
      </trkpt>
      <trkpt lat="43.18343" lon="3.17745">
        <ele>40</ele>
        <time>2024-03-31T08:03:46.513Z</time>
      </trkpt>
      <trkpt lat="43.18343" lon="3.17739">
        <ele>40</ele>
        <time>2024-03-31T08:03:50.513Z</time>
      </trkpt>
      <trkpt lat="43.18344" lon="3.17731">
        <ele>43</ele>
        <time>2024-03-31T08:03:55.513Z</time>
      </trkpt>
      <trkpt lat="43.18346" lon="3.17725">
        <ele>43</ele>
        <time>2024-03-31T08:04:00.513Z</time>
      </trkpt>
      <trkpt lat="43.18348" lon="3.17719">
        <ele>38</ele>
        <time>2024-03-31T08:04:04.513Z</time>
      </trkpt>
      <trkpt lat="43.1835" lon="3.17713">
        <ele>38</ele>
        <time>2024-03-31T08:04:09.513Z</time>
      </trkpt>
      <trkpt lat="43.18353" lon="3.17705">
        <ele>38</ele>
        <time>2024-03-31T08:04:14.513Z</time>
      </trkpt>
      <trkpt lat="43.18356" lon="3.17698">
        <ele>38</ele>
        <time>2024-03-31T08:04:19.513Z</time>
      </trkpt>
      <trkpt lat="43.18359" lon="3.17692">
        <ele>38</ele>
        <time>2024-03-31T08:04:24.513Z</time>
      </trkpt>
      <trkpt lat="43.18362" lon="3.17687">
        <ele>38</ele>
        <time>2024-03-31T08:04:28.513Z</time>
      </trkpt>
      <trkpt lat="43.18366" lon="3.1768">
        <ele>39</ele>
        <time>2024-03-31T08:04:33.513Z</time>
      </trkpt>
      <trkpt lat="43.18369" lon="3.17674">
        <ele>39</ele>
        <time>2024-03-31T08:04:38.513Z</time>
      </trkpt>
      <trkpt lat="43.18372" lon="3.17668">
        <ele>39</ele>
        <time>2024-03-31T08:04:43.513Z</time>
      </trkpt>
      <trkpt lat="43.18376" lon="3.17663">
        <ele>37</ele>
        <time>2024-03-31T08:04:48.513Z</time>
      </trkpt>
      <trkpt lat="43.18379" lon="3.17663">
        <ele>37</ele>
        <time>2024-03-31T08:04:53.513Z</time>
      </trkpt>
      <trkpt lat="43.18379" lon="3.17662">
        <ele>37</ele>
        <time>2024-03-31T08:04:58.513Z</time>
      </trkpt>
      <trkpt lat="43.18382" lon="3.17656">
        <ele>37</ele>
        <time>2024-03-31T08:05:03.513Z</time>
      </trkpt>
      <trkpt lat="43.18385" lon="3.17651">
        <ele>38</ele>
        <time>2024-03-31T08:05:07.513Z</time>
      </trkpt>
      <trkpt lat="43.18389" lon="3.17646">
        <ele>38</ele>
        <time>2024-03-31T08:05:11.513Z</time>
      </trkpt>
      <trkpt lat="43.18393" lon="3.1764">
        <ele>38</ele>
        <time>2024-03-31T08:05:16.513Z</time>
      </trkpt>
      <trkpt lat="43.18397" lon="3.17634">
        <ele>38</ele>
        <time>2024-03-31T08:05:21.513Z</time>
      </trkpt>
      <trkpt lat="43.18401" lon="3.17629">
        <ele>38</ele>
        <time>2024-03-31T08:05:26.513Z</time>
      </trkpt>
      <trkpt lat="43.18405" lon="3.17622">
        <ele>39</ele>
        <time>2024-03-31T08:05:31.513Z</time>
      </trkpt>
      <trkpt lat="43.18408" lon="3.17616">
        <ele>39</ele>
        <time>2024-03-31T08:05:36.513Z</time>
      </trkpt>
      <trkpt lat="43.18412" lon="3.1761">
        <ele>39</ele>
        <time>2024-03-31T08:05:41.513Z</time>
      </trkpt>
      <trkpt lat="43.18416" lon="3.17604">
        <ele>39</ele>
        <time>2024-03-31T08:05:46.513Z</time>
      </trkpt>
      <trkpt lat="43.18421" lon="3.17598">
        <ele>39</ele>
        <time>2024-03-31T08:05:51.513Z</time>
      </trkpt>
      <trkpt lat="43.18425" lon="3.17592">
        <ele>41</ele>
        <time>2024-03-31T08:05:56.513Z</time>
      </trkpt>
      <trkpt lat="43.18429" lon="3.17586">
        <ele>41</ele>
        <time>2024-03-31T08:06:01.513Z</time>
      </trkpt>
      <trkpt lat="43.18432" lon="3.17582">
        <ele>40</ele>
        <time>2024-03-31T08:06:05.513Z</time>
      </trkpt>
      <trkpt lat="43.18436" lon="3.17577">
        <ele>40</ele>
        <time>2024-03-31T08:06:10.513Z</time>
      </trkpt>
      <trkpt lat="43.18441" lon="3.17572">
        <ele>40</ele>
        <time>2024-03-31T08:06:15.513Z</time>
      </trkpt>
      <trkpt lat="43.18444" lon="3.17565">
        <ele>42</ele>
        <time>2024-03-31T08:06:20.513Z</time>
      </trkpt>
      <trkpt lat="43.18447" lon="3.17559">
        <ele>42</ele>
        <time>2024-03-31T08:06:25.513Z</time>
      </trkpt>
      <trkpt lat="43.1845" lon="3.17554">
        <ele>42</ele>
        <time>2024-03-31T08:06:29.513Z</time>
      </trkpt>
      <trkpt lat="43.18453" lon="3.17548">
        <ele>42</ele>
        <time>2024-03-31T08:06:34.513Z</time>
      </trkpt>
      <trkpt lat="43.18457" lon="3.17543">
        <ele>42</ele>
        <time>2024-03-31T08:06:38.513Z</time>
      </trkpt>
      <trkpt lat="43.18461" lon="3.17536">
        <ele>40</ele>
        <time>2024-03-31T08:06:43.513Z</time>
      </trkpt>
      <trkpt lat="43.18464" lon="3.17531">
        <ele>40</ele>
        <time>2024-03-31T08:06:48.513Z</time>
      </trkpt>
      <trkpt lat="43.18467" lon="3.17525">
        <ele>40</ele>
        <time>2024-03-31T08:06:53.513Z</time>
      </trkpt>
      <trkpt lat="43.18472" lon="3.17519">
        <ele>40</ele>
        <time>2024-03-31T08:06:58.513Z</time>
      </trkpt>
      <trkpt lat="43.18476" lon="3.17514">
        <ele>41</ele>
        <time>2024-03-31T08:07:03.513Z</time>
      </trkpt>
      <trkpt lat="43.1848" lon="3.17508">
        <ele>41</ele>
        <time>2024-03-31T08:07:08.513Z</time>
      </trkpt>
      <trkpt lat="43.18482" lon="3.17503">
        <ele>41</ele>
        <time>2024-03-31T08:07:12.513Z</time>
      </trkpt>
      <trkpt lat="43.18487" lon="3.17497">
        <ele>38</ele>
        <time>2024-03-31T08:07:17.513Z</time>
      </trkpt>
      <trkpt lat="43.18492" lon="3.17492">
        <ele>38</ele>
        <time>2024-03-31T08:07:22.513Z</time>
      </trkpt>
      <trkpt lat="43.18496" lon="3.17486">
        <ele>38</ele>
        <time>2024-03-31T08:07:27.513Z</time>
      </trkpt>
      <trkpt lat="43.18499" lon="3.1748">
        <ele>38</ele>
        <time>2024-03-31T08:07:32.513Z</time>
      </trkpt>
      <trkpt lat="43.18503" lon="3.17474">
        <ele>38</ele>
        <time>2024-03-31T08:07:37.513Z</time>
      </trkpt>
      <trkpt lat="43.18506" lon="3.17469">
        <ele>38</ele>
        <time>2024-03-31T08:07:41.513Z</time>
      </trkpt>
      <trkpt lat="43.1851" lon="3.17462">
        <ele>38</ele>
        <time>2024-03-31T08:07:46.513Z</time>
      </trkpt>
      <trkpt lat="43.18513" lon="3.17457">
        <ele>40</ele>
        <time>2024-03-31T08:07:50.513Z</time>
      </trkpt>
      <trkpt lat="43.18517" lon="3.17451">
        <ele>38</ele>
        <time>2024-03-31T08:07:55.513Z</time>
      </trkpt>
      <trkpt lat="43.18519" lon="3.17446">
        <ele>38</ele>
        <time>2024-03-31T08:07:59.513Z</time>
      </trkpt>
      <trkpt lat="43.18522" lon="3.1744">
        <ele>38</ele>
        <time>2024-03-31T08:08:04.513Z</time>
      </trkpt>
      <trkpt lat="43.18526" lon="3.17433">
        <ele>38</ele>
        <time>2024-03-31T08:08:09.513Z</time>
      </trkpt>
      <trkpt lat="43.18529" lon="3.17427">
        <ele>40</ele>
        <time>2024-03-31T08:08:14.513Z</time>
      </trkpt>
      <trkpt lat="43.18531" lon="3.1742">
        <ele>40</ele>
        <time>2024-03-31T08:08:19.513Z</time>
      </trkpt>
      <trkpt lat="43.18534" lon="3.17415">
        <ele>40</ele>
        <time>2024-03-31T08:08:23.513Z</time>
      </trkpt>
      <trkpt lat="43.18538" lon="3.17409">
        <ele>40</ele>
        <time>2024-03-31T08:08:27.513Z</time>
      </trkpt>
      <trkpt lat="43.1854" lon="3.17401">
        <ele>40</ele>
        <time>2024-03-31T08:08:32.513Z</time>
      </trkpt>
      <trkpt lat="43.18543" lon="3.17394">
        <ele>37</ele>
        <time>2024-03-31T08:08:37.513Z</time>
      </trkpt>
      <trkpt lat="43.18545" lon="3.17388">
        <ele>37</ele>
        <time>2024-03-31T08:08:42.513Z</time>
      </trkpt>
      <trkpt lat="43.18548" lon="3.17382">
        <ele>37</ele>
        <time>2024-03-31T08:08:46.513Z</time>
      </trkpt>
      <trkpt lat="43.1855" lon="3.17375">
        <ele>37</ele>
        <time>2024-03-31T08:08:51.513Z</time>
      </trkpt>
      <trkpt lat="43.18551" lon="3.17368">
        <ele>37</ele>
        <time>2024-03-31T08:08:56.513Z</time>
      </trkpt>
      <trkpt lat="43.18553" lon="3.1736">
        <ele>37</ele>
        <time>2024-03-31T08:09:01.513Z</time>
      </trkpt>
      <trkpt lat="43.18555" lon="3.17354">
        <ele>37</ele>
        <time>2024-03-31T08:09:06.513Z</time>
      </trkpt>
      <trkpt lat="43.18557" lon="3.17345">
        <ele>39</ele>
        <time>2024-03-31T08:09:11.513Z</time>
      </trkpt>
      <trkpt lat="43.18559" lon="3.17339">
        <ele>39</ele>
        <time>2024-03-31T08:09:16.513Z</time>
      </trkpt>
      <trkpt lat="43.18561" lon="3.17332">
        <ele>39</ele>
        <time>2024-03-31T08:09:21.513Z</time>
      </trkpt>
      <trkpt lat="43.18562" lon="3.17324">
        <ele>39</ele>
        <time>2024-03-31T08:09:26.513Z</time>
      </trkpt>
      <trkpt lat="43.18562" lon="3.17319">
        <ele>42</ele>
        <time>2024-03-31T08:09:31.513Z</time>
      </trkpt>
      <trkpt lat="43.18564" lon="3.17315">
        <ele>42</ele>
        <time>2024-03-31T08:09:35.513Z</time>
      </trkpt>
      <trkpt lat="43.18564" lon="3.17307">
        <ele>42</ele>
        <time>2024-03-31T08:09:40.513Z</time>
      </trkpt>
      <trkpt lat="43.18566" lon="3.17301">
        <ele>42</ele>
        <time>2024-03-31T08:09:44.513Z</time>
      </trkpt>
      <trkpt lat="43.18567" lon="3.17295">
        <ele>42</ele>
        <time>2024-03-31T08:09:48.513Z</time>
      </trkpt>
      <trkpt lat="43.18568" lon="3.17288">
        <ele>45</ele>
        <time>2024-03-31T08:09:53.513Z</time>
      </trkpt>
      <trkpt lat="43.18569" lon="3.1728">
        <ele>45</ele>
        <time>2024-03-31T08:09:58.513Z</time>
      </trkpt>
      <trkpt lat="43.1857" lon="3.17273">
        <ele>42</ele>
        <time>2024-03-31T08:10:03.513Z</time>
      </trkpt>
      <trkpt lat="43.18572" lon="3.17266">
        <ele>42</ele>
        <time>2024-03-31T08:10:08.513Z</time>
      </trkpt>
      <trkpt lat="43.18573" lon="3.1726">
        <ele>43</ele>
        <time>2024-03-31T08:10:13.513Z</time>
      </trkpt>
      <trkpt lat="43.18574" lon="3.17252">
        <ele>43</ele>
        <time>2024-03-31T08:10:18.513Z</time>
      </trkpt>
      <trkpt lat="43.18575" lon="3.17245">
        <ele>43</ele>
        <time>2024-03-31T08:10:23.513Z</time>
      </trkpt>
      <trkpt lat="43.18576" lon="3.17238">
        <ele>43</ele>
        <time>2024-03-31T08:10:28.513Z</time>
      </trkpt>
      <trkpt lat="43.18577" lon="3.1723">
        <ele>45</ele>
        <time>2024-03-31T08:10:33.513Z</time>
      </trkpt>
      <trkpt lat="43.18578" lon="3.17225">
        <ele>45</ele>
        <time>2024-03-31T08:10:37.513Z</time>
      </trkpt>
      <trkpt lat="43.18578" lon="3.17218">
        <ele>45</ele>
        <time>2024-03-31T08:10:42.513Z</time>
      </trkpt>
      <trkpt lat="43.18579" lon="3.1721">
        <ele>45</ele>
        <time>2024-03-31T08:10:47.513Z</time>
      </trkpt>
      <trkpt lat="43.1858" lon="3.17202">
        <ele>46</ele>
        <time>2024-03-31T08:10:52.513Z</time>
      </trkpt>
      <trkpt lat="43.1858" lon="3.17196">
        <ele>46</ele>
        <time>2024-03-31T08:10:57.513Z</time>
      </trkpt>
      <trkpt lat="43.18581" lon="3.17189">
        <ele>46</ele>
        <time>2024-03-31T08:11:02.513Z</time>
      </trkpt>
      <trkpt lat="43.18581" lon="3.17183">
        <ele>46</ele>
        <time>2024-03-31T08:11:06.513Z</time>
      </trkpt>
      <trkpt lat="43.18582" lon="3.17174">
        <ele>46</ele>
        <time>2024-03-31T08:11:11.513Z</time>
      </trkpt>
      <trkpt lat="43.18583" lon="3.17165">
        <ele>46</ele>
        <time>2024-03-31T08:11:16.513Z</time>
      </trkpt>
      <trkpt lat="43.18583" lon="3.1716">
        <ele>46</ele>
        <time>2024-03-31T08:11:20.513Z</time>
      </trkpt>
      <trkpt lat="43.18586" lon="3.17153">
        <ele>47</ele>
        <time>2024-03-31T08:11:25.513Z</time>
      </trkpt>
      <trkpt lat="43.18591" lon="3.1715">
        <ele>47</ele>
        <time>2024-03-31T08:11:30.513Z</time>
      </trkpt>
      <trkpt lat="43.18593" lon="3.17149">
        <ele>47</ele>
        <time>2024-03-31T08:11:35.513Z</time>
      </trkpt>
      <trkpt lat="43.18597" lon="3.17146">
        <ele>47</ele>
        <time>2024-03-31T08:11:40.513Z</time>
      </trkpt>
      <trkpt lat="43.18601" lon="3.17145">
        <ele>44</ele>
        <time>2024-03-31T08:11:45.513Z</time>
      </trkpt>
      <trkpt lat="43.18606" lon="3.17143">
        <ele>44</ele>
        <time>2024-03-31T08:11:50.513Z</time>
      </trkpt>
      <trkpt lat="43.1861" lon="3.17141">
        <ele>44</ele>
        <time>2024-03-31T08:11:55.513Z</time>
      </trkpt>
      <trkpt lat="43.18614" lon="3.17138">
        <ele>44</ele>
        <time>2024-03-31T08:12:00.513Z</time>
      </trkpt>
      <trkpt lat="43.18617" lon="3.17136">
        <ele>44</ele>
        <time>2024-03-31T08:12:05.513Z</time>
      </trkpt>
      <trkpt lat="43.18623" lon="3.17133">
        <ele>44</ele>
        <time>2024-03-31T08:12:10.513Z</time>
      </trkpt>
      <trkpt lat="43.18629" lon="3.17132">
        <ele>42</ele>
        <time>2024-03-31T08:12:15.513Z</time>
      </trkpt>
      <trkpt lat="43.18634" lon="3.17131">
        <ele>42</ele>
        <time>2024-03-31T08:12:19.513Z</time>
      </trkpt>
      <trkpt lat="43.18644" lon="3.1713">
        <ele>42</ele>
        <time>2024-03-31T08:12:24.513Z</time>
      </trkpt>
      <trkpt lat="43.18651" lon="3.1713">
        <ele>42</ele>
        <time>2024-03-31T08:12:29.513Z</time>
      </trkpt>
      <trkpt lat="43.18655" lon="3.1713">
        <ele>40</ele>
        <time>2024-03-31T08:12:33.513Z</time>
      </trkpt>
      <trkpt lat="43.18662" lon="3.1713">
        <ele>40</ele>
        <time>2024-03-31T08:12:38.513Z</time>
      </trkpt>
      <trkpt lat="43.18668" lon="3.17132">
        <ele>40</ele>
        <time>2024-03-31T08:12:43.513Z</time>
      </trkpt>
      <trkpt lat="43.18673" lon="3.17134">
        <ele>40</ele>
        <time>2024-03-31T08:12:48.514Z</time>
      </trkpt>
      <trkpt lat="43.18678" lon="3.17134">
        <ele>40</ele>
        <time>2024-03-31T08:12:53.514Z</time>
      </trkpt>
      <trkpt lat="43.18682" lon="3.17134">
        <ele>39</ele>
        <time>2024-03-31T08:12:58.514Z</time>
      </trkpt>
      <trkpt lat="43.18688" lon="3.17134">
        <ele>39</ele>
        <time>2024-03-31T08:13:03.514Z</time>
      </trkpt>
      <trkpt lat="43.18695" lon="3.17134">
        <ele>39</ele>
        <time>2024-03-31T08:13:08.514Z</time>
      </trkpt>
      <trkpt lat="43.18702" lon="3.17134">
        <ele>39</ele>
        <time>2024-03-31T08:13:13.514Z</time>
      </trkpt>
      <trkpt lat="43.18707" lon="3.17132">
        <ele>39</ele>
        <time>2024-03-31T08:13:18.514Z</time>
      </trkpt>
      <trkpt lat="43.18713" lon="3.17132">
        <ele>41</ele>
        <time>2024-03-31T08:13:23.514Z</time>
      </trkpt>
      <trkpt lat="43.18718" lon="3.17131">
        <ele>41</ele>
        <time>2024-03-31T08:13:28.514Z</time>
      </trkpt>
      <trkpt lat="43.18725" lon="3.17129">
        <ele>41</ele>
        <time>2024-03-31T08:13:33.514Z</time>
      </trkpt>
      <trkpt lat="43.1873" lon="3.17128">
        <ele>41</ele>
        <time>2024-03-31T08:13:37.514Z</time>
      </trkpt>
      <trkpt lat="43.18736" lon="3.17127">
        <ele>41</ele>
        <time>2024-03-31T08:13:42.514Z</time>
      </trkpt>
      <trkpt lat="43.18741" lon="3.17126">
        <ele>45</ele>
        <time>2024-03-31T08:13:47.514Z</time>
      </trkpt>
      <trkpt lat="43.18747" lon="3.17125">
        <ele>42</ele>
        <time>2024-03-31T08:13:52.514Z</time>
      </trkpt>
      <trkpt lat="43.18751" lon="3.17123">
        <ele>42</ele>
        <time>2024-03-31T08:13:57.514Z</time>
      </trkpt>
      <trkpt lat="43.18756" lon="3.17123">
        <ele>42</ele>
        <time>2024-03-31T08:14:01.514Z</time>
      </trkpt>
      <trkpt lat="43.1876" lon="3.17121">
        <ele>42</ele>
        <time>2024-03-31T08:14:06.514Z</time>
      </trkpt>
      <trkpt lat="43.18765" lon="3.1712">
        <ele>44</ele>
        <time>2024-03-31T08:14:11.514Z</time>
      </trkpt>
      <trkpt lat="43.18769" lon="3.17118">
        <ele>44</ele>
        <time>2024-03-31T08:14:16.514Z</time>
      </trkpt>
      <trkpt lat="43.18772" lon="3.17116">
        <ele>44</ele>
        <time>2024-03-31T08:14:21.514Z</time>
      </trkpt>
      <trkpt lat="43.18778" lon="3.17114">
        <ele>44</ele>
        <time>2024-03-31T08:14:26.514Z</time>
      </trkpt>
      <trkpt lat="43.18783" lon="3.17113">
        <ele>44</ele>
        <time>2024-03-31T08:14:30.514Z</time>
      </trkpt>
      <trkpt lat="43.18788" lon="3.17113">
        <ele>44</ele>
        <time>2024-03-31T08:14:35.514Z</time>
      </trkpt>
      <trkpt lat="43.18792" lon="3.17112">
        <ele>47</ele>
        <time>2024-03-31T08:14:39.514Z</time>
      </trkpt>
      <trkpt lat="43.18797" lon="3.17112">
        <ele>47</ele>
        <time>2024-03-31T08:14:44.514Z</time>
      </trkpt>
      <trkpt lat="43.18802" lon="3.17111">
        <ele>47</ele>
        <time>2024-03-31T08:14:49.514Z</time>
      </trkpt>
      <trkpt lat="43.18808" lon="3.17109">
        <ele>47</ele>
        <time>2024-03-31T08:14:54.514Z</time>
      </trkpt>
      <trkpt lat="43.18813" lon="3.17107">
        <ele>47</ele>
        <time>2024-03-31T08:14:59.514Z</time>
      </trkpt>
      <trkpt lat="43.18821" lon="3.17106">
        <ele>49</ele>
        <time>2024-03-31T08:15:04.514Z</time>
      </trkpt>
      <trkpt lat="43.18827" lon="3.17104">
        <ele>49</ele>
        <time>2024-03-31T08:15:09.514Z</time>
      </trkpt>
      <trkpt lat="43.18832" lon="3.17102">
        <ele>49</ele>
        <time>2024-03-31T08:15:14.514Z</time>
      </trkpt>
      <trkpt lat="43.18836" lon="3.17099">
        <ele>49</ele>
        <time>2024-03-31T08:15:19.514Z</time>
      </trkpt>
      <trkpt lat="43.18841" lon="3.17097">
        <ele>49</ele>
        <time>2024-03-31T08:15:24.514Z</time>
      </trkpt>
      <trkpt lat="43.18844" lon="3.17095">
        <ele>47</ele>
        <time>2024-03-31T08:15:29.514Z</time>
      </trkpt>
      <trkpt lat="43.18848" lon="3.17094">
        <ele>48</ele>
        <time>2024-03-31T08:15:34.514Z</time>
      </trkpt>
      <trkpt lat="43.18853" lon="3.17094">
        <ele>48</ele>
        <time>2024-03-31T08:15:38.514Z</time>
      </trkpt>
      <trkpt lat="43.18859" lon="3.17094">
        <ele>48</ele>
        <time>2024-03-31T08:15:43.514Z</time>
      </trkpt>
      <trkpt lat="43.18866" lon="3.17095">
        <ele>48</ele>
        <time>2024-03-31T08:15:48.514Z</time>
      </trkpt>
      <trkpt lat="43.18871" lon="3.17095">
        <ele>48</ele>
        <time>2024-03-31T08:15:53.514Z</time>
      </trkpt>
      <trkpt lat="43.18874" lon="3.17095">
        <ele>48</ele>
        <time>2024-03-31T08:15:57.514Z</time>
      </trkpt>
      <trkpt lat="43.18879" lon="3.17094">
        <ele>48</ele>
        <time>2024-03-31T08:16:02.514Z</time>
      </trkpt>
      <trkpt lat="43.18884" lon="3.17096">
        <ele>48</ele>
        <time>2024-03-31T08:16:07.514Z</time>
      </trkpt>
      <trkpt lat="43.18888" lon="3.17098">
        <ele>53</ele>
        <time>2024-03-31T08:16:12.514Z</time>
      </trkpt>
      <trkpt lat="43.18891" lon="3.17097">
        <ele>48</ele>
        <time>2024-03-31T08:16:17.514Z</time>
      </trkpt>
      <trkpt lat="43.18894" lon="3.17097">
        <ele>53</ele>
        <time>2024-03-31T08:16:22.514Z</time>
      </trkpt>
      <trkpt lat="43.189" lon="3.17099">
        <ele>53</ele>
        <time>2024-03-31T08:16:27.514Z</time>
      </trkpt>
      <trkpt lat="43.18904" lon="3.171">
        <ele>55</ele>
        <time>2024-03-31T08:16:32.514Z</time>
      </trkpt>
      <trkpt lat="43.18908" lon="3.17101">
        <ele>55</ele>
        <time>2024-03-31T08:16:37.514Z</time>
      </trkpt>
      <trkpt lat="43.18914" lon="3.17105">
        <ele>55</ele>
        <time>2024-03-31T08:16:42.514Z</time>
      </trkpt>
      <trkpt lat="43.18922" lon="3.17109">
        <ele>55</ele>
        <time>2024-03-31T08:16:47.514Z</time>
      </trkpt>
      <trkpt lat="43.18926" lon="3.1711">
        <ele>55</ele>
        <time>2024-03-31T08:16:51.514Z</time>
      </trkpt>
      <trkpt lat="43.1893" lon="3.17114">
        <ele>55</ele>
        <time>2024-03-31T08:16:56.514Z</time>
      </trkpt>
      <trkpt lat="43.18933" lon="3.17117">
        <ele>57</ele>
        <time>2024-03-31T08:17:01.514Z</time>
      </trkpt>
      <trkpt lat="43.18936" lon="3.1712">
        <ele>57</ele>
        <time>2024-03-31T08:17:06.514Z</time>
      </trkpt>
      <trkpt lat="43.18938" lon="3.17122">
        <ele>57</ele>
        <time>2024-03-31T08:17:11.514Z</time>
      </trkpt>
      <trkpt lat="43.18942" lon="3.17127">
        <ele>60</ele>
        <time>2024-03-31T08:17:16.514Z</time>
      </trkpt>
      <trkpt lat="43.18946" lon="3.17131">
        <ele>60</ele>
        <time>2024-03-31T08:17:20.514Z</time>
      </trkpt>
      <trkpt lat="43.18949" lon="3.17136">
        <ele>60</ele>
        <time>2024-03-31T08:17:25.514Z</time>
      </trkpt>
      <trkpt lat="43.18949" lon="3.17138">
        <ele>60</ele>
        <time>2024-03-31T08:17:30.514Z</time>
      </trkpt>
      <trkpt lat="43.18951" lon="3.17142">
        <ele>60</ele>
        <time>2024-03-31T08:17:35.514Z</time>
      </trkpt>
      <trkpt lat="43.18952" lon="3.17143">
        <ele>60</ele>
        <time>2024-03-31T08:17:39.514Z</time>
      </trkpt>
      <trkpt lat="43.18953" lon="3.17142">
        <ele>60</ele>
        <time>2024-03-31T08:17:43.514Z</time>
      </trkpt>
      <trkpt lat="43.18956" lon="3.17145">
        <ele>60</ele>
        <time>2024-03-31T08:17:48.514Z</time>
      </trkpt>
      <trkpt lat="43.18959" lon="3.1715">
        <ele>61</ele>
        <time>2024-03-31T08:17:53.514Z</time>
      </trkpt>
      <trkpt lat="43.18961" lon="3.17153">
        <ele>60</ele>
        <time>2024-03-31T08:17:57.514Z</time>
      </trkpt>
      <trkpt lat="43.18965" lon="3.17161">
        <ele>60</ele>
        <time>2024-03-31T08:19:04.514Z</time>
      </trkpt>
      <trkpt lat="43.18969" lon="3.17163">
        <ele>60</ele>
        <time>2024-03-31T08:19:09.514Z</time>
      </trkpt>
      <trkpt lat="43.18975" lon="3.17165">
        <ele>60</ele>
        <time>2024-03-31T08:19:14.514Z</time>
      </trkpt>
      <trkpt lat="43.1898" lon="3.17166">
        <ele>60</ele>
        <time>2024-03-31T08:19:19.514Z</time>
      </trkpt>
      <trkpt lat="43.18983" lon="3.17168">
        <ele>60</ele>
        <time>2024-03-31T08:19:23.514Z</time>
      </trkpt>
      <trkpt lat="43.18985" lon="3.17168">
        <ele>60</ele>
        <time>2024-03-31T08:19:28.514Z</time>
      </trkpt>
      <trkpt lat="43.18986" lon="3.17167">
        <ele>60</ele>
        <time>2024-03-31T08:19:33.514Z</time>
      </trkpt>
      <trkpt lat="43.18988" lon="3.17168">
        <ele>59</ele>
        <time>2024-03-31T08:19:37.514Z</time>
      </trkpt>
      <trkpt lat="43.18992" lon="3.1717">
        <ele>59</ele>
        <time>2024-03-31T08:19:42.514Z</time>
      </trkpt>
      <trkpt lat="43.18996" lon="3.17171">
        <ele>59</ele>
        <time>2024-03-31T08:19:46.514Z</time>
      </trkpt>
      <trkpt lat="43.19" lon="3.17174">
        <ele>59</ele>
        <time>2024-03-31T08:19:50.514Z</time>
      </trkpt>
      <trkpt lat="43.19004" lon="3.17176">
        <ele>59</ele>
        <time>2024-03-31T08:19:55.514Z</time>
      </trkpt>
      <trkpt lat="43.19007" lon="3.17179">
        <ele>59</ele>
        <time>2024-03-31T08:19:59.514Z</time>
      </trkpt>
      <trkpt lat="43.1901" lon="3.17182">
        <ele>56</ele>
        <time>2024-03-31T08:20:04.514Z</time>
      </trkpt>
      <trkpt lat="43.19013" lon="3.17183">
        <ele>56</ele>
        <time>2024-03-31T08:20:08.514Z</time>
      </trkpt>
      <trkpt lat="43.19017" lon="3.17185">
        <ele>56</ele>
        <time>2024-03-31T08:20:13.514Z</time>
      </trkpt>
      <trkpt lat="43.19021" lon="3.17186">
        <ele>56</ele>
        <time>2024-03-31T08:20:17.514Z</time>
      </trkpt>
      <trkpt lat="43.19026" lon="3.17188">
        <ele>56</ele>
        <time>2024-03-31T08:20:22.514Z</time>
      </trkpt>
      <trkpt lat="43.19031" lon="3.1719">
        <ele>56</ele>
        <time>2024-03-31T08:20:27.514Z</time>
      </trkpt>
      <trkpt lat="43.19035" lon="3.17191">
        <ele>56</ele>
        <time>2024-03-31T08:20:31.514Z</time>
      </trkpt>
      <trkpt lat="43.19039" lon="3.17191">
        <ele>56</ele>
        <time>2024-03-31T08:20:35.514Z</time>
      </trkpt>
      <trkpt lat="43.19044" lon="3.17191">
        <ele>56</ele>
        <time>2024-03-31T08:20:40.514Z</time>
      </trkpt>
      <trkpt lat="43.19048" lon="3.1719">
        <ele>56</ele>
        <time>2024-03-31T08:20:45.514Z</time>
      </trkpt>
      <trkpt lat="43.19053" lon="3.17191">
        <ele>56</ele>
        <time>2024-03-31T08:20:50.514Z</time>
      </trkpt>
      <trkpt lat="43.19058" lon="3.17192">
        <ele>56</ele>
        <time>2024-03-31T08:20:55.514Z</time>
      </trkpt>
      <trkpt lat="43.19059" lon="3.17192">
        <ele>56</ele>
        <time>2024-03-31T08:21:00.514Z</time>
      </trkpt>
      <trkpt lat="43.19061" lon="3.1719">
        <ele>56</ele>
        <time>2024-03-31T08:22:04.514Z</time>
      </trkpt>
      <trkpt lat="43.19065" lon="3.1719">
        <ele>56</ele>
        <time>2024-03-31T08:22:08.514Z</time>
      </trkpt>
      <trkpt lat="43.19069" lon="3.17191">
        <ele>56</ele>
        <time>2024-03-31T08:22:12.514Z</time>
      </trkpt>
      <trkpt lat="43.19074" lon="3.17193">
        <ele>54</ele>
        <time>2024-03-31T08:22:17.514Z</time>
      </trkpt>
      <trkpt lat="43.1908" lon="3.17193">
        <ele>54</ele>
        <time>2024-03-31T08:22:22.514Z</time>
      </trkpt>
      <trkpt lat="43.19084" lon="3.17192">
        <ele>54</ele>
        <time>2024-03-31T08:22:26.514Z</time>
      </trkpt>
      <trkpt lat="43.1909" lon="3.1719">
        <ele>54</ele>
        <time>2024-03-31T08:22:31.514Z</time>
      </trkpt>
      <trkpt lat="43.19093" lon="3.17191">
        <ele>54</ele>
        <time>2024-03-31T08:22:35.514Z</time>
      </trkpt>
      <trkpt lat="43.19098" lon="3.17186">
        <ele>53</ele>
        <time>2024-03-31T08:22:40.514Z</time>
      </trkpt>
      <trkpt lat="43.19102" lon="3.17183">
        <ele>53</ele>
        <time>2024-03-31T08:22:44.514Z</time>
      </trkpt>
      <trkpt lat="43.19107" lon="3.1718">
        <ele>53</ele>
        <time>2024-03-31T08:22:49.514Z</time>
      </trkpt>
      <trkpt lat="43.19111" lon="3.17175">
        <ele>53</ele>
        <time>2024-03-31T08:22:53.514Z</time>
      </trkpt>
      <trkpt lat="43.19116" lon="3.17168">
        <ele>53</ele>
        <time>2024-03-31T08:22:58.514Z</time>
      </trkpt>
      <trkpt lat="43.19117" lon="3.1716">
        <ele>53</ele>
        <time>2024-03-31T08:23:03.514Z</time>
      </trkpt>
      <trkpt lat="43.19119" lon="3.17153">
        <ele>53</ele>
        <time>2024-03-31T08:23:08.514Z</time>
      </trkpt>
      <trkpt lat="43.1912" lon="3.17144">
        <ele>52</ele>
        <time>2024-03-31T08:23:13.514Z</time>
      </trkpt>
      <trkpt lat="43.1912" lon="3.17137">
        <ele>52</ele>
        <time>2024-03-31T08:23:18.514Z</time>
      </trkpt>
      <trkpt lat="43.19121" lon="3.17131">
        <ele>52</ele>
        <time>2024-03-31T08:23:22.514Z</time>
      </trkpt>
      <trkpt lat="43.19125" lon="3.17126">
        <ele>52</ele>
        <time>2024-03-31T08:23:27.514Z</time>
      </trkpt>
      <trkpt lat="43.19129" lon="3.17125">
        <ele>53</ele>
        <time>2024-03-31T08:23:32.514Z</time>
      </trkpt>
      <trkpt lat="43.19134" lon="3.17122">
        <ele>52</ele>
        <time>2024-03-31T08:23:37.514Z</time>
      </trkpt>
      <trkpt lat="43.19141" lon="3.1712">
        <ele>52</ele>
        <time>2024-03-31T08:23:42.514Z</time>
      </trkpt>
      <trkpt lat="43.19145" lon="3.17115">
        <ele>52</ele>
        <time>2024-03-31T08:23:47.514Z</time>
      </trkpt>
      <trkpt lat="43.1915" lon="3.17113">
        <ele>52</ele>
        <time>2024-03-31T08:23:52.514Z</time>
      </trkpt>
      <trkpt lat="43.19153" lon="3.17109">
        <ele>52</ele>
        <time>2024-03-31T08:23:57.514Z</time>
      </trkpt>
      <trkpt lat="43.19157" lon="3.17105">
        <ele>56</ele>
        <time>2024-03-31T08:24:02.514Z</time>
      </trkpt>
      <trkpt lat="43.19163" lon="3.17102">
        <ele>56</ele>
        <time>2024-03-31T08:24:07.514Z</time>
      </trkpt>
      <trkpt lat="43.19166" lon="3.171">
        <ele>56</ele>
        <time>2024-03-31T08:24:12.514Z</time>
      </trkpt>
      <trkpt lat="43.19169" lon="3.17097">
        <ele>55</ele>
        <time>2024-03-31T08:24:17.514Z</time>
      </trkpt>
      <trkpt lat="43.19174" lon="3.17095">
        <ele>55</ele>
        <time>2024-03-31T08:24:22.514Z</time>
      </trkpt>
      <trkpt lat="43.1918" lon="3.17095">
        <ele>55</ele>
        <time>2024-03-31T08:24:27.514Z</time>
      </trkpt>
      <trkpt lat="43.19188" lon="3.17094">
        <ele>59</ele>
        <time>2024-03-31T08:24:32.514Z</time>
      </trkpt>
      <trkpt lat="43.19192" lon="3.17091">
        <ele>59</ele>
        <time>2024-03-31T08:24:37.514Z</time>
      </trkpt>
      <trkpt lat="43.19195" lon="3.17095">
        <ele>59</ele>
        <time>2024-03-31T08:24:42.514Z</time>
      </trkpt>
      <trkpt lat="43.19198" lon="3.17103">
        <ele>59</ele>
        <time>2024-03-31T08:24:47.514Z</time>
      </trkpt>
      <trkpt lat="43.19203" lon="3.17114">
        <ele>59</ele>
        <time>2024-03-31T08:24:52.514Z</time>
      </trkpt>
      <trkpt lat="43.19207" lon="3.17115">
        <ele>59</ele>
        <time>2024-03-31T08:24:57.514Z</time>
      </trkpt>
      <trkpt lat="43.1921" lon="3.17123">
        <ele>63</ele>
        <time>2024-03-31T08:25:02.514Z</time>
      </trkpt>
      <trkpt lat="43.19213" lon="3.1713">
        <ele>61</ele>
        <time>2024-03-31T08:25:07.514Z</time>
      </trkpt>
      <trkpt lat="43.19214" lon="3.17132">
        <ele>61</ele>
        <time>2024-03-31T08:25:11.514Z</time>
      </trkpt>
      <trkpt lat="43.19219" lon="3.17133">
        <ele>61</ele>
        <time>2024-03-31T08:25:16.514Z</time>
      </trkpt>
      <trkpt lat="43.19227" lon="3.17135">
        <ele>61</ele>
        <time>2024-03-31T08:25:21.514Z</time>
      </trkpt>
      <trkpt lat="43.19235" lon="3.17135">
        <ele>61</ele>
        <time>2024-03-31T08:25:26.515Z</time>
      </trkpt>
      <trkpt lat="43.19241" lon="3.17135">
        <ele>59</ele>
        <time>2024-03-31T08:25:31.515Z</time>
      </trkpt>
      <trkpt lat="43.19246" lon="3.17134">
        <ele>59</ele>
        <time>2024-03-31T08:25:35.515Z</time>
      </trkpt>
      <trkpt lat="43.19251" lon="3.17132">
        <ele>59</ele>
        <time>2024-03-31T08:25:40.515Z</time>
      </trkpt>
      <trkpt lat="43.19253" lon="3.1713">
        <ele>59</ele>
        <time>2024-03-31T08:25:44.515Z</time>
      </trkpt>
      <trkpt lat="43.19258" lon="3.17129">
        <ele>59</ele>
        <time>2024-03-31T08:25:49.515Z</time>
      </trkpt>
      <trkpt lat="43.19263" lon="3.17127">
        <ele>59</ele>
        <time>2024-03-31T08:25:54.515Z</time>
      </trkpt>
      <trkpt lat="43.19267" lon="3.17123">
        <ele>60</ele>
        <time>2024-03-31T08:25:59.515Z</time>
      </trkpt>
      <trkpt lat="43.1927" lon="3.1712">
        <ele>60</ele>
        <time>2024-03-31T08:26:04.515Z</time>
      </trkpt>
      <trkpt lat="43.19273" lon="3.17117">
        <ele>60</ele>
        <time>2024-03-31T08:26:09.515Z</time>
      </trkpt>
      <trkpt lat="43.19276" lon="3.17113">
        <ele>60</ele>
        <time>2024-03-31T08:26:14.515Z</time>
      </trkpt>
      <trkpt lat="43.19279" lon="3.1711">
        <ele>60</ele>
        <time>2024-03-31T08:26:19.515Z</time>
      </trkpt>
      <trkpt lat="43.19283" lon="3.17105">
        <ele>60</ele>
        <time>2024-03-31T08:26:23.515Z</time>
      </trkpt>
      <trkpt lat="43.19288" lon="3.17103">
        <ele>60</ele>
        <time>2024-03-31T08:26:28.515Z</time>
      </trkpt>
      <trkpt lat="43.19291" lon="3.17101">
        <ele>60</ele>
        <time>2024-03-31T08:26:33.515Z</time>
      </trkpt>
      <trkpt lat="43.19294" lon="3.17099">
        <ele>59</ele>
        <time>2024-03-31T08:26:38.515Z</time>
      </trkpt>
      <trkpt lat="43.19302" lon="3.17095">
        <ele>63</ele>
        <time>2024-03-31T08:26:43.515Z</time>
      </trkpt>
      <trkpt lat="43.19306" lon="3.17092">
        <ele>63</ele>
        <time>2024-03-31T08:26:47.515Z</time>
      </trkpt>
      <trkpt lat="43.1931" lon="3.17089">
        <ele>63</ele>
        <time>2024-03-31T08:26:51.515Z</time>
      </trkpt>
      <trkpt lat="43.19312" lon="3.17082">
        <ele>63</ele>
        <time>2024-03-31T08:26:56.515Z</time>
      </trkpt>
      <trkpt lat="43.19314" lon="3.17077">
        <ele>63</ele>
        <time>2024-03-31T08:27:00.515Z</time>
      </trkpt>
      <trkpt lat="43.19316" lon="3.17072">
        <ele>63</ele>
        <time>2024-03-31T08:27:05.515Z</time>
      </trkpt>
      <trkpt lat="43.19317" lon="3.17067">
        <ele>67</ele>
        <time>2024-03-31T08:27:09.515Z</time>
      </trkpt>
      <trkpt lat="43.19318" lon="3.1706">
        <ele>67</ele>
        <time>2024-03-31T08:27:14.515Z</time>
      </trkpt>
      <trkpt lat="43.19319" lon="3.17056">
        <ele>67</ele>
        <time>2024-03-31T08:27:18.515Z</time>
      </trkpt>
      <trkpt lat="43.1932" lon="3.1705">
        <ele>64</ele>
        <time>2024-03-31T08:27:22.515Z</time>
      </trkpt>
      <trkpt lat="43.1932" lon="3.17042">
        <ele>64</ele>
        <time>2024-03-31T08:27:27.515Z</time>
      </trkpt>
      <trkpt lat="43.1932" lon="3.17036">
        <ele>67</ele>
        <time>2024-03-31T08:27:31.515Z</time>
      </trkpt>
      <trkpt lat="43.19321" lon="3.17031">
        <ele>67</ele>
        <time>2024-03-31T08:27:35.515Z</time>
      </trkpt>
      <trkpt lat="43.19322" lon="3.17022">
        <ele>67</ele>
        <time>2024-03-31T08:27:40.515Z</time>
      </trkpt>
      <trkpt lat="43.19324" lon="3.17014">
        <ele>69</ele>
        <time>2024-03-31T08:27:45.515Z</time>
      </trkpt>
      <trkpt lat="43.19328" lon="3.17009">
        <ele>69</ele>
        <time>2024-03-31T08:27:50.515Z</time>
      </trkpt>
      <trkpt lat="43.1933" lon="3.17006">
        <ele>69</ele>
        <time>2024-03-31T08:27:55.515Z</time>
      </trkpt>
      <trkpt lat="43.19335" lon="3.17002">
        <ele>69</ele>
        <time>2024-03-31T08:28:00.515Z</time>
      </trkpt>
      <trkpt lat="43.19339" lon="3.16999">
        <ele>69</ele>
        <time>2024-03-31T08:28:05.515Z</time>
      </trkpt>
      <trkpt lat="43.1934" lon="3.16995">
        <ele>69</ele>
        <time>2024-03-31T08:28:09.515Z</time>
      </trkpt>
      <trkpt lat="43.19344" lon="3.1699">
        <ele>69</ele>
        <time>2024-03-31T08:28:14.515Z</time>
      </trkpt>
      <trkpt lat="43.19349" lon="3.16983">
        <ele>67</ele>
        <time>2024-03-31T08:28:18.515Z</time>
      </trkpt>
      <trkpt lat="43.19353" lon="3.16978">
        <ele>67</ele>
        <time>2024-03-31T08:28:23.515Z</time>
      </trkpt>
      <trkpt lat="43.19357" lon="3.16974">
        <ele>67</ele>
        <time>2024-03-31T08:28:28.515Z</time>
      </trkpt>
      <trkpt lat="43.19359" lon="3.16969">
        <ele>67</ele>
        <time>2024-03-31T08:28:33.515Z</time>
      </trkpt>
      <trkpt lat="43.19358" lon="3.16964">
        <ele>67</ele>
        <time>2024-03-31T08:28:38.515Z</time>
      </trkpt>
      <trkpt lat="43.19357" lon="3.16959">
        <ele>67</ele>
        <time>2024-03-31T08:28:42.515Z</time>
      </trkpt>
      <trkpt lat="43.19354" lon="3.16953">
        <ele>69</ele>
        <time>2024-03-31T08:28:47.515Z</time>
      </trkpt>
      <trkpt lat="43.1935" lon="3.16949">
        <ele>69</ele>
        <time>2024-03-31T08:28:52.515Z</time>
      </trkpt>
      <trkpt lat="43.19347" lon="3.16945">
        <ele>70</ele>
        <time>2024-03-31T08:28:56.515Z</time>
      </trkpt>
      <trkpt lat="43.19342" lon="3.1694">
        <ele>70</ele>
        <time>2024-03-31T08:29:01.515Z</time>
      </trkpt>
      <trkpt lat="43.19338" lon="3.16936">
        <ele>70</ele>
        <time>2024-03-31T08:29:06.515Z</time>
      </trkpt>
      <trkpt lat="43.19336" lon="3.16932">
        <ele>70</ele>
        <time>2024-03-31T08:29:10.515Z</time>
      </trkpt>
      <trkpt lat="43.19332" lon="3.16927">
        <ele>70</ele>
        <time>2024-03-31T08:29:15.515Z</time>
      </trkpt>
      <trkpt lat="43.19328" lon="3.16923">
        <ele>70</ele>
        <time>2024-03-31T08:29:20.515Z</time>
      </trkpt>
      <trkpt lat="43.19324" lon="3.16918">
        <ele>70</ele>
        <time>2024-03-31T08:29:25.515Z</time>
      </trkpt>
      <trkpt lat="43.19321" lon="3.16914">
        <ele>70</ele>
        <time>2024-03-31T08:29:30.515Z</time>
      </trkpt>
      <trkpt lat="43.19316" lon="3.1691">
        <ele>71</ele>
        <time>2024-03-31T08:29:35.515Z</time>
      </trkpt>
      <trkpt lat="43.19312" lon="3.16908">
        <ele>71</ele>
        <time>2024-03-31T08:29:39.515Z</time>
      </trkpt>
      <trkpt lat="43.19307" lon="3.16903">
        <ele>71</ele>
        <time>2024-03-31T08:29:44.515Z</time>
      </trkpt>
      <trkpt lat="43.19303" lon="3.16899">
        <ele>71</ele>
        <time>2024-03-31T08:29:48.515Z</time>
      </trkpt>
      <trkpt lat="43.19299" lon="3.16896">
        <ele>71</ele>
        <time>2024-03-31T08:29:53.515Z</time>
      </trkpt>
      <trkpt lat="43.19295" lon="3.16893">
        <ele>71</ele>
        <time>2024-03-31T08:29:58.515Z</time>
      </trkpt>
      <trkpt lat="43.1929" lon="3.16888">
        <ele>72</ele>
        <time>2024-03-31T08:30:03.515Z</time>
      </trkpt>
      <trkpt lat="43.19284" lon="3.16884">
        <ele>72</ele>
        <time>2024-03-31T08:30:08.515Z</time>
      </trkpt>
      <trkpt lat="43.1928" lon="3.1688">
        <ele>72</ele>
        <time>2024-03-31T08:30:12.515Z</time>
      </trkpt>
      <trkpt lat="43.19275" lon="3.16874">
        <ele>72</ele>
        <time>2024-03-31T08:30:17.515Z</time>
      </trkpt>
      <trkpt lat="43.19271" lon="3.16868">
        <ele>72</ele>
        <time>2024-03-31T08:30:22.515Z</time>
      </trkpt>
      <trkpt lat="43.19267" lon="3.16861">
        <ele>72</ele>
        <time>2024-03-31T08:30:27.515Z</time>
      </trkpt>
      <trkpt lat="43.19265" lon="3.16855">
        <ele>72</ele>
        <time>2024-03-31T08:30:31.515Z</time>
      </trkpt>
      <trkpt lat="43.19262" lon="3.16848">
        <ele>71</ele>
        <time>2024-03-31T08:30:36.515Z</time>
      </trkpt>
      <trkpt lat="43.1926" lon="3.1684">
        <ele>72</ele>
        <time>2024-03-31T08:30:41.515Z</time>
      </trkpt>
      <trkpt lat="43.19259" lon="3.16834">
        <ele>72</ele>
        <time>2024-03-31T08:30:45.515Z</time>
      </trkpt>
      <trkpt lat="43.19257" lon="3.16824">
        <ele>72</ele>
        <time>2024-03-31T08:30:50.515Z</time>
      </trkpt>
      <trkpt lat="43.19255" lon="3.16816">
        <ele>71</ele>
        <time>2024-03-31T08:30:55.515Z</time>
      </trkpt>
      <trkpt lat="43.19254" lon="3.16809">
        <ele>71</ele>
        <time>2024-03-31T08:31:00.515Z</time>
      </trkpt>
      <trkpt lat="43.19251" lon="3.16803">
        <ele>71</ele>
        <time>2024-03-31T08:31:05.515Z</time>
      </trkpt>
      <trkpt lat="43.19248" lon="3.16799">
        <ele>71</ele>
        <time>2024-03-31T08:31:09.515Z</time>
      </trkpt>
      <trkpt lat="43.19244" lon="3.16793">
        <ele>71</ele>
        <time>2024-03-31T08:31:14.515Z</time>
      </trkpt>
      <trkpt lat="43.1924" lon="3.16788">
        <ele>71</ele>
        <time>2024-03-31T08:31:19.515Z</time>
      </trkpt>
      <trkpt lat="43.19237" lon="3.16784">
        <ele>71</ele>
        <time>2024-03-31T08:31:24.515Z</time>
      </trkpt>
      <trkpt lat="43.19233" lon="3.16779">
        <ele>70</ele>
        <time>2024-03-31T08:31:29.515Z</time>
      </trkpt>
      <trkpt lat="43.19229" lon="3.16773">
        <ele>70</ele>
        <time>2024-03-31T08:31:34.515Z</time>
      </trkpt>
      <trkpt lat="43.19226" lon="3.16768">
        <ele>70</ele>
        <time>2024-03-31T08:31:38.515Z</time>
      </trkpt>
      <trkpt lat="43.19223" lon="3.16765">
        <ele>70</ele>
        <time>2024-03-31T08:31:43.515Z</time>
      </trkpt>
      <trkpt lat="43.19218" lon="3.16759">
        <ele>70</ele>
        <time>2024-03-31T08:31:48.515Z</time>
      </trkpt>
      <trkpt lat="43.19214" lon="3.16754">
        <ele>70</ele>
        <time>2024-03-31T08:31:53.515Z</time>
      </trkpt>
      <trkpt lat="43.19209" lon="3.1675">
        <ele>70</ele>
        <time>2024-03-31T08:31:58.515Z</time>
      </trkpt>
      <trkpt lat="43.19207" lon="3.16749">
        <ele>69</ele>
        <time>2024-03-31T08:32:03.515Z</time>
      </trkpt>
      <trkpt lat="43.19203" lon="3.16744">
        <ele>69</ele>
        <time>2024-03-31T08:32:08.515Z</time>
      </trkpt>
      <trkpt lat="43.192" lon="3.16733">
        <ele>70</ele>
        <time>2024-03-31T08:32:13.515Z</time>
      </trkpt>
      <trkpt lat="43.19199" lon="3.16723">
        <ele>70</ele>
        <time>2024-03-31T08:32:18.515Z</time>
      </trkpt>
      <trkpt lat="43.19198" lon="3.16717">
        <ele>70</ele>
        <time>2024-03-31T08:32:23.515Z</time>
      </trkpt>
      <trkpt lat="43.19198" lon="3.16707">
        <ele>71</ele>
        <time>2024-03-31T08:32:28.515Z</time>
      </trkpt>
      <trkpt lat="43.19199" lon="3.16696">
        <ele>71</ele>
        <time>2024-03-31T08:32:33.515Z</time>
      </trkpt>
      <trkpt lat="43.192" lon="3.16689">
        <ele>71</ele>
        <time>2024-03-31T08:32:38.515Z</time>
      </trkpt>
      <trkpt lat="43.19201" lon="3.16683">
        <ele>71</ele>
        <time>2024-03-31T08:32:43.515Z</time>
      </trkpt>
      <trkpt lat="43.19201" lon="3.16676">
        <ele>72</ele>
        <time>2024-03-31T08:32:48.515Z</time>
      </trkpt>
      <trkpt lat="43.19202" lon="3.16669">
        <ele>72</ele>
        <time>2024-03-31T08:32:53.515Z</time>
      </trkpt>
      <trkpt lat="43.19202" lon="3.16663">
        <ele>72</ele>
        <time>2024-03-31T08:32:57.515Z</time>
      </trkpt>
      <trkpt lat="43.19203" lon="3.16655">
        <ele>72</ele>
        <time>2024-03-31T08:33:02.515Z</time>
      </trkpt>
      <trkpt lat="43.19203" lon="3.16647">
        <ele>72</ele>
        <time>2024-03-31T08:33:07.515Z</time>
      </trkpt>
      <trkpt lat="43.19203" lon="3.1664">
        <ele>72</ele>
        <time>2024-03-31T08:33:12.515Z</time>
      </trkpt>
      <trkpt lat="43.19204" lon="3.16632">
        <ele>72</ele>
        <time>2024-03-31T08:33:17.515Z</time>
      </trkpt>
      <trkpt lat="43.19204" lon="3.16624">
        <ele>72</ele>
        <time>2024-03-31T08:33:22.515Z</time>
      </trkpt>
      <trkpt lat="43.19205" lon="3.16616">
        <ele>72</ele>
        <time>2024-03-31T08:33:27.515Z</time>
      </trkpt>
      <trkpt lat="43.19205" lon="3.16608">
        <ele>72</ele>
        <time>2024-03-31T08:33:32.515Z</time>
      </trkpt>
      <trkpt lat="43.19206" lon="3.166">
        <ele>72</ele>
        <time>2024-03-31T08:33:37.515Z</time>
      </trkpt>
      <trkpt lat="43.19206" lon="3.16592">
        <ele>73</ele>
        <time>2024-03-31T08:33:42.515Z</time>
      </trkpt>
      <trkpt lat="43.19208" lon="3.16585">
        <ele>73</ele>
        <time>2024-03-31T08:33:47.515Z</time>
      </trkpt>
      <trkpt lat="43.19212" lon="3.16578">
        <ele>72</ele>
        <time>2024-03-31T08:33:52.515Z</time>
      </trkpt>
      <trkpt lat="43.19215" lon="3.16571">
        <ele>72</ele>
        <time>2024-03-31T08:33:57.515Z</time>
      </trkpt>
      <trkpt lat="43.19218" lon="3.16564">
        <ele>73</ele>
        <time>2024-03-31T08:34:02.515Z</time>
      </trkpt>
      <trkpt lat="43.19218" lon="3.16558">
        <ele>73</ele>
        <time>2024-03-31T08:34:07.515Z</time>
      </trkpt>
      <trkpt lat="43.19216" lon="3.16554">
        <ele>73</ele>
        <time>2024-03-31T08:34:11.515Z</time>
      </trkpt>
      <trkpt lat="43.19211" lon="3.16552">
        <ele>73</ele>
        <time>2024-03-31T08:34:16.515Z</time>
      </trkpt>
      <trkpt lat="43.19207" lon="3.1655">
        <ele>74</ele>
        <time>2024-03-31T08:34:20.515Z</time>
      </trkpt>
      <trkpt lat="43.19202" lon="3.16549">
        <ele>74</ele>
        <time>2024-03-31T08:34:25.515Z</time>
      </trkpt>
      <trkpt lat="43.19198" lon="3.16547">
        <ele>74</ele>
        <time>2024-03-31T08:34:29.515Z</time>
      </trkpt>
      <trkpt lat="43.19195" lon="3.16546">
        <ele>74</ele>
        <time>2024-03-31T08:34:33.515Z</time>
      </trkpt>
      <trkpt lat="43.19193" lon="3.16546">
        <ele>74</ele>
        <time>2024-03-31T08:34:38.515Z</time>
      </trkpt>
      <trkpt lat="43.19188" lon="3.16543">
        <ele>74</ele>
        <time>2024-03-31T08:34:43.515Z</time>
      </trkpt>
      <trkpt lat="43.19183" lon="3.16541">
        <ele>74</ele>
        <time>2024-03-31T08:34:48.515Z</time>
      </trkpt>
      <trkpt lat="43.19179" lon="3.16538">
        <ele>76</ele>
        <time>2024-03-31T08:34:52.515Z</time>
      </trkpt>
      <trkpt lat="43.19174" lon="3.16536">
        <ele>76</ele>
        <time>2024-03-31T08:34:57.515Z</time>
      </trkpt>
      <trkpt lat="43.19169" lon="3.16533">
        <ele>76</ele>
        <time>2024-03-31T08:35:02.515Z</time>
      </trkpt>
      <trkpt lat="43.19165" lon="3.16531">
        <ele>76</ele>
        <time>2024-03-31T08:35:07.515Z</time>
      </trkpt>
      <trkpt lat="43.19159" lon="3.16528">
        <ele>76</ele>
        <time>2024-03-31T08:35:12.515Z</time>
      </trkpt>
      <trkpt lat="43.19155" lon="3.16525">
        <ele>76</ele>
        <time>2024-03-31T08:35:17.515Z</time>
      </trkpt>
      <trkpt lat="43.19155" lon="3.16525">
        <ele>76</ele>
        <time>2024-03-31T08:35:22.515Z</time>
      </trkpt>
      <trkpt lat="43.19145" lon="3.16521">
        <ele>76</ele>
        <time>2024-03-31T08:35:27.515Z</time>
      </trkpt>
      <trkpt lat="43.19135" lon="3.16517">
        <ele>76</ele>
        <time>2024-03-31T08:35:32.515Z</time>
      </trkpt>
      <trkpt lat="43.19129" lon="3.16514">
        <ele>76</ele>
        <time>2024-03-31T08:35:37.515Z</time>
      </trkpt>
      <trkpt lat="43.19125" lon="3.1651">
        <ele>77</ele>
        <time>2024-03-31T08:35:42.515Z</time>
      </trkpt>
      <trkpt lat="43.19121" lon="3.16507">
        <ele>77</ele>
        <time>2024-03-31T08:35:47.515Z</time>
      </trkpt>
      <trkpt lat="43.19118" lon="3.16503">
        <ele>77</ele>
        <time>2024-03-31T08:35:51.515Z</time>
      </trkpt>
      <trkpt lat="43.19113" lon="3.165">
        <ele>77</ele>
        <time>2024-03-31T08:35:56.515Z</time>
      </trkpt>
      <trkpt lat="43.19109" lon="3.16496">
        <ele>77</ele>
        <time>2024-03-31T08:36:01.515Z</time>
      </trkpt>
      <trkpt lat="43.19103" lon="3.16493">
        <ele>77</ele>
        <time>2024-03-31T08:36:06.515Z</time>
      </trkpt>
      <trkpt lat="43.19099" lon="3.1649">
        <ele>77</ele>
        <time>2024-03-31T08:36:11.515Z</time>
      </trkpt>
      <trkpt lat="43.19094" lon="3.16486">
        <ele>78</ele>
        <time>2024-03-31T08:36:16.515Z</time>
      </trkpt>
      <trkpt lat="43.1909" lon="3.16484">
        <ele>78</ele>
        <time>2024-03-31T08:36:21.515Z</time>
      </trkpt>
      <trkpt lat="43.19085" lon="3.16481">
        <ele>78</ele>
        <time>2024-03-31T08:36:25.515Z</time>
      </trkpt>
      <trkpt lat="43.19081" lon="3.16478">
        <ele>78</ele>
        <time>2024-03-31T08:36:30.515Z</time>
      </trkpt>
      <trkpt lat="43.19075" lon="3.16475">
        <ele>78</ele>
        <time>2024-03-31T08:36:35.515Z</time>
      </trkpt>
      <trkpt lat="43.1907" lon="3.16471">
        <ele>78</ele>
        <time>2024-03-31T08:36:40.515Z</time>
      </trkpt>
      <trkpt lat="43.19066" lon="3.16468">
        <ele>79</ele>
        <time>2024-03-31T08:36:45.515Z</time>
      </trkpt>
      <trkpt lat="43.19061" lon="3.16465">
        <ele>79</ele>
        <time>2024-03-31T08:36:50.515Z</time>
      </trkpt>
      <trkpt lat="43.19057" lon="3.16464">
        <ele>79</ele>
        <time>2024-03-31T08:36:54.515Z</time>
      </trkpt>
      <trkpt lat="43.19052" lon="3.16463">
        <ele>79</ele>
        <time>2024-03-31T08:36:59.515Z</time>
      </trkpt>
      <trkpt lat="43.19049" lon="3.16463">
        <ele>79</ele>
        <time>2024-03-31T08:37:04.515Z</time>
      </trkpt>
      <trkpt lat="43.19034" lon="3.16445">
        <ele>80</ele>
        <time>2024-03-31T08:37:24.516Z</time>
      </trkpt>
      <trkpt lat="43.1903" lon="3.16442">
        <ele>80</ele>
        <time>2024-03-31T08:37:28.516Z</time>
      </trkpt>
      <trkpt lat="43.19026" lon="3.16438">
        <ele>80</ele>
        <time>2024-03-31T08:37:33.516Z</time>
      </trkpt>
      <trkpt lat="43.19022" lon="3.16434">
        <ele>80</ele>
        <time>2024-03-31T08:37:37.516Z</time>
      </trkpt>
      <trkpt lat="43.19019" lon="3.16429">
        <ele>78</ele>
        <time>2024-03-31T08:37:42.516Z</time>
      </trkpt>
      <trkpt lat="43.19015" lon="3.16425">
        <ele>78</ele>
        <time>2024-03-31T08:37:47.516Z</time>
      </trkpt>
      <trkpt lat="43.19013" lon="3.16421">
        <ele>80</ele>
        <time>2024-03-31T08:37:52.516Z</time>
      </trkpt>
      <trkpt lat="43.19009" lon="3.16418">
        <ele>80</ele>
        <time>2024-03-31T08:37:57.516Z</time>
      </trkpt>
      <trkpt lat="43.19006" lon="3.16414">
        <ele>80</ele>
        <time>2024-03-31T08:38:02.516Z</time>
      </trkpt>
      <trkpt lat="43.19004" lon="3.16407">
        <ele>80</ele>
        <time>2024-03-31T08:38:07.516Z</time>
      </trkpt>
      <trkpt lat="43.19002" lon="3.16399">
        <ele>81</ele>
        <time>2024-03-31T08:38:12.516Z</time>
      </trkpt>
      <trkpt lat="43.19" lon="3.16391">
        <ele>81</ele>
        <time>2024-03-31T08:38:17.516Z</time>
      </trkpt>
      <trkpt lat="43.18999" lon="3.16384">
        <ele>81</ele>
        <time>2024-03-31T08:38:22.516Z</time>
      </trkpt>
      <trkpt lat="43.18997" lon="3.16379">
        <ele>81</ele>
        <time>2024-03-31T08:38:27.516Z</time>
      </trkpt>
      <trkpt lat="43.18995" lon="3.16375">
        <ele>83</ele>
        <time>2024-03-31T08:38:32.516Z</time>
      </trkpt>
      <trkpt lat="43.18994" lon="3.16369">
        <ele>83</ele>
        <time>2024-03-31T08:38:37.516Z</time>
      </trkpt>
      <trkpt lat="43.18995" lon="3.16362">
        <ele>83</ele>
        <time>2024-03-31T08:38:42.516Z</time>
      </trkpt>
      <trkpt lat="43.18995" lon="3.16356">
        <ele>83</ele>
        <time>2024-03-31T08:38:46.516Z</time>
      </trkpt>
      <trkpt lat="43.18993" lon="3.16349">
        <ele>83</ele>
        <time>2024-03-31T08:38:51.516Z</time>
      </trkpt>
      <trkpt lat="43.18993" lon="3.16343">
        <ele>86</ele>
        <time>2024-03-31T08:38:56.516Z</time>
      </trkpt>
      <trkpt lat="43.18992" lon="3.16335">
        <ele>86</ele>
        <time>2024-03-31T08:39:01.516Z</time>
      </trkpt>
      <trkpt lat="43.18991" lon="3.16329">
        <ele>86</ele>
        <time>2024-03-31T08:39:06.516Z</time>
      </trkpt>
      <trkpt lat="43.18988" lon="3.16324">
        <ele>86</ele>
        <time>2024-03-31T08:39:10.516Z</time>
      </trkpt>
      <trkpt lat="43.18986" lon="3.16318">
        <ele>90</ele>
        <time>2024-03-31T08:39:15.516Z</time>
      </trkpt>
      <trkpt lat="43.18985" lon="3.16312">
        <ele>90</ele>
        <time>2024-03-31T08:39:20.516Z</time>
      </trkpt>
      <trkpt lat="43.18983" lon="3.16305">
        <ele>90</ele>
        <time>2024-03-31T08:39:25.516Z</time>
      </trkpt>
      <trkpt lat="43.18981" lon="3.163">
        <ele>90</ele>
        <time>2024-03-31T08:39:29.516Z</time>
      </trkpt>
      <trkpt lat="43.1898" lon="3.16292">
        <ele>90</ele>
        <time>2024-03-31T08:39:34.516Z</time>
      </trkpt>
      <trkpt lat="43.18978" lon="3.16285">
        <ele>90</ele>
        <time>2024-03-31T08:39:39.516Z</time>
      </trkpt>
      <trkpt lat="43.18976" lon="3.1628">
        <ele>90</ele>
        <time>2024-03-31T08:39:43.516Z</time>
      </trkpt>
      <trkpt lat="43.18974" lon="3.16275">
        <ele>90</ele>
        <time>2024-03-31T08:39:48.516Z</time>
      </trkpt>
      <trkpt lat="43.18973" lon="3.16269">
        <ele>90</ele>
        <time>2024-03-31T08:39:53.516Z</time>
      </trkpt>
      <trkpt lat="43.1897" lon="3.16262">
        <ele>90</ele>
        <time>2024-03-31T08:39:58.516Z</time>
      </trkpt>
      <trkpt lat="43.18968" lon="3.16256">
        <ele>90</ele>
        <time>2024-03-31T08:40:02.516Z</time>
      </trkpt>
      <trkpt lat="43.18967" lon="3.16247">
        <ele>90</ele>
        <time>2024-03-31T08:40:07.516Z</time>
      </trkpt>
      <trkpt lat="43.18966" lon="3.1624">
        <ele>90</ele>
        <time>2024-03-31T08:40:12.516Z</time>
      </trkpt>
      <trkpt lat="43.18967" lon="3.16235">
        <ele>92</ele>
        <time>2024-03-31T08:40:16.516Z</time>
      </trkpt>
      <trkpt lat="43.18966" lon="3.1623">
        <ele>92</ele>
        <time>2024-03-31T08:40:21.516Z</time>
      </trkpt>
      <trkpt lat="43.18964" lon="3.16225">
        <ele>92</ele>
        <time>2024-03-31T08:40:26.516Z</time>
      </trkpt>
      <trkpt lat="43.18963" lon="3.16222">
        <ele>92</ele>
        <time>2024-03-31T08:40:31.516Z</time>
      </trkpt>
      <trkpt lat="43.18959" lon="3.16218">
        <ele>92</ele>
        <time>2024-03-31T08:40:36.516Z</time>
      </trkpt>
      <trkpt lat="43.18956" lon="3.16212">
        <ele>96</ele>
        <time>2024-03-31T08:40:41.516Z</time>
      </trkpt>
      <trkpt lat="43.18955" lon="3.16204">
        <ele>96</ele>
        <time>2024-03-31T08:40:46.516Z</time>
      </trkpt>
      <trkpt lat="43.18952" lon="3.16198">
        <ele>96</ele>
        <time>2024-03-31T08:40:51.516Z</time>
      </trkpt>
      <trkpt lat="43.1895" lon="3.16193">
        <ele>96</ele>
        <time>2024-03-31T08:40:56.516Z</time>
      </trkpt>
      <trkpt lat="43.18948" lon="3.16187">
        <ele>96</ele>
        <time>2024-03-31T08:41:01.516Z</time>
      </trkpt>
      <trkpt lat="43.18946" lon="3.16179">
        <ele>95</ele>
        <time>2024-03-31T08:41:06.516Z</time>
      </trkpt>
      <trkpt lat="43.18944" lon="3.16169">
        <ele>95</ele>
        <time>2024-03-31T08:41:11.516Z</time>
      </trkpt>
      <trkpt lat="43.18941" lon="3.16161">
        <ele>95</ele>
        <time>2024-03-31T08:41:16.516Z</time>
      </trkpt>
      <trkpt lat="43.18937" lon="3.16155">
        <ele>95</ele>
        <time>2024-03-31T08:41:21.516Z</time>
      </trkpt>
      <trkpt lat="43.18933" lon="3.16149">
        <ele>94</ele>
        <time>2024-03-31T08:41:26.516Z</time>
      </trkpt>
      <trkpt lat="43.1893" lon="3.16145">
        <ele>97</ele>
        <time>2024-03-31T08:41:30.516Z</time>
      </trkpt>
      <trkpt lat="43.18927" lon="3.16137">
        <ele>97</ele>
        <time>2024-03-31T08:41:35.516Z</time>
      </trkpt>
      <trkpt lat="43.18926" lon="3.16131">
        <ele>97</ele>
        <time>2024-03-31T08:41:40.516Z</time>
      </trkpt>
      <trkpt lat="43.18924" lon="3.16126">
        <ele>97</ele>
        <time>2024-03-31T08:41:45.516Z</time>
      </trkpt>
      <trkpt lat="43.18922" lon="3.1612">
        <ele>96</ele>
        <time>2024-03-31T08:41:50.516Z</time>
      </trkpt>
      <trkpt lat="43.18921" lon="3.16113">
        <ele>96</ele>
        <time>2024-03-31T08:41:55.516Z</time>
      </trkpt>
      <trkpt lat="43.18921" lon="3.16108">
        <ele>96</ele>
        <time>2024-03-31T08:42:00.516Z</time>
      </trkpt>
      <trkpt lat="43.18921" lon="3.161">
        <ele>96</ele>
        <time>2024-03-31T08:42:05.516Z</time>
      </trkpt>
      <trkpt lat="43.1892" lon="3.16093">
        <ele>95</ele>
        <time>2024-03-31T08:42:10.516Z</time>
      </trkpt>
      <trkpt lat="43.18918" lon="3.16086">
        <ele>95</ele>
        <time>2024-03-31T08:42:15.516Z</time>
      </trkpt>
      <trkpt lat="43.1892" lon="3.16078">
        <ele>95</ele>
        <time>2024-03-31T08:42:20.516Z</time>
      </trkpt>
      <trkpt lat="43.1892" lon="3.1607">
        <ele>95</ele>
        <time>2024-03-31T08:42:25.516Z</time>
      </trkpt>
      <trkpt lat="43.1892" lon="3.16064">
        <ele>94</ele>
        <time>2024-03-31T08:42:29.516Z</time>
      </trkpt>
      <trkpt lat="43.18919" lon="3.16056">
        <ele>94</ele>
        <time>2024-03-31T08:42:34.516Z</time>
      </trkpt>
      <trkpt lat="43.18918" lon="3.16051">
        <ele>94</ele>
        <time>2024-03-31T08:42:38.516Z</time>
      </trkpt>
      <trkpt lat="43.18917" lon="3.16046">
        <ele>94</ele>
        <time>2024-03-31T08:42:43.516Z</time>
      </trkpt>
      <trkpt lat="43.18916" lon="3.1604">
        <ele>92</ele>
        <time>2024-03-31T08:42:47.516Z</time>
      </trkpt>
      <trkpt lat="43.18915" lon="3.16032">
        <ele>92</ele>
        <time>2024-03-31T08:42:52.516Z</time>
      </trkpt>
      <trkpt lat="43.18915" lon="3.16024">
        <ele>92</ele>
        <time>2024-03-31T08:42:57.516Z</time>
      </trkpt>
      <trkpt lat="43.18916" lon="3.16018">
        <ele>92</ele>
        <time>2024-03-31T08:43:02.516Z</time>
      </trkpt>
      <trkpt lat="43.18916" lon="3.16013">
        <ele>92</ele>
        <time>2024-03-31T08:43:06.516Z</time>
      </trkpt>
      <trkpt lat="43.18917" lon="3.16007">
        <ele>92</ele>
        <time>2024-03-31T08:43:11.516Z</time>
      </trkpt>
      <trkpt lat="43.18917" lon="3.16001">
        <ele>92</ele>
        <time>2024-03-31T08:43:15.516Z</time>
      </trkpt>
      <trkpt lat="43.18916" lon="3.15993">
        <ele>92</ele>
        <time>2024-03-31T08:43:20.516Z</time>
      </trkpt>
      <trkpt lat="43.18915" lon="3.15985">
        <ele>92</ele>
        <time>2024-03-31T08:43:25.516Z</time>
      </trkpt>
      <trkpt lat="43.18913" lon="3.15984">
        <ele>92</ele>
        <time>2024-03-31T08:43:30.516Z</time>
      </trkpt>
      <trkpt lat="43.18914" lon="3.15975">
        <ele>92</ele>
        <time>2024-03-31T08:43:35.516Z</time>
      </trkpt>
      <trkpt lat="43.18913" lon="3.15962">
        <ele>92</ele>
        <time>2024-03-31T08:43:39.516Z</time>
      </trkpt>
      <trkpt lat="43.18913" lon="3.15955">
        <ele>92</ele>
        <time>2024-03-31T08:43:43.516Z</time>
      </trkpt>
      <trkpt lat="43.18913" lon="3.15946">
        <ele>92</ele>
        <time>2024-03-31T08:43:48.516Z</time>
      </trkpt>
      <trkpt lat="43.18911" lon="3.1594">
        <ele>92</ele>
        <time>2024-03-31T08:43:53.516Z</time>
      </trkpt>
      <trkpt lat="43.18909" lon="3.15934">
        <ele>92</ele>
        <time>2024-03-31T08:43:57.516Z</time>
      </trkpt>
      <trkpt lat="43.18908" lon="3.15927">
        <ele>91</ele>
        <time>2024-03-31T08:44:02.516Z</time>
      </trkpt>
      <trkpt lat="43.18906" lon="3.1592">
        <ele>91</ele>
        <time>2024-03-31T08:44:07.516Z</time>
      </trkpt>
      <trkpt lat="43.18907" lon="3.15916">
        <ele>91</ele>
        <time>2024-03-31T08:44:12.516Z</time>
      </trkpt>
      <trkpt lat="43.18905" lon="3.15909">
        <ele>91</ele>
        <time>2024-03-31T08:44:17.516Z</time>
      </trkpt>
      <trkpt lat="43.18905" lon="3.15906">
        <ele>91</ele>
        <time>2024-03-31T08:44:22.516Z</time>
      </trkpt>
      <trkpt lat="43.189" lon="3.15894">
        <ele>88</ele>
        <time>2024-03-31T08:44:27.516Z</time>
      </trkpt>
      <trkpt lat="43.18897" lon="3.15889">
        <ele>88</ele>
        <time>2024-03-31T08:44:31.516Z</time>
      </trkpt>
      <trkpt lat="43.18891" lon="3.15882">
        <ele>88</ele>
        <time>2024-03-31T08:44:36.516Z</time>
      </trkpt>
      <trkpt lat="43.18886" lon="3.15877">
        <ele>88</ele>
        <time>2024-03-31T08:44:41.516Z</time>
      </trkpt>
      <trkpt lat="43.18882" lon="3.15872">
        <ele>86</ele>
        <time>2024-03-31T08:44:46.516Z</time>
      </trkpt>
      <trkpt lat="43.18882" lon="3.15873">
        <ele>86</ele>
        <time>2024-03-31T08:44:51.516Z</time>
      </trkpt>
      <trkpt lat="43.18881" lon="3.1587">
        <ele>86</ele>
        <time>2024-03-31T08:44:56.516Z</time>
      </trkpt>
      <trkpt lat="43.18882" lon="3.15868">
        <ele>86</ele>
        <time>2024-03-31T08:45:01.516Z</time>
      </trkpt>
      <trkpt lat="43.18882" lon="3.15859">
        <ele>86</ele>
        <time>2024-03-31T08:45:06.516Z</time>
      </trkpt>
      <trkpt lat="43.18881" lon="3.15848">
        <ele>86</ele>
        <time>2024-03-31T08:45:11.516Z</time>
      </trkpt>
      <trkpt lat="43.18883" lon="3.15832">
        <ele>84</ele>
        <time>2024-03-31T08:45:16.516Z</time>
      </trkpt>
      <trkpt lat="43.18882" lon="3.15812">
        <ele>84</ele>
        <time>2024-03-31T08:45:21.516Z</time>
      </trkpt>
      <trkpt lat="43.1888" lon="3.158">
        <ele>84</ele>
        <time>2024-03-31T08:45:26.516Z</time>
      </trkpt>
      <trkpt lat="43.18882" lon="3.15798">
        <ele>84</ele>
        <time>2024-03-31T08:45:30.516Z</time>
      </trkpt>
      <trkpt lat="43.1888" lon="3.15789">
        <ele>84</ele>
        <time>2024-03-31T08:45:35.516Z</time>
      </trkpt>
      <trkpt lat="43.18878" lon="3.15783">
        <ele>84</ele>
        <time>2024-03-31T08:45:40.516Z</time>
      </trkpt>
      <trkpt lat="43.18875" lon="3.15778">
        <ele>85</ele>
        <time>2024-03-31T08:45:45.516Z</time>
      </trkpt>
      <trkpt lat="43.18872" lon="3.15772">
        <ele>85</ele>
        <time>2024-03-31T08:45:49.516Z</time>
      </trkpt>
      <trkpt lat="43.18871" lon="3.15766">
        <ele>85</ele>
        <time>2024-03-31T08:45:54.516Z</time>
      </trkpt>
      <trkpt lat="43.18871" lon="3.1576">
        <ele>84</ele>
        <time>2024-03-31T08:45:59.516Z</time>
      </trkpt>
      <trkpt lat="43.18869" lon="3.15754">
        <ele>84</ele>
        <time>2024-03-31T08:46:04.516Z</time>
      </trkpt>
      <trkpt lat="43.18868" lon="3.15749">
        <ele>84</ele>
        <time>2024-03-31T08:46:08.516Z</time>
      </trkpt>
      <trkpt lat="43.18865" lon="3.15746">
        <ele>84</ele>
        <time>2024-03-31T08:46:13.516Z</time>
      </trkpt>
      <trkpt lat="43.18862" lon="3.15739">
        <ele>84</ele>
        <time>2024-03-31T08:46:18.516Z</time>
      </trkpt>
      <trkpt lat="43.1886" lon="3.15733">
        <ele>84</ele>
        <time>2024-03-31T08:46:22.516Z</time>
      </trkpt>
      <trkpt lat="43.18858" lon="3.15729">
        <ele>84</ele>
        <time>2024-03-31T08:46:26.516Z</time>
      </trkpt>
      <trkpt lat="43.18857" lon="3.15725">
        <ele>84</ele>
        <time>2024-03-31T08:46:31.516Z</time>
      </trkpt>
      <trkpt lat="43.18857" lon="3.15718">
        <ele>84</ele>
        <time>2024-03-31T08:46:36.516Z</time>
      </trkpt>
      <trkpt lat="43.18857" lon="3.15718">
        <ele>84</ele>
        <time>2024-03-31T08:46:41.516Z</time>
      </trkpt>
      <trkpt lat="43.18855" lon="3.15718">
        <ele>84</ele>
        <time>2024-03-31T08:46:54.516Z</time>
      </trkpt>
      <trkpt lat="43.18855" lon="3.15717">
        <ele>84</ele>
        <time>2024-03-31T08:47:03.516Z</time>
      </trkpt>
      <trkpt lat="43.18856" lon="3.15717">
        <ele>84</ele>
        <time>2024-03-31T08:47:08.516Z</time>
      </trkpt>
      <trkpt lat="43.18855" lon="3.15723">
        <ele>84</ele>
        <time>2024-03-31T08:47:12.516Z</time>
      </trkpt>
      <trkpt lat="43.18855" lon="3.15728">
        <ele>84</ele>
        <time>2024-03-31T08:47:17.516Z</time>
      </trkpt>
      <trkpt lat="43.18855" lon="3.15734">
        <ele>84</ele>
        <time>2024-03-31T08:47:22.516Z</time>
      </trkpt>
      <trkpt lat="43.18855" lon="3.1574">
        <ele>84</ele>
        <time>2024-03-31T08:47:26.516Z</time>
      </trkpt>
      <trkpt lat="43.18854" lon="3.15747">
        <ele>84</ele>
        <time>2024-03-31T08:47:31.516Z</time>
      </trkpt>
      <trkpt lat="43.18855" lon="3.15754">
        <ele>84</ele>
        <time>2024-03-31T08:47:36.516Z</time>
      </trkpt>
      <trkpt lat="43.18856" lon="3.1576">
        <ele>84</ele>
        <time>2024-03-31T08:47:41.516Z</time>
      </trkpt>
      <trkpt lat="43.18857" lon="3.15765">
        <ele>85</ele>
        <time>2024-03-31T08:47:46.516Z</time>
      </trkpt>
      <trkpt lat="43.18856" lon="3.15771">
        <ele>85</ele>
        <time>2024-03-31T08:47:51.516Z</time>
      </trkpt>
      <trkpt lat="43.18853" lon="3.15775">
        <ele>85</ele>
        <time>2024-03-31T08:47:56.516Z</time>
      </trkpt>
      <trkpt lat="43.18852" lon="3.15777">
        <ele>85</ele>
        <time>2024-03-31T08:48:01.516Z</time>
      </trkpt>
      <trkpt lat="43.18853" lon="3.15783">
        <ele>85</ele>
        <time>2024-03-31T08:48:06.516Z</time>
      </trkpt>
      <trkpt lat="43.18852" lon="3.15792">
        <ele>86</ele>
        <time>2024-03-31T08:48:11.516Z</time>
      </trkpt>
      <trkpt lat="43.1885" lon="3.158">
        <ele>86</ele>
        <time>2024-03-31T08:48:16.516Z</time>
      </trkpt>
      <trkpt lat="43.18848" lon="3.15806">
        <ele>86</ele>
        <time>2024-03-31T08:48:21.516Z</time>
      </trkpt>
      <trkpt lat="43.18846" lon="3.15812">
        <ele>90</ele>
        <time>2024-03-31T08:48:26.517Z</time>
      </trkpt>
      <trkpt lat="43.18845" lon="3.15818">
        <ele>90</ele>
        <time>2024-03-31T08:48:31.517Z</time>
      </trkpt>
      <trkpt lat="43.18844" lon="3.15822">
        <ele>90</ele>
        <time>2024-03-31T08:48:36.517Z</time>
      </trkpt>
      <trkpt lat="43.18841" lon="3.15827">
        <ele>90</ele>
        <time>2024-03-31T08:48:40.517Z</time>
      </trkpt>
      <trkpt lat="43.18837" lon="3.15833">
        <ele>90</ele>
        <time>2024-03-31T08:48:45.517Z</time>
      </trkpt>
      <trkpt lat="43.18834" lon="3.15838">
        <ele>90</ele>
        <time>2024-03-31T08:48:50.517Z</time>
      </trkpt>
      <trkpt lat="43.18831" lon="3.15842">
        <ele>90</ele>
        <time>2024-03-31T08:48:55.517Z</time>
      </trkpt>
      <trkpt lat="43.18829" lon="3.15846">
        <ele>90</ele>
        <time>2024-03-31T08:48:59.517Z</time>
      </trkpt>
      <trkpt lat="43.18828" lon="3.15851">
        <ele>90</ele>
        <time>2024-03-31T08:49:04.517Z</time>
      </trkpt>
      <trkpt lat="43.18829" lon="3.15854">
        <ele>90</ele>
        <time>2024-03-31T08:49:09.517Z</time>
      </trkpt>
      <trkpt lat="43.18829" lon="3.15854">
        <ele>90</ele>
        <time>2024-03-31T08:49:14.517Z</time>
      </trkpt>
      <trkpt lat="43.18828" lon="3.15866">
        <ele>90</ele>
        <time>2024-03-31T08:49:19.517Z</time>
      </trkpt>
      <trkpt lat="43.18827" lon="3.15866">
        <ele>90</ele>
        <time>2024-03-31T08:50:04.517Z</time>
      </trkpt>
      <trkpt lat="43.18828" lon="3.15861">
        <ele>90</ele>
        <time>2024-03-31T08:50:09.517Z</time>
      </trkpt>
      <trkpt lat="43.18829" lon="3.15856">
        <ele>90</ele>
        <time>2024-03-31T08:50:14.517Z</time>
      </trkpt>
      <trkpt lat="43.1883" lon="3.1585">
        <ele>90</ele>
        <time>2024-03-31T08:50:19.517Z</time>
      </trkpt>
      <trkpt lat="43.18832" lon="3.15845">
        <ele>90</ele>
        <time>2024-03-31T08:50:24.517Z</time>
      </trkpt>
      <trkpt lat="43.18831" lon="3.1584">
        <ele>90</ele>
        <time>2024-03-31T08:50:33.517Z</time>
      </trkpt>
      <trkpt lat="43.18831" lon="3.1584">
        <ele>90</ele>
        <time>2024-03-31T08:50:38.517Z</time>
      </trkpt>
      <trkpt lat="43.18833" lon="3.15837">
        <ele>90</ele>
        <time>2024-03-31T08:50:53.517Z</time>
      </trkpt>
      <trkpt lat="43.18837" lon="3.15832">
        <ele>90</ele>
        <time>2024-03-31T08:50:58.517Z</time>
      </trkpt>
      <trkpt lat="43.18839" lon="3.15827">
        <ele>90</ele>
        <time>2024-03-31T08:51:03.517Z</time>
      </trkpt>
      <trkpt lat="43.18844" lon="3.15821">
        <ele>90</ele>
        <time>2024-03-31T08:51:08.517Z</time>
      </trkpt>
      <trkpt lat="43.18846" lon="3.15815">
        <ele>90</ele>
        <time>2024-03-31T08:51:13.517Z</time>
      </trkpt>
      <trkpt lat="43.18848" lon="3.15808">
        <ele>86</ele>
        <time>2024-03-31T08:51:18.517Z</time>
      </trkpt>
      <trkpt lat="43.1885" lon="3.15803">
        <ele>86</ele>
        <time>2024-03-31T08:51:22.517Z</time>
      </trkpt>
      <trkpt lat="43.1885" lon="3.15796">
        <ele>86</ele>
        <time>2024-03-31T08:51:27.517Z</time>
      </trkpt>
      <trkpt lat="43.18851" lon="3.15792">
        <ele>85</ele>
        <time>2024-03-31T08:51:32.517Z</time>
      </trkpt>
      <trkpt lat="43.18853" lon="3.15785">
        <ele>85</ele>
        <time>2024-03-31T08:51:37.517Z</time>
      </trkpt>
      <trkpt lat="43.18853" lon="3.15778">
        <ele>85</ele>
        <time>2024-03-31T08:51:41.517Z</time>
      </trkpt>
      <trkpt lat="43.18858" lon="3.15773">
        <ele>85</ele>
        <time>2024-03-31T08:51:46.517Z</time>
      </trkpt>
      <trkpt lat="43.18856" lon="3.15768">
        <ele>85</ele>
        <time>2024-03-31T08:51:51.517Z</time>
      </trkpt>
      <trkpt lat="43.18856" lon="3.15763">
        <ele>84</ele>
        <time>2024-03-31T08:51:55.517Z</time>
      </trkpt>
      <trkpt lat="43.18856" lon="3.15755">
        <ele>84</ele>
        <time>2024-03-31T08:52:00.517Z</time>
      </trkpt>
      <trkpt lat="43.18855" lon="3.15747">
        <ele>84</ele>
        <time>2024-03-31T08:52:05.517Z</time>
      </trkpt>
      <trkpt lat="43.18855" lon="3.15738">
        <ele>84</ele>
        <time>2024-03-31T08:52:10.517Z</time>
      </trkpt>
      <trkpt lat="43.18856" lon="3.15732">
        <ele>84</ele>
        <time>2024-03-31T08:52:15.517Z</time>
      </trkpt>
      <trkpt lat="43.18856" lon="3.15726">
        <ele>84</ele>
        <time>2024-03-31T08:52:19.517Z</time>
      </trkpt>
      <trkpt lat="43.18857" lon="3.15721">
        <ele>84</ele>
        <time>2024-03-31T08:52:23.517Z</time>
      </trkpt>
      <trkpt lat="43.18857" lon="3.15713">
        <ele>84</ele>
        <time>2024-03-31T08:52:28.517Z</time>
      </trkpt>
      <trkpt lat="43.18859" lon="3.15705">
        <ele>83</ele>
        <time>2024-03-31T08:52:33.517Z</time>
      </trkpt>
      <trkpt lat="43.18859" lon="3.15698">
        <ele>83</ele>
        <time>2024-03-31T08:52:38.517Z</time>
      </trkpt>
      <trkpt lat="43.18858" lon="3.1569">
        <ele>83</ele>
        <time>2024-03-31T08:52:43.517Z</time>
      </trkpt>
      <trkpt lat="43.18859" lon="3.15684">
        <ele>83</ele>
        <time>2024-03-31T08:52:48.517Z</time>
      </trkpt>
      <trkpt lat="43.1886" lon="3.15679">
        <ele>83</ele>
        <time>2024-03-31T08:52:53.517Z</time>
      </trkpt>
      <trkpt lat="43.18863" lon="3.15671">
        <ele>83</ele>
        <time>2024-03-31T08:52:58.517Z</time>
      </trkpt>
      <trkpt lat="43.18864" lon="3.15664">
        <ele>83</ele>
        <time>2024-03-31T08:53:03.517Z</time>
      </trkpt>
      <trkpt lat="43.18863" lon="3.15657">
        <ele>83</ele>
        <time>2024-03-31T08:53:08.517Z</time>
      </trkpt>
      <trkpt lat="43.18863" lon="3.1565">
        <ele>82</ele>
        <time>2024-03-31T08:53:13.517Z</time>
      </trkpt>
      <trkpt lat="43.18863" lon="3.15641">
        <ele>82</ele>
        <time>2024-03-31T08:53:18.517Z</time>
      </trkpt>
      <trkpt lat="43.18865" lon="3.15634">
        <ele>82</ele>
        <time>2024-03-31T08:53:23.517Z</time>
      </trkpt>
      <trkpt lat="43.18865" lon="3.15626">
        <ele>82</ele>
        <time>2024-03-31T08:53:28.517Z</time>
      </trkpt>
      <trkpt lat="43.18865" lon="3.15619">
        <ele>81</ele>
        <time>2024-03-31T08:53:33.517Z</time>
      </trkpt>
      <trkpt lat="43.18865" lon="3.15611">
        <ele>81</ele>
        <time>2024-03-31T08:53:38.517Z</time>
      </trkpt>
      <trkpt lat="43.18866" lon="3.15605">
        <ele>81</ele>
        <time>2024-03-31T08:53:42.517Z</time>
      </trkpt>
      <trkpt lat="43.18865" lon="3.15598">
        <ele>81</ele>
        <time>2024-03-31T08:53:47.517Z</time>
      </trkpt>
      <trkpt lat="43.18864" lon="3.1559">
        <ele>80</ele>
        <time>2024-03-31T08:53:52.517Z</time>
      </trkpt>
      <trkpt lat="43.18864" lon="3.15584">
        <ele>80</ele>
        <time>2024-03-31T08:53:57.517Z</time>
      </trkpt>
      <trkpt lat="43.18863" lon="3.15578">
        <ele>80</ele>
        <time>2024-03-31T08:54:02.517Z</time>
      </trkpt>
      <trkpt lat="43.18864" lon="3.15572">
        <ele>80</ele>
        <time>2024-03-31T08:54:07.517Z</time>
      </trkpt>
      <trkpt lat="43.18862" lon="3.15564">
        <ele>80</ele>
        <time>2024-03-31T08:54:12.517Z</time>
      </trkpt>
      <trkpt lat="43.18863" lon="3.15555">
        <ele>80</ele>
        <time>2024-03-31T08:54:17.517Z</time>
      </trkpt>
      <trkpt lat="43.18862" lon="3.15549">
        <ele>80</ele>
        <time>2024-03-31T08:54:21.517Z</time>
      </trkpt>
      <trkpt lat="43.18863" lon="3.15542">
        <ele>80</ele>
        <time>2024-03-31T08:54:26.517Z</time>
      </trkpt>
      <trkpt lat="43.18862" lon="3.15534">
        <ele>79</ele>
        <time>2024-03-31T08:54:31.517Z</time>
      </trkpt>
      <trkpt lat="43.18861" lon="3.15529">
        <ele>79</ele>
        <time>2024-03-31T08:54:35.517Z</time>
      </trkpt>
      <trkpt lat="43.18861" lon="3.1552">
        <ele>79</ele>
        <time>2024-03-31T08:54:40.517Z</time>
      </trkpt>
      <trkpt lat="43.18864" lon="3.15514">
        <ele>80</ele>
        <time>2024-03-31T08:54:45.517Z</time>
      </trkpt>
      <trkpt lat="43.18863" lon="3.15508">
        <ele>80</ele>
        <time>2024-03-31T08:54:49.517Z</time>
      </trkpt>
      <trkpt lat="43.18862" lon="3.155">
        <ele>80</ele>
        <time>2024-03-31T08:54:54.517Z</time>
      </trkpt>
      <trkpt lat="43.1886" lon="3.15493">
        <ele>80</ele>
        <time>2024-03-31T08:54:59.517Z</time>
      </trkpt>
      <trkpt lat="43.18857" lon="3.15486">
        <ele>80</ele>
        <time>2024-03-31T08:55:04.517Z</time>
      </trkpt>
      <trkpt lat="43.18856" lon="3.15477">
        <ele>80</ele>
        <time>2024-03-31T08:55:09.517Z</time>
      </trkpt>
      <trkpt lat="43.18855" lon="3.15471">
        <ele>80</ele>
        <time>2024-03-31T08:55:14.517Z</time>
      </trkpt>
      <trkpt lat="43.18854" lon="3.15464">
        <ele>80</ele>
        <time>2024-03-31T08:55:19.517Z</time>
      </trkpt>
      <trkpt lat="43.18853" lon="3.15458">
        <ele>79</ele>
        <time>2024-03-31T08:55:24.517Z</time>
      </trkpt>
      <trkpt lat="43.18852" lon="3.15451">
        <ele>79</ele>
        <time>2024-03-31T08:55:29.517Z</time>
      </trkpt>
      <trkpt lat="43.18854" lon="3.15443">
        <ele>79</ele>
        <time>2024-03-31T08:55:34.517Z</time>
      </trkpt>
      <trkpt lat="43.18855" lon="3.15436">
        <ele>79</ele>
        <time>2024-03-31T08:55:39.517Z</time>
      </trkpt>
      <trkpt lat="43.18854" lon="3.15428">
        <ele>78</ele>
        <time>2024-03-31T08:55:43.517Z</time>
      </trkpt>
      <trkpt lat="43.18856" lon="3.1542">
        <ele>78</ele>
        <time>2024-03-31T08:55:48.517Z</time>
      </trkpt>
      <trkpt lat="43.18858" lon="3.15415">
        <ele>78</ele>
        <time>2024-03-31T08:55:52.517Z</time>
      </trkpt>
      <trkpt lat="43.18858" lon="3.1541">
        <ele>78</ele>
        <time>2024-03-31T08:55:56.517Z</time>
      </trkpt>
      <trkpt lat="43.18857" lon="3.15404">
        <ele>78</ele>
        <time>2024-03-31T08:56:00.517Z</time>
      </trkpt>
      <trkpt lat="43.18855" lon="3.15397">
        <ele>76</ele>
        <time>2024-03-31T08:56:05.517Z</time>
      </trkpt>
      <trkpt lat="43.18853" lon="3.15391">
        <ele>76</ele>
        <time>2024-03-31T08:56:09.517Z</time>
      </trkpt>
      <trkpt lat="43.18852" lon="3.15383">
        <ele>76</ele>
        <time>2024-03-31T08:56:14.517Z</time>
      </trkpt>
      <trkpt lat="43.18853" lon="3.15377">
        <ele>76</ele>
        <time>2024-03-31T08:56:19.517Z</time>
      </trkpt>
      <trkpt lat="43.18854" lon="3.15375">
        <ele>76</ele>
        <time>2024-03-31T08:56:23.517Z</time>
      </trkpt>
      <trkpt lat="43.18853" lon="3.1537">
        <ele>75</ele>
        <time>2024-03-31T08:56:28.517Z</time>
      </trkpt>
      <trkpt lat="43.18853" lon="3.15362">
        <ele>75</ele>
        <time>2024-03-31T08:56:33.517Z</time>
      </trkpt>
      <trkpt lat="43.18852" lon="3.15357">
        <ele>75</ele>
        <time>2024-03-31T08:56:37.517Z</time>
      </trkpt>
      <trkpt lat="43.18853" lon="3.1535">
        <ele>75</ele>
        <time>2024-03-31T08:56:42.517Z</time>
      </trkpt>
      <trkpt lat="43.18855" lon="3.15342">
        <ele>73</ele>
        <time>2024-03-31T08:56:47.517Z</time>
      </trkpt>
      <trkpt lat="43.18855" lon="3.15336">
        <ele>73</ele>
        <time>2024-03-31T08:56:52.517Z</time>
      </trkpt>
      <trkpt lat="43.18853" lon="3.1533">
        <ele>73</ele>
        <time>2024-03-31T08:56:57.517Z</time>
      </trkpt>
      <trkpt lat="43.18847" lon="3.15327">
        <ele>74</ele>
        <time>2024-03-31T08:57:02.517Z</time>
      </trkpt>
      <trkpt lat="43.18841" lon="3.15323">
        <ele>74</ele>
        <time>2024-03-31T08:57:07.517Z</time>
      </trkpt>
      <trkpt lat="43.18836" lon="3.1532">
        <ele>74</ele>
        <time>2024-03-31T08:57:12.517Z</time>
      </trkpt>
      <trkpt lat="43.18834" lon="3.15315">
        <ele>72</ele>
        <time>2024-03-31T08:57:17.517Z</time>
      </trkpt>
      <trkpt lat="43.18836" lon="3.15309">
        <ele>72</ele>
        <time>2024-03-31T08:57:21.517Z</time>
      </trkpt>
      <trkpt lat="43.18834" lon="3.15303">
        <ele>72</ele>
        <time>2024-03-31T08:57:25.517Z</time>
      </trkpt>
      <trkpt lat="43.18834" lon="3.15295">
        <ele>72</ele>
        <time>2024-03-31T08:57:30.517Z</time>
      </trkpt>
      <trkpt lat="43.18834" lon="3.15288">
        <ele>72</ele>
        <time>2024-03-31T08:57:35.517Z</time>
      </trkpt>
      <trkpt lat="43.18834" lon="3.15281">
        <ele>72</ele>
        <time>2024-03-31T08:57:40.517Z</time>
      </trkpt>
      <trkpt lat="43.18836" lon="3.15278">
        <ele>72</ele>
        <time>2024-03-31T08:57:44.517Z</time>
      </trkpt>
      <trkpt lat="43.18836" lon="3.15278">
        <ele>72</ele>
        <time>2024-03-31T08:57:49.517Z</time>
      </trkpt>
      <trkpt lat="43.18835" lon="3.15273">
        <ele>72</ele>
        <time>2024-03-31T08:57:53.517Z</time>
      </trkpt>
      <trkpt lat="43.18839" lon="3.15265">
        <ele>72</ele>
        <time>2024-03-31T08:57:58.517Z</time>
      </trkpt>
      <trkpt lat="43.1884" lon="3.15258">
        <ele>72</ele>
        <time>2024-03-31T08:58:02.517Z</time>
      </trkpt>
      <trkpt lat="43.18839" lon="3.15251">
        <ele>72</ele>
        <time>2024-03-31T08:58:07.517Z</time>
      </trkpt>
      <trkpt lat="43.18839" lon="3.15244">
        <ele>72</ele>
        <time>2024-03-31T08:58:11.517Z</time>
      </trkpt>
      <trkpt lat="43.1884" lon="3.15236">
        <ele>74</ele>
        <time>2024-03-31T08:58:16.517Z</time>
      </trkpt>
      <trkpt lat="43.1884" lon="3.15229">
        <ele>74</ele>
        <time>2024-03-31T08:58:21.517Z</time>
      </trkpt>
      <trkpt lat="43.1884" lon="3.15225">
        <ele>74</ele>
        <time>2024-03-31T08:58:25.517Z</time>
      </trkpt>
      <trkpt lat="43.18844" lon="3.1522">
        <ele>74</ele>
        <time>2024-03-31T08:58:30.517Z</time>
      </trkpt>
      <trkpt lat="43.18847" lon="3.15213">
        <ele>74</ele>
        <time>2024-03-31T08:58:35.517Z</time>
      </trkpt>
      <trkpt lat="43.18846" lon="3.15204">
        <ele>73</ele>
        <time>2024-03-31T08:58:40.517Z</time>
      </trkpt>
      <trkpt lat="43.18844" lon="3.15199">
        <ele>73</ele>
        <time>2024-03-31T08:58:44.517Z</time>
      </trkpt>
      <trkpt lat="43.18841" lon="3.15195">
        <ele>73</ele>
        <time>2024-03-31T08:58:49.517Z</time>
      </trkpt>
      <trkpt lat="43.18837" lon="3.15194">
        <ele>73</ele>
        <time>2024-03-31T08:58:54.517Z</time>
      </trkpt>
      <trkpt lat="43.18834" lon="3.1519">
        <ele>73</ele>
        <time>2024-03-31T08:58:59.517Z</time>
      </trkpt>
      <trkpt lat="43.18832" lon="3.15187">
        <ele>73</ele>
        <time>2024-03-31T08:59:03.518Z</time>
      </trkpt>
      <trkpt lat="43.18828" lon="3.15185">
        <ele>73</ele>
        <time>2024-03-31T08:59:08.518Z</time>
      </trkpt>
      <trkpt lat="43.18824" lon="3.15179">
        <ele>72</ele>
        <time>2024-03-31T08:59:13.518Z</time>
      </trkpt>
      <trkpt lat="43.1882" lon="3.15174">
        <ele>72</ele>
        <time>2024-03-31T08:59:18.518Z</time>
      </trkpt>
      <trkpt lat="43.18816" lon="3.15169">
        <ele>73</ele>
        <time>2024-03-31T08:59:23.518Z</time>
      </trkpt>
      <trkpt lat="43.18812" lon="3.15162">
        <ele>73</ele>
        <time>2024-03-31T08:59:28.518Z</time>
      </trkpt>
      <trkpt lat="43.18808" lon="3.15156">
        <ele>73</ele>
        <time>2024-03-31T08:59:33.518Z</time>
      </trkpt>
      <trkpt lat="43.18805" lon="3.15151">
        <ele>74</ele>
        <time>2024-03-31T08:59:37.518Z</time>
      </trkpt>
      <trkpt lat="43.18799" lon="3.15147">
        <ele>74</ele>
        <time>2024-03-31T08:59:42.518Z</time>
      </trkpt>
      <trkpt lat="43.18796" lon="3.15144">
        <ele>74</ele>
        <time>2024-03-31T08:59:46.518Z</time>
      </trkpt>
      <trkpt lat="43.18791" lon="3.15142">
        <ele>73</ele>
        <time>2024-03-31T08:59:51.518Z</time>
      </trkpt>
      <trkpt lat="43.18787" lon="3.15141">
        <ele>73</ele>
        <time>2024-03-31T08:59:55.518Z</time>
      </trkpt>
      <trkpt lat="43.18782" lon="3.15141">
        <ele>73</ele>
        <time>2024-03-31T09:00:00.518Z</time>
      </trkpt>
      <trkpt lat="43.18778" lon="3.15141">
        <ele>73</ele>
        <time>2024-03-31T09:00:04.518Z</time>
      </trkpt>
      <trkpt lat="43.18775" lon="3.1514">
        <ele>73</ele>
        <time>2024-03-31T09:00:08.518Z</time>
      </trkpt>
      <trkpt lat="43.18768" lon="3.15139">
        <ele>73</ele>
        <time>2024-03-31T09:00:13.518Z</time>
      </trkpt>
      <trkpt lat="43.18764" lon="3.15136">
        <ele>73</ele>
        <time>2024-03-31T09:00:18.518Z</time>
      </trkpt>
      <trkpt lat="43.1876" lon="3.1513">
        <ele>73</ele>
        <time>2024-03-31T09:00:23.518Z</time>
      </trkpt>
      <trkpt lat="43.18758" lon="3.15124">
        <ele>72</ele>
        <time>2024-03-31T09:00:28.518Z</time>
      </trkpt>
      <trkpt lat="43.18757" lon="3.15119">
        <ele>72</ele>
        <time>2024-03-31T09:00:33.518Z</time>
      </trkpt>
      <trkpt lat="43.18755" lon="3.15117">
        <ele>72</ele>
        <time>2024-03-31T09:00:37.518Z</time>
      </trkpt>
      <trkpt lat="43.18754" lon="3.15109">
        <ele>72</ele>
        <time>2024-03-31T09:00:42.518Z</time>
      </trkpt>
      <trkpt lat="43.18752" lon="3.15098">
        <ele>72</ele>
        <time>2024-03-31T09:00:46.518Z</time>
      </trkpt>
      <trkpt lat="43.1875" lon="3.15095">
        <ele>73</ele>
        <time>2024-03-31T09:00:51.518Z</time>
      </trkpt>
      <trkpt lat="43.1875" lon="3.15094">
        <ele>73</ele>
        <time>2024-03-31T09:00:56.518Z</time>
      </trkpt>
      <trkpt lat="43.1875" lon="3.15094">
        <ele>73</ele>
        <time>2024-03-31T09:01:01.518Z</time>
      </trkpt>
      <trkpt lat="43.18749" lon="3.1509">
        <ele>73</ele>
        <time>2024-03-31T09:01:15.518Z</time>
      </trkpt>
      <trkpt lat="43.18747" lon="3.15084">
        <ele>73</ele>
        <time>2024-03-31T09:01:20.518Z</time>
      </trkpt>
      <trkpt lat="43.18744" lon="3.1508">
        <ele>73</ele>
        <time>2024-03-31T09:01:25.518Z</time>
      </trkpt>
      <trkpt lat="43.18739" lon="3.15075">
        <ele>73</ele>
        <time>2024-03-31T09:01:30.518Z</time>
      </trkpt>
      <trkpt lat="43.18735" lon="3.15072">
        <ele>74</ele>
        <time>2024-03-31T09:01:35.518Z</time>
      </trkpt>
      <trkpt lat="43.1873" lon="3.15068">
        <ele>74</ele>
        <time>2024-03-31T09:01:40.518Z</time>
      </trkpt>
      <trkpt lat="43.18727" lon="3.15066">
        <ele>74</ele>
        <time>2024-03-31T09:01:45.518Z</time>
      </trkpt>
      <trkpt lat="43.18723" lon="3.15063">
        <ele>74</ele>
        <time>2024-03-31T09:01:50.518Z</time>
      </trkpt>
      <trkpt lat="43.1872" lon="3.15061">
        <ele>74</ele>
        <time>2024-03-31T09:01:55.518Z</time>
      </trkpt>
      <trkpt lat="43.18718" lon="3.15059">
        <ele>74</ele>
        <time>2024-03-31T09:02:00.518Z</time>
      </trkpt>
      <trkpt lat="43.18714" lon="3.15055">
        <ele>74</ele>
        <time>2024-03-31T09:02:05.518Z</time>
      </trkpt>
      <trkpt lat="43.18708" lon="3.15051">
        <ele>78</ele>
        <time>2024-03-31T09:02:10.518Z</time>
      </trkpt>
      <trkpt lat="43.18705" lon="3.1505">
        <ele>78</ele>
        <time>2024-03-31T09:02:14.518Z</time>
      </trkpt>
      <trkpt lat="43.18701" lon="3.15048">
        <ele>78</ele>
        <time>2024-03-31T09:02:19.518Z</time>
      </trkpt>
      <trkpt lat="43.18697" lon="3.15046">
        <ele>78</ele>
        <time>2024-03-31T09:02:23.518Z</time>
      </trkpt>
      <trkpt lat="43.18692" lon="3.15043">
        <ele>78</ele>
        <time>2024-03-31T09:02:28.518Z</time>
      </trkpt>
      <trkpt lat="43.18686" lon="3.15038">
        <ele>77</ele>
        <time>2024-03-31T09:02:33.518Z</time>
      </trkpt>
      <trkpt lat="43.18682" lon="3.15031">
        <ele>77</ele>
        <time>2024-03-31T09:02:38.518Z</time>
      </trkpt>
      <trkpt lat="43.18682" lon="3.15027">
        <ele>77</ele>
        <time>2024-03-31T09:02:43.518Z</time>
      </trkpt>
      <trkpt lat="43.18684" lon="3.15018">
        <ele>77</ele>
        <time>2024-03-31T09:02:48.518Z</time>
      </trkpt>
      <trkpt lat="43.18684" lon="3.15009">
        <ele>76</ele>
        <time>2024-03-31T09:02:53.518Z</time>
      </trkpt>
      <trkpt lat="43.18685" lon="3.15002">
        <ele>76</ele>
        <time>2024-03-31T09:02:57.518Z</time>
      </trkpt>
      <trkpt lat="43.18686" lon="3.14995">
        <ele>76</ele>
        <time>2024-03-31T09:03:02.518Z</time>
      </trkpt>
      <trkpt lat="43.18687" lon="3.14987">
        <ele>76</ele>
        <time>2024-03-31T09:03:07.518Z</time>
      </trkpt>
      <trkpt lat="43.18687" lon="3.14982">
        <ele>76</ele>
        <time>2024-03-31T09:03:11.518Z</time>
      </trkpt>
      <trkpt lat="43.18686" lon="3.14975">
        <ele>76</ele>
        <time>2024-03-31T09:03:16.518Z</time>
      </trkpt>
      <trkpt lat="43.18685" lon="3.14967">
        <ele>76</ele>
        <time>2024-03-31T09:03:21.518Z</time>
      </trkpt>
      <trkpt lat="43.18686" lon="3.1496">
        <ele>76</ele>
        <time>2024-03-31T09:03:26.518Z</time>
      </trkpt>
      <trkpt lat="43.18687" lon="3.14952">
        <ele>78</ele>
        <time>2024-03-31T09:03:31.518Z</time>
      </trkpt>
      <trkpt lat="43.18687" lon="3.14946">
        <ele>78</ele>
        <time>2024-03-31T09:03:35.518Z</time>
      </trkpt>
      <trkpt lat="43.18688" lon="3.14939">
        <ele>78</ele>
        <time>2024-03-31T09:03:40.518Z</time>
      </trkpt>
      <trkpt lat="43.18689" lon="3.14931">
        <ele>78</ele>
        <time>2024-03-31T09:03:45.518Z</time>
      </trkpt>
      <trkpt lat="43.18689" lon="3.14923">
        <ele>79</ele>
        <time>2024-03-31T09:03:50.518Z</time>
      </trkpt>
      <trkpt lat="43.1869" lon="3.14916">
        <ele>79</ele>
        <time>2024-03-31T09:03:55.518Z</time>
      </trkpt>
      <trkpt lat="43.18691" lon="3.14908">
        <ele>79</ele>
        <time>2024-03-31T09:04:00.518Z</time>
      </trkpt>
      <trkpt lat="43.18693" lon="3.149">
        <ele>79</ele>
        <time>2024-03-31T09:04:05.518Z</time>
      </trkpt>
      <trkpt lat="43.18695" lon="3.14893">
        <ele>79</ele>
        <time>2024-03-31T09:04:10.518Z</time>
      </trkpt>
      <trkpt lat="43.18695" lon="3.14884">
        <ele>79</ele>
        <time>2024-03-31T09:04:15.518Z</time>
      </trkpt>
      <trkpt lat="43.18696" lon="3.14876">
        <ele>79</ele>
        <time>2024-03-31T09:04:20.518Z</time>
      </trkpt>
      <trkpt lat="43.18697" lon="3.14868">
        <ele>80</ele>
        <time>2024-03-31T09:04:25.518Z</time>
      </trkpt>
      <trkpt lat="43.18699" lon="3.1486">
        <ele>80</ele>
        <time>2024-03-31T09:04:30.518Z</time>
      </trkpt>
      <trkpt lat="43.187" lon="3.14852">
        <ele>80</ele>
        <time>2024-03-31T09:04:35.518Z</time>
      </trkpt>
      <trkpt lat="43.187" lon="3.14847">
        <ele>79</ele>
        <time>2024-03-31T09:04:39.518Z</time>
      </trkpt>
      <trkpt lat="43.18701" lon="3.1484">
        <ele>79</ele>
        <time>2024-03-31T09:04:44.518Z</time>
      </trkpt>
      <trkpt lat="43.18701" lon="3.14831">
        <ele>79</ele>
        <time>2024-03-31T09:04:49.518Z</time>
      </trkpt>
      <trkpt lat="43.18702" lon="3.14823">
        <ele>79</ele>
        <time>2024-03-31T09:04:54.518Z</time>
      </trkpt>
      <trkpt lat="43.18703" lon="3.14815">
        <ele>80</ele>
        <time>2024-03-31T09:04:59.518Z</time>
      </trkpt>
      <trkpt lat="43.18705" lon="3.14808">
        <ele>80</ele>
        <time>2024-03-31T09:05:04.518Z</time>
      </trkpt>
      <trkpt lat="43.18706" lon="3.14802">
        <ele>80</ele>
        <time>2024-03-31T09:05:08.518Z</time>
      </trkpt>
      <trkpt lat="43.18708" lon="3.14794">
        <ele>80</ele>
        <time>2024-03-31T09:05:13.518Z</time>
      </trkpt>
      <trkpt lat="43.18708" lon="3.14786">
        <ele>82</ele>
        <time>2024-03-31T09:05:18.518Z</time>
      </trkpt>
      <trkpt lat="43.18708" lon="3.14778">
        <ele>82</ele>
        <time>2024-03-31T09:05:23.518Z</time>
      </trkpt>
      <trkpt lat="43.18709" lon="3.14771">
        <ele>80</ele>
        <time>2024-03-31T09:05:28.518Z</time>
      </trkpt>
      <trkpt lat="43.18709" lon="3.14768">
        <ele>80</ele>
        <time>2024-03-31T09:05:32.518Z</time>
      </trkpt>
      <trkpt lat="43.18709" lon="3.14761">
        <ele>79</ele>
        <time>2024-03-31T09:05:37.518Z</time>
      </trkpt>
      <trkpt lat="43.1871" lon="3.14754">
        <ele>79</ele>
        <time>2024-03-31T09:05:42.518Z</time>
      </trkpt>
      <trkpt lat="43.18712" lon="3.14747">
        <ele>79</ele>
        <time>2024-03-31T09:05:46.518Z</time>
      </trkpt>
      <trkpt lat="43.18713" lon="3.14739">
        <ele>79</ele>
        <time>2024-03-31T09:05:51.518Z</time>
      </trkpt>
      <trkpt lat="43.18714" lon="3.14732">
        <ele>79</ele>
        <time>2024-03-31T09:05:55.518Z</time>
      </trkpt>
      <trkpt lat="43.18716" lon="3.14726">
        <ele>79</ele>
        <time>2024-03-31T09:06:00.518Z</time>
      </trkpt>
      <trkpt lat="43.18716" lon="3.14719">
        <ele>79</ele>
        <time>2024-03-31T09:06:05.518Z</time>
      </trkpt>
      <trkpt lat="43.18717" lon="3.14713">
        <ele>79</ele>
        <time>2024-03-31T09:06:10.518Z</time>
      </trkpt>
      <trkpt lat="43.1872" lon="3.14706">
        <ele>78</ele>
        <time>2024-03-31T09:06:15.518Z</time>
      </trkpt>
      <trkpt lat="43.18721" lon="3.14702">
        <ele>78</ele>
        <time>2024-03-31T09:06:19.518Z</time>
      </trkpt>
      <trkpt lat="43.18725" lon="3.14701">
        <ele>78</ele>
        <time>2024-03-31T09:06:23.518Z</time>
      </trkpt>
      <trkpt lat="43.1873" lon="3.14703">
        <ele>78</ele>
        <time>2024-03-31T09:06:28.518Z</time>
      </trkpt>
      <trkpt lat="43.18737" lon="3.14706">
        <ele>79</ele>
        <time>2024-03-31T09:06:33.518Z</time>
      </trkpt>
      <trkpt lat="43.18741" lon="3.14709">
        <ele>78</ele>
        <time>2024-03-31T09:06:38.518Z</time>
      </trkpt>
      <trkpt lat="43.18744" lon="3.14712">
        <ele>78</ele>
        <time>2024-03-31T09:06:43.518Z</time>
      </trkpt>
      <trkpt lat="43.18748" lon="3.14718">
        <ele>78</ele>
        <time>2024-03-31T09:06:48.518Z</time>
      </trkpt>
      <trkpt lat="43.18751" lon="3.14721">
        <ele>78</ele>
        <time>2024-03-31T09:06:53.518Z</time>
      </trkpt>
      <trkpt lat="43.18755" lon="3.14722">
        <ele>78</ele>
        <time>2024-03-31T09:06:57.518Z</time>
      </trkpt>
      <trkpt lat="43.18759" lon="3.14722">
        <ele>78</ele>
        <time>2024-03-31T09:07:02.518Z</time>
      </trkpt>
      <trkpt lat="43.18765" lon="3.14721">
        <ele>80</ele>
        <time>2024-03-31T09:07:07.518Z</time>
      </trkpt>
      <trkpt lat="43.1877" lon="3.1472">
        <ele>80</ele>
        <time>2024-03-31T09:07:12.518Z</time>
      </trkpt>
      <trkpt lat="43.18774" lon="3.14718">
        <ele>80</ele>
        <time>2024-03-31T09:07:17.518Z</time>
      </trkpt>
      <trkpt lat="43.18776" lon="3.14715">
        <ele>80</ele>
        <time>2024-03-31T09:07:21.518Z</time>
      </trkpt>
      <trkpt lat="43.18779" lon="3.14712">
        <ele>80</ele>
        <time>2024-03-31T09:07:26.518Z</time>
      </trkpt>
      <trkpt lat="43.18781" lon="3.14709">
        <ele>80</ele>
        <time>2024-03-31T09:07:31.518Z</time>
      </trkpt>
      <trkpt lat="43.18784" lon="3.14704">
        <ele>82</ele>
        <time>2024-03-31T09:07:36.518Z</time>
      </trkpt>
      <trkpt lat="43.18786" lon="3.14699">
        <ele>82</ele>
        <time>2024-03-31T09:07:41.518Z</time>
      </trkpt>
      <trkpt lat="43.1879" lon="3.14695">
        <ele>82</ele>
        <time>2024-03-31T09:07:45.518Z</time>
      </trkpt>
      <trkpt lat="43.18794" lon="3.14692">
        <ele>87</ele>
        <time>2024-03-31T09:07:50.518Z</time>
      </trkpt>
      <trkpt lat="43.18798" lon="3.14689">
        <ele>87</ele>
        <time>2024-03-31T09:07:55.518Z</time>
      </trkpt>
      <trkpt lat="43.188" lon="3.14688">
        <ele>87</ele>
        <time>2024-03-31T09:07:59.518Z</time>
      </trkpt>
      <trkpt lat="43.18803" lon="3.14684">
        <ele>87</ele>
        <time>2024-03-31T09:08:04.518Z</time>
      </trkpt>
      <trkpt lat="43.18806" lon="3.14679">
        <ele>87</ele>
        <time>2024-03-31T09:08:09.518Z</time>
      </trkpt>
      <trkpt lat="43.1881" lon="3.14673">
        <ele>87</ele>
        <time>2024-03-31T09:08:14.518Z</time>
      </trkpt>
      <trkpt lat="43.18812" lon="3.14668">
        <ele>87</ele>
        <time>2024-03-31T09:08:19.518Z</time>
      </trkpt>
      <trkpt lat="43.18815" lon="3.14662">
        <ele>87</ele>
        <time>2024-03-31T09:08:24.518Z</time>
      </trkpt>
      <trkpt lat="43.18816" lon="3.14659">
        <ele>87</ele>
        <time>2024-03-31T09:08:28.518Z</time>
      </trkpt>
      <trkpt lat="43.18818" lon="3.14654">
        <ele>87</ele>
        <time>2024-03-31T09:08:33.518Z</time>
      </trkpt>
      <trkpt lat="43.18822" lon="3.14649">
        <ele>92</ele>
        <time>2024-03-31T09:08:38.518Z</time>
      </trkpt>
      <trkpt lat="43.18827" lon="3.14647">
        <ele>92</ele>
        <time>2024-03-31T09:08:43.518Z</time>
      </trkpt>
      <trkpt lat="43.18832" lon="3.14647">
        <ele>92</ele>
        <time>2024-03-31T09:08:48.518Z</time>
      </trkpt>
      <trkpt lat="43.18836" lon="3.14649">
        <ele>92</ele>
        <time>2024-03-31T09:08:52.518Z</time>
      </trkpt>
      <trkpt lat="43.18839" lon="3.14649">
        <ele>92</ele>
        <time>2024-03-31T09:08:57.518Z</time>
      </trkpt>
      <trkpt lat="43.18842" lon="3.14648">
        <ele>92</ele>
        <time>2024-03-31T09:09:02.518Z</time>
      </trkpt>
      <trkpt lat="43.18845" lon="3.14646">
        <ele>92</ele>
        <time>2024-03-31T09:09:06.518Z</time>
      </trkpt>
      <trkpt lat="43.18849" lon="3.14644">
        <ele>96</ele>
        <time>2024-03-31T09:09:11.518Z</time>
      </trkpt>
      <trkpt lat="43.18851" lon="3.14641">
        <ele>96</ele>
        <time>2024-03-31T09:09:15.518Z</time>
      </trkpt>
      <trkpt lat="43.18854" lon="3.14636">
        <ele>96</ele>
        <time>2024-03-31T09:09:20.518Z</time>
      </trkpt>
      <trkpt lat="43.18855" lon="3.14631">
        <ele>96</ele>
        <time>2024-03-31T09:09:24.518Z</time>
      </trkpt>
      <trkpt lat="43.18856" lon="3.14622">
        <ele>97</ele>
        <time>2024-03-31T09:09:29.518Z</time>
      </trkpt>
      <trkpt lat="43.18857" lon="3.14616">
        <ele>97</ele>
        <time>2024-03-31T09:09:33.519Z</time>
      </trkpt>
      <trkpt lat="43.18859" lon="3.14609">
        <ele>97</ele>
        <time>2024-03-31T09:09:38.519Z</time>
      </trkpt>
      <trkpt lat="43.18861" lon="3.14603">
        <ele>97</ele>
        <time>2024-03-31T09:09:42.519Z</time>
      </trkpt>
      <trkpt lat="43.18862" lon="3.14597">
        <ele>99</ele>
        <time>2024-03-31T09:09:47.519Z</time>
      </trkpt>
      <trkpt lat="43.18862" lon="3.14588">
        <ele>99</ele>
        <time>2024-03-31T09:09:52.519Z</time>
      </trkpt>
      <trkpt lat="43.18862" lon="3.14581">
        <ele>99</ele>
        <time>2024-03-31T09:09:57.519Z</time>
      </trkpt>
      <trkpt lat="43.18862" lon="3.14573">
        <ele>99</ele>
        <time>2024-03-31T09:10:02.519Z</time>
      </trkpt>
      <trkpt lat="43.18863" lon="3.14569">
        <ele>100</ele>
        <time>2024-03-31T09:10:07.519Z</time>
      </trkpt>
      <trkpt lat="43.18864" lon="3.14564">
        <ele>100</ele>
        <time>2024-03-31T09:10:11.519Z</time>
      </trkpt>
      <trkpt lat="43.18862" lon="3.14554">
        <ele>100</ele>
        <time>2024-03-31T09:10:16.519Z</time>
      </trkpt>
      <trkpt lat="43.1886" lon="3.14546">
        <ele>100</ele>
        <time>2024-03-31T09:10:21.519Z</time>
      </trkpt>
      <trkpt lat="43.18857" lon="3.14541">
        <ele>103</ele>
        <time>2024-03-31T09:10:26.519Z</time>
      </trkpt>
      <trkpt lat="43.18853" lon="3.14537">
        <ele>103</ele>
        <time>2024-03-31T09:10:31.519Z</time>
      </trkpt>
      <trkpt lat="43.18848" lon="3.14533">
        <ele>103</ele>
        <time>2024-03-31T09:10:36.519Z</time>
      </trkpt>
      <trkpt lat="43.18842" lon="3.1453">
        <ele>101</ele>
        <time>2024-03-31T09:10:41.519Z</time>
      </trkpt>
      <trkpt lat="43.18837" lon="3.14528">
        <ele>101</ele>
        <time>2024-03-31T09:10:46.519Z</time>
      </trkpt>
      <trkpt lat="43.18832" lon="3.14528">
        <ele>101</ele>
        <time>2024-03-31T09:10:51.519Z</time>
      </trkpt>
      <trkpt lat="43.18829" lon="3.14527">
        <ele>101</ele>
        <time>2024-03-31T09:10:55.519Z</time>
      </trkpt>
      <trkpt lat="43.18824" lon="3.14526">
        <ele>101</ele>
        <time>2024-03-31T09:11:00.519Z</time>
      </trkpt>
      <trkpt lat="43.18819" lon="3.14527">
        <ele>100</ele>
        <time>2024-03-31T09:11:05.519Z</time>
      </trkpt>
      <trkpt lat="43.18815" lon="3.14528">
        <ele>100</ele>
        <time>2024-03-31T09:11:09.519Z</time>
      </trkpt>
      <trkpt lat="43.18808" lon="3.14528">
        <ele>100</ele>
        <time>2024-03-31T09:11:14.519Z</time>
      </trkpt>
      <trkpt lat="43.18804" lon="3.14528">
        <ele>100</ele>
        <time>2024-03-31T09:11:19.519Z</time>
      </trkpt>
      <trkpt lat="43.18798" lon="3.14526">
        <ele>100</ele>
        <time>2024-03-31T09:11:24.519Z</time>
      </trkpt>
      <trkpt lat="43.18794" lon="3.14524">
        <ele>100</ele>
        <time>2024-03-31T09:11:29.519Z</time>
      </trkpt>
      <trkpt lat="43.18788" lon="3.1452">
        <ele>98</ele>
        <time>2024-03-31T09:11:34.519Z</time>
      </trkpt>
      <trkpt lat="43.18783" lon="3.14514">
        <ele>98</ele>
        <time>2024-03-31T09:11:39.519Z</time>
      </trkpt>
      <trkpt lat="43.1878" lon="3.14509">
        <ele>101</ele>
        <time>2024-03-31T09:11:43.519Z</time>
      </trkpt>
      <trkpt lat="43.18778" lon="3.14503">
        <ele>101</ele>
        <time>2024-03-31T09:11:48.519Z</time>
      </trkpt>
      <trkpt lat="43.18778" lon="3.14494">
        <ele>101</ele>
        <time>2024-03-31T09:11:53.519Z</time>
      </trkpt>
      <trkpt lat="43.18778" lon="3.14486">
        <ele>103</ele>
        <time>2024-03-31T09:11:58.519Z</time>
      </trkpt>
      <trkpt lat="43.1878" lon="3.14479">
        <ele>103</ele>
        <time>2024-03-31T09:12:03.519Z</time>
      </trkpt>
      <trkpt lat="43.1878" lon="3.14472">
        <ele>103</ele>
        <time>2024-03-31T09:12:08.519Z</time>
      </trkpt>
      <trkpt lat="43.18781" lon="3.14466">
        <ele>103</ele>
        <time>2024-03-31T09:12:13.519Z</time>
      </trkpt>
      <trkpt lat="43.18783" lon="3.14459">
        <ele>103</ele>
        <time>2024-03-31T09:12:18.519Z</time>
      </trkpt>
      <trkpt lat="43.18784" lon="3.14452">
        <ele>102</ele>
        <time>2024-03-31T09:12:23.519Z</time>
      </trkpt>
      <trkpt lat="43.18785" lon="3.14446">
        <ele>102</ele>
        <time>2024-03-31T09:12:27.519Z</time>
      </trkpt>
      <trkpt lat="43.18787" lon="3.14439">
        <ele>102</ele>
        <time>2024-03-31T09:12:32.519Z</time>
      </trkpt>
      <trkpt lat="43.18788" lon="3.14431">
        <ele>102</ele>
        <time>2024-03-31T09:12:37.519Z</time>
      </trkpt>
      <trkpt lat="43.18789" lon="3.14425">
        <ele>101</ele>
        <time>2024-03-31T09:12:41.519Z</time>
      </trkpt>
      <trkpt lat="43.1879" lon="3.14419">
        <ele>101</ele>
        <time>2024-03-31T09:12:46.519Z</time>
      </trkpt>
      <trkpt lat="43.18792" lon="3.14413">
        <ele>105</ele>
        <time>2024-03-31T09:12:50.519Z</time>
      </trkpt>
      <trkpt lat="43.18793" lon="3.14405">
        <ele>105</ele>
        <time>2024-03-31T09:12:55.519Z</time>
      </trkpt>
      <trkpt lat="43.18794" lon="3.14398">
        <ele>105</ele>
        <time>2024-03-31T09:13:00.519Z</time>
      </trkpt>
      <trkpt lat="43.18794" lon="3.14394">
        <ele>105</ele>
        <time>2024-03-31T09:13:04.519Z</time>
      </trkpt>
      <trkpt lat="43.18796" lon="3.14388">
        <ele>105</ele>
        <time>2024-03-31T09:13:09.519Z</time>
      </trkpt>
      <trkpt lat="43.18797" lon="3.14381">
        <ele>105</ele>
        <time>2024-03-31T09:13:14.519Z</time>
      </trkpt>
      <trkpt lat="43.18797" lon="3.14372">
        <ele>105</ele>
        <time>2024-03-31T09:13:19.519Z</time>
      </trkpt>
      <trkpt lat="43.18799" lon="3.14365">
        <ele>105</ele>
        <time>2024-03-31T09:13:24.519Z</time>
      </trkpt>
      <trkpt lat="43.188" lon="3.14356">
        <ele>105</ele>
        <time>2024-03-31T09:13:29.519Z</time>
      </trkpt>
      <trkpt lat="43.18802" lon="3.1435">
        <ele>105</ele>
        <time>2024-03-31T09:13:34.519Z</time>
      </trkpt>
      <trkpt lat="43.18803" lon="3.14344">
        <ele>107</ele>
        <time>2024-03-31T09:13:38.519Z</time>
      </trkpt>
      <trkpt lat="43.18804" lon="3.14338">
        <ele>107</ele>
        <time>2024-03-31T09:13:42.519Z</time>
      </trkpt>
      <trkpt lat="43.18805" lon="3.1433">
        <ele>107</ele>
        <time>2024-03-31T09:13:47.519Z</time>
      </trkpt>
      <trkpt lat="43.18805" lon="3.14323">
        <ele>107</ele>
        <time>2024-03-31T09:13:52.519Z</time>
      </trkpt>
      <trkpt lat="43.18806" lon="3.14316">
        <ele>108</ele>
        <time>2024-03-31T09:13:56.519Z</time>
      </trkpt>
      <trkpt lat="43.18808" lon="3.14307">
        <ele>108</ele>
        <time>2024-03-31T09:14:01.519Z</time>
      </trkpt>
      <trkpt lat="43.1881" lon="3.143">
        <ele>108</ele>
        <time>2024-03-31T09:14:06.519Z</time>
      </trkpt>
      <trkpt lat="43.1881" lon="3.14293">
        <ele>108</ele>
        <time>2024-03-31T09:14:11.519Z</time>
      </trkpt>
      <trkpt lat="43.1881" lon="3.14287">
        <ele>110</ele>
        <time>2024-03-31T09:14:15.519Z</time>
      </trkpt>
      <trkpt lat="43.1881" lon="3.1428">
        <ele>110</ele>
        <time>2024-03-31T09:14:20.519Z</time>
      </trkpt>
      <trkpt lat="43.1881" lon="3.14272">
        <ele>110</ele>
        <time>2024-03-31T09:14:25.519Z</time>
      </trkpt>
      <trkpt lat="43.1881" lon="3.14265">
        <ele>110</ele>
        <time>2024-03-31T09:14:29.519Z</time>
      </trkpt>
      <trkpt lat="43.1881" lon="3.14257">
        <ele>110</ele>
        <time>2024-03-31T09:14:34.519Z</time>
      </trkpt>
      <trkpt lat="43.1881" lon="3.14252">
        <ele>110</ele>
        <time>2024-03-31T09:14:39.519Z</time>
      </trkpt>
      <trkpt lat="43.18808" lon="3.14246">
        <ele>110</ele>
        <time>2024-03-31T09:14:44.519Z</time>
      </trkpt>
      <trkpt lat="43.18806" lon="3.14239">
        <ele>110</ele>
        <time>2024-03-31T09:14:48.519Z</time>
      </trkpt>
      <trkpt lat="43.18805" lon="3.14232">
        <ele>111</ele>
        <time>2024-03-31T09:14:53.519Z</time>
      </trkpt>
      <trkpt lat="43.18803" lon="3.14229">
        <ele>111</ele>
        <time>2024-03-31T09:14:57.519Z</time>
      </trkpt>
      <trkpt lat="43.188" lon="3.14221">
        <ele>111</ele>
        <time>2024-03-31T09:15:02.519Z</time>
      </trkpt>
      <trkpt lat="43.18797" lon="3.14213">
        <ele>111</ele>
        <time>2024-03-31T09:15:07.519Z</time>
      </trkpt>
      <trkpt lat="43.18794" lon="3.14204">
        <ele>112</ele>
        <time>2024-03-31T09:15:12.519Z</time>
      </trkpt>
      <trkpt lat="43.18792" lon="3.14198">
        <ele>112</ele>
        <time>2024-03-31T09:15:17.519Z</time>
      </trkpt>
      <trkpt lat="43.18788" lon="3.14193">
        <ele>110</ele>
        <time>2024-03-31T09:15:22.519Z</time>
      </trkpt>
      <trkpt lat="43.18785" lon="3.14187">
        <ele>110</ele>
        <time>2024-03-31T09:15:27.519Z</time>
      </trkpt>
      <trkpt lat="43.18783" lon="3.14181">
        <ele>110</ele>
        <time>2024-03-31T09:15:32.519Z</time>
      </trkpt>
      <trkpt lat="43.1878" lon="3.14177">
        <ele>110</ele>
        <time>2024-03-31T09:15:37.519Z</time>
      </trkpt>
      <trkpt lat="43.18777" lon="3.14174">
        <ele>110</ele>
        <time>2024-03-31T09:15:41.519Z</time>
      </trkpt>
      <trkpt lat="43.18771" lon="3.1417">
        <ele>110</ele>
        <time>2024-03-31T09:15:46.519Z</time>
      </trkpt>
      <trkpt lat="43.18768" lon="3.14166">
        <ele>110</ele>
        <time>2024-03-31T09:15:50.519Z</time>
      </trkpt>
      <trkpt lat="43.18762" lon="3.14163">
        <ele>110</ele>
        <time>2024-03-31T09:15:55.519Z</time>
      </trkpt>
      <trkpt lat="43.18759" lon="3.14162">
        <ele>110</ele>
        <time>2024-03-31T09:15:59.519Z</time>
      </trkpt>
      <trkpt lat="43.18754" lon="3.14159">
        <ele>110</ele>
        <time>2024-03-31T09:16:04.519Z</time>
      </trkpt>
      <trkpt lat="43.1875" lon="3.14156">
        <ele>110</ele>
        <time>2024-03-31T09:16:08.519Z</time>
      </trkpt>
      <trkpt lat="43.18745" lon="3.14154">
        <ele>110</ele>
        <time>2024-03-31T09:16:13.519Z</time>
      </trkpt>
      <trkpt lat="43.18741" lon="3.14152">
        <ele>112</ele>
        <time>2024-03-31T09:16:18.519Z</time>
      </trkpt>
      <trkpt lat="43.18736" lon="3.14151">
        <ele>112</ele>
        <time>2024-03-31T09:16:23.519Z</time>
      </trkpt>
      <trkpt lat="43.18731" lon="3.14149">
        <ele>114</ele>
        <time>2024-03-31T09:16:28.519Z</time>
      </trkpt>
      <trkpt lat="43.18727" lon="3.14148">
        <ele>114</ele>
        <time>2024-03-31T09:16:32.519Z</time>
      </trkpt>
      <trkpt lat="43.18722" lon="3.14145">
        <ele>114</ele>
        <time>2024-03-31T09:16:37.519Z</time>
      </trkpt>
      <trkpt lat="43.18717" lon="3.14145">
        <ele>114</ele>
        <time>2024-03-31T09:16:42.519Z</time>
      </trkpt>
      <trkpt lat="43.18713" lon="3.14144">
        <ele>114</ele>
        <time>2024-03-31T09:16:47.519Z</time>
      </trkpt>
      <trkpt lat="43.18708" lon="3.14145">
        <ele>117</ele>
        <time>2024-03-31T09:16:52.519Z</time>
      </trkpt>
      <trkpt lat="43.18704" lon="3.14147">
        <ele>117</ele>
        <time>2024-03-31T09:16:56.519Z</time>
      </trkpt>
      <trkpt lat="43.18699" lon="3.14148">
        <ele>117</ele>
        <time>2024-03-31T09:17:01.519Z</time>
      </trkpt>
      <trkpt lat="43.18694" lon="3.14149">
        <ele>117</ele>
        <time>2024-03-31T09:17:06.519Z</time>
      </trkpt>
      <trkpt lat="43.1869" lon="3.14149">
        <ele>117</ele>
        <time>2024-03-31T09:17:10.519Z</time>
      </trkpt>
      <trkpt lat="43.18686" lon="3.14149">
        <ele>117</ele>
        <time>2024-03-31T09:17:15.519Z</time>
      </trkpt>
      <trkpt lat="43.18682" lon="3.14151">
        <ele>117</ele>
        <time>2024-03-31T09:17:19.519Z</time>
      </trkpt>
      <trkpt lat="43.18677" lon="3.14155">
        <ele>118</ele>
        <time>2024-03-31T09:17:24.519Z</time>
      </trkpt>
      <trkpt lat="43.18673" lon="3.14159">
        <ele>118</ele>
        <time>2024-03-31T09:17:29.519Z</time>
      </trkpt>
      <trkpt lat="43.18669" lon="3.14161">
        <ele>118</ele>
        <time>2024-03-31T09:17:34.519Z</time>
      </trkpt>
      <trkpt lat="43.18664" lon="3.14163">
        <ele>118</ele>
        <time>2024-03-31T09:17:39.519Z</time>
      </trkpt>
      <trkpt lat="43.1866" lon="3.14166">
        <ele>118</ele>
        <time>2024-03-31T09:17:44.519Z</time>
      </trkpt>
      <trkpt lat="43.18656" lon="3.14169">
        <ele>118</ele>
        <time>2024-03-31T09:17:49.519Z</time>
      </trkpt>
      <trkpt lat="43.18651" lon="3.14172">
        <ele>119</ele>
        <time>2024-03-31T09:17:54.519Z</time>
      </trkpt>
      <trkpt lat="43.18645" lon="3.14175">
        <ele>119</ele>
        <time>2024-03-31T09:17:59.519Z</time>
      </trkpt>
      <trkpt lat="43.18641" lon="3.14176">
        <ele>119</ele>
        <time>2024-03-31T09:18:03.519Z</time>
      </trkpt>
      <trkpt lat="43.18637" lon="3.14178">
        <ele>119</ele>
        <time>2024-03-31T09:18:08.519Z</time>
      </trkpt>
      <trkpt lat="43.18634" lon="3.1418">
        <ele>119</ele>
        <time>2024-03-31T09:18:12.519Z</time>
      </trkpt>
      <trkpt lat="43.18628" lon="3.14184">
        <ele>119</ele>
        <time>2024-03-31T09:18:17.519Z</time>
      </trkpt>
      <trkpt lat="43.18624" lon="3.14189">
        <ele>120</ele>
        <time>2024-03-31T09:18:22.519Z</time>
      </trkpt>
      <trkpt lat="43.18621" lon="3.14194">
        <ele>120</ele>
        <time>2024-03-31T09:18:27.519Z</time>
      </trkpt>
      <trkpt lat="43.18618" lon="3.14199">
        <ele>120</ele>
        <time>2024-03-31T09:18:32.519Z</time>
      </trkpt>
      <trkpt lat="43.18616" lon="3.14204">
        <ele>120</ele>
        <time>2024-03-31T09:18:37.519Z</time>
      </trkpt>
      <trkpt lat="43.18612" lon="3.14211">
        <ele>120</ele>
        <time>2024-03-31T09:18:42.519Z</time>
      </trkpt>
      <trkpt lat="43.18609" lon="3.14217">
        <ele>120</ele>
        <time>2024-03-31T09:18:47.519Z</time>
      </trkpt>
      <trkpt lat="43.18606" lon="3.14223">
        <ele>120</ele>
        <time>2024-03-31T09:18:52.519Z</time>
      </trkpt>
      <trkpt lat="43.18603" lon="3.14227">
        <ele>120</ele>
        <time>2024-03-31T09:18:56.519Z</time>
      </trkpt>
      <trkpt lat="43.18601" lon="3.14233">
        <ele>120</ele>
        <time>2024-03-31T09:19:01.519Z</time>
      </trkpt>
      <trkpt lat="43.18598" lon="3.14238">
        <ele>119</ele>
        <time>2024-03-31T09:19:06.519Z</time>
      </trkpt>
      <trkpt lat="43.18594" lon="3.14243">
        <ele>123</ele>
        <time>2024-03-31T09:19:11.519Z</time>
      </trkpt>
      <trkpt lat="43.1859" lon="3.14246">
        <ele>123</ele>
        <time>2024-03-31T09:19:15.519Z</time>
      </trkpt>
      <trkpt lat="43.18586" lon="3.14251">
        <ele>123</ele>
        <time>2024-03-31T09:19:20.519Z</time>
      </trkpt>
      <trkpt lat="43.18583" lon="3.14254">
        <ele>123</ele>
        <time>2024-03-31T09:19:25.520Z</time>
      </trkpt>
      <trkpt lat="43.18579" lon="3.14258">
        <ele>123</ele>
        <time>2024-03-31T09:19:30.520Z</time>
      </trkpt>
      <trkpt lat="43.18574" lon="3.14261">
        <ele>123</ele>
        <time>2024-03-31T09:19:35.520Z</time>
      </trkpt>
      <trkpt lat="43.1857" lon="3.14264">
        <ele>122</ele>
        <time>2024-03-31T09:19:40.520Z</time>
      </trkpt>
      <trkpt lat="43.18566" lon="3.14267">
        <ele>125</ele>
        <time>2024-03-31T09:19:45.520Z</time>
      </trkpt>
      <trkpt lat="43.18562" lon="3.14269">
        <ele>125</ele>
        <time>2024-03-31T09:19:49.520Z</time>
      </trkpt>
      <trkpt lat="43.18558" lon="3.14272">
        <ele>125</ele>
        <time>2024-03-31T09:19:54.520Z</time>
      </trkpt>
      <trkpt lat="43.18553" lon="3.14275">
        <ele>125</ele>
        <time>2024-03-31T09:19:59.520Z</time>
      </trkpt>
      <trkpt lat="43.18548" lon="3.14279">
        <ele>125</ele>
        <time>2024-03-31T09:20:04.520Z</time>
      </trkpt>
      <trkpt lat="43.18543" lon="3.1428">
        <ele>125</ele>
        <time>2024-03-31T09:20:09.520Z</time>
      </trkpt>
      <trkpt lat="43.1854" lon="3.14281">
        <ele>127</ele>
        <time>2024-03-31T09:20:14.520Z</time>
      </trkpt>
      <trkpt lat="43.18535" lon="3.14281">
        <ele>127</ele>
        <time>2024-03-31T09:20:19.520Z</time>
      </trkpt>
      <trkpt lat="43.1853" lon="3.14282">
        <ele>127</ele>
        <time>2024-03-31T09:20:24.520Z</time>
      </trkpt>
      <trkpt lat="43.18527" lon="3.14282">
        <ele>127</ele>
        <time>2024-03-31T09:20:28.520Z</time>
      </trkpt>
      <trkpt lat="43.18523" lon="3.14284">
        <ele>127</ele>
        <time>2024-03-31T09:20:33.520Z</time>
      </trkpt>
      <trkpt lat="43.1852" lon="3.14285">
        <ele>127</ele>
        <time>2024-03-31T09:20:37.520Z</time>
      </trkpt>
      <trkpt lat="43.18515" lon="3.14286">
        <ele>127</ele>
        <time>2024-03-31T09:20:42.520Z</time>
      </trkpt>
      <trkpt lat="43.18511" lon="3.14286">
        <ele>132</ele>
        <time>2024-03-31T09:20:47.520Z</time>
      </trkpt>
      <trkpt lat="43.18507" lon="3.14287">
        <ele>132</ele>
        <time>2024-03-31T09:20:52.520Z</time>
      </trkpt>
      <trkpt lat="43.18501" lon="3.14288">
        <ele>132</ele>
        <time>2024-03-31T09:20:57.520Z</time>
      </trkpt>
      <trkpt lat="43.18496" lon="3.14289">
        <ele>132</ele>
        <time>2024-03-31T09:21:02.520Z</time>
      </trkpt>
      <trkpt lat="43.18489" lon="3.14288">
        <ele>132</ele>
        <time>2024-03-31T09:21:07.520Z</time>
      </trkpt>
      <trkpt lat="43.18485" lon="3.14289">
        <ele>135</ele>
        <time>2024-03-31T09:21:11.520Z</time>
      </trkpt>
      <trkpt lat="43.18481" lon="3.14291">
        <ele>135</ele>
        <time>2024-03-31T09:21:15.520Z</time>
      </trkpt>
      <trkpt lat="43.18478" lon="3.14292">
        <ele>135</ele>
        <time>2024-03-31T09:21:20.520Z</time>
      </trkpt>
      <trkpt lat="43.18472" lon="3.14292">
        <ele>131</ele>
        <time>2024-03-31T09:21:25.520Z</time>
      </trkpt>
      <trkpt lat="43.18467" lon="3.14295">
        <ele>131</ele>
        <time>2024-03-31T09:21:30.520Z</time>
      </trkpt>
      <trkpt lat="43.18463" lon="3.14299">
        <ele>131</ele>
        <time>2024-03-31T09:21:34.520Z</time>
      </trkpt>
      <trkpt lat="43.18459" lon="3.143">
        <ele>131</ele>
        <time>2024-03-31T09:21:38.520Z</time>
      </trkpt>
      <trkpt lat="43.18455" lon="3.143">
        <ele>132</ele>
        <time>2024-03-31T09:21:43.520Z</time>
      </trkpt>
      <trkpt lat="43.18451" lon="3.143">
        <ele>132</ele>
        <time>2024-03-31T09:21:47.520Z</time>
      </trkpt>
      <trkpt lat="43.18445" lon="3.14302">
        <ele>132</ele>
        <time>2024-03-31T09:21:52.520Z</time>
      </trkpt>
      <trkpt lat="43.18439" lon="3.14303">
        <ele>132</ele>
        <time>2024-03-31T09:21:57.520Z</time>
      </trkpt>
      <trkpt lat="43.18433" lon="3.14302">
        <ele>132</ele>
        <time>2024-03-31T09:22:02.520Z</time>
      </trkpt>
      <trkpt lat="43.18427" lon="3.14304">
        <ele>134</ele>
        <time>2024-03-31T09:22:07.520Z</time>
      </trkpt>
      <trkpt lat="43.18423" lon="3.14307">
        <ele>134</ele>
        <time>2024-03-31T09:22:11.520Z</time>
      </trkpt>
      <trkpt lat="43.1842" lon="3.14311">
        <ele>134</ele>
        <time>2024-03-31T09:22:15.520Z</time>
      </trkpt>
      <trkpt lat="43.18415" lon="3.14315">
        <ele>134</ele>
        <time>2024-03-31T09:22:20.520Z</time>
      </trkpt>
      <trkpt lat="43.1841" lon="3.14321">
        <ele>133</ele>
        <time>2024-03-31T09:22:25.520Z</time>
      </trkpt>
      <trkpt lat="43.18406" lon="3.14325">
        <ele>133</ele>
        <time>2024-03-31T09:22:29.520Z</time>
      </trkpt>
      <trkpt lat="43.18402" lon="3.14328">
        <ele>136</ele>
        <time>2024-03-31T09:22:34.520Z</time>
      </trkpt>
      <trkpt lat="43.18397" lon="3.14331">
        <ele>136</ele>
        <time>2024-03-31T09:22:39.520Z</time>
      </trkpt>
      <trkpt lat="43.18395" lon="3.14333">
        <ele>136</ele>
        <time>2024-03-31T09:22:43.520Z</time>
      </trkpt>
      <trkpt lat="43.18392" lon="3.14335">
        <ele>136</ele>
        <time>2024-03-31T09:22:47.520Z</time>
      </trkpt>
      <trkpt lat="43.18388" lon="3.14337">
        <ele>136</ele>
        <time>2024-03-31T09:22:52.520Z</time>
      </trkpt>
      <trkpt lat="43.18383" lon="3.14339">
        <ele>136</ele>
        <time>2024-03-31T09:22:57.520Z</time>
      </trkpt>
      <trkpt lat="43.1838" lon="3.14341">
        <ele>136</ele>
        <time>2024-03-31T09:23:01.520Z</time>
      </trkpt>
      <trkpt lat="43.18375" lon="3.14344">
        <ele>138</ele>
        <time>2024-03-31T09:23:06.520Z</time>
      </trkpt>
      <trkpt lat="43.18369" lon="3.14346">
        <ele>138</ele>
        <time>2024-03-31T09:23:11.520Z</time>
      </trkpt>
      <trkpt lat="43.18363" lon="3.14349">
        <ele>135</ele>
        <time>2024-03-31T09:23:16.520Z</time>
      </trkpt>
      <trkpt lat="43.18357" lon="3.14352">
        <ele>135</ele>
        <time>2024-03-31T09:23:21.520Z</time>
      </trkpt>
      <trkpt lat="43.18352" lon="3.14355">
        <ele>135</ele>
        <time>2024-03-31T09:23:26.520Z</time>
      </trkpt>
      <trkpt lat="43.18347" lon="3.14357">
        <ele>135</ele>
        <time>2024-03-31T09:23:31.520Z</time>
      </trkpt>
      <trkpt lat="43.18344" lon="3.14359">
        <ele>138</ele>
        <time>2024-03-31T09:23:35.520Z</time>
      </trkpt>
      <trkpt lat="43.1834" lon="3.14364">
        <ele>138</ele>
        <time>2024-03-31T09:23:40.520Z</time>
      </trkpt>
      <trkpt lat="43.18335" lon="3.14366">
        <ele>138</ele>
        <time>2024-03-31T09:23:45.520Z</time>
      </trkpt>
      <trkpt lat="43.18331" lon="3.14368">
        <ele>138</ele>
        <time>2024-03-31T09:23:49.520Z</time>
      </trkpt>
      <trkpt lat="43.18327" lon="3.14369">
        <ele>138</ele>
        <time>2024-03-31T09:23:54.520Z</time>
      </trkpt>
      <trkpt lat="43.18322" lon="3.14371">
        <ele>138</ele>
        <time>2024-03-31T09:23:59.520Z</time>
      </trkpt>
      <trkpt lat="43.18317" lon="3.14372">
        <ele>142</ele>
        <time>2024-03-31T09:24:04.520Z</time>
      </trkpt>
      <trkpt lat="43.18313" lon="3.14374">
        <ele>142</ele>
        <time>2024-03-31T09:24:08.520Z</time>
      </trkpt>
      <trkpt lat="43.18309" lon="3.14377">
        <ele>139</ele>
        <time>2024-03-31T09:24:12.520Z</time>
      </trkpt>
      <trkpt lat="43.18304" lon="3.1438">
        <ele>139</ele>
        <time>2024-03-31T09:24:17.520Z</time>
      </trkpt>
      <trkpt lat="43.18301" lon="3.14382">
        <ele>139</ele>
        <time>2024-03-31T09:24:21.520Z</time>
      </trkpt>
      <trkpt lat="43.18296" lon="3.14384">
        <ele>139</ele>
        <time>2024-03-31T09:24:26.520Z</time>
      </trkpt>
      <trkpt lat="43.18292" lon="3.14386">
        <ele>142</ele>
        <time>2024-03-31T09:24:31.520Z</time>
      </trkpt>
      <trkpt lat="43.18287" lon="3.14389">
        <ele>142</ele>
        <time>2024-03-31T09:24:36.520Z</time>
      </trkpt>
      <trkpt lat="43.18282" lon="3.14392">
        <ele>142</ele>
        <time>2024-03-31T09:24:41.520Z</time>
      </trkpt>
      <trkpt lat="43.18278" lon="3.14396">
        <ele>142</ele>
        <time>2024-03-31T09:24:46.520Z</time>
      </trkpt>
      <trkpt lat="43.18275" lon="3.144">
        <ele>142</ele>
        <time>2024-03-31T09:24:50.520Z</time>
      </trkpt>
      <trkpt lat="43.18271" lon="3.14406">
        <ele>140</ele>
        <time>2024-03-31T09:24:55.520Z</time>
      </trkpt>
      <trkpt lat="43.18269" lon="3.14411">
        <ele>140</ele>
        <time>2024-03-31T09:24:59.520Z</time>
      </trkpt>
      <trkpt lat="43.18265" lon="3.14418">
        <ele>140</ele>
        <time>2024-03-31T09:25:04.520Z</time>
      </trkpt>
      <trkpt lat="43.18261" lon="3.14424">
        <ele>144</ele>
        <time>2024-03-31T09:25:09.520Z</time>
      </trkpt>
      <trkpt lat="43.18256" lon="3.14429">
        <ele>144</ele>
        <time>2024-03-31T09:25:14.520Z</time>
      </trkpt>
      <trkpt lat="43.18251" lon="3.14435">
        <ele>143</ele>
        <time>2024-03-31T09:25:19.520Z</time>
      </trkpt>
      <trkpt lat="43.18247" lon="3.1444">
        <ele>143</ele>
        <time>2024-03-31T09:25:24.520Z</time>
      </trkpt>
      <trkpt lat="43.18242" lon="3.14445">
        <ele>143</ele>
        <time>2024-03-31T09:25:29.520Z</time>
      </trkpt>
      <trkpt lat="43.1824" lon="3.14449">
        <ele>143</ele>
        <time>2024-03-31T09:25:34.520Z</time>
      </trkpt>
      <trkpt lat="43.18237" lon="3.14452">
        <ele>143</ele>
        <time>2024-03-31T09:25:38.520Z</time>
      </trkpt>
      <trkpt lat="43.18234" lon="3.14456">
        <ele>147</ele>
        <time>2024-03-31T09:25:43.520Z</time>
      </trkpt>
      <trkpt lat="43.1823" lon="3.14463">
        <ele>147</ele>
        <time>2024-03-31T09:25:48.520Z</time>
      </trkpt>
      <trkpt lat="43.18227" lon="3.1447">
        <ele>147</ele>
        <time>2024-03-31T09:25:53.520Z</time>
      </trkpt>
      <trkpt lat="43.18223" lon="3.14476">
        <ele>147</ele>
        <time>2024-03-31T09:25:58.520Z</time>
      </trkpt>
      <trkpt lat="43.1822" lon="3.14483">
        <ele>147</ele>
        <time>2024-03-31T09:26:03.520Z</time>
      </trkpt>
      <trkpt lat="43.18217" lon="3.14488">
        <ele>145</ele>
        <time>2024-03-31T09:26:07.520Z</time>
      </trkpt>
      <trkpt lat="43.18215" lon="3.14493">
        <ele>145</ele>
        <time>2024-03-31T09:26:12.520Z</time>
      </trkpt>
      <trkpt lat="43.18212" lon="3.14499">
        <ele>145</ele>
        <time>2024-03-31T09:26:16.520Z</time>
      </trkpt>
      <trkpt lat="43.18208" lon="3.14505">
        <ele>150</ele>
        <time>2024-03-31T09:26:21.520Z</time>
      </trkpt>
      <trkpt lat="43.18205" lon="3.1451">
        <ele>150</ele>
        <time>2024-03-31T09:26:25.520Z</time>
      </trkpt>
      <trkpt lat="43.18202" lon="3.14516">
        <ele>147</ele>
        <time>2024-03-31T09:26:30.520Z</time>
      </trkpt>
      <trkpt lat="43.18198" lon="3.14521">
        <ele>147</ele>
        <time>2024-03-31T09:26:35.520Z</time>
      </trkpt>
      <trkpt lat="43.18194" lon="3.14526">
        <ele>147</ele>
        <time>2024-03-31T09:26:40.520Z</time>
      </trkpt>
      <trkpt lat="43.18191" lon="3.1453">
        <ele>147</ele>
        <time>2024-03-31T09:26:44.520Z</time>
      </trkpt>
      <trkpt lat="43.18186" lon="3.14537">
        <ele>147</ele>
        <time>2024-03-31T09:26:49.520Z</time>
      </trkpt>
      <trkpt lat="43.18182" lon="3.14543">
        <ele>146</ele>
        <time>2024-03-31T09:26:54.520Z</time>
      </trkpt>
      <trkpt lat="43.18179" lon="3.14547">
        <ele>150</ele>
        <time>2024-03-31T09:26:58.520Z</time>
      </trkpt>
      <trkpt lat="43.18176" lon="3.1455">
        <ele>150</ele>
        <time>2024-03-31T09:27:02.520Z</time>
      </trkpt>
      <trkpt lat="43.18171" lon="3.14555">
        <ele>150</ele>
        <time>2024-03-31T09:27:07.520Z</time>
      </trkpt>
      <trkpt lat="43.18167" lon="3.1456">
        <ele>150</ele>
        <time>2024-03-31T09:27:12.521Z</time>
      </trkpt>
      <trkpt lat="43.18163" lon="3.14563">
        <ele>150</ele>
        <time>2024-03-31T09:27:17.521Z</time>
      </trkpt>
      <trkpt lat="43.1816" lon="3.14563">
        <ele>150</ele>
        <time>2024-03-31T09:27:21.521Z</time>
      </trkpt>
      <trkpt lat="43.18157" lon="3.14559">
        <ele>150</ele>
        <time>2024-03-31T09:27:26.521Z</time>
      </trkpt>
      <trkpt lat="43.18156" lon="3.14555">
        <ele>150</ele>
        <time>2024-03-31T09:27:30.521Z</time>
      </trkpt>
      <trkpt lat="43.18156" lon="3.14548">
        <ele>150</ele>
        <time>2024-03-31T09:27:35.521Z</time>
      </trkpt>
      <trkpt lat="43.18158" lon="3.14541">
        <ele>150</ele>
        <time>2024-03-31T09:27:40.521Z</time>
      </trkpt>
      <trkpt lat="43.18159" lon="3.14535">
        <ele>150</ele>
        <time>2024-03-31T09:27:44.521Z</time>
      </trkpt>
      <trkpt lat="43.1816" lon="3.14528">
        <ele>150</ele>
        <time>2024-03-31T09:27:49.521Z</time>
      </trkpt>
      <trkpt lat="43.18162" lon="3.14523">
        <ele>150</ele>
        <time>2024-03-31T09:27:53.521Z</time>
      </trkpt>
      <trkpt lat="43.18164" lon="3.14516">
        <ele>150</ele>
        <time>2024-03-31T09:27:58.521Z</time>
      </trkpt>
      <trkpt lat="43.18166" lon="3.14509">
        <ele>152</ele>
        <time>2024-03-31T09:28:03.521Z</time>
      </trkpt>
      <trkpt lat="43.18166" lon="3.14502">
        <ele>152</ele>
        <time>2024-03-31T09:28:07.521Z</time>
      </trkpt>
      <trkpt lat="43.18168" lon="3.14496">
        <ele>152</ele>
        <time>2024-03-31T09:28:12.521Z</time>
      </trkpt>
      <trkpt lat="43.18171" lon="3.1449">
        <ele>152</ele>
        <time>2024-03-31T09:28:17.521Z</time>
      </trkpt>
      <trkpt lat="43.18174" lon="3.14485">
        <ele>156</ele>
        <time>2024-03-31T09:28:22.521Z</time>
      </trkpt>
      <trkpt lat="43.18172" lon="3.14469">
        <ele>156</ele>
        <time>2024-03-31T09:28:46.521Z</time>
      </trkpt>
      <trkpt lat="43.18168" lon="3.14472">
        <ele>156</ele>
        <time>2024-03-31T09:28:51.521Z</time>
      </trkpt>
      <trkpt lat="43.18166" lon="3.14474">
        <ele>156</ele>
        <time>2024-03-31T09:28:55.521Z</time>
      </trkpt>
      <trkpt lat="43.18162" lon="3.14479">
        <ele>156</ele>
        <time>2024-03-31T09:29:00.521Z</time>
      </trkpt>
      <trkpt lat="43.18158" lon="3.14486">
        <ele>156</ele>
        <time>2024-03-31T09:29:05.521Z</time>
      </trkpt>
      <trkpt lat="43.18154" lon="3.14492">
        <ele>152</ele>
        <time>2024-03-31T09:29:09.521Z</time>
      </trkpt>
      <trkpt lat="43.18149" lon="3.14497">
        <ele>156</ele>
        <time>2024-03-31T09:29:14.521Z</time>
      </trkpt>
      <trkpt lat="43.18147" lon="3.14503">
        <ele>156</ele>
        <time>2024-03-31T09:29:18.521Z</time>
      </trkpt>
      <trkpt lat="43.18144" lon="3.14509">
        <ele>156</ele>
        <time>2024-03-31T09:29:23.521Z</time>
      </trkpt>
      <trkpt lat="43.18139" lon="3.14514">
        <ele>155</ele>
        <time>2024-03-31T09:29:28.521Z</time>
      </trkpt>
      <trkpt lat="43.18135" lon="3.14519">
        <ele>155</ele>
        <time>2024-03-31T09:29:33.521Z</time>
      </trkpt>
      <trkpt lat="43.18131" lon="3.14524">
        <ele>155</ele>
        <time>2024-03-31T09:29:38.521Z</time>
      </trkpt>
      <trkpt lat="43.18128" lon="3.14529">
        <ele>155</ele>
        <time>2024-03-31T09:29:43.521Z</time>
      </trkpt>
      <trkpt lat="43.18124" lon="3.14535">
        <ele>160</ele>
        <time>2024-03-31T09:29:48.521Z</time>
      </trkpt>
      <trkpt lat="43.18121" lon="3.1454">
        <ele>160</ele>
        <time>2024-03-31T09:29:53.521Z</time>
      </trkpt>
      <trkpt lat="43.18118" lon="3.14544">
        <ele>160</ele>
        <time>2024-03-31T09:29:58.521Z</time>
      </trkpt>
      <trkpt lat="43.18114" lon="3.14548">
        <ele>160</ele>
        <time>2024-03-31T09:30:03.521Z</time>
      </trkpt>
      <trkpt lat="43.18111" lon="3.14553">
        <ele>160</ele>
        <time>2024-03-31T09:30:08.521Z</time>
      </trkpt>
      <trkpt lat="43.18107" lon="3.14559">
        <ele>160</ele>
        <time>2024-03-31T09:30:13.521Z</time>
      </trkpt>
      <trkpt lat="43.18103" lon="3.14564">
        <ele>160</ele>
        <time>2024-03-31T09:30:18.521Z</time>
      </trkpt>
      <trkpt lat="43.181" lon="3.14569">
        <ele>160</ele>
        <time>2024-03-31T09:30:23.521Z</time>
      </trkpt>
      <trkpt lat="43.18097" lon="3.14573">
        <ele>163</ele>
        <time>2024-03-31T09:30:28.521Z</time>
      </trkpt>
      <trkpt lat="43.18094" lon="3.14578">
        <ele>163</ele>
        <time>2024-03-31T09:30:33.521Z</time>
      </trkpt>
      <trkpt lat="43.18091" lon="3.14584">
        <ele>163</ele>
        <time>2024-03-31T09:30:38.521Z</time>
      </trkpt>
      <trkpt lat="43.18089" lon="3.14588">
        <ele>163</ele>
        <time>2024-03-31T09:30:43.521Z</time>
      </trkpt>
      <trkpt lat="43.18086" lon="3.14594">
        <ele>163</ele>
        <time>2024-03-31T09:30:48.521Z</time>
      </trkpt>
      <trkpt lat="43.18083" lon="3.146">
        <ele>163</ele>
        <time>2024-03-31T09:30:53.521Z</time>
      </trkpt>
      <trkpt lat="43.1808" lon="3.14605">
        <ele>163</ele>
        <time>2024-03-31T09:30:57.521Z</time>
      </trkpt>
      <trkpt lat="43.18077" lon="3.14611">
        <ele>163</ele>
        <time>2024-03-31T09:31:02.521Z</time>
      </trkpt>
      <trkpt lat="43.18075" lon="3.14614">
        <ele>163</ele>
        <time>2024-03-31T09:31:06.521Z</time>
      </trkpt>
      <trkpt lat="43.18073" lon="3.14618">
        <ele>163</ele>
        <time>2024-03-31T09:31:10.521Z</time>
      </trkpt>
      <trkpt lat="43.1807" lon="3.14624">
        <ele>163</ele>
        <time>2024-03-31T09:31:15.521Z</time>
      </trkpt>
      <trkpt lat="43.18067" lon="3.14629">
        <ele>167</ele>
        <time>2024-03-31T09:31:20.521Z</time>
      </trkpt>
      <trkpt lat="43.18065" lon="3.14634">
        <ele>167</ele>
        <time>2024-03-31T09:31:25.521Z</time>
      </trkpt>
      <trkpt lat="43.18063" lon="3.14637">
        <ele>167</ele>
        <time>2024-03-31T09:31:29.521Z</time>
      </trkpt>
      <trkpt lat="43.1806" lon="3.14638">
        <ele>167</ele>
        <time>2024-03-31T09:31:34.521Z</time>
      </trkpt>
      <trkpt lat="43.18058" lon="3.14645">
        <ele>167</ele>
        <time>2024-03-31T09:31:39.521Z</time>
      </trkpt>
      <trkpt lat="43.18055" lon="3.14651">
        <ele>167</ele>
        <time>2024-03-31T09:31:44.521Z</time>
      </trkpt>
      <trkpt lat="43.18053" lon="3.14657">
        <ele>167</ele>
        <time>2024-03-31T09:31:49.521Z</time>
      </trkpt>
      <trkpt lat="43.18051" lon="3.14665">
        <ele>167</ele>
        <time>2024-03-31T09:31:54.521Z</time>
      </trkpt>
      <trkpt lat="43.1805" lon="3.14671">
        <ele>167</ele>
        <time>2024-03-31T09:31:59.521Z</time>
      </trkpt>
      <trkpt lat="43.18048" lon="3.14677">
        <ele>167</ele>
        <time>2024-03-31T09:32:04.521Z</time>
      </trkpt>
      <trkpt lat="43.18046" lon="3.14682">
        <ele>167</ele>
        <time>2024-03-31T09:32:08.521Z</time>
      </trkpt>
      <trkpt lat="43.18043" lon="3.14688">
        <ele>167</ele>
        <time>2024-03-31T09:32:13.521Z</time>
      </trkpt>
      <trkpt lat="43.18044" lon="3.14696">
        <ele>167</ele>
        <time>2024-03-31T09:32:18.521Z</time>
      </trkpt>
      <trkpt lat="43.18042" lon="3.14702">
        <ele>167</ele>
        <time>2024-03-31T09:32:23.521Z</time>
      </trkpt>
      <trkpt lat="43.18041" lon="3.14711">
        <ele>168</ele>
        <time>2024-03-31T09:32:28.521Z</time>
      </trkpt>
      <trkpt lat="43.1804" lon="3.14719">
        <ele>168</ele>
        <time>2024-03-31T09:32:33.521Z</time>
      </trkpt>
      <trkpt lat="43.18039" lon="3.14724">
        <ele>168</ele>
        <time>2024-03-31T09:32:38.521Z</time>
      </trkpt>
      <trkpt lat="43.18039" lon="3.14729">
        <ele>168</ele>
        <time>2024-03-31T09:32:43.521Z</time>
      </trkpt>
      <trkpt lat="43.18039" lon="3.14736">
        <ele>168</ele>
        <time>2024-03-31T09:32:48.521Z</time>
      </trkpt>
      <trkpt lat="43.1804" lon="3.14743">
        <ele>169</ele>
        <time>2024-03-31T09:32:53.521Z</time>
      </trkpt>
      <trkpt lat="43.1804" lon="3.14749">
        <ele>169</ele>
        <time>2024-03-31T09:32:58.521Z</time>
      </trkpt>
      <trkpt lat="43.1804" lon="3.14755">
        <ele>169</ele>
        <time>2024-03-31T09:33:03.521Z</time>
      </trkpt>
      <trkpt lat="43.1804" lon="3.14762">
        <ele>169</ele>
        <time>2024-03-31T09:33:08.521Z</time>
      </trkpt>
      <trkpt lat="43.1804" lon="3.14769">
        <ele>169</ele>
        <time>2024-03-31T09:33:13.521Z</time>
      </trkpt>
      <trkpt lat="43.1804" lon="3.14777">
        <ele>169</ele>
        <time>2024-03-31T09:33:18.521Z</time>
      </trkpt>
      <trkpt lat="43.1804" lon="3.14784">
        <ele>169</ele>
        <time>2024-03-31T09:33:23.521Z</time>
      </trkpt>
      <trkpt lat="43.18039" lon="3.14791">
        <ele>169</ele>
        <time>2024-03-31T09:33:28.521Z</time>
      </trkpt>
      <trkpt lat="43.1804" lon="3.14797">
        <ele>170</ele>
        <time>2024-03-31T09:33:32.521Z</time>
      </trkpt>
      <trkpt lat="43.1804" lon="3.14805">
        <ele>170</ele>
        <time>2024-03-31T09:33:37.521Z</time>
      </trkpt>
      <trkpt lat="43.1804" lon="3.1481">
        <ele>170</ele>
        <time>2024-03-31T09:33:41.521Z</time>
      </trkpt>
      <trkpt lat="43.1804" lon="3.14815">
        <ele>170</ele>
        <time>2024-03-31T09:33:46.521Z</time>
      </trkpt>
      <trkpt lat="43.18039" lon="3.14821">
        <ele>171</ele>
        <time>2024-03-31T09:33:50.521Z</time>
      </trkpt>
      <trkpt lat="43.18039" lon="3.14829">
        <ele>171</ele>
        <time>2024-03-31T09:33:55.521Z</time>
      </trkpt>
      <trkpt lat="43.18039" lon="3.14836">
        <ele>171</ele>
        <time>2024-03-31T09:34:00.521Z</time>
      </trkpt>
      <trkpt lat="43.18039" lon="3.14843">
        <ele>171</ele>
        <time>2024-03-31T09:34:05.521Z</time>
      </trkpt>
      <trkpt lat="43.18039" lon="3.1485">
        <ele>171</ele>
        <time>2024-03-31T09:34:10.521Z</time>
      </trkpt>
      <trkpt lat="43.18037" lon="3.14856">
        <ele>171</ele>
        <time>2024-03-31T09:34:15.521Z</time>
      </trkpt>
      <trkpt lat="43.18034" lon="3.14861">
        <ele>171</ele>
        <time>2024-03-31T09:34:19.521Z</time>
      </trkpt>
      <trkpt lat="43.18031" lon="3.14867">
        <ele>171</ele>
        <time>2024-03-31T09:34:24.521Z</time>
      </trkpt>
      <trkpt lat="43.18028" lon="3.14873">
        <ele>171</ele>
        <time>2024-03-31T09:34:29.521Z</time>
      </trkpt>
      <trkpt lat="43.18024" lon="3.14877">
        <ele>170</ele>
        <time>2024-03-31T09:34:34.521Z</time>
      </trkpt>
      <trkpt lat="43.1802" lon="3.14881">
        <ele>170</ele>
        <time>2024-03-31T09:34:39.521Z</time>
      </trkpt>
      <trkpt lat="43.18016" lon="3.14884">
        <ele>170</ele>
        <time>2024-03-31T09:34:43.521Z</time>
      </trkpt>
      <trkpt lat="43.18012" lon="3.14887">
        <ele>170</ele>
        <time>2024-03-31T09:34:48.521Z</time>
      </trkpt>
      <trkpt lat="43.18009" lon="3.14892">
        <ele>170</ele>
        <time>2024-03-31T09:34:52.522Z</time>
      </trkpt>
      <trkpt lat="43.18004" lon="3.14898">
        <ele>170</ele>
        <time>2024-03-31T09:34:57.522Z</time>
      </trkpt>
      <trkpt lat="43.17998" lon="3.14903">
        <ele>169</ele>
        <time>2024-03-31T09:35:02.522Z</time>
      </trkpt>
      <trkpt lat="43.17995" lon="3.14908">
        <ele>169</ele>
        <time>2024-03-31T09:35:07.522Z</time>
      </trkpt>
      <trkpt lat="43.17991" lon="3.14913">
        <ele>169</ele>
        <time>2024-03-31T09:35:12.522Z</time>
      </trkpt>
      <trkpt lat="43.17988" lon="3.14918">
        <ele>169</ele>
        <time>2024-03-31T09:35:17.522Z</time>
      </trkpt>
      <trkpt lat="43.17985" lon="3.14922">
        <ele>170</ele>
        <time>2024-03-31T09:35:22.522Z</time>
      </trkpt>
      <trkpt lat="43.1798" lon="3.14925">
        <ele>170</ele>
        <time>2024-03-31T09:35:27.522Z</time>
      </trkpt>
      <trkpt lat="43.17977" lon="3.14927">
        <ele>170</ele>
        <time>2024-03-31T09:35:32.522Z</time>
      </trkpt>
      <trkpt lat="43.17972" lon="3.14921">
        <ele>170</ele>
        <time>2024-03-31T09:36:10.522Z</time>
      </trkpt>
      <trkpt lat="43.17969" lon="3.1492">
        <ele>170</ele>
        <time>2024-03-31T09:36:14.522Z</time>
      </trkpt>
      <trkpt lat="43.17969" lon="3.14921">
        <ele>170</ele>
        <time>2024-03-31T09:36:19.522Z</time>
      </trkpt>
      <trkpt lat="43.17969" lon="3.14921">
        <ele>170</ele>
        <time>2024-03-31T09:36:24.522Z</time>
      </trkpt>
      <trkpt lat="43.17967" lon="3.1492">
        <ele>170</ele>
        <time>2024-03-31T09:36:37.522Z</time>
      </trkpt>
      <trkpt lat="43.17966" lon="3.14915">
        <ele>170</ele>
        <time>2024-03-31T09:36:42.522Z</time>
      </trkpt>
      <trkpt lat="43.17965" lon="3.14912">
        <ele>170</ele>
        <time>2024-03-31T09:36:47.522Z</time>
      </trkpt>
      <trkpt lat="43.17964" lon="3.14907">
        <ele>170</ele>
        <time>2024-03-31T09:36:52.522Z</time>
      </trkpt>
      <trkpt lat="43.17962" lon="3.14902">
        <ele>170</ele>
        <time>2024-03-31T09:36:57.522Z</time>
      </trkpt>
      <trkpt lat="43.1796" lon="3.149">
        <ele>170</ele>
        <time>2024-03-31T09:37:01.522Z</time>
      </trkpt>
      <trkpt lat="43.17957" lon="3.149">
        <ele>169</ele>
        <time>2024-03-31T09:37:06.522Z</time>
      </trkpt>
      <trkpt lat="43.17953" lon="3.14898">
        <ele>169</ele>
        <time>2024-03-31T09:37:11.522Z</time>
      </trkpt>
      <trkpt lat="43.17952" lon="3.14895">
        <ele>169</ele>
        <time>2024-03-31T09:37:15.522Z</time>
      </trkpt>
      <trkpt lat="43.17949" lon="3.14893">
        <ele>169</ele>
        <time>2024-03-31T09:37:20.522Z</time>
      </trkpt>
      <trkpt lat="43.17946" lon="3.14889">
        <ele>169</ele>
        <time>2024-03-31T09:37:44.522Z</time>
      </trkpt>
      <trkpt lat="43.17949" lon="3.14886">
        <ele>169</ele>
        <time>2024-03-31T09:37:49.522Z</time>
      </trkpt>
      <trkpt lat="43.17951" lon="3.14883">
        <ele>169</ele>
        <time>2024-03-31T09:37:53.522Z</time>
      </trkpt>
      <trkpt lat="43.17951" lon="3.14879">
        <ele>169</ele>
        <time>2024-03-31T09:37:58.522Z</time>
      </trkpt>
      <trkpt lat="43.17952" lon="3.14877">
        <ele>169</ele>
        <time>2024-03-31T09:38:03.522Z</time>
      </trkpt>
      <trkpt lat="43.1796" lon="3.14872">
        <ele>170</ele>
        <time>2024-03-31T09:38:28.522Z</time>
      </trkpt>
      <trkpt lat="43.17963" lon="3.14859">
        <ele>170</ele>
        <time>2024-03-31T09:38:38.522Z</time>
      </trkpt>
      <trkpt lat="43.17965" lon="3.14853">
        <ele>170</ele>
        <time>2024-03-31T09:38:43.522Z</time>
      </trkpt>
      <trkpt lat="43.17967" lon="3.14849">
        <ele>170</ele>
        <time>2024-03-31T09:38:48.522Z</time>
      </trkpt>
      <trkpt lat="43.1797" lon="3.14844">
        <ele>170</ele>
        <time>2024-03-31T09:38:53.522Z</time>
      </trkpt>
      <trkpt lat="43.17975" lon="3.14839">
        <ele>170</ele>
        <time>2024-03-31T09:39:01.522Z</time>
      </trkpt>
      <trkpt lat="43.17977" lon="3.14837">
        <ele>170</ele>
        <time>2024-03-31T09:39:06.522Z</time>
      </trkpt>
      <trkpt lat="43.17976" lon="3.14834">
        <ele>170</ele>
        <time>2024-03-31T09:39:11.522Z</time>
      </trkpt>
      <trkpt lat="43.17976" lon="3.14832">
        <ele>170</ele>
        <time>2024-03-31T09:39:15.522Z</time>
      </trkpt>
      <trkpt lat="43.17976" lon="3.14828">
        <ele>170</ele>
        <time>2024-03-31T09:39:20.522Z</time>
      </trkpt>
      <trkpt lat="43.17975" lon="3.14825">
        <ele>170</ele>
        <time>2024-03-31T09:39:25.522Z</time>
      </trkpt>
      <trkpt lat="43.17972" lon="3.14822">
        <ele>170</ele>
        <time>2024-03-31T09:39:30.522Z</time>
      </trkpt>
      <trkpt lat="43.17969" lon="3.1482">
        <ele>170</ele>
        <time>2024-03-31T09:39:35.522Z</time>
      </trkpt>
      <trkpt lat="43.17967" lon="3.14819">
        <ele>170</ele>
        <time>2024-03-31T09:39:40.522Z</time>
      </trkpt>
      <trkpt lat="43.17958" lon="3.14819">
        <ele>170</ele>
        <time>2024-03-31T09:52:20.523Z</time>
      </trkpt>
      <trkpt lat="43.17958" lon="3.14819">
        <ele>170</ele>
        <time>2024-03-31T09:52:25.523Z</time>
      </trkpt>
      <trkpt lat="43.17957" lon="3.14821">
        <ele>169</ele>
        <time>2024-03-31T09:53:46.524Z</time>
      </trkpt>
      <trkpt lat="43.17957" lon="3.14819">
        <ele>170</ele>
        <time>2024-03-31T09:53:50.524Z</time>
      </trkpt>
      <trkpt lat="43.17957" lon="3.14814">
        <ele>170</ele>
        <time>2024-03-31T09:53:55.524Z</time>
      </trkpt>
      <trkpt lat="43.17959" lon="3.1481">
        <ele>170</ele>
        <time>2024-03-31T09:54:00.524Z</time>
      </trkpt>
      <trkpt lat="43.17961" lon="3.14808">
        <ele>170</ele>
        <time>2024-03-31T09:54:04.524Z</time>
      </trkpt>
      <trkpt lat="43.17963" lon="3.14805">
        <ele>170</ele>
        <time>2024-03-31T09:54:08.524Z</time>
      </trkpt>
      <trkpt lat="43.17965" lon="3.14805">
        <ele>170</ele>
        <time>2024-03-31T09:54:12.524Z</time>
      </trkpt>
      <trkpt lat="43.17968" lon="3.14803">
        <ele>170</ele>
        <time>2024-03-31T09:54:17.524Z</time>
      </trkpt>
      <trkpt lat="43.17971" lon="3.148">
        <ele>170</ele>
        <time>2024-03-31T09:54:22.524Z</time>
      </trkpt>
      <trkpt lat="43.17974" lon="3.14797">
        <ele>170</ele>
        <time>2024-03-31T09:54:27.524Z</time>
      </trkpt>
      <trkpt lat="43.17978" lon="3.14798">
        <ele>170</ele>
        <time>2024-03-31T09:54:31.524Z</time>
      </trkpt>
      <trkpt lat="43.1798" lon="3.148">
        <ele>170</ele>
        <time>2024-03-31T09:54:36.524Z</time>
      </trkpt>
      <trkpt lat="43.1798" lon="3.14804">
        <ele>170</ele>
        <time>2024-03-31T09:54:40.524Z</time>
      </trkpt>
      <trkpt lat="43.17982" lon="3.14805">
        <ele>170</ele>
        <time>2024-03-31T09:54:44.524Z</time>
      </trkpt>
      <trkpt lat="43.17986" lon="3.14806">
        <ele>170</ele>
        <time>2024-03-31T09:54:49.524Z</time>
      </trkpt>
      <trkpt lat="43.1799" lon="3.14809">
        <ele>170</ele>
        <time>2024-03-31T09:54:54.524Z</time>
      </trkpt>
      <trkpt lat="43.17992" lon="3.14807">
        <ele>170</ele>
        <time>2024-03-31T09:54:58.524Z</time>
      </trkpt>
      <trkpt lat="43.17994" lon="3.14808">
        <ele>170</ele>
        <time>2024-03-31T09:55:03.524Z</time>
      </trkpt>
      <trkpt lat="43.17995" lon="3.1481">
        <ele>170</ele>
        <time>2024-03-31T09:55:08.524Z</time>
      </trkpt>
      <trkpt lat="43.17999" lon="3.14812">
        <ele>170</ele>
        <time>2024-03-31T09:55:13.524Z</time>
      </trkpt>
      <trkpt lat="43.17998" lon="3.14817">
        <ele>170</ele>
        <time>2024-03-31T09:55:18.524Z</time>
      </trkpt>
      <trkpt lat="43.18001" lon="3.1482">
        <ele>170</ele>
        <time>2024-03-31T09:55:23.524Z</time>
      </trkpt>
      <trkpt lat="43.18002" lon="3.14825">
        <ele>170</ele>
        <time>2024-03-31T09:55:27.524Z</time>
      </trkpt>
      <trkpt lat="43.18004" lon="3.14829">
        <ele>170</ele>
        <time>2024-03-31T09:55:32.524Z</time>
      </trkpt>
      <trkpt lat="43.18008" lon="3.14832">
        <ele>170</ele>
        <time>2024-03-31T09:55:37.524Z</time>
      </trkpt>
      <trkpt lat="43.18012" lon="3.14837">
        <ele>170</ele>
        <time>2024-03-31T09:55:42.524Z</time>
      </trkpt>
      <trkpt lat="43.18014" lon="3.1484">
        <ele>170</ele>
        <time>2024-03-31T09:55:46.524Z</time>
      </trkpt>
      <trkpt lat="43.18015" lon="3.14844">
        <ele>171</ele>
        <time>2024-03-31T09:55:50.524Z</time>
      </trkpt>
      <trkpt lat="43.18019" lon="3.14843">
        <ele>171</ele>
        <time>2024-03-31T09:55:55.524Z</time>
      </trkpt>
      <trkpt lat="43.18023" lon="3.14842">
        <ele>171</ele>
        <time>2024-03-31T09:56:00.524Z</time>
      </trkpt>
      <trkpt lat="43.1803" lon="3.14843">
        <ele>171</ele>
        <time>2024-03-31T09:56:20.524Z</time>
      </trkpt>
      <trkpt lat="43.1803" lon="3.14841">
        <ele>171</ele>
        <time>2024-03-31T09:56:38.524Z</time>
      </trkpt>
      <trkpt lat="43.18033" lon="3.14841">
        <ele>171</ele>
        <time>2024-03-31T09:56:42.524Z</time>
      </trkpt>
      <trkpt lat="43.18038" lon="3.14843">
        <ele>171</ele>
        <time>2024-03-31T09:56:47.524Z</time>
      </trkpt>
      <trkpt lat="43.18041" lon="3.14844">
        <ele>171</ele>
        <time>2024-03-31T09:56:51.524Z</time>
      </trkpt>
      <trkpt lat="43.18044" lon="3.14841">
        <ele>170</ele>
        <time>2024-03-31T09:56:55.524Z</time>
      </trkpt>
      <trkpt lat="43.18045" lon="3.14835">
        <ele>170</ele>
        <time>2024-03-31T09:57:00.524Z</time>
      </trkpt>
      <trkpt lat="43.18046" lon="3.14829">
        <ele>170</ele>
        <time>2024-03-31T09:57:04.524Z</time>
      </trkpt>
      <trkpt lat="43.18046" lon="3.14821">
        <ele>170</ele>
        <time>2024-03-31T09:57:09.524Z</time>
      </trkpt>
      <trkpt lat="43.18045" lon="3.14813">
        <ele>169</ele>
        <time>2024-03-31T09:57:14.524Z</time>
      </trkpt>
      <trkpt lat="43.18046" lon="3.14807">
        <ele>169</ele>
        <time>2024-03-31T09:57:18.524Z</time>
      </trkpt>
      <trkpt lat="43.18046" lon="3.148">
        <ele>169</ele>
        <time>2024-03-31T09:57:23.524Z</time>
      </trkpt>
      <trkpt lat="43.18046" lon="3.14792">
        <ele>169</ele>
        <time>2024-03-31T09:57:28.524Z</time>
      </trkpt>
      <trkpt lat="43.18046" lon="3.14785">
        <ele>168</ele>
        <time>2024-03-31T09:57:32.524Z</time>
      </trkpt>
      <trkpt lat="43.18046" lon="3.14778">
        <ele>168</ele>
        <time>2024-03-31T09:57:37.524Z</time>
      </trkpt>
      <trkpt lat="43.18046" lon="3.1477">
        <ele>168</ele>
        <time>2024-03-31T09:57:42.524Z</time>
      </trkpt>
      <trkpt lat="43.18046" lon="3.14762">
        <ele>167</ele>
        <time>2024-03-31T09:57:47.524Z</time>
      </trkpt>
      <trkpt lat="43.18047" lon="3.14754">
        <ele>167</ele>
        <time>2024-03-31T09:57:52.524Z</time>
      </trkpt>
      <trkpt lat="43.18047" lon="3.14747">
        <ele>167</ele>
        <time>2024-03-31T09:57:56.524Z</time>
      </trkpt>
      <trkpt lat="43.18047" lon="3.1474">
        <ele>167</ele>
        <time>2024-03-31T09:58:01.524Z</time>
      </trkpt>
      <trkpt lat="43.18047" lon="3.14732">
        <ele>167</ele>
        <time>2024-03-31T09:58:06.524Z</time>
      </trkpt>
      <trkpt lat="43.18047" lon="3.14724">
        <ele>167</ele>
        <time>2024-03-31T09:58:11.524Z</time>
      </trkpt>
      <trkpt lat="43.18047" lon="3.14717">
        <ele>167</ele>
        <time>2024-03-31T09:58:15.524Z</time>
      </trkpt>
      <trkpt lat="43.18047" lon="3.1471">
        <ele>167</ele>
        <time>2024-03-31T09:58:20.524Z</time>
      </trkpt>
      <trkpt lat="43.18047" lon="3.14703">
        <ele>167</ele>
        <time>2024-03-31T09:58:25.524Z</time>
      </trkpt>
      <trkpt lat="43.18048" lon="3.14696">
        <ele>167</ele>
        <time>2024-03-31T09:58:29.524Z</time>
      </trkpt>
      <trkpt lat="43.18049" lon="3.14688">
        <ele>167</ele>
        <time>2024-03-31T09:58:34.524Z</time>
      </trkpt>
      <trkpt lat="43.18051" lon="3.1468">
        <ele>167</ele>
        <time>2024-03-31T09:58:39.524Z</time>
      </trkpt>
      <trkpt lat="43.18053" lon="3.14672">
        <ele>167</ele>
        <time>2024-03-31T09:58:44.524Z</time>
      </trkpt>
      <trkpt lat="43.18056" lon="3.14666">
        <ele>167</ele>
        <time>2024-03-31T09:58:49.524Z</time>
      </trkpt>
      <trkpt lat="43.18058" lon="3.1466">
        <ele>167</ele>
        <time>2024-03-31T09:58:53.524Z</time>
      </trkpt>
      <trkpt lat="43.18061" lon="3.14653">
        <ele>167</ele>
        <time>2024-03-31T09:58:58.524Z</time>
      </trkpt>
      <trkpt lat="43.18064" lon="3.14646">
        <ele>167</ele>
        <time>2024-03-31T09:59:03.524Z</time>
      </trkpt>
      <trkpt lat="43.18067" lon="3.14639">
        <ele>167</ele>
        <time>2024-03-31T09:59:08.524Z</time>
      </trkpt>
      <trkpt lat="43.1807" lon="3.14633">
        <ele>162</ele>
        <time>2024-03-31T09:59:13.524Z</time>
      </trkpt>
      <trkpt lat="43.18074" lon="3.14627">
        <ele>162</ele>
        <time>2024-03-31T09:59:18.524Z</time>
      </trkpt>
      <trkpt lat="43.18077" lon="3.14622">
        <ele>163</ele>
        <time>2024-03-31T09:59:22.524Z</time>
      </trkpt>
      <trkpt lat="43.1808" lon="3.14615">
        <ele>163</ele>
        <time>2024-03-31T09:59:27.524Z</time>
      </trkpt>
      <trkpt lat="43.18083" lon="3.14609">
        <ele>163</ele>
        <time>2024-03-31T09:59:32.524Z</time>
      </trkpt>
      <trkpt lat="43.18087" lon="3.14603">
        <ele>163</ele>
        <time>2024-03-31T09:59:37.524Z</time>
      </trkpt>
      <trkpt lat="43.1809" lon="3.14596">
        <ele>163</ele>
        <time>2024-03-31T09:59:42.524Z</time>
      </trkpt>
      <trkpt lat="43.18094" lon="3.14589">
        <ele>163</ele>
        <time>2024-03-31T09:59:47.524Z</time>
      </trkpt>
      <trkpt lat="43.18096" lon="3.14583">
        <ele>163</ele>
        <time>2024-03-31T09:59:52.524Z</time>
      </trkpt>
      <trkpt lat="43.18101" lon="3.14577">
        <ele>160</ele>
        <time>2024-03-31T09:59:57.524Z</time>
      </trkpt>
      <trkpt lat="43.18104" lon="3.14572">
        <ele>160</ele>
        <time>2024-03-31T10:00:01.524Z</time>
      </trkpt>
      <trkpt lat="43.18107" lon="3.14567">
        <ele>160</ele>
        <time>2024-03-31T10:00:05.524Z</time>
      </trkpt>
      <trkpt lat="43.18109" lon="3.14561">
        <ele>160</ele>
        <time>2024-03-31T10:00:10.524Z</time>
      </trkpt>
      <trkpt lat="43.18112" lon="3.14556">
        <ele>160</ele>
        <time>2024-03-31T10:00:14.524Z</time>
      </trkpt>
      <trkpt lat="43.18116" lon="3.1455">
        <ele>160</ele>
        <time>2024-03-31T10:00:19.524Z</time>
      </trkpt>
      <trkpt lat="43.18122" lon="3.14544">
        <ele>160</ele>
        <time>2024-03-31T10:00:24.524Z</time>
      </trkpt>
      <trkpt lat="43.18126" lon="3.14538">
        <ele>155</ele>
        <time>2024-03-31T10:00:29.524Z</time>
      </trkpt>
      <trkpt lat="43.18129" lon="3.14534">
        <ele>155</ele>
        <time>2024-03-31T10:00:33.524Z</time>
      </trkpt>
      <trkpt lat="43.18133" lon="3.14528">
        <ele>155</ele>
        <time>2024-03-31T10:00:38.524Z</time>
      </trkpt>
      <trkpt lat="43.18136" lon="3.14522">
        <ele>155</ele>
        <time>2024-03-31T10:00:43.524Z</time>
      </trkpt>
      <trkpt lat="43.1814" lon="3.14516">
        <ele>155</ele>
        <time>2024-03-31T10:00:48.524Z</time>
      </trkpt>
      <trkpt lat="43.18144" lon="3.14511">
        <ele>156</ele>
        <time>2024-03-31T10:00:53.524Z</time>
      </trkpt>
      <trkpt lat="43.18147" lon="3.14505">
        <ele>156</ele>
        <time>2024-03-31T10:00:58.525Z</time>
      </trkpt>
      <trkpt lat="43.18152" lon="3.14499">
        <ele>156</ele>
        <time>2024-03-31T10:01:03.525Z</time>
      </trkpt>
      <trkpt lat="43.18156" lon="3.14494">
        <ele>152</ele>
        <time>2024-03-31T10:01:08.525Z</time>
      </trkpt>
      <trkpt lat="43.1816" lon="3.14488">
        <ele>152</ele>
        <time>2024-03-31T10:01:13.525Z</time>
      </trkpt>
      <trkpt lat="43.18164" lon="3.14482">
        <ele>156</ele>
        <time>2024-03-31T10:01:18.525Z</time>
      </trkpt>
      <trkpt lat="43.18168" lon="3.14477">
        <ele>156</ele>
        <time>2024-03-31T10:01:23.525Z</time>
      </trkpt>
      <trkpt lat="43.18172" lon="3.14471">
        <ele>156</ele>
        <time>2024-03-31T10:01:28.525Z</time>
      </trkpt>
      <trkpt lat="43.18175" lon="3.14466">
        <ele>156</ele>
        <time>2024-03-31T10:01:33.525Z</time>
      </trkpt>
      <trkpt lat="43.18179" lon="3.14463">
        <ele>156</ele>
        <time>2024-03-31T10:01:38.525Z</time>
      </trkpt>
      <trkpt lat="43.18181" lon="3.14467">
        <ele>152</ele>
        <time>2024-03-31T10:01:42.525Z</time>
      </trkpt>
      <trkpt lat="43.1818" lon="3.14472">
        <ele>156</ele>
        <time>2024-03-31T10:01:47.525Z</time>
      </trkpt>
      <trkpt lat="43.18179" lon="3.1448">
        <ele>156</ele>
        <time>2024-03-31T10:01:52.525Z</time>
      </trkpt>
      <trkpt lat="43.18178" lon="3.14487">
        <ele>152</ele>
        <time>2024-03-31T10:01:56.525Z</time>
      </trkpt>
      <trkpt lat="43.1818" lon="3.14494">
        <ele>152</ele>
        <time>2024-03-31T10:02:06.525Z</time>
      </trkpt>
      <trkpt lat="43.18178" lon="3.14496">
        <ele>152</ele>
        <time>2024-03-31T10:02:10.525Z</time>
      </trkpt>
      <trkpt lat="43.18175" lon="3.145">
        <ele>152</ele>
        <time>2024-03-31T10:02:14.525Z</time>
      </trkpt>
      <trkpt lat="43.18172" lon="3.145">
        <ele>152</ele>
        <time>2024-03-31T10:02:19.525Z</time>
      </trkpt>
      <trkpt lat="43.18172" lon="3.14501">
        <ele>152</ele>
        <time>2024-03-31T10:02:24.525Z</time>
      </trkpt>
      <trkpt lat="43.18172" lon="3.14504">
        <ele>152</ele>
        <time>2024-03-31T10:03:25.525Z</time>
      </trkpt>
      <trkpt lat="43.1817" lon="3.1451">
        <ele>152</ele>
        <time>2024-03-31T10:03:30.525Z</time>
      </trkpt>
      <trkpt lat="43.18168" lon="3.14517">
        <ele>150</ele>
        <time>2024-03-31T10:03:35.525Z</time>
      </trkpt>
      <trkpt lat="43.18166" lon="3.14521">
        <ele>150</ele>
        <time>2024-03-31T10:03:39.525Z</time>
      </trkpt>
      <trkpt lat="43.18164" lon="3.14528">
        <ele>150</ele>
        <time>2024-03-31T10:03:44.525Z</time>
      </trkpt>
      <trkpt lat="43.18163" lon="3.14534">
        <ele>150</ele>
        <time>2024-03-31T10:03:49.525Z</time>
      </trkpt>
      <trkpt lat="43.18162" lon="3.14541">
        <ele>150</ele>
        <time>2024-03-31T10:03:54.525Z</time>
      </trkpt>
      <trkpt lat="43.1816" lon="3.14547">
        <ele>150</ele>
        <time>2024-03-31T10:03:59.525Z</time>
      </trkpt>
      <trkpt lat="43.18159" lon="3.14554">
        <ele>150</ele>
        <time>2024-03-31T10:04:04.525Z</time>
      </trkpt>
      <trkpt lat="43.18159" lon="3.1456">
        <ele>150</ele>
        <time>2024-03-31T10:04:08.525Z</time>
      </trkpt>
      <trkpt lat="43.18161" lon="3.14565">
        <ele>150</ele>
        <time>2024-03-31T10:04:13.525Z</time>
      </trkpt>
      <trkpt lat="43.18165" lon="3.14565">
        <ele>150</ele>
        <time>2024-03-31T10:04:18.525Z</time>
      </trkpt>
      <trkpt lat="43.18169" lon="3.14562">
        <ele>150</ele>
        <time>2024-03-31T10:04:23.525Z</time>
      </trkpt>
      <trkpt lat="43.18173" lon="3.14557">
        <ele>150</ele>
        <time>2024-03-31T10:04:28.525Z</time>
      </trkpt>
      <trkpt lat="43.18177" lon="3.14553">
        <ele>150</ele>
        <time>2024-03-31T10:04:32.525Z</time>
      </trkpt>
      <trkpt lat="43.1818" lon="3.14549">
        <ele>150</ele>
        <time>2024-03-31T10:04:37.525Z</time>
      </trkpt>
      <trkpt lat="43.18184" lon="3.14544">
        <ele>146</ele>
        <time>2024-03-31T10:04:42.525Z</time>
      </trkpt>
      <trkpt lat="43.18188" lon="3.1454">
        <ele>147</ele>
        <time>2024-03-31T10:04:46.525Z</time>
      </trkpt>
      <trkpt lat="43.18191" lon="3.14537">
        <ele>147</ele>
        <time>2024-03-31T10:04:50.525Z</time>
      </trkpt>
      <trkpt lat="43.18195" lon="3.14532">
        <ele>147</ele>
        <time>2024-03-31T10:04:55.525Z</time>
      </trkpt>
      <trkpt lat="43.18199" lon="3.14526">
        <ele>147</ele>
        <time>2024-03-31T10:05:00.525Z</time>
      </trkpt>
      <trkpt lat="43.18202" lon="3.1452">
        <ele>147</ele>
        <time>2024-03-31T10:05:05.525Z</time>
      </trkpt>
      <trkpt lat="43.18205" lon="3.14515">
        <ele>147</ele>
        <time>2024-03-31T10:05:10.525Z</time>
      </trkpt>
      <trkpt lat="43.18208" lon="3.14511">
        <ele>150</ele>
        <time>2024-03-31T10:05:14.525Z</time>
      </trkpt>
      <trkpt lat="43.18211" lon="3.14506">
        <ele>145</ele>
        <time>2024-03-31T10:05:19.525Z</time>
      </trkpt>
      <trkpt lat="43.18214" lon="3.14501">
        <ele>145</ele>
        <time>2024-03-31T10:05:24.525Z</time>
      </trkpt>
      <trkpt lat="43.18217" lon="3.14495">
        <ele>145</ele>
        <time>2024-03-31T10:05:29.525Z</time>
      </trkpt>
      <trkpt lat="43.18219" lon="3.14489">
        <ele>145</ele>
        <time>2024-03-31T10:05:34.525Z</time>
      </trkpt>
      <trkpt lat="43.18222" lon="3.14484">
        <ele>147</ele>
        <time>2024-03-31T10:05:39.525Z</time>
      </trkpt>
      <trkpt lat="43.18225" lon="3.14479">
        <ele>147</ele>
        <time>2024-03-31T10:05:44.525Z</time>
      </trkpt>
      <trkpt lat="43.18227" lon="3.14476">
        <ele>147</ele>
        <time>2024-03-31T10:05:48.525Z</time>
      </trkpt>
      <trkpt lat="43.18229" lon="3.14472">
        <ele>147</ele>
        <time>2024-03-31T10:05:52.525Z</time>
      </trkpt>
      <trkpt lat="43.18233" lon="3.14466">
        <ele>147</ele>
        <time>2024-03-31T10:05:57.525Z</time>
      </trkpt>
      <trkpt lat="43.18236" lon="3.1446">
        <ele>147</ele>
        <time>2024-03-31T10:06:02.525Z</time>
      </trkpt>
      <trkpt lat="43.18237" lon="3.14457">
        <ele>143</ele>
        <time>2024-03-31T10:06:07.525Z</time>
      </trkpt>
      <trkpt lat="43.18237" lon="3.14456">
        <ele>143</ele>
        <time>2024-03-31T10:06:12.525Z</time>
      </trkpt>
      <trkpt lat="43.1824" lon="3.14452">
        <ele>143</ele>
        <time>2024-03-31T10:06:17.525Z</time>
      </trkpt>
      <trkpt lat="43.18242" lon="3.14448">
        <ele>143</ele>
        <time>2024-03-31T10:06:22.525Z</time>
      </trkpt>
      <trkpt lat="43.18246" lon="3.14443">
        <ele>143</ele>
        <time>2024-03-31T10:06:27.525Z</time>
      </trkpt>
      <trkpt lat="43.18249" lon="3.14438">
        <ele>143</ele>
        <time>2024-03-31T10:06:32.525Z</time>
      </trkpt>
      <trkpt lat="43.18253" lon="3.14433">
        <ele>143</ele>
        <time>2024-03-31T10:06:37.525Z</time>
      </trkpt>
      <trkpt lat="43.18257" lon="3.14428">
        <ele>144</ele>
        <time>2024-03-31T10:06:42.525Z</time>
      </trkpt>
      <trkpt lat="43.18261" lon="3.14425">
        <ele>144</ele>
        <time>2024-03-31T10:06:46.525Z</time>
      </trkpt>
      <trkpt lat="43.18264" lon="3.14421">
        <ele>140</ele>
        <time>2024-03-31T10:06:51.525Z</time>
      </trkpt>
      <trkpt lat="43.18268" lon="3.14417">
        <ele>140</ele>
        <time>2024-03-31T10:06:56.525Z</time>
      </trkpt>
      <trkpt lat="43.18272" lon="3.14412">
        <ele>140</ele>
        <time>2024-03-31T10:07:01.525Z</time>
      </trkpt>
      <trkpt lat="43.18275" lon="3.14407">
        <ele>140</ele>
        <time>2024-03-31T10:07:06.525Z</time>
      </trkpt>
      <trkpt lat="43.18278" lon="3.14402">
        <ele>142</ele>
        <time>2024-03-31T10:07:11.525Z</time>
      </trkpt>
      <trkpt lat="43.18281" lon="3.14396">
        <ele>142</ele>
        <time>2024-03-31T10:07:16.525Z</time>
      </trkpt>
      <trkpt lat="43.18284" lon="3.14392">
        <ele>142</ele>
        <time>2024-03-31T10:07:20.525Z</time>
      </trkpt>
      <trkpt lat="43.18288" lon="3.14389">
        <ele>142</ele>
        <time>2024-03-31T10:07:24.525Z</time>
      </trkpt>
      <trkpt lat="43.18292" lon="3.14387">
        <ele>139</ele>
        <time>2024-03-31T10:07:29.525Z</time>
      </trkpt>
      <trkpt lat="43.18297" lon="3.14387">
        <ele>139</ele>
        <time>2024-03-31T10:07:34.525Z</time>
      </trkpt>
      <trkpt lat="43.18302" lon="3.14386">
        <ele>139</ele>
        <time>2024-03-31T10:07:38.525Z</time>
      </trkpt>
      <trkpt lat="43.18307" lon="3.14384">
        <ele>139</ele>
        <time>2024-03-31T10:07:43.525Z</time>
      </trkpt>
      <trkpt lat="43.18312" lon="3.14381">
        <ele>139</ele>
        <time>2024-03-31T10:07:48.525Z</time>
      </trkpt>
      <trkpt lat="43.18316" lon="3.14379">
        <ele>139</ele>
        <time>2024-03-31T10:07:53.525Z</time>
      </trkpt>
      <trkpt lat="43.1832" lon="3.14376">
        <ele>135</ele>
        <time>2024-03-31T10:07:57.525Z</time>
      </trkpt>
      <trkpt lat="43.18325" lon="3.14372">
        <ele>138</ele>
        <time>2024-03-31T10:08:02.525Z</time>
      </trkpt>
      <trkpt lat="43.18329" lon="3.14369">
        <ele>138</ele>
        <time>2024-03-31T10:08:07.525Z</time>
      </trkpt>
      <trkpt lat="43.18334" lon="3.14366">
        <ele>138</ele>
        <time>2024-03-31T10:08:12.525Z</time>
      </trkpt>
      <trkpt lat="43.1834" lon="3.14365">
        <ele>138</ele>
        <time>2024-03-31T10:08:17.525Z</time>
      </trkpt>
      <trkpt lat="43.18344" lon="3.14362">
        <ele>138</ele>
        <time>2024-03-31T10:08:21.525Z</time>
      </trkpt>
      <trkpt lat="43.18348" lon="3.1436">
        <ele>135</ele>
        <time>2024-03-31T10:08:25.525Z</time>
      </trkpt>
      <trkpt lat="43.18354" lon="3.14358">
        <ele>135</ele>
        <time>2024-03-31T10:08:30.525Z</time>
      </trkpt>
      <trkpt lat="43.18358" lon="3.14356">
        <ele>135</ele>
        <time>2024-03-31T10:08:34.525Z</time>
      </trkpt>
      <trkpt lat="43.18361" lon="3.14354">
        <ele>135</ele>
        <time>2024-03-31T10:08:38.525Z</time>
      </trkpt>
      <trkpt lat="43.18366" lon="3.1435">
        <ele>135</ele>
        <time>2024-03-31T10:08:43.525Z</time>
      </trkpt>
      <trkpt lat="43.18371" lon="3.14346">
        <ele>138</ele>
        <time>2024-03-31T10:08:47.525Z</time>
      </trkpt>
      <trkpt lat="43.18375" lon="3.14343">
        <ele>136</ele>
        <time>2024-03-31T10:08:52.525Z</time>
      </trkpt>
      <trkpt lat="43.18379" lon="3.14341">
        <ele>136</ele>
        <time>2024-03-31T10:08:56.525Z</time>
      </trkpt>
      <trkpt lat="43.18384" lon="3.14338">
        <ele>136</ele>
        <time>2024-03-31T10:09:00.525Z</time>
      </trkpt>
      <trkpt lat="43.18389" lon="3.14335">
        <ele>136</ele>
        <time>2024-03-31T10:09:05.525Z</time>
      </trkpt>
      <trkpt lat="43.18394" lon="3.14332">
        <ele>136</ele>
        <time>2024-03-31T10:09:10.525Z</time>
      </trkpt>
      <trkpt lat="43.18399" lon="3.14329">
        <ele>136</ele>
        <time>2024-03-31T10:09:15.525Z</time>
      </trkpt>
      <trkpt lat="43.18403" lon="3.14325">
        <ele>133</ele>
        <time>2024-03-31T10:09:20.525Z</time>
      </trkpt>
      <trkpt lat="43.18409" lon="3.14321">
        <ele>133</ele>
        <time>2024-03-31T10:09:25.525Z</time>
      </trkpt>
      <trkpt lat="43.18413" lon="3.14315">
        <ele>134</ele>
        <time>2024-03-31T10:09:30.525Z</time>
      </trkpt>
      <trkpt lat="43.18419" lon="3.14311">
        <ele>134</ele>
        <time>2024-03-31T10:09:35.525Z</time>
      </trkpt>
      <trkpt lat="43.18424" lon="3.14306">
        <ele>134</ele>
        <time>2024-03-31T10:09:40.525Z</time>
      </trkpt>
      <trkpt lat="43.1843" lon="3.14304">
        <ele>134</ele>
        <time>2024-03-31T10:09:45.525Z</time>
      </trkpt>
      <trkpt lat="43.18431" lon="3.14304">
        <ele>132</ele>
        <time>2024-03-31T10:09:50.525Z</time>
      </trkpt>
      <trkpt lat="43.18428" lon="3.14304">
        <ele>134</ele>
        <time>2024-03-31T10:09:55.525Z</time>
      </trkpt>
      <trkpt lat="43.18424" lon="3.14302">
        <ele>134</ele>
        <time>2024-03-31T10:10:00.525Z</time>
      </trkpt>
      <trkpt lat="43.18421" lon="3.14299">
        <ele>134</ele>
        <time>2024-03-31T10:10:05.525Z</time>
      </trkpt>
      <trkpt lat="43.18421" lon="3.14298">
        <ele>134</ele>
        <time>2024-03-31T10:10:10.525Z</time>
      </trkpt>
      <trkpt lat="43.18421" lon="3.14298">
        <ele>134</ele>
        <time>2024-03-31T10:10:15.525Z</time>
      </trkpt>
      <trkpt lat="43.18422" lon="3.143">
        <ele>134</ele>
        <time>2024-03-31T10:10:19.525Z</time>
      </trkpt>
      <trkpt lat="43.18427" lon="3.14303">
        <ele>134</ele>
        <time>2024-03-31T10:10:24.525Z</time>
      </trkpt>
      <trkpt lat="43.18433" lon="3.14303">
        <ele>132</ele>
        <time>2024-03-31T10:10:29.525Z</time>
      </trkpt>
      <trkpt lat="43.18437" lon="3.14303">
        <ele>132</ele>
        <time>2024-03-31T10:10:33.525Z</time>
      </trkpt>
      <trkpt lat="43.18441" lon="3.14302">
        <ele>132</ele>
        <time>2024-03-31T10:10:37.525Z</time>
      </trkpt>
      <trkpt lat="43.18446" lon="3.14302">
        <ele>132</ele>
        <time>2024-03-31T10:10:42.525Z</time>
      </trkpt>
      <trkpt lat="43.18451" lon="3.14301">
        <ele>132</ele>
        <time>2024-03-31T10:10:47.525Z</time>
      </trkpt>
      <trkpt lat="43.18456" lon="3.143">
        <ele>132</ele>
        <time>2024-03-31T10:10:52.525Z</time>
      </trkpt>
      <trkpt lat="43.18462" lon="3.14297">
        <ele>131</ele>
        <time>2024-03-31T10:10:57.525Z</time>
      </trkpt>
      <trkpt lat="43.18468" lon="3.14294">
        <ele>131</ele>
        <time>2024-03-31T10:11:02.525Z</time>
      </trkpt>
      <trkpt lat="43.18473" lon="3.14291">
        <ele>135</ele>
        <time>2024-03-31T10:11:07.525Z</time>
      </trkpt>
      <trkpt lat="43.18479" lon="3.1429">
        <ele>135</ele>
        <time>2024-03-31T10:11:12.526Z</time>
      </trkpt>
      <trkpt lat="43.18483" lon="3.14288">
        <ele>135</ele>
        <time>2024-03-31T10:11:16.526Z</time>
      </trkpt>
      <trkpt lat="43.18489" lon="3.14287">
        <ele>132</ele>
        <time>2024-03-31T10:11:21.526Z</time>
      </trkpt>
      <trkpt lat="43.18494" lon="3.14286">
        <ele>132</ele>
        <time>2024-03-31T10:11:25.526Z</time>
      </trkpt>
      <trkpt lat="43.18499" lon="3.14286">
        <ele>132</ele>
        <time>2024-03-31T10:11:30.526Z</time>
      </trkpt>
      <trkpt lat="43.18505" lon="3.14286">
        <ele>132</ele>
        <time>2024-03-31T10:11:35.526Z</time>
      </trkpt>
      <trkpt lat="43.18511" lon="3.14286">
        <ele>132</ele>
        <time>2024-03-31T10:11:40.526Z</time>
      </trkpt>
      <trkpt lat="43.18518" lon="3.14285">
        <ele>127</ele>
        <time>2024-03-31T10:11:45.526Z</time>
      </trkpt>
      <trkpt lat="43.18523" lon="3.14285">
        <ele>127</ele>
        <time>2024-03-31T10:11:50.526Z</time>
      </trkpt>
      <trkpt lat="43.18528" lon="3.14283">
        <ele>127</ele>
        <time>2024-03-31T10:11:55.526Z</time>
      </trkpt>
      <trkpt lat="43.18533" lon="3.14282">
        <ele>127</ele>
        <time>2024-03-31T10:12:00.526Z</time>
      </trkpt>
      <trkpt lat="43.18538" lon="3.1428">
        <ele>127</ele>
        <time>2024-03-31T10:12:05.526Z</time>
      </trkpt>
      <trkpt lat="43.18543" lon="3.14278">
        <ele>125</ele>
        <time>2024-03-31T10:12:10.526Z</time>
      </trkpt>
      <trkpt lat="43.18548" lon="3.14277">
        <ele>125</ele>
        <time>2024-03-31T10:12:15.526Z</time>
      </trkpt>
      <trkpt lat="43.18555" lon="3.14275">
        <ele>125</ele>
        <time>2024-03-31T10:12:20.526Z</time>
      </trkpt>
      <trkpt lat="43.18561" lon="3.14272">
        <ele>125</ele>
        <time>2024-03-31T10:12:25.526Z</time>
      </trkpt>
      <trkpt lat="43.18566" lon="3.14268">
        <ele>125</ele>
        <time>2024-03-31T10:12:30.526Z</time>
      </trkpt>
      <trkpt lat="43.18571" lon="3.14264">
        <ele>122</ele>
        <time>2024-03-31T10:12:35.526Z</time>
      </trkpt>
      <trkpt lat="43.18576" lon="3.14259">
        <ele>123</ele>
        <time>2024-03-31T10:12:40.526Z</time>
      </trkpt>
      <trkpt lat="43.1858" lon="3.14256">
        <ele>123</ele>
        <time>2024-03-31T10:12:44.526Z</time>
      </trkpt>
      <trkpt lat="43.18585" lon="3.14252">
        <ele>123</ele>
        <time>2024-03-31T10:12:48.526Z</time>
      </trkpt>
      <trkpt lat="43.1859" lon="3.14248">
        <ele>123</ele>
        <time>2024-03-31T10:12:53.526Z</time>
      </trkpt>
      <trkpt lat="43.18594" lon="3.14243">
        <ele>123</ele>
        <time>2024-03-31T10:12:58.526Z</time>
      </trkpt>
      <trkpt lat="43.18598" lon="3.14238">
        <ele>119</ele>
        <time>2024-03-31T10:13:02.526Z</time>
      </trkpt>
      <trkpt lat="43.18602" lon="3.14233">
        <ele>120</ele>
        <time>2024-03-31T10:13:07.526Z</time>
      </trkpt>
      <trkpt lat="43.18606" lon="3.14227">
        <ele>120</ele>
        <time>2024-03-31T10:13:12.526Z</time>
      </trkpt>
      <trkpt lat="43.1861" lon="3.14221">
        <ele>120</ele>
        <time>2024-03-31T10:13:17.526Z</time>
      </trkpt>
      <trkpt lat="43.18614" lon="3.14215">
        <ele>120</ele>
        <time>2024-03-31T10:13:21.526Z</time>
      </trkpt>
      <trkpt lat="43.18618" lon="3.14208">
        <ele>120</ele>
        <time>2024-03-31T10:13:26.526Z</time>
      </trkpt>
      <trkpt lat="43.18621" lon="3.14201">
        <ele>120</ele>
        <time>2024-03-31T10:13:31.526Z</time>
      </trkpt>
      <trkpt lat="43.18622" lon="3.14194">
        <ele>120</ele>
        <time>2024-03-31T10:13:36.526Z</time>
      </trkpt>
      <trkpt lat="43.18625" lon="3.14187">
        <ele>120</ele>
        <time>2024-03-31T10:13:41.526Z</time>
      </trkpt>
      <trkpt lat="43.18628" lon="3.1418">
        <ele>119</ele>
        <time>2024-03-31T10:13:46.526Z</time>
      </trkpt>
      <trkpt lat="43.18631" lon="3.14173">
        <ele>119</ele>
        <time>2024-03-31T10:13:51.526Z</time>
      </trkpt>
      <trkpt lat="43.18633" lon="3.14165">
        <ele>119</ele>
        <time>2024-03-31T10:13:56.526Z</time>
      </trkpt>
      <trkpt lat="43.18634" lon="3.14158">
        <ele>119</ele>
        <time>2024-03-31T10:14:01.526Z</time>
      </trkpt>
      <trkpt lat="43.18636" lon="3.14151">
        <ele>122</ele>
        <time>2024-03-31T10:14:06.526Z</time>
      </trkpt>
      <trkpt lat="43.18638" lon="3.14145">
        <ele>122</ele>
        <time>2024-03-31T10:14:11.526Z</time>
      </trkpt>
      <trkpt lat="43.18641" lon="3.14138">
        <ele>122</ele>
        <time>2024-03-31T10:14:16.526Z</time>
      </trkpt>
      <trkpt lat="43.18643" lon="3.14133">
        <ele>122</ele>
        <time>2024-03-31T10:14:20.526Z</time>
      </trkpt>
      <trkpt lat="43.18649" lon="3.14128">
        <ele>122</ele>
        <time>2024-03-31T10:14:25.526Z</time>
      </trkpt>
      <trkpt lat="43.18653" lon="3.14124">
        <ele>121</ele>
        <time>2024-03-31T10:14:30.526Z</time>
      </trkpt>
      <trkpt lat="43.18657" lon="3.14119">
        <ele>121</ele>
        <time>2024-03-31T10:14:34.526Z</time>
      </trkpt>
      <trkpt lat="43.18661" lon="3.14114">
        <ele>121</ele>
        <time>2024-03-31T10:14:39.526Z</time>
      </trkpt>
      <trkpt lat="43.18666" lon="3.14108">
        <ele>121</ele>
        <time>2024-03-31T10:14:44.526Z</time>
      </trkpt>
      <trkpt lat="43.18671" lon="3.14103">
        <ele>121</ele>
        <time>2024-03-31T10:14:49.526Z</time>
      </trkpt>
      <trkpt lat="43.18676" lon="3.14098">
        <ele>121</ele>
        <time>2024-03-31T10:14:54.526Z</time>
      </trkpt>
      <trkpt lat="43.18681" lon="3.14094">
        <ele>118</ele>
        <time>2024-03-31T10:14:59.526Z</time>
      </trkpt>
      <trkpt lat="43.18685" lon="3.1409">
        <ele>118</ele>
        <time>2024-03-31T10:15:04.526Z</time>
      </trkpt>
      <trkpt lat="43.18689" lon="3.14085">
        <ele>118</ele>
        <time>2024-03-31T10:15:09.526Z</time>
      </trkpt>
      <trkpt lat="43.18694" lon="3.14081">
        <ele>118</ele>
        <time>2024-03-31T10:15:14.526Z</time>
      </trkpt>
      <trkpt lat="43.18698" lon="3.14075">
        <ele>118</ele>
        <time>2024-03-31T10:15:19.526Z</time>
      </trkpt>
      <trkpt lat="43.18698" lon="3.14068">
        <ele>118</ele>
        <time>2024-03-31T10:15:24.526Z</time>
      </trkpt>
      <trkpt lat="43.18699" lon="3.14061">
        <ele>118</ele>
        <time>2024-03-31T10:15:29.526Z</time>
      </trkpt>
      <trkpt lat="43.18698" lon="3.14054">
        <ele>118</ele>
        <time>2024-03-31T10:15:34.526Z</time>
      </trkpt>
      <trkpt lat="43.18697" lon="3.14047">
        <ele>118</ele>
        <time>2024-03-31T10:15:39.526Z</time>
      </trkpt>
      <trkpt lat="43.18696" lon="3.14039">
        <ele>119</ele>
        <time>2024-03-31T10:15:44.526Z</time>
      </trkpt>
      <trkpt lat="43.18696" lon="3.14033">
        <ele>119</ele>
        <time>2024-03-31T10:15:48.526Z</time>
      </trkpt>
      <trkpt lat="43.18696" lon="3.14025">
        <ele>119</ele>
        <time>2024-03-31T10:15:53.526Z</time>
      </trkpt>
      <trkpt lat="43.18695" lon="3.14017">
        <ele>119</ele>
        <time>2024-03-31T10:15:58.526Z</time>
      </trkpt>
      <trkpt lat="43.18695" lon="3.1401">
        <ele>119</ele>
        <time>2024-03-31T10:16:03.526Z</time>
      </trkpt>
      <trkpt lat="43.18694" lon="3.14004">
        <ele>119</ele>
        <time>2024-03-31T10:16:07.526Z</time>
      </trkpt>
      <trkpt lat="43.18693" lon="3.13996">
        <ele>119</ele>
        <time>2024-03-31T10:16:12.526Z</time>
      </trkpt>
      <trkpt lat="43.18693" lon="3.13989">
        <ele>119</ele>
        <time>2024-03-31T10:16:17.526Z</time>
      </trkpt>
      <trkpt lat="43.18692" lon="3.13983">
        <ele>121</ele>
        <time>2024-03-31T10:16:21.526Z</time>
      </trkpt>
      <trkpt lat="43.18691" lon="3.13976">
        <ele>121</ele>
        <time>2024-03-31T10:16:26.526Z</time>
      </trkpt>
      <trkpt lat="43.1869" lon="3.13968">
        <ele>121</ele>
        <time>2024-03-31T10:16:31.526Z</time>
      </trkpt>
      <trkpt lat="43.18689" lon="3.1396">
        <ele>121</ele>
        <time>2024-03-31T10:16:36.526Z</time>
      </trkpt>
      <trkpt lat="43.18688" lon="3.13954">
        <ele>122</ele>
        <time>2024-03-31T10:16:40.526Z</time>
      </trkpt>
      <trkpt lat="43.18687" lon="3.13947">
        <ele>122</ele>
        <time>2024-03-31T10:16:45.526Z</time>
      </trkpt>
      <trkpt lat="43.18687" lon="3.1394">
        <ele>122</ele>
        <time>2024-03-31T10:16:50.526Z</time>
      </trkpt>
      <trkpt lat="43.18687" lon="3.13934">
        <ele>122</ele>
        <time>2024-03-31T10:16:54.526Z</time>
      </trkpt>
      <trkpt lat="43.18676" lon="3.13926">
        <ele>124</ele>
        <time>2024-03-31T10:17:19.526Z</time>
      </trkpt>
      <trkpt lat="43.18673" lon="3.13924">
        <ele>124</ele>
        <time>2024-03-31T10:19:17.527Z</time>
      </trkpt>
      <trkpt lat="43.18667" lon="3.13924">
        <ele>124</ele>
        <time>2024-03-31T10:19:22.527Z</time>
      </trkpt>
      <trkpt lat="43.18663" lon="3.13924">
        <ele>124</ele>
        <time>2024-03-31T10:19:26.527Z</time>
      </trkpt>
      <trkpt lat="43.18658" lon="3.13924">
        <ele>124</ele>
        <time>2024-03-31T10:19:31.527Z</time>
      </trkpt>
      <trkpt lat="43.18652" lon="3.13924">
        <ele>126</ele>
        <time>2024-03-31T10:19:36.527Z</time>
      </trkpt>
      <trkpt lat="43.18648" lon="3.13924">
        <ele>126</ele>
        <time>2024-03-31T10:19:41.527Z</time>
      </trkpt>
      <trkpt lat="43.18643" lon="3.13924">
        <ele>126</ele>
        <time>2024-03-31T10:19:46.527Z</time>
      </trkpt>
      <trkpt lat="43.18639" lon="3.13923">
        <ele>126</ele>
        <time>2024-03-31T10:19:50.527Z</time>
      </trkpt>
      <trkpt lat="43.18633" lon="3.13922">
        <ele>126</ele>
        <time>2024-03-31T10:19:55.527Z</time>
      </trkpt>
      <trkpt lat="43.18628" lon="3.13922">
        <ele>126</ele>
        <time>2024-03-31T10:20:00.527Z</time>
      </trkpt>
      <trkpt lat="43.18624" lon="3.13921">
        <ele>127</ele>
        <time>2024-03-31T10:20:04.527Z</time>
      </trkpt>
      <trkpt lat="43.1862" lon="3.13921">
        <ele>127</ele>
        <time>2024-03-31T10:20:09.527Z</time>
      </trkpt>
      <trkpt lat="43.1861" lon="3.13918">
        <ele>127</ele>
        <time>2024-03-31T10:21:11.527Z</time>
      </trkpt>
      <trkpt lat="43.18608" lon="3.13918">
        <ele>127</ele>
        <time>2024-03-31T10:21:15.527Z</time>
      </trkpt>
      <trkpt lat="43.18603" lon="3.13919">
        <ele>127</ele>
        <time>2024-03-31T10:21:20.527Z</time>
      </trkpt>
      <trkpt lat="43.18598" lon="3.13919">
        <ele>127</ele>
        <time>2024-03-31T10:21:24.527Z</time>
      </trkpt>
      <trkpt lat="43.18594" lon="3.13919">
        <ele>129</ele>
        <time>2024-03-31T10:21:29.527Z</time>
      </trkpt>
      <trkpt lat="43.1859" lon="3.13918">
        <ele>129</ele>
        <time>2024-03-31T10:21:33.527Z</time>
      </trkpt>
      <trkpt lat="43.18586" lon="3.13919">
        <ele>129</ele>
        <time>2024-03-31T10:21:37.527Z</time>
      </trkpt>
      <trkpt lat="43.18582" lon="3.13918">
        <ele>129</ele>
        <time>2024-03-31T10:21:41.527Z</time>
      </trkpt>
      <trkpt lat="43.18576" lon="3.13917">
        <ele>129</ele>
        <time>2024-03-31T10:21:46.527Z</time>
      </trkpt>
      <trkpt lat="43.18571" lon="3.13916">
        <ele>129</ele>
        <time>2024-03-31T10:21:51.527Z</time>
      </trkpt>
      <trkpt lat="43.18566" lon="3.13917">
        <ele>133</ele>
        <time>2024-03-31T10:21:56.527Z</time>
      </trkpt>
      <trkpt lat="43.1856" lon="3.13917">
        <ele>133</ele>
        <time>2024-03-31T10:22:01.527Z</time>
      </trkpt>
      <trkpt lat="43.18555" lon="3.13916">
        <ele>133</ele>
        <time>2024-03-31T10:22:06.527Z</time>
      </trkpt>
      <trkpt lat="43.18551" lon="3.13915">
        <ele>133</ele>
        <time>2024-03-31T10:22:10.527Z</time>
      </trkpt>
      <trkpt lat="43.18545" lon="3.13916">
        <ele>133</ele>
        <time>2024-03-31T10:22:15.527Z</time>
      </trkpt>
      <trkpt lat="43.1854" lon="3.13916">
        <ele>136</ele>
        <time>2024-03-31T10:22:20.527Z</time>
      </trkpt>
      <trkpt lat="43.18536" lon="3.13915">
        <ele>136</ele>
        <time>2024-03-31T10:22:25.527Z</time>
      </trkpt>
      <trkpt lat="43.1853" lon="3.13914">
        <ele>136</ele>
        <time>2024-03-31T10:22:30.527Z</time>
      </trkpt>
      <trkpt lat="43.18526" lon="3.13913">
        <ele>136</ele>
        <time>2024-03-31T10:22:35.527Z</time>
      </trkpt>
      <trkpt lat="43.18523" lon="3.13913">
        <ele>136</ele>
        <time>2024-03-31T10:22:39.527Z</time>
      </trkpt>
      <trkpt lat="43.18518" lon="3.13912">
        <ele>136</ele>
        <time>2024-03-31T10:22:44.527Z</time>
      </trkpt>
      <trkpt lat="43.18514" lon="3.13911">
        <ele>137</ele>
        <time>2024-03-31T10:22:49.527Z</time>
      </trkpt>
      <trkpt lat="43.1851" lon="3.13912">
        <ele>137</ele>
        <time>2024-03-31T10:22:53.527Z</time>
      </trkpt>
      <trkpt lat="43.18506" lon="3.13913">
        <ele>137</ele>
        <time>2024-03-31T10:22:58.527Z</time>
      </trkpt>
      <trkpt lat="43.18502" lon="3.13914">
        <ele>137</ele>
        <time>2024-03-31T10:23:02.527Z</time>
      </trkpt>
      <trkpt lat="43.18497" lon="3.13912">
        <ele>137</ele>
        <time>2024-03-31T10:23:07.527Z</time>
      </trkpt>
      <trkpt lat="43.18492" lon="3.13907">
        <ele>137</ele>
        <time>2024-03-31T10:23:12.527Z</time>
      </trkpt>
      <trkpt lat="43.18491" lon="3.13901">
        <ele>137</ele>
        <time>2024-03-31T10:23:17.527Z</time>
      </trkpt>
      <trkpt lat="43.1849" lon="3.13899">
        <ele>137</ele>
        <time>2024-03-31T10:23:22.527Z</time>
      </trkpt>
      <trkpt lat="43.18489" lon="3.13892">
        <ele>137</ele>
        <time>2024-03-31T10:23:27.527Z</time>
      </trkpt>
      <trkpt lat="43.1849" lon="3.13885">
        <ele>137</ele>
        <time>2024-03-31T10:23:32.527Z</time>
      </trkpt>
      <trkpt lat="43.18489" lon="3.13879">
        <ele>137</ele>
        <time>2024-03-31T10:23:37.527Z</time>
      </trkpt>
      <trkpt lat="43.18489" lon="3.13871">
        <ele>138</ele>
        <time>2024-03-31T10:23:42.527Z</time>
      </trkpt>
      <trkpt lat="43.1849" lon="3.13864">
        <ele>138</ele>
        <time>2024-03-31T10:23:47.527Z</time>
      </trkpt>
      <trkpt lat="43.1849" lon="3.13857">
        <ele>138</ele>
        <time>2024-03-31T10:23:52.527Z</time>
      </trkpt>
      <trkpt lat="43.1849" lon="3.1385">
        <ele>138</ele>
        <time>2024-03-31T10:23:57.527Z</time>
      </trkpt>
      <trkpt lat="43.18489" lon="3.13844">
        <ele>139</ele>
        <time>2024-03-31T10:24:02.527Z</time>
      </trkpt>
      <trkpt lat="43.18488" lon="3.13837">
        <ele>139</ele>
        <time>2024-03-31T10:24:07.527Z</time>
      </trkpt>
      <trkpt lat="43.1849" lon="3.1383">
        <ele>139</ele>
        <time>2024-03-31T10:24:12.527Z</time>
      </trkpt>
      <trkpt lat="43.18489" lon="3.13825">
        <ele>139</ele>
        <time>2024-03-31T10:24:16.527Z</time>
      </trkpt>
      <trkpt lat="43.18489" lon="3.13821">
        <ele>139</ele>
        <time>2024-03-31T10:24:20.527Z</time>
      </trkpt>
      <trkpt lat="43.18488" lon="3.13814">
        <ele>140</ele>
        <time>2024-03-31T10:24:25.527Z</time>
      </trkpt>
      <trkpt lat="43.18488" lon="3.13807">
        <ele>140</ele>
        <time>2024-03-31T10:24:29.527Z</time>
      </trkpt>
      <trkpt lat="43.18488" lon="3.13799">
        <ele>140</ele>
        <time>2024-03-31T10:24:34.527Z</time>
      </trkpt>
      <trkpt lat="43.18487" lon="3.13792">
        <ele>140</ele>
        <time>2024-03-31T10:24:38.527Z</time>
      </trkpt>
      <trkpt lat="43.18488" lon="3.13786">
        <ele>139</ele>
        <time>2024-03-31T10:24:42.527Z</time>
      </trkpt>
      <trkpt lat="43.18488" lon="3.13778">
        <ele>139</ele>
        <time>2024-03-31T10:24:47.527Z</time>
      </trkpt>
      <trkpt lat="43.18488" lon="3.1377">
        <ele>139</ele>
        <time>2024-03-31T10:24:52.527Z</time>
      </trkpt>
      <trkpt lat="43.18488" lon="3.13766">
        <ele>139</ele>
        <time>2024-03-31T10:24:56.527Z</time>
      </trkpt>
      <trkpt lat="43.18487" lon="3.13758">
        <ele>140</ele>
        <time>2024-03-31T10:25:01.527Z</time>
      </trkpt>
      <trkpt lat="43.18488" lon="3.13752">
        <ele>140</ele>
        <time>2024-03-31T10:25:05.527Z</time>
      </trkpt>
      <trkpt lat="43.18488" lon="3.13744">
        <ele>140</ele>
        <time>2024-03-31T10:25:10.527Z</time>
      </trkpt>
      <trkpt lat="43.18489" lon="3.13737">
        <ele>140</ele>
        <time>2024-03-31T10:25:14.527Z</time>
      </trkpt>
      <trkpt lat="43.18489" lon="3.13728">
        <ele>140</ele>
        <time>2024-03-31T10:25:19.527Z</time>
      </trkpt>
      <trkpt lat="43.18488" lon="3.1372">
        <ele>140</ele>
        <time>2024-03-31T10:25:24.527Z</time>
      </trkpt>
      <trkpt lat="43.18489" lon="3.13712">
        <ele>140</ele>
        <time>2024-03-31T10:25:29.527Z</time>
      </trkpt>
      <trkpt lat="43.18488" lon="3.13704">
        <ele>142</ele>
        <time>2024-03-31T10:25:34.527Z</time>
      </trkpt>
      <trkpt lat="43.18488" lon="3.13697">
        <ele>142</ele>
        <time>2024-03-31T10:25:39.527Z</time>
      </trkpt>
      <trkpt lat="43.1849" lon="3.13689">
        <ele>142</ele>
        <time>2024-03-31T10:25:44.527Z</time>
      </trkpt>
      <trkpt lat="43.18489" lon="3.13681">
        <ele>142</ele>
        <time>2024-03-31T10:25:49.527Z</time>
      </trkpt>
      <trkpt lat="43.18489" lon="3.13673">
        <ele>141</ele>
        <time>2024-03-31T10:25:54.527Z</time>
      </trkpt>
      <trkpt lat="43.18488" lon="3.13666">
        <ele>141</ele>
        <time>2024-03-31T10:25:58.527Z</time>
      </trkpt>
      <trkpt lat="43.18488" lon="3.13658">
        <ele>141</ele>
        <time>2024-03-31T10:26:03.527Z</time>
      </trkpt>
      <trkpt lat="43.18489" lon="3.13652">
        <ele>141</ele>
        <time>2024-03-31T10:26:07.527Z</time>
      </trkpt>
      <trkpt lat="43.18489" lon="3.13644">
        <ele>141</ele>
        <time>2024-03-31T10:26:12.527Z</time>
      </trkpt>
      <trkpt lat="43.18489" lon="3.13636">
        <ele>141</ele>
        <time>2024-03-31T10:26:17.527Z</time>
      </trkpt>
      <trkpt lat="43.18488" lon="3.13629">
        <ele>141</ele>
        <time>2024-03-31T10:26:22.527Z</time>
      </trkpt>
      <trkpt lat="43.18488" lon="3.13622">
        <ele>141</ele>
        <time>2024-03-31T10:26:27.527Z</time>
      </trkpt>
      <trkpt lat="43.18489" lon="3.13614">
        <ele>141</ele>
        <time>2024-03-31T10:26:32.527Z</time>
      </trkpt>
      <trkpt lat="43.18489" lon="3.13607">
        <ele>141</ele>
        <time>2024-03-31T10:26:36.527Z</time>
      </trkpt>
      <trkpt lat="43.18489" lon="3.136">
        <ele>141</ele>
        <time>2024-03-31T10:26:41.527Z</time>
      </trkpt>
      <trkpt lat="43.18489" lon="3.13592">
        <ele>144</ele>
        <time>2024-03-31T10:26:46.527Z</time>
      </trkpt>
      <trkpt lat="43.18489" lon="3.13584">
        <ele>144</ele>
        <time>2024-03-31T10:26:51.527Z</time>
      </trkpt>
      <trkpt lat="43.18489" lon="3.13577">
        <ele>144</ele>
        <time>2024-03-31T10:26:55.527Z</time>
      </trkpt>
      <trkpt lat="43.18491" lon="3.13571">
        <ele>144</ele>
        <time>2024-03-31T10:27:00.527Z</time>
      </trkpt>
      <trkpt lat="43.1849" lon="3.13565">
        <ele>145</ele>
        <time>2024-03-31T10:27:04.527Z</time>
      </trkpt>
      <trkpt lat="43.18488" lon="3.13561">
        <ele>145</ele>
        <time>2024-03-31T10:27:09.527Z</time>
      </trkpt>
      <trkpt lat="43.18485" lon="3.13557">
        <ele>147</ele>
        <time>2024-03-31T10:27:14.527Z</time>
      </trkpt>
      <trkpt lat="43.18482" lon="3.13552">
        <ele>147</ele>
        <time>2024-03-31T10:27:19.527Z</time>
      </trkpt>
      <trkpt lat="43.18478" lon="3.13547">
        <ele>147</ele>
        <time>2024-03-31T10:27:24.527Z</time>
      </trkpt>
      <trkpt lat="43.18476" lon="3.13542">
        <ele>147</ele>
        <time>2024-03-31T10:27:29.527Z</time>
      </trkpt>
      <trkpt lat="43.18473" lon="3.13537">
        <ele>148</ele>
        <time>2024-03-31T10:27:34.527Z</time>
      </trkpt>
      <trkpt lat="43.18471" lon="3.13533">
        <ele>148</ele>
        <time>2024-03-31T10:27:38.527Z</time>
      </trkpt>
      <trkpt lat="43.18468" lon="3.13531">
        <ele>148</ele>
        <time>2024-03-31T10:27:43.527Z</time>
      </trkpt>
      <trkpt lat="43.18465" lon="3.13528">
        <ele>148</ele>
        <time>2024-03-31T10:27:48.527Z</time>
      </trkpt>
      <trkpt lat="43.18461" lon="3.13523">
        <ele>148</ele>
        <time>2024-03-31T10:27:53.528Z</time>
      </trkpt>
      <trkpt lat="43.1846" lon="3.13515">
        <ele>148</ele>
        <time>2024-03-31T10:27:58.528Z</time>
      </trkpt>
      <trkpt lat="43.18461" lon="3.13511">
        <ele>147</ele>
        <time>2024-03-31T10:28:02.528Z</time>
      </trkpt>
      <trkpt lat="43.18458" lon="3.13508">
        <ele>152</ele>
        <time>2024-03-31T10:28:07.528Z</time>
      </trkpt>
      <trkpt lat="43.18454" lon="3.13504">
        <ele>152</ele>
        <time>2024-03-31T10:28:12.528Z</time>
      </trkpt>
      <trkpt lat="43.18451" lon="3.13502">
        <ele>152</ele>
        <time>2024-03-31T10:28:17.528Z</time>
      </trkpt>
      <trkpt lat="43.18448" lon="3.13498">
        <ele>152</ele>
        <time>2024-03-31T10:28:22.528Z</time>
      </trkpt>
      <trkpt lat="43.18445" lon="3.13496">
        <ele>152</ele>
        <time>2024-03-31T10:28:27.528Z</time>
      </trkpt>
      <trkpt lat="43.18442" lon="3.13494">
        <ele>152</ele>
        <time>2024-03-31T10:28:32.528Z</time>
      </trkpt>
      <trkpt lat="43.1844" lon="3.13493">
        <ele>152</ele>
        <time>2024-03-31T10:28:37.528Z</time>
      </trkpt>
      <trkpt lat="43.18438" lon="3.13491">
        <ele>152</ele>
        <time>2024-03-31T10:28:42.528Z</time>
      </trkpt>
      <trkpt lat="43.18432" lon="3.13487">
        <ele>152</ele>
        <time>2024-03-31T10:28:47.528Z</time>
      </trkpt>
      <trkpt lat="43.18426" lon="3.13481">
        <ele>162</ele>
        <time>2024-03-31T10:28:56.528Z</time>
      </trkpt>
      <trkpt lat="43.18424" lon="3.13479">
        <ele>162</ele>
        <time>2024-03-31T10:29:01.528Z</time>
      </trkpt>
      <trkpt lat="43.18423" lon="3.13479">
        <ele>162</ele>
        <time>2024-03-31T10:29:06.528Z</time>
      </trkpt>
      <trkpt lat="43.18423" lon="3.13478">
        <ele>162</ele>
        <time>2024-03-31T10:29:11.528Z</time>
      </trkpt>
      <trkpt lat="43.18423" lon="3.13471">
        <ele>162</ele>
        <time>2024-03-31T10:29:52.528Z</time>
      </trkpt>
      <trkpt lat="43.18419" lon="3.13468">
        <ele>162</ele>
        <time>2024-03-31T10:29:57.528Z</time>
      </trkpt>
      <trkpt lat="43.18415" lon="3.13465">
        <ele>162</ele>
        <time>2024-03-31T10:30:02.528Z</time>
      </trkpt>
      <trkpt lat="43.18412" lon="3.13464">
        <ele>162</ele>
        <time>2024-03-31T10:30:06.528Z</time>
      </trkpt>
      <trkpt lat="43.18407" lon="3.13463">
        <ele>162</ele>
        <time>2024-03-31T10:30:11.528Z</time>
      </trkpt>
      <trkpt lat="43.18404" lon="3.1346">
        <ele>162</ele>
        <time>2024-03-31T10:30:16.528Z</time>
      </trkpt>
      <trkpt lat="43.184" lon="3.13457">
        <ele>164</ele>
        <time>2024-03-31T10:30:21.528Z</time>
      </trkpt>
      <trkpt lat="43.18395" lon="3.13453">
        <ele>164</ele>
        <time>2024-03-31T10:30:26.528Z</time>
      </trkpt>
      <trkpt lat="43.18391" lon="3.13452">
        <ele>164</ele>
        <time>2024-03-31T10:30:31.528Z</time>
      </trkpt>
      <trkpt lat="43.18386" lon="3.13451">
        <ele>164</ele>
        <time>2024-03-31T10:30:36.528Z</time>
      </trkpt>
      <trkpt lat="43.18382" lon="3.13451">
        <ele>164</ele>
        <time>2024-03-31T10:30:41.528Z</time>
      </trkpt>
      <trkpt lat="43.18379" lon="3.13452">
        <ele>164</ele>
        <time>2024-03-31T10:30:46.528Z</time>
      </trkpt>
      <trkpt lat="43.18375" lon="3.13453">
        <ele>166</ele>
        <time>2024-03-31T10:30:50.528Z</time>
      </trkpt>
      <trkpt lat="43.18364" lon="3.13456">
        <ele>166</ele>
        <time>2024-03-31T10:31:31.528Z</time>
      </trkpt>
      <trkpt lat="43.18361" lon="3.13449">
        <ele>166</ele>
        <time>2024-03-31T10:31:36.528Z</time>
      </trkpt>
      <trkpt lat="43.18357" lon="3.13442">
        <ele>166</ele>
        <time>2024-03-31T10:31:41.528Z</time>
      </trkpt>
      <trkpt lat="43.18354" lon="3.13437">
        <ele>166</ele>
        <time>2024-03-31T10:31:46.528Z</time>
      </trkpt>
      <trkpt lat="43.18352" lon="3.1343">
        <ele>166</ele>
        <time>2024-03-31T10:31:51.528Z</time>
      </trkpt>
      <trkpt lat="43.18349" lon="3.13424">
        <ele>166</ele>
        <time>2024-03-31T10:31:56.528Z</time>
      </trkpt>
      <trkpt lat="43.18347" lon="3.13418">
        <ele>165</ele>
        <time>2024-03-31T10:32:01.528Z</time>
      </trkpt>
      <trkpt lat="43.18346" lon="3.13413">
        <ele>165</ele>
        <time>2024-03-31T10:32:05.528Z</time>
      </trkpt>
      <trkpt lat="43.18343" lon="3.13406">
        <ele>165</ele>
        <time>2024-03-31T10:32:10.528Z</time>
      </trkpt>
      <trkpt lat="43.18341" lon="3.13401">
        <ele>166</ele>
        <time>2024-03-31T10:32:14.528Z</time>
      </trkpt>
      <trkpt lat="43.1834" lon="3.13395">
        <ele>166</ele>
        <time>2024-03-31T10:32:19.528Z</time>
      </trkpt>
      <trkpt lat="43.18337" lon="3.13389">
        <ele>166</ele>
        <time>2024-03-31T10:32:24.528Z</time>
      </trkpt>
      <trkpt lat="43.18335" lon="3.13383">
        <ele>166</ele>
        <time>2024-03-31T10:32:29.528Z</time>
      </trkpt>
      <trkpt lat="43.18332" lon="3.13379">
        <ele>166</ele>
        <time>2024-03-31T10:32:33.528Z</time>
      </trkpt>
      <trkpt lat="43.18329" lon="3.13373">
        <ele>167</ele>
        <time>2024-03-31T10:32:38.528Z</time>
      </trkpt>
      <trkpt lat="43.18325" lon="3.13367">
        <ele>167</ele>
        <time>2024-03-31T10:32:43.528Z</time>
      </trkpt>
      <trkpt lat="43.18323" lon="3.13363">
        <ele>167</ele>
        <time>2024-03-31T10:32:47.528Z</time>
      </trkpt>
      <trkpt lat="43.18322" lon="3.13356">
        <ele>167</ele>
        <time>2024-03-31T10:32:52.528Z</time>
      </trkpt>
      <trkpt lat="43.18319" lon="3.13348">
        <ele>169</ele>
        <time>2024-03-31T10:32:57.528Z</time>
      </trkpt>
      <trkpt lat="43.18316" lon="3.1334">
        <ele>170</ele>
        <time>2024-03-31T10:33:02.528Z</time>
      </trkpt>
      <trkpt lat="43.18314" lon="3.13332">
        <ele>170</ele>
        <time>2024-03-31T10:33:07.528Z</time>
      </trkpt>
      <trkpt lat="43.18312" lon="3.13325">
        <ele>170</ele>
        <time>2024-03-31T10:33:12.528Z</time>
      </trkpt>
      <trkpt lat="43.18311" lon="3.13319">
        <ele>169</ele>
        <time>2024-03-31T10:33:16.528Z</time>
      </trkpt>
      <trkpt lat="43.18309" lon="3.13309">
        <ele>169</ele>
        <time>2024-03-31T10:33:21.528Z</time>
      </trkpt>
      <trkpt lat="43.18309" lon="3.13302">
        <ele>169</ele>
        <time>2024-03-31T10:33:26.528Z</time>
      </trkpt>
      <trkpt lat="43.18308" lon="3.13295">
        <ele>169</ele>
        <time>2024-03-31T10:33:31.528Z</time>
      </trkpt>
      <trkpt lat="43.18305" lon="3.13288">
        <ele>167</ele>
        <time>2024-03-31T10:33:36.528Z</time>
      </trkpt>
      <trkpt lat="43.18305" lon="3.13284">
        <ele>167</ele>
        <time>2024-03-31T10:33:40.528Z</time>
      </trkpt>
      <trkpt lat="43.18303" lon="3.13279">
        <ele>167</ele>
        <time>2024-03-31T10:33:45.528Z</time>
      </trkpt>
      <trkpt lat="43.18301" lon="3.13272">
        <ele>167</ele>
        <time>2024-03-31T10:33:50.528Z</time>
      </trkpt>
      <trkpt lat="43.18299" lon="3.13263">
        <ele>165</ele>
        <time>2024-03-31T10:33:55.528Z</time>
      </trkpt>
      <trkpt lat="43.18298" lon="3.13256">
        <ele>165</ele>
        <time>2024-03-31T10:33:59.528Z</time>
      </trkpt>
      <trkpt lat="43.18296" lon="3.1325">
        <ele>165</ele>
        <time>2024-03-31T10:34:04.528Z</time>
      </trkpt>
      <trkpt lat="43.18294" lon="3.13243">
        <ele>165</ele>
        <time>2024-03-31T10:34:09.528Z</time>
      </trkpt>
      <trkpt lat="43.18292" lon="3.13235">
        <ele>166</ele>
        <time>2024-03-31T10:34:14.528Z</time>
      </trkpt>
      <trkpt lat="43.18289" lon="3.13229">
        <ele>167</ele>
        <time>2024-03-31T10:34:19.528Z</time>
      </trkpt>
      <trkpt lat="43.18287" lon="3.13221">
        <ele>167</ele>
        <time>2024-03-31T10:34:24.528Z</time>
      </trkpt>
      <trkpt lat="43.18284" lon="3.13213">
        <ele>167</ele>
        <time>2024-03-31T10:34:29.528Z</time>
      </trkpt>
      <trkpt lat="43.18283" lon="3.13205">
        <ele>165</ele>
        <time>2024-03-31T10:34:34.528Z</time>
      </trkpt>
      <trkpt lat="43.18281" lon="3.13198">
        <ele>165</ele>
        <time>2024-03-31T10:34:38.528Z</time>
      </trkpt>
      <trkpt lat="43.1828" lon="3.13192">
        <ele>165</ele>
        <time>2024-03-31T10:34:43.528Z</time>
      </trkpt>
      <trkpt lat="43.18278" lon="3.13185">
        <ele>165</ele>
        <time>2024-03-31T10:34:48.528Z</time>
      </trkpt>
      <trkpt lat="43.18276" lon="3.13179">
        <ele>163</ele>
        <time>2024-03-31T10:34:53.528Z</time>
      </trkpt>
      <trkpt lat="43.18275" lon="3.13171">
        <ele>163</ele>
        <time>2024-03-31T10:34:58.528Z</time>
      </trkpt>
      <trkpt lat="43.18272" lon="3.13165">
        <ele>163</ele>
        <time>2024-03-31T10:35:03.528Z</time>
      </trkpt>
      <trkpt lat="43.1827" lon="3.13159">
        <ele>163</ele>
        <time>2024-03-31T10:35:07.528Z</time>
      </trkpt>
      <trkpt lat="43.18267" lon="3.13151">
        <ele>163</ele>
        <time>2024-03-31T10:35:12.528Z</time>
      </trkpt>
      <trkpt lat="43.18264" lon="3.13144">
        <ele>163</ele>
        <time>2024-03-31T10:35:17.528Z</time>
      </trkpt>
      <trkpt lat="43.18263" lon="3.13138">
        <ele>162</ele>
        <time>2024-03-31T10:35:21.528Z</time>
      </trkpt>
      <trkpt lat="43.1826" lon="3.1313">
        <ele>162</ele>
        <time>2024-03-31T10:35:26.528Z</time>
      </trkpt>
      <trkpt lat="43.18256" lon="3.13124">
        <ele>162</ele>
        <time>2024-03-31T10:35:31.528Z</time>
      </trkpt>
      <trkpt lat="43.18251" lon="3.13116">
        <ele>162</ele>
        <time>2024-03-31T10:35:36.528Z</time>
      </trkpt>
      <trkpt lat="43.18248" lon="3.13111">
        <ele>162</ele>
        <time>2024-03-31T10:35:41.528Z</time>
      </trkpt>
      <trkpt lat="43.18243" lon="3.13106">
        <ele>162</ele>
        <time>2024-03-31T10:35:46.528Z</time>
      </trkpt>
      <trkpt lat="43.18239" lon="3.13102">
        <ele>162</ele>
        <time>2024-03-31T10:35:51.528Z</time>
      </trkpt>
      <trkpt lat="43.18235" lon="3.13098">
        <ele>161</ele>
        <time>2024-03-31T10:35:56.528Z</time>
      </trkpt>
      <trkpt lat="43.18231" lon="3.13093">
        <ele>162</ele>
        <time>2024-03-31T10:36:01.528Z</time>
      </trkpt>
      <trkpt lat="43.18228" lon="3.1309">
        <ele>162</ele>
        <time>2024-03-31T10:36:05.528Z</time>
      </trkpt>
      <trkpt lat="43.18224" lon="3.13086">
        <ele>162</ele>
        <time>2024-03-31T10:36:10.528Z</time>
      </trkpt>
      <trkpt lat="43.1822" lon="3.13084">
        <ele>162</ele>
        <time>2024-03-31T10:36:14.528Z</time>
      </trkpt>
      <trkpt lat="43.18214" lon="3.13082">
        <ele>162</ele>
        <time>2024-03-31T10:36:19.529Z</time>
      </trkpt>
      <trkpt lat="43.18209" lon="3.13078">
        <ele>162</ele>
        <time>2024-03-31T10:36:24.529Z</time>
      </trkpt>
      <trkpt lat="43.18205" lon="3.13073">
        <ele>160</ele>
        <time>2024-03-31T10:36:29.529Z</time>
      </trkpt>
      <trkpt lat="43.18202" lon="3.13067">
        <ele>161</ele>
        <time>2024-03-31T10:36:34.529Z</time>
      </trkpt>
      <trkpt lat="43.18198" lon="3.13061">
        <ele>161</ele>
        <time>2024-03-31T10:36:39.529Z</time>
      </trkpt>
      <trkpt lat="43.18193" lon="3.13057">
        <ele>161</ele>
        <time>2024-03-31T10:36:44.529Z</time>
      </trkpt>
      <trkpt lat="43.1819" lon="3.13053">
        <ele>161</ele>
        <time>2024-03-31T10:36:48.529Z</time>
      </trkpt>
      <trkpt lat="43.18186" lon="3.13049">
        <ele>161</ele>
        <time>2024-03-31T10:36:53.529Z</time>
      </trkpt>
      <trkpt lat="43.18181" lon="3.13044">
        <ele>161</ele>
        <time>2024-03-31T10:36:58.529Z</time>
      </trkpt>
      <trkpt lat="43.18178" lon="3.13039">
        <ele>162</ele>
        <time>2024-03-31T10:37:03.529Z</time>
      </trkpt>
      <trkpt lat="43.18174" lon="3.13034">
        <ele>162</ele>
        <time>2024-03-31T10:37:08.529Z</time>
      </trkpt>
      <trkpt lat="43.1817" lon="3.13028">
        <ele>162</ele>
        <time>2024-03-31T10:37:13.529Z</time>
      </trkpt>
      <trkpt lat="43.18167" lon="3.13024">
        <ele>162</ele>
        <time>2024-03-31T10:37:17.529Z</time>
      </trkpt>
      <trkpt lat="43.18164" lon="3.1302">
        <ele>162</ele>
        <time>2024-03-31T10:37:22.529Z</time>
      </trkpt>
      <trkpt lat="43.18159" lon="3.13013">
        <ele>163</ele>
        <time>2024-03-31T10:37:27.529Z</time>
      </trkpt>
      <trkpt lat="43.18155" lon="3.13007">
        <ele>163</ele>
        <time>2024-03-31T10:37:32.529Z</time>
      </trkpt>
      <trkpt lat="43.18152" lon="3.13001">
        <ele>162</ele>
        <time>2024-03-31T10:37:36.529Z</time>
      </trkpt>
      <trkpt lat="43.18149" lon="3.12995">
        <ele>162</ele>
        <time>2024-03-31T10:37:41.529Z</time>
      </trkpt>
      <trkpt lat="43.18145" lon="3.1299">
        <ele>162</ele>
        <time>2024-03-31T10:37:46.529Z</time>
      </trkpt>
      <trkpt lat="43.1814" lon="3.12984">
        <ele>162</ele>
        <time>2024-03-31T10:37:51.529Z</time>
      </trkpt>
      <trkpt lat="43.18137" lon="3.12981">
        <ele>162</ele>
        <time>2024-03-31T10:37:55.529Z</time>
      </trkpt>
      <trkpt lat="43.18133" lon="3.12974">
        <ele>162</ele>
        <time>2024-03-31T10:38:00.529Z</time>
      </trkpt>
      <trkpt lat="43.18128" lon="3.12971">
        <ele>162</ele>
        <time>2024-03-31T10:38:05.529Z</time>
      </trkpt>
      <trkpt lat="43.18124" lon="3.12966">
        <ele>161</ele>
        <time>2024-03-31T10:38:10.529Z</time>
      </trkpt>
      <trkpt lat="43.18118" lon="3.12961">
        <ele>161</ele>
        <time>2024-03-31T10:38:15.529Z</time>
      </trkpt>
      <trkpt lat="43.18114" lon="3.12956">
        <ele>162</ele>
        <time>2024-03-31T10:38:19.529Z</time>
      </trkpt>
      <trkpt lat="43.18109" lon="3.12953">
        <ele>162</ele>
        <time>2024-03-31T10:38:24.529Z</time>
      </trkpt>
      <trkpt lat="43.18105" lon="3.12949">
        <ele>162</ele>
        <time>2024-03-31T10:38:29.529Z</time>
      </trkpt>
      <trkpt lat="43.18102" lon="3.12945">
        <ele>162</ele>
        <time>2024-03-31T10:38:33.529Z</time>
      </trkpt>
      <trkpt lat="43.18097" lon="3.1294">
        <ele>164</ele>
        <time>2024-03-31T10:38:38.529Z</time>
      </trkpt>
      <trkpt lat="43.18093" lon="3.12935">
        <ele>164</ele>
        <time>2024-03-31T10:38:43.529Z</time>
      </trkpt>
      <trkpt lat="43.18088" lon="3.12932">
        <ele>164</ele>
        <time>2024-03-31T10:38:48.529Z</time>
      </trkpt>
      <trkpt lat="43.18084" lon="3.12927">
        <ele>165</ele>
        <time>2024-03-31T10:38:53.529Z</time>
      </trkpt>
      <trkpt lat="43.1808" lon="3.12924">
        <ele>165</ele>
        <time>2024-03-31T10:38:58.529Z</time>
      </trkpt>
      <trkpt lat="43.18076" lon="3.12921">
        <ele>165</ele>
        <time>2024-03-31T10:39:03.529Z</time>
      </trkpt>
      <trkpt lat="43.18072" lon="3.12917">
        <ele>165</ele>
        <time>2024-03-31T10:39:08.529Z</time>
      </trkpt>
      <trkpt lat="43.18067" lon="3.12914">
        <ele>164</ele>
        <time>2024-03-31T10:39:13.529Z</time>
      </trkpt>
      <trkpt lat="43.18061" lon="3.1291">
        <ele>164</ele>
        <time>2024-03-31T10:39:18.529Z</time>
      </trkpt>
      <trkpt lat="43.18055" lon="3.12905">
        <ele>164</ele>
        <time>2024-03-31T10:39:23.529Z</time>
      </trkpt>
      <trkpt lat="43.18052" lon="3.12901">
        <ele>163</ele>
        <time>2024-03-31T10:39:27.529Z</time>
      </trkpt>
      <trkpt lat="43.18048" lon="3.12897">
        <ele>163</ele>
        <time>2024-03-31T10:39:32.529Z</time>
      </trkpt>
      <trkpt lat="43.18044" lon="3.12894">
        <ele>163</ele>
        <time>2024-03-31T10:39:37.529Z</time>
      </trkpt>
      <trkpt lat="43.18039" lon="3.1289">
        <ele>162</ele>
        <time>2024-03-31T10:39:42.529Z</time>
      </trkpt>
      <trkpt lat="43.18036" lon="3.12887">
        <ele>162</ele>
        <time>2024-03-31T10:39:46.529Z</time>
      </trkpt>
      <trkpt lat="43.1803" lon="3.12882">
        <ele>162</ele>
        <time>2024-03-31T10:39:51.529Z</time>
      </trkpt>
      <trkpt lat="43.18024" lon="3.12876">
        <ele>162</ele>
        <time>2024-03-31T10:39:56.529Z</time>
      </trkpt>
      <trkpt lat="43.1802" lon="3.12871">
        <ele>161</ele>
        <time>2024-03-31T10:40:01.529Z</time>
      </trkpt>
      <trkpt lat="43.18016" lon="3.12868">
        <ele>161</ele>
        <time>2024-03-31T10:40:05.529Z</time>
      </trkpt>
      <trkpt lat="43.18011" lon="3.12864">
        <ele>160</ele>
        <time>2024-03-31T10:40:10.529Z</time>
      </trkpt>
      <trkpt lat="43.18009" lon="3.12861">
        <ele>160</ele>
        <time>2024-03-31T10:40:14.529Z</time>
      </trkpt>
      <trkpt lat="43.18005" lon="3.12857">
        <ele>160</ele>
        <time>2024-03-31T10:40:19.529Z</time>
      </trkpt>
      <trkpt lat="43.18" lon="3.12853">
        <ele>160</ele>
        <time>2024-03-31T10:40:24.529Z</time>
      </trkpt>
      <trkpt lat="43.17996" lon="3.1285">
        <ele>160</ele>
        <time>2024-03-31T10:40:29.529Z</time>
      </trkpt>
      <trkpt lat="43.17991" lon="3.12849">
        <ele>160</ele>
        <time>2024-03-31T10:40:34.529Z</time>
      </trkpt>
      <trkpt lat="43.17987" lon="3.12842">
        <ele>160</ele>
        <time>2024-03-31T10:40:39.529Z</time>
      </trkpt>
      <trkpt lat="43.17982" lon="3.12831">
        <ele>160</ele>
        <time>2024-03-31T10:40:44.529Z</time>
      </trkpt>
      <trkpt lat="43.17976" lon="3.12822">
        <ele>160</ele>
        <time>2024-03-31T10:40:49.529Z</time>
      </trkpt>
      <trkpt lat="43.17973" lon="3.12814">
        <ele>160</ele>
        <time>2024-03-31T10:40:54.529Z</time>
      </trkpt>
      <trkpt lat="43.17971" lon="3.12811">
        <ele>160</ele>
        <time>2024-03-31T10:40:59.529Z</time>
      </trkpt>
      <trkpt lat="43.17966" lon="3.12805">
        <ele>160</ele>
        <time>2024-03-31T10:41:04.529Z</time>
      </trkpt>
      <trkpt lat="43.17961" lon="3.12799">
        <ele>160</ele>
        <time>2024-03-31T10:41:09.529Z</time>
      </trkpt>
      <trkpt lat="43.17956" lon="3.12795">
        <ele>159</ele>
        <time>2024-03-31T10:41:14.529Z</time>
      </trkpt>
      <trkpt lat="43.17952" lon="3.1279">
        <ele>160</ele>
        <time>2024-03-31T10:41:19.529Z</time>
      </trkpt>
      <trkpt lat="43.17948" lon="3.12785">
        <ele>160</ele>
        <time>2024-03-31T10:41:24.529Z</time>
      </trkpt>
      <trkpt lat="43.17943" lon="3.12782">
        <ele>160</ele>
        <time>2024-03-31T10:41:29.529Z</time>
      </trkpt>
      <trkpt lat="43.17937" lon="3.12779">
        <ele>160</ele>
        <time>2024-03-31T10:41:34.529Z</time>
      </trkpt>
      <trkpt lat="43.1793" lon="3.12776">
        <ele>159</ele>
        <time>2024-03-31T10:41:39.529Z</time>
      </trkpt>
      <trkpt lat="43.17925" lon="3.12775">
        <ele>159</ele>
        <time>2024-03-31T10:41:44.529Z</time>
      </trkpt>
      <trkpt lat="43.17921" lon="3.12774">
        <ele>159</ele>
        <time>2024-03-31T10:41:49.529Z</time>
      </trkpt>
      <trkpt lat="43.17917" lon="3.12773">
        <ele>159</ele>
        <time>2024-03-31T10:41:53.529Z</time>
      </trkpt>
      <trkpt lat="43.17912" lon="3.12771">
        <ele>159</ele>
        <time>2024-03-31T10:41:58.529Z</time>
      </trkpt>
      <trkpt lat="43.17907" lon="3.12769">
        <ele>159</ele>
        <time>2024-03-31T10:42:03.529Z</time>
      </trkpt>
      <trkpt lat="43.17902" lon="3.12766">
        <ele>160</ele>
        <time>2024-03-31T10:42:08.529Z</time>
      </trkpt>
      <trkpt lat="43.17898" lon="3.12764">
        <ele>161</ele>
        <time>2024-03-31T10:42:12.529Z</time>
      </trkpt>
      <trkpt lat="43.17895" lon="3.12761">
        <ele>161</ele>
        <time>2024-03-31T10:42:16.529Z</time>
      </trkpt>
      <trkpt lat="43.1789" lon="3.12757">
        <ele>161</ele>
        <time>2024-03-31T10:42:21.529Z</time>
      </trkpt>
      <trkpt lat="43.17886" lon="3.12753">
        <ele>161</ele>
        <time>2024-03-31T10:42:26.529Z</time>
      </trkpt>
      <trkpt lat="43.17883" lon="3.12753">
        <ele>161</ele>
        <time>2024-03-31T10:42:31.529Z</time>
      </trkpt>
      <trkpt lat="43.17878" lon="3.12753">
        <ele>161</ele>
        <time>2024-03-31T10:42:35.529Z</time>
      </trkpt>
      <trkpt lat="43.17874" lon="3.12757">
        <ele>163</ele>
        <time>2024-03-31T10:42:40.529Z</time>
      </trkpt>
      <trkpt lat="43.17871" lon="3.1276">
        <ele>163</ele>
        <time>2024-03-31T10:42:45.529Z</time>
      </trkpt>
      <trkpt lat="43.17868" lon="3.12763">
        <ele>163</ele>
        <time>2024-03-31T10:42:49.529Z</time>
      </trkpt>
      <trkpt lat="43.17863" lon="3.12768">
        <ele>163</ele>
        <time>2024-03-31T10:42:54.529Z</time>
      </trkpt>
      <trkpt lat="43.17859" lon="3.12772">
        <ele>163</ele>
        <time>2024-03-31T10:42:59.529Z</time>
      </trkpt>
      <trkpt lat="43.17856" lon="3.12777">
        <ele>163</ele>
        <time>2024-03-31T10:43:04.529Z</time>
      </trkpt>
      <trkpt lat="43.1785" lon="3.12779">
        <ele>163</ele>
        <time>2024-03-31T10:43:09.529Z</time>
      </trkpt>
      <trkpt lat="43.17843" lon="3.12782">
        <ele>165</ele>
        <time>2024-03-31T10:43:14.529Z</time>
      </trkpt>
      <trkpt lat="43.17841" lon="3.12784">
        <ele>165</ele>
        <time>2024-03-31T10:43:18.529Z</time>
      </trkpt>
      <trkpt lat="43.17839" lon="3.12784">
        <ele>165</ele>
        <time>2024-03-31T10:43:23.529Z</time>
      </trkpt>
      <trkpt lat="43.17833" lon="3.12782">
        <ele>165</ele>
        <time>2024-03-31T10:43:28.529Z</time>
      </trkpt>
      <trkpt lat="43.17829" lon="3.1278">
        <ele>165</ele>
        <time>2024-03-31T10:43:33.529Z</time>
      </trkpt>
      <trkpt lat="43.17824" lon="3.12779">
        <ele>165</ele>
        <time>2024-03-31T10:43:37.529Z</time>
      </trkpt>
      <trkpt lat="43.17819" lon="3.12779">
        <ele>166</ele>
        <time>2024-03-31T10:43:42.529Z</time>
      </trkpt>
      <trkpt lat="43.17813" lon="3.12777">
        <ele>166</ele>
        <time>2024-03-31T10:43:47.529Z</time>
      </trkpt>
      <trkpt lat="43.17807" lon="3.12775">
        <ele>166</ele>
        <time>2024-03-31T10:43:52.529Z</time>
      </trkpt>
      <trkpt lat="43.17801" lon="3.12772">
        <ele>166</ele>
        <time>2024-03-31T10:43:57.529Z</time>
      </trkpt>
      <trkpt lat="43.17796" lon="3.1277">
        <ele>166</ele>
        <time>2024-03-31T10:44:02.529Z</time>
      </trkpt>
      <trkpt lat="43.1779" lon="3.12769">
        <ele>167</ele>
        <time>2024-03-31T10:44:07.529Z</time>
      </trkpt>
      <trkpt lat="43.17785" lon="3.12767">
        <ele>167</ele>
        <time>2024-03-31T10:44:12.529Z</time>
      </trkpt>
      <trkpt lat="43.1778" lon="3.12766">
        <ele>167</ele>
        <time>2024-03-31T10:44:17.529Z</time>
      </trkpt>
      <trkpt lat="43.17774" lon="3.12765">
        <ele>167</ele>
        <time>2024-03-31T10:44:22.529Z</time>
      </trkpt>
      <trkpt lat="43.17769" lon="3.12765">
        <ele>167</ele>
        <time>2024-03-31T10:44:27.529Z</time>
      </trkpt>
      <trkpt lat="43.17764" lon="3.12764">
        <ele>169</ele>
        <time>2024-03-31T10:44:32.530Z</time>
      </trkpt>
      <trkpt lat="43.1776" lon="3.12764">
        <ele>169</ele>
        <time>2024-03-31T10:44:36.530Z</time>
      </trkpt>
      <trkpt lat="43.17755" lon="3.12764">
        <ele>169</ele>
        <time>2024-03-31T10:44:41.530Z</time>
      </trkpt>
      <trkpt lat="43.17751" lon="3.12762">
        <ele>171</ele>
        <time>2024-03-31T10:44:46.530Z</time>
      </trkpt>
      <trkpt lat="43.17746" lon="3.1276">
        <ele>171</ele>
        <time>2024-03-31T10:44:51.530Z</time>
      </trkpt>
      <trkpt lat="43.17742" lon="3.1276">
        <ele>171</ele>
        <time>2024-03-31T10:44:56.530Z</time>
      </trkpt>
      <trkpt lat="43.17738" lon="3.12758">
        <ele>171</ele>
        <time>2024-03-31T10:45:01.530Z</time>
      </trkpt>
      <trkpt lat="43.17733" lon="3.12757">
        <ele>174</ele>
        <time>2024-03-31T10:45:06.530Z</time>
      </trkpt>
      <trkpt lat="43.17729" lon="3.12756">
        <ele>174</ele>
        <time>2024-03-31T10:45:10.530Z</time>
      </trkpt>
      <trkpt lat="43.17723" lon="3.12754">
        <ele>174</ele>
        <time>2024-03-31T10:45:15.530Z</time>
      </trkpt>
      <trkpt lat="43.17719" lon="3.12753">
        <ele>174</ele>
        <time>2024-03-31T10:45:20.530Z</time>
      </trkpt>
      <trkpt lat="43.17713" lon="3.12749">
        <ele>174</ele>
        <time>2024-03-31T10:45:25.530Z</time>
      </trkpt>
      <trkpt lat="43.17708" lon="3.12746">
        <ele>176</ele>
        <time>2024-03-31T10:45:30.530Z</time>
      </trkpt>
      <trkpt lat="43.17703" lon="3.12743">
        <ele>176</ele>
        <time>2024-03-31T10:45:35.530Z</time>
      </trkpt>
      <trkpt lat="43.17698" lon="3.12741">
        <ele>176</ele>
        <time>2024-03-31T10:45:40.530Z</time>
      </trkpt>
      <trkpt lat="43.17692" lon="3.1274">
        <ele>176</ele>
        <time>2024-03-31T10:45:45.530Z</time>
      </trkpt>
      <trkpt lat="43.17688" lon="3.12738">
        <ele>176</ele>
        <time>2024-03-31T10:45:50.530Z</time>
      </trkpt>
      <trkpt lat="43.17683" lon="3.12736">
        <ele>176</ele>
        <time>2024-03-31T10:45:55.530Z</time>
      </trkpt>
      <trkpt lat="43.17678" lon="3.12734">
        <ele>177</ele>
        <time>2024-03-31T10:46:00.530Z</time>
      </trkpt>
      <trkpt lat="43.17673" lon="3.12732">
        <ele>177</ele>
        <time>2024-03-31T10:46:04.530Z</time>
      </trkpt>
      <trkpt lat="43.17668" lon="3.12731">
        <ele>177</ele>
        <time>2024-03-31T10:46:09.530Z</time>
      </trkpt>
      <trkpt lat="43.17664" lon="3.12729">
        <ele>177</ele>
        <time>2024-03-31T10:46:13.530Z</time>
      </trkpt>
      <trkpt lat="43.17661" lon="3.12729">
        <ele>177</ele>
        <time>2024-03-31T10:46:18.530Z</time>
      </trkpt>
      <trkpt lat="43.17657" lon="3.1273">
        <ele>177</ele>
        <time>2024-03-31T10:46:23.530Z</time>
      </trkpt>
      <trkpt lat="43.17653" lon="3.12726">
        <ele>177</ele>
        <time>2024-03-31T10:46:28.530Z</time>
      </trkpt>
      <trkpt lat="43.17649" lon="3.12722">
        <ele>178</ele>
        <time>2024-03-31T10:46:32.530Z</time>
      </trkpt>
      <trkpt lat="43.17644" lon="3.12717">
        <ele>178</ele>
        <time>2024-03-31T10:46:37.530Z</time>
      </trkpt>
      <trkpt lat="43.1764" lon="3.12715">
        <ele>178</ele>
        <time>2024-03-31T10:46:41.530Z</time>
      </trkpt>
      <trkpt lat="43.17636" lon="3.12713">
        <ele>178</ele>
        <time>2024-03-31T10:46:46.530Z</time>
      </trkpt>
      <trkpt lat="43.17631" lon="3.12709">
        <ele>178</ele>
        <time>2024-03-31T10:46:50.530Z</time>
      </trkpt>
      <trkpt lat="43.17627" lon="3.12704">
        <ele>179</ele>
        <time>2024-03-31T10:46:54.530Z</time>
      </trkpt>
      <trkpt lat="43.17623" lon="3.12697">
        <ele>181</ele>
        <time>2024-03-31T10:46:59.530Z</time>
      </trkpt>
      <trkpt lat="43.17619" lon="3.12692">
        <ele>181</ele>
        <time>2024-03-31T10:47:03.530Z</time>
      </trkpt>
      <trkpt lat="43.17615" lon="3.12686">
        <ele>181</ele>
        <time>2024-03-31T10:47:08.530Z</time>
      </trkpt>
      <trkpt lat="43.17611" lon="3.12681">
        <ele>181</ele>
        <time>2024-03-31T10:47:13.530Z</time>
      </trkpt>
      <trkpt lat="43.17606" lon="3.12675">
        <ele>180</ele>
        <time>2024-03-31T10:47:18.530Z</time>
      </trkpt>
      <trkpt lat="43.17603" lon="3.1267">
        <ele>180</ele>
        <time>2024-03-31T10:47:23.530Z</time>
      </trkpt>
      <trkpt lat="43.176" lon="3.12665">
        <ele>180</ele>
        <time>2024-03-31T10:47:28.530Z</time>
      </trkpt>
      <trkpt lat="43.17596" lon="3.1266">
        <ele>180</ele>
        <time>2024-03-31T10:47:33.530Z</time>
      </trkpt>
      <trkpt lat="43.17593" lon="3.12656">
        <ele>180</ele>
        <time>2024-03-31T10:47:38.530Z</time>
      </trkpt>
      <trkpt lat="43.17591" lon="3.12654">
        <ele>180</ele>
        <time>2024-03-31T10:47:42.530Z</time>
      </trkpt>
      <trkpt lat="43.17587" lon="3.1265">
        <ele>181</ele>
        <time>2024-03-31T10:47:47.530Z</time>
      </trkpt>
      <trkpt lat="43.17583" lon="3.12643">
        <ele>181</ele>
        <time>2024-03-31T10:47:52.530Z</time>
      </trkpt>
      <trkpt lat="43.1758" lon="3.12637">
        <ele>181</ele>
        <time>2024-03-31T10:47:56.530Z</time>
      </trkpt>
      <trkpt lat="43.17575" lon="3.12631">
        <ele>181</ele>
        <time>2024-03-31T10:48:01.530Z</time>
      </trkpt>
      <trkpt lat="43.17571" lon="3.12626">
        <ele>181</ele>
        <time>2024-03-31T10:48:05.530Z</time>
      </trkpt>
      <trkpt lat="43.17567" lon="3.12621">
        <ele>185</ele>
        <time>2024-03-31T10:48:10.530Z</time>
      </trkpt>
      <trkpt lat="43.17564" lon="3.12618">
        <ele>185</ele>
        <time>2024-03-31T10:48:14.530Z</time>
      </trkpt>
      <trkpt lat="43.17561" lon="3.12613">
        <ele>185</ele>
        <time>2024-03-31T10:48:19.530Z</time>
      </trkpt>
      <trkpt lat="43.17557" lon="3.12608">
        <ele>185</ele>
        <time>2024-03-31T10:48:24.530Z</time>
      </trkpt>
      <trkpt lat="43.17553" lon="3.12603">
        <ele>185</ele>
        <time>2024-03-31T10:48:29.530Z</time>
      </trkpt>
      <trkpt lat="43.1755" lon="3.12598">
        <ele>185</ele>
        <time>2024-03-31T10:48:33.530Z</time>
      </trkpt>
      <trkpt lat="43.17547" lon="3.12592">
        <ele>185</ele>
        <time>2024-03-31T10:48:38.530Z</time>
      </trkpt>
      <trkpt lat="43.17544" lon="3.12587">
        <ele>185</ele>
        <time>2024-03-31T10:48:43.530Z</time>
      </trkpt>
      <trkpt lat="43.17541" lon="3.12582">
        <ele>185</ele>
        <time>2024-03-31T10:48:47.530Z</time>
      </trkpt>
      <trkpt lat="43.17538" lon="3.12576">
        <ele>185</ele>
        <time>2024-03-31T10:48:52.530Z</time>
      </trkpt>
      <trkpt lat="43.17535" lon="3.12571">
        <ele>185</ele>
        <time>2024-03-31T10:48:56.530Z</time>
      </trkpt>
      <trkpt lat="43.17532" lon="3.12566">
        <ele>186</ele>
        <time>2024-03-31T10:49:01.530Z</time>
      </trkpt>
      <trkpt lat="43.17528" lon="3.12561">
        <ele>186</ele>
        <time>2024-03-31T10:49:06.530Z</time>
      </trkpt>
      <trkpt lat="43.17525" lon="3.12555">
        <ele>186</ele>
        <time>2024-03-31T10:49:11.530Z</time>
      </trkpt>
      <trkpt lat="43.17522" lon="3.12551">
        <ele>186</ele>
        <time>2024-03-31T10:49:16.530Z</time>
      </trkpt>
      <trkpt lat="43.1752" lon="3.12549">
        <ele>186</ele>
        <time>2024-03-31T10:49:20.530Z</time>
      </trkpt>
      <trkpt lat="43.17517" lon="3.12544">
        <ele>186</ele>
        <time>2024-03-31T10:49:25.530Z</time>
      </trkpt>
      <trkpt lat="43.17513" lon="3.12537">
        <ele>186</ele>
        <time>2024-03-31T10:49:30.530Z</time>
      </trkpt>
      <trkpt lat="43.1751" lon="3.1253">
        <ele>186</ele>
        <time>2024-03-31T10:49:35.530Z</time>
      </trkpt>
      <trkpt lat="43.17507" lon="3.12525">
        <ele>186</ele>
        <time>2024-03-31T10:49:39.530Z</time>
      </trkpt>
      <trkpt lat="43.17503" lon="3.12518">
        <ele>186</ele>
        <time>2024-03-31T10:49:44.530Z</time>
      </trkpt>
      <trkpt lat="43.17499" lon="3.12512">
        <ele>188</ele>
        <time>2024-03-31T10:49:49.530Z</time>
      </trkpt>
      <trkpt lat="43.17496" lon="3.12507">
        <ele>188</ele>
        <time>2024-03-31T10:49:54.530Z</time>
      </trkpt>
      <trkpt lat="43.17493" lon="3.12504">
        <ele>188</ele>
        <time>2024-03-31T10:49:59.530Z</time>
      </trkpt>
      <trkpt lat="43.1749" lon="3.125">
        <ele>188</ele>
        <time>2024-03-31T10:50:04.530Z</time>
      </trkpt>
      <trkpt lat="43.17488" lon="3.12494">
        <ele>188</ele>
        <time>2024-03-31T10:50:08.530Z</time>
      </trkpt>
      <trkpt lat="43.17482" lon="3.12486">
        <ele>187</ele>
        <time>2024-03-31T10:50:13.530Z</time>
      </trkpt>
      <trkpt lat="43.17478" lon="3.12478">
        <ele>187</ele>
        <time>2024-03-31T10:50:18.530Z</time>
      </trkpt>
      <trkpt lat="43.17474" lon="3.12472">
        <ele>187</ele>
        <time>2024-03-31T10:50:23.530Z</time>
      </trkpt>
      <trkpt lat="43.17472" lon="3.12467">
        <ele>187</ele>
        <time>2024-03-31T10:50:28.530Z</time>
      </trkpt>
      <trkpt lat="43.17469" lon="3.12463">
        <ele>187</ele>
        <time>2024-03-31T10:50:33.530Z</time>
      </trkpt>
      <trkpt lat="43.17467" lon="3.12458">
        <ele>188</ele>
        <time>2024-03-31T10:50:38.530Z</time>
      </trkpt>
      <trkpt lat="43.17465" lon="3.12455">
        <ele>188</ele>
        <time>2024-03-31T10:50:42.530Z</time>
      </trkpt>
      <trkpt lat="43.17462" lon="3.12449">
        <ele>188</ele>
        <time>2024-03-31T10:50:47.530Z</time>
      </trkpt>
      <trkpt lat="43.1746" lon="3.12445">
        <ele>188</ele>
        <time>2024-03-31T10:50:51.530Z</time>
      </trkpt>
      <trkpt lat="43.17457" lon="3.12439">
        <ele>187</ele>
        <time>2024-03-31T10:50:56.530Z</time>
      </trkpt>
      <trkpt lat="43.17454" lon="3.12433">
        <ele>187</ele>
        <time>2024-03-31T10:51:01.530Z</time>
      </trkpt>
      <trkpt lat="43.17451" lon="3.12427">
        <ele>189</ele>
        <time>2024-03-31T10:51:06.530Z</time>
      </trkpt>
      <trkpt lat="43.17448" lon="3.1242">
        <ele>189</ele>
        <time>2024-03-31T10:51:11.530Z</time>
      </trkpt>
      <trkpt lat="43.17445" lon="3.12414">
        <ele>189</ele>
        <time>2024-03-31T10:51:15.530Z</time>
      </trkpt>
      <trkpt lat="43.17442" lon="3.12406">
        <ele>189</ele>
        <time>2024-03-31T10:51:20.530Z</time>
      </trkpt>
      <trkpt lat="43.17439" lon="3.124">
        <ele>191</ele>
        <time>2024-03-31T10:51:25.530Z</time>
      </trkpt>
      <trkpt lat="43.17437" lon="3.12397">
        <ele>191</ele>
        <time>2024-03-31T10:51:29.530Z</time>
      </trkpt>
      <trkpt lat="43.17435" lon="3.12391">
        <ele>191</ele>
        <time>2024-03-31T10:51:34.530Z</time>
      </trkpt>
      <trkpt lat="43.17431" lon="3.12385">
        <ele>191</ele>
        <time>2024-03-31T10:51:39.530Z</time>
      </trkpt>
      <trkpt lat="43.17429" lon="3.12379">
        <ele>189</ele>
        <time>2024-03-31T10:51:44.530Z</time>
      </trkpt>
      <trkpt lat="43.17427" lon="3.12375">
        <ele>189</ele>
        <time>2024-03-31T10:51:48.530Z</time>
      </trkpt>
      <trkpt lat="43.17425" lon="3.1237">
        <ele>189</ele>
        <time>2024-03-31T10:51:53.530Z</time>
      </trkpt>
      <trkpt lat="43.17422" lon="3.12363">
        <ele>189</ele>
        <time>2024-03-31T10:51:57.530Z</time>
      </trkpt>
      <trkpt lat="43.1742" lon="3.12356">
        <ele>189</ele>
        <time>2024-03-31T10:52:02.531Z</time>
      </trkpt>
      <trkpt lat="43.17417" lon="3.12351">
        <ele>189</ele>
        <time>2024-03-31T10:52:07.531Z</time>
      </trkpt>
      <trkpt lat="43.17413" lon="3.12348">
        <ele>189</ele>
        <time>2024-03-31T10:52:12.531Z</time>
      </trkpt>
      <trkpt lat="43.17411" lon="3.12344">
        <ele>188</ele>
        <time>2024-03-31T10:52:17.531Z</time>
      </trkpt>
      <trkpt lat="43.1741" lon="3.12343">
        <ele>188</ele>
        <time>2024-03-31T10:52:22.531Z</time>
      </trkpt>
      <trkpt lat="43.17406" lon="3.12344">
        <ele>188</ele>
        <time>2024-03-31T10:52:26.531Z</time>
      </trkpt>
      <trkpt lat="43.17404" lon="3.12347">
        <ele>188</ele>
        <time>2024-03-31T10:52:31.531Z</time>
      </trkpt>
      <trkpt lat="43.17403" lon="3.1235">
        <ele>189</ele>
        <time>2024-03-31T10:52:36.531Z</time>
      </trkpt>
      <trkpt lat="43.17402" lon="3.12352">
        <ele>183</ele>
        <time>2024-03-31T10:52:40.531Z</time>
      </trkpt>
      <trkpt lat="43.17403" lon="3.12353">
        <ele>183</ele>
        <time>2024-03-31T10:53:13.531Z</time>
      </trkpt>
      <trkpt lat="43.17403" lon="3.12349">
        <ele>189</ele>
        <time>2024-03-31T10:53:18.531Z</time>
      </trkpt>
      <trkpt lat="43.17406" lon="3.12345">
        <ele>188</ele>
        <time>2024-03-31T10:53:23.531Z</time>
      </trkpt>
      <trkpt lat="43.17409" lon="3.12344">
        <ele>188</ele>
        <time>2024-03-31T10:53:28.531Z</time>
      </trkpt>
      <trkpt lat="43.17415" lon="3.12344">
        <ele>188</ele>
        <time>2024-03-31T10:53:33.531Z</time>
      </trkpt>
      <trkpt lat="43.17421" lon="3.12343">
        <ele>188</ele>
        <time>2024-03-31T10:53:42.531Z</time>
      </trkpt>
      <trkpt lat="43.17422" lon="3.12342">
        <ele>188</ele>
        <time>2024-03-31T10:53:47.531Z</time>
      </trkpt>
      <trkpt lat="43.17423" lon="3.12341">
        <ele>188</ele>
        <time>2024-03-31T10:53:52.531Z</time>
      </trkpt>
      <trkpt lat="43.17425" lon="3.12338">
        <ele>188</ele>
        <time>2024-03-31T10:53:56.531Z</time>
      </trkpt>
      <trkpt lat="43.17428" lon="3.12337">
        <ele>188</ele>
        <time>2024-03-31T10:54:01.531Z</time>
      </trkpt>
      <trkpt lat="43.17425" lon="3.12339">
        <ele>188</ele>
        <time>2024-03-31T10:58:27.531Z</time>
      </trkpt>
      <trkpt lat="43.1742" lon="3.12341">
        <ele>188</ele>
        <time>2024-03-31T10:58:32.531Z</time>
      </trkpt>
      <trkpt lat="43.17416" lon="3.12345">
        <ele>188</ele>
        <time>2024-03-31T10:58:37.531Z</time>
      </trkpt>
      <trkpt lat="43.17416" lon="3.12353">
        <ele>189</ele>
        <time>2024-03-31T10:58:42.531Z</time>
      </trkpt>
      <trkpt lat="43.17424" lon="3.12363">
        <ele>189</ele>
        <time>2024-03-31T10:58:47.531Z</time>
      </trkpt>
      <trkpt lat="43.17428" lon="3.12371">
        <ele>189</ele>
        <time>2024-03-31T10:58:52.531Z</time>
      </trkpt>
      <trkpt lat="43.1743" lon="3.12374">
        <ele>189</ele>
        <time>2024-03-31T10:58:57.531Z</time>
      </trkpt>
      <trkpt lat="43.17434" lon="3.1238">
        <ele>191</ele>
        <time>2024-03-31T10:59:02.531Z</time>
      </trkpt>
      <trkpt lat="43.17437" lon="3.12383">
        <ele>191</ele>
        <time>2024-03-31T10:59:07.531Z</time>
      </trkpt>
      <trkpt lat="43.17439" lon="3.12387">
        <ele>191</ele>
        <time>2024-03-31T10:59:12.531Z</time>
      </trkpt>
      <trkpt lat="43.17441" lon="3.12392">
        <ele>191</ele>
        <time>2024-03-31T10:59:17.531Z</time>
      </trkpt>
      <trkpt lat="43.17441" lon="3.12399">
        <ele>191</ele>
        <time>2024-03-31T10:59:22.531Z</time>
      </trkpt>
      <trkpt lat="43.17444" lon="3.12404">
        <ele>189</ele>
        <time>2024-03-31T10:59:26.531Z</time>
      </trkpt>
      <trkpt lat="43.17447" lon="3.12408">
        <ele>189</ele>
        <time>2024-03-31T10:59:31.531Z</time>
      </trkpt>
      <trkpt lat="43.17449" lon="3.12414">
        <ele>189</ele>
        <time>2024-03-31T10:59:36.531Z</time>
      </trkpt>
      <trkpt lat="43.17452" lon="3.12419">
        <ele>189</ele>
        <time>2024-03-31T10:59:41.531Z</time>
      </trkpt>
      <trkpt lat="43.17455" lon="3.12424">
        <ele>189</ele>
        <time>2024-03-31T10:59:45.531Z</time>
      </trkpt>
      <trkpt lat="43.17457" lon="3.12431">
        <ele>187</ele>
        <time>2024-03-31T10:59:50.531Z</time>
      </trkpt>
      <trkpt lat="43.17459" lon="3.12437">
        <ele>188</ele>
        <time>2024-03-31T10:59:55.531Z</time>
      </trkpt>
      <trkpt lat="43.17463" lon="3.12442">
        <ele>188</ele>
        <time>2024-03-31T11:00:00.531Z</time>
      </trkpt>
      <trkpt lat="43.17466" lon="3.1245">
        <ele>188</ele>
        <time>2024-03-31T11:00:05.531Z</time>
      </trkpt>
      <trkpt lat="43.17469" lon="3.12455">
        <ele>188</ele>
        <time>2024-03-31T11:00:10.531Z</time>
      </trkpt>
      <trkpt lat="43.17472" lon="3.12459">
        <ele>187</ele>
        <time>2024-03-31T11:00:15.531Z</time>
      </trkpt>
      <trkpt lat="43.17475" lon="3.12465">
        <ele>187</ele>
        <time>2024-03-31T11:00:20.531Z</time>
      </trkpt>
      <trkpt lat="43.17478" lon="3.12471">
        <ele>187</ele>
        <time>2024-03-31T11:00:25.531Z</time>
      </trkpt>
      <trkpt lat="43.17479" lon="3.12478">
        <ele>187</ele>
        <time>2024-03-31T11:00:30.531Z</time>
      </trkpt>
      <trkpt lat="43.17482" lon="3.12483">
        <ele>187</ele>
        <time>2024-03-31T11:00:35.531Z</time>
      </trkpt>
      <trkpt lat="43.17485" lon="3.12487">
        <ele>183</ele>
        <time>2024-03-31T11:00:40.531Z</time>
      </trkpt>
      <trkpt lat="43.17488" lon="3.12493">
        <ele>188</ele>
        <time>2024-03-31T11:00:44.531Z</time>
      </trkpt>
      <trkpt lat="43.17491" lon="3.12499">
        <ele>188</ele>
        <time>2024-03-31T11:00:49.531Z</time>
      </trkpt>
      <trkpt lat="43.17494" lon="3.12504">
        <ele>188</ele>
        <time>2024-03-31T11:00:54.531Z</time>
      </trkpt>
      <trkpt lat="43.17497" lon="3.12508">
        <ele>188</ele>
        <time>2024-03-31T11:00:58.531Z</time>
      </trkpt>
      <trkpt lat="43.17501" lon="3.12513">
        <ele>188</ele>
        <time>2024-03-31T11:01:03.531Z</time>
      </trkpt>
      <trkpt lat="43.17504" lon="3.1252">
        <ele>186</ele>
        <time>2024-03-31T11:01:08.531Z</time>
      </trkpt>
      <trkpt lat="43.17507" lon="3.12525">
        <ele>186</ele>
        <time>2024-03-31T11:01:12.531Z</time>
      </trkpt>
      <trkpt lat="43.1751" lon="3.1253">
        <ele>186</ele>
        <time>2024-03-31T11:01:17.531Z</time>
      </trkpt>
      <trkpt lat="43.17513" lon="3.12533">
        <ele>186</ele>
        <time>2024-03-31T11:01:21.531Z</time>
      </trkpt>
      <trkpt lat="43.17516" lon="3.12538">
        <ele>187</ele>
        <time>2024-03-31T11:01:26.531Z</time>
      </trkpt>
      <trkpt lat="43.17519" lon="3.12543">
        <ele>186</ele>
        <time>2024-03-31T11:01:31.531Z</time>
      </trkpt>
      <trkpt lat="43.17522" lon="3.12547">
        <ele>186</ele>
        <time>2024-03-31T11:01:36.532Z</time>
      </trkpt>
      <trkpt lat="43.17525" lon="3.12553">
        <ele>186</ele>
        <time>2024-03-31T11:01:41.532Z</time>
      </trkpt>
      <trkpt lat="43.17528" lon="3.12557">
        <ele>186</ele>
        <time>2024-03-31T11:01:45.532Z</time>
      </trkpt>
      <trkpt lat="43.17531" lon="3.12562">
        <ele>186</ele>
        <time>2024-03-31T11:01:50.532Z</time>
      </trkpt>
      <trkpt lat="43.17534" lon="3.12566">
        <ele>186</ele>
        <time>2024-03-31T11:01:55.532Z</time>
      </trkpt>
      <trkpt lat="43.17537" lon="3.1257">
        <ele>185</ele>
        <time>2024-03-31T11:02:00.532Z</time>
      </trkpt>
      <trkpt lat="43.1754" lon="3.12575">
        <ele>185</ele>
        <time>2024-03-31T11:02:04.532Z</time>
      </trkpt>
      <trkpt lat="43.17543" lon="3.1258">
        <ele>185</ele>
        <time>2024-03-31T11:02:08.532Z</time>
      </trkpt>
      <trkpt lat="43.17547" lon="3.12585">
        <ele>185</ele>
        <time>2024-03-31T11:02:13.532Z</time>
      </trkpt>
      <trkpt lat="43.17551" lon="3.12589">
        <ele>185</ele>
        <time>2024-03-31T11:02:17.532Z</time>
      </trkpt>
      <trkpt lat="43.17553" lon="3.12594">
        <ele>185</ele>
        <time>2024-03-31T11:02:21.532Z</time>
      </trkpt>
      <trkpt lat="43.17557" lon="3.126">
        <ele>185</ele>
        <time>2024-03-31T11:02:26.532Z</time>
      </trkpt>
      <trkpt lat="43.1756" lon="3.12604">
        <ele>185</ele>
        <time>2024-03-31T11:02:30.532Z</time>
      </trkpt>
      <trkpt lat="43.17563" lon="3.12608">
        <ele>185</ele>
        <time>2024-03-31T11:02:35.532Z</time>
      </trkpt>
      <trkpt lat="43.17568" lon="3.12615">
        <ele>185</ele>
        <time>2024-03-31T11:02:40.532Z</time>
      </trkpt>
      <trkpt lat="43.1757" lon="3.12619">
        <ele>183</ele>
        <time>2024-03-31T11:02:44.532Z</time>
      </trkpt>
      <trkpt lat="43.17575" lon="3.12625">
        <ele>183</ele>
        <time>2024-03-31T11:02:49.532Z</time>
      </trkpt>
      <trkpt lat="43.17579" lon="3.12629">
        <ele>181</ele>
        <time>2024-03-31T11:02:54.532Z</time>
      </trkpt>
      <trkpt lat="43.17581" lon="3.12633">
        <ele>181</ele>
        <time>2024-03-31T11:02:59.532Z</time>
      </trkpt>
      <trkpt lat="43.17584" lon="3.12636">
        <ele>181</ele>
        <time>2024-03-31T11:03:03.532Z</time>
      </trkpt>
      <trkpt lat="43.17588" lon="3.12641">
        <ele>181</ele>
        <time>2024-03-31T11:03:08.532Z</time>
      </trkpt>
      <trkpt lat="43.17592" lon="3.12647">
        <ele>181</ele>
        <time>2024-03-31T11:03:13.532Z</time>
      </trkpt>
      <trkpt lat="43.17596" lon="3.12654">
        <ele>180</ele>
        <time>2024-03-31T11:03:18.532Z</time>
      </trkpt>
      <trkpt lat="43.17599" lon="3.12661">
        <ele>180</ele>
        <time>2024-03-31T11:03:23.532Z</time>
      </trkpt>
      <trkpt lat="43.17603" lon="3.12666">
        <ele>180</ele>
        <time>2024-03-31T11:03:28.532Z</time>
      </trkpt>
      <trkpt lat="43.17606" lon="3.12671">
        <ele>180</ele>
        <time>2024-03-31T11:03:32.532Z</time>
      </trkpt>
      <trkpt lat="43.1761" lon="3.12676">
        <ele>180</ele>
        <time>2024-03-31T11:03:37.532Z</time>
      </trkpt>
      <trkpt lat="43.17614" lon="3.1268">
        <ele>180</ele>
        <time>2024-03-31T11:03:41.532Z</time>
      </trkpt>
      <trkpt lat="43.17618" lon="3.12686">
        <ele>181</ele>
        <time>2024-03-31T11:03:46.532Z</time>
      </trkpt>
      <trkpt lat="43.17622" lon="3.12691">
        <ele>181</ele>
        <time>2024-03-31T11:03:51.532Z</time>
      </trkpt>
      <trkpt lat="43.17626" lon="3.12696">
        <ele>179</ele>
        <time>2024-03-31T11:03:56.532Z</time>
      </trkpt>
      <trkpt lat="43.17629" lon="3.127">
        <ele>179</ele>
        <time>2024-03-31T11:04:00.532Z</time>
      </trkpt>
      <trkpt lat="43.17633" lon="3.12706">
        <ele>179</ele>
        <time>2024-03-31T11:04:05.532Z</time>
      </trkpt>
      <trkpt lat="43.17637" lon="3.1271">
        <ele>178</ele>
        <time>2024-03-31T11:04:10.532Z</time>
      </trkpt>
      <trkpt lat="43.1764" lon="3.12712">
        <ele>178</ele>
        <time>2024-03-31T11:04:14.532Z</time>
      </trkpt>
      <trkpt lat="43.17645" lon="3.12715">
        <ele>178</ele>
        <time>2024-03-31T11:04:19.532Z</time>
      </trkpt>
      <trkpt lat="43.17647" lon="3.12718">
        <ele>178</ele>
        <time>2024-03-31T11:04:23.532Z</time>
      </trkpt>
      <trkpt lat="43.1765" lon="3.12722">
        <ele>178</ele>
        <time>2024-03-31T11:04:28.532Z</time>
      </trkpt>
      <trkpt lat="43.17652" lon="3.12726">
        <ele>178</ele>
        <time>2024-03-31T11:05:04.532Z</time>
      </trkpt>
      <trkpt lat="43.17654" lon="3.12726">
        <ele>177</ele>
        <time>2024-03-31T11:05:08.532Z</time>
      </trkpt>
      <trkpt lat="43.17654" lon="3.12726">
        <ele>177</ele>
        <time>2024-03-31T11:05:13.532Z</time>
      </trkpt>
      <trkpt lat="43.17659" lon="3.12728">
        <ele>177</ele>
        <time>2024-03-31T11:05:41.532Z</time>
      </trkpt>
      <trkpt lat="43.17664" lon="3.12731">
        <ele>177</ele>
        <time>2024-03-31T11:05:46.532Z</time>
      </trkpt>
      <trkpt lat="43.17675" lon="3.12736">
        <ele>177</ele>
        <time>2024-03-31T11:06:08.532Z</time>
      </trkpt>
      <trkpt lat="43.17677" lon="3.12736">
        <ele>177</ele>
        <time>2024-03-31T11:06:13.532Z</time>
      </trkpt>
      <trkpt lat="43.17682" lon="3.12738">
        <ele>176</ele>
        <time>2024-03-31T11:06:18.532Z</time>
      </trkpt>
      <trkpt lat="43.17687" lon="3.12741">
        <ele>176</ele>
        <time>2024-03-31T11:06:22.532Z</time>
      </trkpt>
      <trkpt lat="43.17692" lon="3.12744">
        <ele>176</ele>
        <time>2024-03-31T11:06:27.532Z</time>
      </trkpt>
      <trkpt lat="43.17699" lon="3.12745">
        <ele>176</ele>
        <time>2024-03-31T11:06:44.532Z</time>
      </trkpt>
      <trkpt lat="43.17699" lon="3.12745">
        <ele>176</ele>
        <time>2024-03-31T11:06:49.532Z</time>
      </trkpt>
      <trkpt lat="43.17705" lon="3.12746">
        <ele>176</ele>
        <time>2024-03-31T11:06:58.532Z</time>
      </trkpt>
      <trkpt lat="43.1771" lon="3.12749">
        <ele>174</ele>
        <time>2024-03-31T11:07:03.532Z</time>
      </trkpt>
      <trkpt lat="43.17714" lon="3.12751">
        <ele>174</ele>
        <time>2024-03-31T11:07:07.532Z</time>
      </trkpt>
      <trkpt lat="43.17719" lon="3.12752">
        <ele>174</ele>
        <time>2024-03-31T11:07:12.532Z</time>
      </trkpt>
      <trkpt lat="43.17722" lon="3.12754">
        <ele>174</ele>
        <time>2024-03-31T11:07:16.532Z</time>
      </trkpt>
      <trkpt lat="43.17725" lon="3.12756">
        <ele>174</ele>
        <time>2024-03-31T11:07:20.532Z</time>
      </trkpt>
      <trkpt lat="43.1773" lon="3.12757">
        <ele>174</ele>
        <time>2024-03-31T11:07:25.532Z</time>
      </trkpt>
      <trkpt lat="43.17734" lon="3.12759">
        <ele>174</ele>
        <time>2024-03-31T11:07:29.532Z</time>
      </trkpt>
      <trkpt lat="43.17739" lon="3.12761">
        <ele>171</ele>
        <time>2024-03-31T11:07:34.532Z</time>
      </trkpt>
      <trkpt lat="43.17743" lon="3.12763">
        <ele>171</ele>
        <time>2024-03-31T11:07:39.532Z</time>
      </trkpt>
      <trkpt lat="43.17747" lon="3.12765">
        <ele>169</ele>
        <time>2024-03-31T11:07:44.532Z</time>
      </trkpt>
      <trkpt lat="43.17752" lon="3.12768">
        <ele>169</ele>
        <time>2024-03-31T11:07:49.532Z</time>
      </trkpt>
      <trkpt lat="43.17756" lon="3.12768">
        <ele>169</ele>
        <time>2024-03-31T11:07:53.532Z</time>
      </trkpt>
      <trkpt lat="43.1776" lon="3.12768">
        <ele>169</ele>
        <time>2024-03-31T11:07:57.532Z</time>
      </trkpt>
      <trkpt lat="43.17765" lon="3.12769">
        <ele>167</ele>
        <time>2024-03-31T11:08:02.532Z</time>
      </trkpt>
      <trkpt lat="43.17769" lon="3.12767">
        <ele>167</ele>
        <time>2024-03-31T11:08:07.532Z</time>
      </trkpt>
      <trkpt lat="43.17773" lon="3.12768">
        <ele>167</ele>
        <time>2024-03-31T11:08:11.532Z</time>
      </trkpt>
      <trkpt lat="43.17778" lon="3.12768">
        <ele>167</ele>
        <time>2024-03-31T11:08:16.532Z</time>
      </trkpt>
      <trkpt lat="43.17782" lon="3.12771">
        <ele>167</ele>
        <time>2024-03-31T11:08:21.532Z</time>
      </trkpt>
      <trkpt lat="43.17785" lon="3.12771">
        <ele>167</ele>
        <time>2024-03-31T11:08:26.532Z</time>
      </trkpt>
      <trkpt lat="43.1779" lon="3.12773">
        <ele>167</ele>
        <time>2024-03-31T11:08:31.532Z</time>
      </trkpt>
      <trkpt lat="43.17794" lon="3.12774">
        <ele>166</ele>
        <time>2024-03-31T11:08:36.532Z</time>
      </trkpt>
      <trkpt lat="43.17799" lon="3.12775">
        <ele>166</ele>
        <time>2024-03-31T11:08:41.532Z</time>
      </trkpt>
      <trkpt lat="43.17803" lon="3.12775">
        <ele>166</ele>
        <time>2024-03-31T11:08:46.532Z</time>
      </trkpt>
      <trkpt lat="43.17807" lon="3.12776">
        <ele>166</ele>
        <time>2024-03-31T11:08:50.532Z</time>
      </trkpt>
      <trkpt lat="43.17811" lon="3.12777">
        <ele>166</ele>
        <time>2024-03-31T11:08:55.532Z</time>
      </trkpt>
      <trkpt lat="43.17817" lon="3.1278">
        <ele>166</ele>
        <time>2024-03-31T11:09:00.532Z</time>
      </trkpt>
      <trkpt lat="43.17824" lon="3.12782">
        <ele>165</ele>
        <time>2024-03-31T11:09:05.532Z</time>
      </trkpt>
      <trkpt lat="43.17827" lon="3.12783">
        <ele>165</ele>
        <time>2024-03-31T11:09:09.532Z</time>
      </trkpt>
      <trkpt lat="43.17833" lon="3.12783">
        <ele>165</ele>
        <time>2024-03-31T11:09:14.532Z</time>
      </trkpt>
      <trkpt lat="43.17839" lon="3.12782">
        <ele>165</ele>
        <time>2024-03-31T11:09:19.532Z</time>
      </trkpt>
      <trkpt lat="43.17843" lon="3.12784">
        <ele>165</ele>
        <time>2024-03-31T11:09:24.532Z</time>
      </trkpt>
      <trkpt lat="43.17847" lon="3.12786">
        <ele>165</ele>
        <time>2024-03-31T11:09:28.532Z</time>
      </trkpt>
      <trkpt lat="43.17851" lon="3.12784">
        <ele>163</ele>
        <time>2024-03-31T11:09:33.532Z</time>
      </trkpt>
      <trkpt lat="43.17854" lon="3.12781">
        <ele>163</ele>
        <time>2024-03-31T11:09:37.532Z</time>
      </trkpt>
      <trkpt lat="43.17858" lon="3.12779">
        <ele>163</ele>
        <time>2024-03-31T11:09:42.532Z</time>
      </trkpt>
      <trkpt lat="43.17861" lon="3.12776">
        <ele>163</ele>
        <time>2024-03-31T11:09:46.532Z</time>
      </trkpt>
      <trkpt lat="43.17865" lon="3.12772">
        <ele>163</ele>
        <time>2024-03-31T11:09:51.532Z</time>
      </trkpt>
      <trkpt lat="43.1787" lon="3.12767">
        <ele>163</ele>
        <time>2024-03-31T11:09:56.532Z</time>
      </trkpt>
      <trkpt lat="43.17873" lon="3.12762">
        <ele>163</ele>
        <time>2024-03-31T11:10:01.532Z</time>
      </trkpt>
      <trkpt lat="43.17878" lon="3.12759">
        <ele>161</ele>
        <time>2024-03-31T11:10:06.532Z</time>
      </trkpt>
      <trkpt lat="43.17883" lon="3.12758">
        <ele>161</ele>
        <time>2024-03-31T11:10:11.532Z</time>
      </trkpt>
      <trkpt lat="43.17888" lon="3.12761">
        <ele>161</ele>
        <time>2024-03-31T11:10:16.532Z</time>
      </trkpt>
      <trkpt lat="43.17892" lon="3.12763">
        <ele>161</ele>
        <time>2024-03-31T11:10:20.532Z</time>
      </trkpt>
      <trkpt lat="43.17895" lon="3.12767">
        <ele>160</ele>
        <time>2024-03-31T11:10:25.533Z</time>
      </trkpt>
      <trkpt lat="43.17899" lon="3.12771">
        <ele>160</ele>
        <time>2024-03-31T11:10:30.533Z</time>
      </trkpt>
      <trkpt lat="43.17902" lon="3.12774">
        <ele>160</ele>
        <time>2024-03-31T11:10:34.533Z</time>
      </trkpt>
      <trkpt lat="43.17904" lon="3.12778">
        <ele>159</ele>
        <time>2024-03-31T11:10:38.533Z</time>
      </trkpt>
      <trkpt lat="43.17907" lon="3.1278">
        <ele>159</ele>
        <time>2024-03-31T11:10:43.533Z</time>
      </trkpt>
      <trkpt lat="43.17908" lon="3.12785">
        <ele>159</ele>
        <time>2024-03-31T11:10:48.533Z</time>
      </trkpt>
      <trkpt lat="43.1791" lon="3.12788">
        <ele>159</ele>
        <time>2024-03-31T11:10:53.533Z</time>
      </trkpt>
      <trkpt lat="43.17914" lon="3.12789">
        <ele>159</ele>
        <time>2024-03-31T11:10:57.533Z</time>
      </trkpt>
      <trkpt lat="43.17916" lon="3.1279">
        <ele>159</ele>
        <time>2024-03-31T11:11:02.533Z</time>
      </trkpt>
      <trkpt lat="43.17918" lon="3.12793">
        <ele>158</ele>
        <time>2024-03-31T11:11:06.533Z</time>
      </trkpt>
      <trkpt lat="43.17921" lon="3.12794">
        <ele>158</ele>
        <time>2024-03-31T11:11:11.533Z</time>
      </trkpt>
      <trkpt lat="43.17923" lon="3.12794">
        <ele>158</ele>
        <time>2024-03-31T11:11:16.533Z</time>
      </trkpt>
      <trkpt lat="43.17923" lon="3.12794">
        <ele>158</ele>
        <time>2024-03-31T11:11:21.533Z</time>
      </trkpt>
      <trkpt lat="43.17923" lon="3.12794">
        <ele>158</ele>
        <time>2024-03-31T11:11:26.533Z</time>
      </trkpt>
      <trkpt lat="43.17924" lon="3.12792">
        <ele>158</ele>
        <time>2024-03-31T11:11:46.533Z</time>
      </trkpt>
      <trkpt lat="43.17926" lon="3.12787">
        <ele>159</ele>
        <time>2024-03-31T11:11:51.533Z</time>
      </trkpt>
      <trkpt lat="43.17928" lon="3.12782">
        <ele>159</ele>
        <time>2024-03-31T11:11:56.533Z</time>
      </trkpt>
      <trkpt lat="43.17932" lon="3.12782">
        <ele>160</ele>
        <time>2024-03-31T11:12:01.533Z</time>
      </trkpt>
      <trkpt lat="43.17937" lon="3.12782">
        <ele>160</ele>
        <time>2024-03-31T11:12:06.533Z</time>
      </trkpt>
      <trkpt lat="43.17943" lon="3.12784">
        <ele>160</ele>
        <time>2024-03-31T11:12:11.533Z</time>
      </trkpt>
      <trkpt lat="43.17947" lon="3.12786">
        <ele>160</ele>
        <time>2024-03-31T11:12:16.533Z</time>
      </trkpt>
      <trkpt lat="43.17952" lon="3.12788">
        <ele>160</ele>
        <time>2024-03-31T11:12:21.533Z</time>
      </trkpt>
      <trkpt lat="43.17957" lon="3.12792">
        <ele>159</ele>
        <time>2024-03-31T11:12:26.533Z</time>
      </trkpt>
      <trkpt lat="43.17961" lon="3.12797">
        <ele>160</ele>
        <time>2024-03-31T11:12:31.533Z</time>
      </trkpt>
      <trkpt lat="43.17965" lon="3.12802">
        <ele>160</ele>
        <time>2024-03-31T11:12:36.533Z</time>
      </trkpt>
      <trkpt lat="43.17968" lon="3.12805">
        <ele>160</ele>
        <time>2024-03-31T11:12:41.533Z</time>
      </trkpt>
      <trkpt lat="43.17971" lon="3.12809">
        <ele>160</ele>
        <time>2024-03-31T11:12:45.533Z</time>
      </trkpt>
      <trkpt lat="43.17974" lon="3.12814">
        <ele>160</ele>
        <time>2024-03-31T11:12:50.533Z</time>
      </trkpt>
      <trkpt lat="43.17977" lon="3.12819">
        <ele>160</ele>
        <time>2024-03-31T11:12:55.533Z</time>
      </trkpt>
      <trkpt lat="43.17982" lon="3.12824">
        <ele>160</ele>
        <time>2024-03-31T11:13:00.533Z</time>
      </trkpt>
      <trkpt lat="43.17985" lon="3.12828">
        <ele>160</ele>
        <time>2024-03-31T11:13:05.533Z</time>
      </trkpt>
      <trkpt lat="43.17988" lon="3.12832">
        <ele>160</ele>
        <time>2024-03-31T11:13:10.533Z</time>
      </trkpt>
      <trkpt lat="43.1799" lon="3.12835">
        <ele>160</ele>
        <time>2024-03-31T11:13:14.533Z</time>
      </trkpt>
      <trkpt lat="43.17991" lon="3.12841">
        <ele>160</ele>
        <time>2024-03-31T11:16:19.533Z</time>
      </trkpt>
      <trkpt lat="43.17991" lon="3.12842">
        <ele>160</ele>
        <time>2024-03-31T11:16:24.533Z</time>
      </trkpt>
      <trkpt lat="43.17992" lon="3.12842">
        <ele>160</ele>
        <time>2024-03-31T11:16:29.533Z</time>
      </trkpt>
      <trkpt lat="43.18" lon="3.12839">
        <ele>160</ele>
        <time>2024-03-31T11:20:47.534Z</time>
      </trkpt>
      <trkpt lat="43.18002" lon="3.12844">
        <ele>160</ele>
        <time>2024-03-31T11:20:52.534Z</time>
      </trkpt>
      <trkpt lat="43.17997" lon="3.12839">
        <ele>160</ele>
        <time>2024-03-31T11:22:54.534Z</time>
      </trkpt>
      <trkpt lat="43.17997" lon="3.12839">
        <ele>160</ele>
        <time>2024-03-31T11:22:59.534Z</time>
      </trkpt>
      <trkpt lat="43.17998" lon="3.12842">
        <ele>160</ele>
        <time>2024-03-31T11:28:03.534Z</time>
      </trkpt>
      <trkpt lat="43.18001" lon="3.12846">
        <ele>160</ele>
        <time>2024-03-31T11:28:08.534Z</time>
      </trkpt>
      <trkpt lat="43.18004" lon="3.1285">
        <ele>160</ele>
        <time>2024-03-31T11:28:13.534Z</time>
      </trkpt>
      <trkpt lat="43.18008" lon="3.12854">
        <ele>160</ele>
        <time>2024-03-31T11:28:18.534Z</time>
      </trkpt>
      <trkpt lat="43.18012" lon="3.12859">
        <ele>160</ele>
        <time>2024-03-31T11:28:23.534Z</time>
      </trkpt>
      <trkpt lat="43.18014" lon="3.12862">
        <ele>161</ele>
        <time>2024-03-31T11:28:27.534Z</time>
      </trkpt>
      <trkpt lat="43.18018" lon="3.12867">
        <ele>161</ele>
        <time>2024-03-31T11:28:32.534Z</time>
      </trkpt>
      <trkpt lat="43.18023" lon="3.1287">
        <ele>161</ele>
        <time>2024-03-31T11:28:37.534Z</time>
      </trkpt>
      <trkpt lat="43.18026" lon="3.12874">
        <ele>161</ele>
        <time>2024-03-31T11:28:41.534Z</time>
      </trkpt>
      <trkpt lat="43.18029" lon="3.12878">
        <ele>162</ele>
        <time>2024-03-31T11:28:46.534Z</time>
      </trkpt>
      <trkpt lat="43.18032" lon="3.12881">
        <ele>162</ele>
        <time>2024-03-31T11:28:50.534Z</time>
      </trkpt>
      <trkpt lat="43.18033" lon="3.12883">
        <ele>162</ele>
        <time>2024-03-31T11:28:54.534Z</time>
      </trkpt>
      <trkpt lat="43.18033" lon="3.12883">
        <ele>162</ele>
        <time>2024-03-31T11:28:59.534Z</time>
      </trkpt>
      <trkpt lat="43.18033" lon="3.12883">
        <ele>162</ele>
        <time>2024-03-31T11:29:03.534Z</time>
      </trkpt>
      <trkpt lat="43.18039" lon="3.12887">
        <ele>162</ele>
        <time>2024-03-31T11:29:07.534Z</time>
      </trkpt>
      <trkpt lat="43.18044" lon="3.12891">
        <ele>163</ele>
        <time>2024-03-31T11:29:12.534Z</time>
      </trkpt>
      <trkpt lat="43.18048" lon="3.12894">
        <ele>163</ele>
        <time>2024-03-31T11:29:16.534Z</time>
      </trkpt>
      <trkpt lat="43.18051" lon="3.12898">
        <ele>163</ele>
        <time>2024-03-31T11:29:21.534Z</time>
      </trkpt>
      <trkpt lat="43.18055" lon="3.12901">
        <ele>163</ele>
        <time>2024-03-31T11:29:26.534Z</time>
      </trkpt>
      <trkpt lat="43.18059" lon="3.12905">
        <ele>164</ele>
        <time>2024-03-31T11:29:31.534Z</time>
      </trkpt>
      <trkpt lat="43.18064" lon="3.12909">
        <ele>164</ele>
        <time>2024-03-31T11:29:36.534Z</time>
      </trkpt>
      <trkpt lat="43.18068" lon="3.12915">
        <ele>164</ele>
        <time>2024-03-31T11:29:41.534Z</time>
      </trkpt>
      <trkpt lat="43.18074" lon="3.12922">
        <ele>165</ele>
        <time>2024-03-31T11:29:46.534Z</time>
      </trkpt>
      <trkpt lat="43.18078" lon="3.12924">
        <ele>165</ele>
        <time>2024-03-31T11:29:50.534Z</time>
      </trkpt>
      <trkpt lat="43.18083" lon="3.12928">
        <ele>165</ele>
        <time>2024-03-31T11:29:55.534Z</time>
      </trkpt>
      <trkpt lat="43.18086" lon="3.12931">
        <ele>164</ele>
        <time>2024-03-31T11:29:59.534Z</time>
      </trkpt>
      <trkpt lat="43.1809" lon="3.12934">
        <ele>164</ele>
        <time>2024-03-31T11:30:04.534Z</time>
      </trkpt>
      <trkpt lat="43.18094" lon="3.12939">
        <ele>164</ele>
        <time>2024-03-31T11:30:09.534Z</time>
      </trkpt>
      <trkpt lat="43.18098" lon="3.12943">
        <ele>162</ele>
        <time>2024-03-31T11:30:14.534Z</time>
      </trkpt>
      <trkpt lat="43.18102" lon="3.12946">
        <ele>162</ele>
        <time>2024-03-31T11:30:19.534Z</time>
      </trkpt>
      <trkpt lat="43.18105" lon="3.12949">
        <ele>162</ele>
        <time>2024-03-31T11:30:23.534Z</time>
      </trkpt>
      <trkpt lat="43.18108" lon="3.12954">
        <ele>162</ele>
        <time>2024-03-31T11:30:28.534Z</time>
      </trkpt>
      <trkpt lat="43.18113" lon="3.12959">
        <ele>161</ele>
        <time>2024-03-31T11:30:33.534Z</time>
      </trkpt>
      <trkpt lat="43.18116" lon="3.12962">
        <ele>161</ele>
        <time>2024-03-31T11:30:37.534Z</time>
      </trkpt>
      <trkpt lat="43.18121" lon="3.12966">
        <ele>161</ele>
        <time>2024-03-31T11:30:42.534Z</time>
      </trkpt>
      <trkpt lat="43.18125" lon="3.12968">
        <ele>161</ele>
        <time>2024-03-31T11:30:47.534Z</time>
      </trkpt>
      <trkpt lat="43.1813" lon="3.12971">
        <ele>162</ele>
        <time>2024-03-31T11:30:52.534Z</time>
      </trkpt>
      <trkpt lat="43.18134" lon="3.12976">
        <ele>162</ele>
        <time>2024-03-31T11:30:57.534Z</time>
      </trkpt>
      <trkpt lat="43.18138" lon="3.1298">
        <ele>162</ele>
        <time>2024-03-31T11:31:02.534Z</time>
      </trkpt>
      <trkpt lat="43.18142" lon="3.12983">
        <ele>162</ele>
        <time>2024-03-31T11:31:06.534Z</time>
      </trkpt>
      <trkpt lat="43.18147" lon="3.12987">
        <ele>162</ele>
        <time>2024-03-31T11:31:11.534Z</time>
      </trkpt>
      <trkpt lat="43.18151" lon="3.12992">
        <ele>162</ele>
        <time>2024-03-31T11:31:16.535Z</time>
      </trkpt>
      <trkpt lat="43.18156" lon="3.12997">
        <ele>163</ele>
        <time>2024-03-31T11:31:21.535Z</time>
      </trkpt>
      <trkpt lat="43.1816" lon="3.13002">
        <ele>163</ele>
        <time>2024-03-31T11:31:26.535Z</time>
      </trkpt>
      <trkpt lat="43.18163" lon="3.13007">
        <ele>163</ele>
        <time>2024-03-31T11:31:31.535Z</time>
      </trkpt>
      <trkpt lat="43.18166" lon="3.13013">
        <ele>163</ele>
        <time>2024-03-31T11:31:36.535Z</time>
      </trkpt>
      <trkpt lat="43.18169" lon="3.13018">
        <ele>162</ele>
        <time>2024-03-31T11:31:40.535Z</time>
      </trkpt>
      <trkpt lat="43.18173" lon="3.13023">
        <ele>162</ele>
        <time>2024-03-31T11:31:45.535Z</time>
      </trkpt>
      <trkpt lat="43.18178" lon="3.13028">
        <ele>162</ele>
        <time>2024-03-31T11:31:50.535Z</time>
      </trkpt>
      <trkpt lat="43.18181" lon="3.13034">
        <ele>162</ele>
        <time>2024-03-31T11:31:55.535Z</time>
      </trkpt>
      <trkpt lat="43.18185" lon="3.13037">
        <ele>162</ele>
        <time>2024-03-31T11:31:59.535Z</time>
      </trkpt>
      <trkpt lat="43.18188" lon="3.13041">
        <ele>162</ele>
        <time>2024-03-31T11:32:04.535Z</time>
      </trkpt>
      <trkpt lat="43.18192" lon="3.13046">
        <ele>161</ele>
        <time>2024-03-31T11:32:08.535Z</time>
      </trkpt>
      <trkpt lat="43.18196" lon="3.13051">
        <ele>161</ele>
        <time>2024-03-31T11:32:13.535Z</time>
      </trkpt>
      <trkpt lat="43.182" lon="3.13055">
        <ele>161</ele>
        <time>2024-03-31T11:32:18.535Z</time>
      </trkpt>
      <trkpt lat="43.18205" lon="3.13059">
        <ele>161</ele>
        <time>2024-03-31T11:32:23.535Z</time>
      </trkpt>
      <trkpt lat="43.18209" lon="3.13065">
        <ele>162</ele>
        <time>2024-03-31T11:32:28.535Z</time>
      </trkpt>
      <trkpt lat="43.18211" lon="3.1307">
        <ele>162</ele>
        <time>2024-03-31T11:32:32.535Z</time>
      </trkpt>
      <trkpt lat="43.18215" lon="3.13076">
        <ele>162</ele>
        <time>2024-03-31T11:32:37.535Z</time>
      </trkpt>
      <trkpt lat="43.18219" lon="3.1308">
        <ele>162</ele>
        <time>2024-03-31T11:32:42.535Z</time>
      </trkpt>
      <trkpt lat="43.18224" lon="3.13085">
        <ele>162</ele>
        <time>2024-03-31T11:32:47.535Z</time>
      </trkpt>
      <trkpt lat="43.18229" lon="3.13089">
        <ele>162</ele>
        <time>2024-03-31T11:32:52.535Z</time>
      </trkpt>
      <trkpt lat="43.18233" lon="3.13093">
        <ele>162</ele>
        <time>2024-03-31T11:32:56.535Z</time>
      </trkpt>
      <trkpt lat="43.18236" lon="3.13098">
        <ele>162</ele>
        <time>2024-03-31T11:33:00.535Z</time>
      </trkpt>
      <trkpt lat="43.18242" lon="3.13101">
        <ele>162</ele>
        <time>2024-03-31T11:33:05.535Z</time>
      </trkpt>
      <trkpt lat="43.18247" lon="3.13104">
        <ele>162</ele>
        <time>2024-03-31T11:33:10.535Z</time>
      </trkpt>
      <trkpt lat="43.18252" lon="3.13109">
        <ele>162</ele>
        <time>2024-03-31T11:33:15.535Z</time>
      </trkpt>
      <trkpt lat="43.18255" lon="3.13114">
        <ele>162</ele>
        <time>2024-03-31T11:33:20.535Z</time>
      </trkpt>
      <trkpt lat="43.18258" lon="3.13119">
        <ele>162</ele>
        <time>2024-03-31T11:33:24.535Z</time>
      </trkpt>
      <trkpt lat="43.18262" lon="3.13124">
        <ele>162</ele>
        <time>2024-03-31T11:33:29.535Z</time>
      </trkpt>
      <trkpt lat="43.18265" lon="3.1313">
        <ele>163</ele>
        <time>2024-03-31T11:33:34.535Z</time>
      </trkpt>
      <trkpt lat="43.18268" lon="3.13136">
        <ele>163</ele>
        <time>2024-03-31T11:33:39.535Z</time>
      </trkpt>
      <trkpt lat="43.1827" lon="3.13143">
        <ele>163</ele>
        <time>2024-03-31T11:33:44.535Z</time>
      </trkpt>
      <trkpt lat="43.18272" lon="3.13149">
        <ele>163</ele>
        <time>2024-03-31T11:33:49.535Z</time>
      </trkpt>
      <trkpt lat="43.18274" lon="3.13156">
        <ele>163</ele>
        <time>2024-03-31T11:33:54.535Z</time>
      </trkpt>
      <trkpt lat="43.18276" lon="3.13163">
        <ele>163</ele>
        <time>2024-03-31T11:33:59.535Z</time>
      </trkpt>
      <trkpt lat="43.18278" lon="3.1317">
        <ele>163</ele>
        <time>2024-03-31T11:34:04.535Z</time>
      </trkpt>
      <trkpt lat="43.1828" lon="3.13176">
        <ele>163</ele>
        <time>2024-03-31T11:34:09.535Z</time>
      </trkpt>
      <trkpt lat="43.18283" lon="3.13183">
        <ele>165</ele>
        <time>2024-03-31T11:34:14.535Z</time>
      </trkpt>
      <trkpt lat="43.18285" lon="3.1319">
        <ele>165</ele>
        <time>2024-03-31T11:34:19.535Z</time>
      </trkpt>
      <trkpt lat="43.18287" lon="3.13195">
        <ele>165</ele>
        <time>2024-03-31T11:34:24.535Z</time>
      </trkpt>
      <trkpt lat="43.18288" lon="3.13202">
        <ele>165</ele>
        <time>2024-03-31T11:34:29.535Z</time>
      </trkpt>
      <trkpt lat="43.18289" lon="3.13208">
        <ele>165</ele>
        <time>2024-03-31T11:34:33.535Z</time>
      </trkpt>
      <trkpt lat="43.18291" lon="3.13215">
        <ele>167</ele>
        <time>2024-03-31T11:34:38.535Z</time>
      </trkpt>
      <trkpt lat="43.18293" lon="3.13224">
        <ele>166</ele>
        <time>2024-03-31T11:34:43.535Z</time>
      </trkpt>
      <trkpt lat="43.18294" lon="3.13231">
        <ele>166</ele>
        <time>2024-03-31T11:34:47.535Z</time>
      </trkpt>
      <trkpt lat="43.18297" lon="3.13238">
        <ele>165</ele>
        <time>2024-03-31T11:34:52.535Z</time>
      </trkpt>
      <trkpt lat="43.18299" lon="3.13244">
        <ele>165</ele>
        <time>2024-03-31T11:34:57.535Z</time>
      </trkpt>
      <trkpt lat="43.18301" lon="3.1325">
        <ele>165</ele>
        <time>2024-03-31T11:35:02.535Z</time>
      </trkpt>
      <trkpt lat="43.18303" lon="3.13255">
        <ele>165</ele>
        <time>2024-03-31T11:35:07.535Z</time>
      </trkpt>
      <trkpt lat="43.18304" lon="3.13263">
        <ele>165</ele>
        <time>2024-03-31T11:35:12.535Z</time>
      </trkpt>
      <trkpt lat="43.18305" lon="3.13273">
        <ele>167</ele>
        <time>2024-03-31T11:35:17.535Z</time>
      </trkpt>
      <trkpt lat="43.18306" lon="3.13274">
        <ele>167</ele>
        <time>2024-03-31T11:35:34.535Z</time>
      </trkpt>
      <trkpt lat="43.18308" lon="3.13283">
        <ele>167</ele>
        <time>2024-03-31T11:35:39.535Z</time>
      </trkpt>
      <trkpt lat="43.18311" lon="3.1329">
        <ele>167</ele>
        <time>2024-03-31T11:35:44.535Z</time>
      </trkpt>
      <trkpt lat="43.18313" lon="3.13297">
        <ele>169</ele>
        <time>2024-03-31T11:35:49.535Z</time>
      </trkpt>
      <trkpt lat="43.18313" lon="3.13305">
        <ele>169</ele>
        <time>2024-03-31T11:35:54.535Z</time>
      </trkpt>
      <trkpt lat="43.18314" lon="3.13312">
        <ele>169</ele>
        <time>2024-03-31T11:35:58.535Z</time>
      </trkpt>
      <trkpt lat="43.18315" lon="3.13316">
        <ele>169</ele>
        <time>2024-03-31T11:36:02.535Z</time>
      </trkpt>
      <trkpt lat="43.18317" lon="3.13322">
        <ele>170</ele>
        <time>2024-03-31T11:36:07.535Z</time>
      </trkpt>
      <trkpt lat="43.18318" lon="3.13333">
        <ele>170</ele>
        <time>2024-03-31T11:36:12.535Z</time>
      </trkpt>
      <trkpt lat="43.18321" lon="3.13341">
        <ele>166</ele>
        <time>2024-03-31T11:36:16.535Z</time>
      </trkpt>
      <trkpt lat="43.18322" lon="3.13347">
        <ele>166</ele>
        <time>2024-03-31T11:36:21.535Z</time>
      </trkpt>
      <trkpt lat="43.18325" lon="3.13352">
        <ele>167</ele>
        <time>2024-03-31T11:36:26.535Z</time>
      </trkpt>
      <trkpt lat="43.18326" lon="3.13356">
        <ele>167</ele>
        <time>2024-03-31T11:36:31.535Z</time>
      </trkpt>
      <trkpt lat="43.18329" lon="3.13361">
        <ele>167</ele>
        <time>2024-03-31T11:36:36.535Z</time>
      </trkpt>
      <trkpt lat="43.18331" lon="3.1337">
        <ele>167</ele>
        <time>2024-03-31T11:36:41.535Z</time>
      </trkpt>
      <trkpt lat="43.18333" lon="3.13374">
        <ele>167</ele>
        <time>2024-03-31T11:36:45.535Z</time>
      </trkpt>
      <trkpt lat="43.18336" lon="3.13381">
        <ele>166</ele>
        <time>2024-03-31T11:36:50.535Z</time>
      </trkpt>
      <trkpt lat="43.18339" lon="3.13384">
        <ele>166</ele>
        <time>2024-03-31T11:36:55.535Z</time>
      </trkpt>
      <trkpt lat="43.18342" lon="3.13388">
        <ele>166</ele>
        <time>2024-03-31T11:37:00.535Z</time>
      </trkpt>
      <trkpt lat="43.18345" lon="3.13394">
        <ele>166</ele>
        <time>2024-03-31T11:37:05.535Z</time>
      </trkpt>
      <trkpt lat="43.18347" lon="3.13401">
        <ele>165</ele>
        <time>2024-03-31T11:37:10.535Z</time>
      </trkpt>
      <trkpt lat="43.18349" lon="3.13405">
        <ele>166</ele>
        <time>2024-03-31T11:37:14.535Z</time>
      </trkpt>
      <trkpt lat="43.18352" lon="3.13413">
        <ele>166</ele>
        <time>2024-03-31T11:37:19.535Z</time>
      </trkpt>
      <trkpt lat="43.18354" lon="3.13419">
        <ele>166</ele>
        <time>2024-03-31T11:37:24.535Z</time>
      </trkpt>
      <trkpt lat="43.18356" lon="3.13426">
        <ele>166</ele>
        <time>2024-03-31T11:37:29.535Z</time>
      </trkpt>
      <trkpt lat="43.18359" lon="3.13433">
        <ele>166</ele>
        <time>2024-03-31T11:37:34.535Z</time>
      </trkpt>
      <trkpt lat="43.18361" lon="3.13441">
        <ele>166</ele>
        <time>2024-03-31T11:37:39.535Z</time>
      </trkpt>
      <trkpt lat="43.18364" lon="3.13448">
        <ele>166</ele>
        <time>2024-03-31T11:37:44.535Z</time>
      </trkpt>
      <trkpt lat="43.18367" lon="3.13452">
        <ele>166</ele>
        <time>2024-03-31T11:37:49.535Z</time>
      </trkpt>
      <trkpt lat="43.1837" lon="3.13456">
        <ele>166</ele>
        <time>2024-03-31T11:38:26.535Z</time>
      </trkpt>
      <trkpt lat="43.18376" lon="3.13456">
        <ele>164</ele>
        <time>2024-03-31T11:38:30.535Z</time>
      </trkpt>
      <trkpt lat="43.18381" lon="3.13455">
        <ele>164</ele>
        <time>2024-03-31T11:38:34.535Z</time>
      </trkpt>
      <trkpt lat="43.18386" lon="3.13457">
        <ele>164</ele>
        <time>2024-03-31T11:38:39.535Z</time>
      </trkpt>
      <trkpt lat="43.1839" lon="3.13457">
        <ele>164</ele>
        <time>2024-03-31T11:38:43.535Z</time>
      </trkpt>
      <trkpt lat="43.18395" lon="3.13457">
        <ele>164</ele>
        <time>2024-03-31T11:38:47.535Z</time>
      </trkpt>
      <trkpt lat="43.184" lon="3.13458">
        <ele>164</ele>
        <time>2024-03-31T11:38:52.535Z</time>
      </trkpt>
      <trkpt lat="43.18404" lon="3.1346">
        <ele>162</ele>
        <time>2024-03-31T11:38:56.535Z</time>
      </trkpt>
      <trkpt lat="43.18409" lon="3.13463">
        <ele>162</ele>
        <time>2024-03-31T11:39:01.535Z</time>
      </trkpt>
      <trkpt lat="43.18413" lon="3.13464">
        <ele>162</ele>
        <time>2024-03-31T11:39:06.535Z</time>
      </trkpt>
      <trkpt lat="43.18417" lon="3.13467">
        <ele>162</ele>
        <time>2024-03-31T11:39:11.535Z</time>
      </trkpt>
      <trkpt lat="43.18422" lon="3.1347">
        <ele>162</ele>
        <time>2024-03-31T11:39:16.535Z</time>
      </trkpt>
      <trkpt lat="43.18426" lon="3.13474">
        <ele>162</ele>
        <time>2024-03-31T11:39:21.535Z</time>
      </trkpt>
      <trkpt lat="43.18429" lon="3.13478">
        <ele>162</ele>
        <time>2024-03-31T11:39:26.535Z</time>
      </trkpt>
      <trkpt lat="43.18432" lon="3.13482">
        <ele>154</ele>
        <time>2024-03-31T11:39:31.535Z</time>
      </trkpt>
      <trkpt lat="43.18435" lon="3.13484">
        <ele>154</ele>
        <time>2024-03-31T11:39:36.535Z</time>
      </trkpt>
      <trkpt lat="43.18437" lon="3.13487">
        <ele>152</ele>
        <time>2024-03-31T11:39:40.535Z</time>
      </trkpt>
      <trkpt lat="43.18441" lon="3.13489">
        <ele>152</ele>
        <time>2024-03-31T11:39:45.535Z</time>
      </trkpt>
      <trkpt lat="43.18446" lon="3.13491">
        <ele>152</ele>
        <time>2024-03-31T11:39:50.535Z</time>
      </trkpt>
      <trkpt lat="43.1845" lon="3.13495">
        <ele>152</ele>
        <time>2024-03-31T11:39:55.535Z</time>
      </trkpt>
      <trkpt lat="43.18454" lon="3.13498">
        <ele>152</ele>
        <time>2024-03-31T11:40:00.535Z</time>
      </trkpt>
      <trkpt lat="43.18457" lon="3.13502">
        <ele>152</ele>
        <time>2024-03-31T11:40:05.535Z</time>
      </trkpt>
      <trkpt lat="43.18458" lon="3.13506">
        <ele>147</ele>
        <time>2024-03-31T11:40:10.535Z</time>
      </trkpt>
      <trkpt lat="43.18459" lon="3.13511">
        <ele>147</ele>
        <time>2024-03-31T11:40:15.535Z</time>
      </trkpt>
      <trkpt lat="43.18462" lon="3.13517">
        <ele>148</ele>
        <time>2024-03-31T11:40:20.535Z</time>
      </trkpt>
      <trkpt lat="43.18466" lon="3.13522">
        <ele>148</ele>
        <time>2024-03-31T11:40:25.535Z</time>
      </trkpt>
      <trkpt lat="43.18469" lon="3.13526">
        <ele>148</ele>
        <time>2024-03-31T11:40:30.535Z</time>
      </trkpt>
      <trkpt lat="43.18474" lon="3.1353">
        <ele>148</ele>
        <time>2024-03-31T11:40:35.535Z</time>
      </trkpt>
      <trkpt lat="43.18477" lon="3.13533">
        <ele>148</ele>
        <time>2024-03-31T11:40:39.535Z</time>
      </trkpt>
      <trkpt lat="43.1848" lon="3.13537">
        <ele>148</ele>
        <time>2024-03-31T11:40:44.535Z</time>
      </trkpt>
      <trkpt lat="43.18481" lon="3.1354">
        <ele>148</ele>
        <time>2024-03-31T11:40:48.535Z</time>
      </trkpt>
      <trkpt lat="43.18483" lon="3.13545">
        <ele>147</ele>
        <time>2024-03-31T11:40:53.535Z</time>
      </trkpt>
      <trkpt lat="43.18486" lon="3.1355">
        <ele>147</ele>
        <time>2024-03-31T11:40:58.535Z</time>
      </trkpt>
      <trkpt lat="43.18491" lon="3.13557">
        <ele>145</ele>
        <time>2024-03-31T11:41:13.535Z</time>
      </trkpt>
      <trkpt lat="43.18491" lon="3.13557">
        <ele>145</ele>
        <time>2024-03-31T11:41:18.536Z</time>
      </trkpt>
      <trkpt lat="43.1849" lon="3.13558">
        <ele>145</ele>
        <time>2024-03-31T11:41:51.536Z</time>
      </trkpt>
      <trkpt lat="43.1849" lon="3.13562">
        <ele>145</ele>
        <time>2024-03-31T11:41:56.536Z</time>
      </trkpt>
      <trkpt lat="43.18489" lon="3.13568">
        <ele>145</ele>
        <time>2024-03-31T11:42:01.536Z</time>
      </trkpt>
      <trkpt lat="43.18489" lon="3.13575">
        <ele>144</ele>
        <time>2024-03-31T11:42:06.536Z</time>
      </trkpt>
      <trkpt lat="43.18489" lon="3.13582">
        <ele>144</ele>
        <time>2024-03-31T11:42:11.536Z</time>
      </trkpt>
      <trkpt lat="43.18489" lon="3.1359">
        <ele>144</ele>
        <time>2024-03-31T11:42:16.536Z</time>
      </trkpt>
      <trkpt lat="43.1849" lon="3.13596">
        <ele>144</ele>
        <time>2024-03-31T11:42:21.536Z</time>
      </trkpt>
      <trkpt lat="43.1849" lon="3.13602">
        <ele>141</ele>
        <time>2024-03-31T11:42:25.536Z</time>
      </trkpt>
      <trkpt lat="43.1849" lon="3.13608">
        <ele>141</ele>
        <time>2024-03-31T11:42:30.536Z</time>
      </trkpt>
      <trkpt lat="43.1849" lon="3.13615">
        <ele>141</ele>
        <time>2024-03-31T11:42:35.536Z</time>
      </trkpt>
      <trkpt lat="43.1849" lon="3.13622">
        <ele>141</ele>
        <time>2024-03-31T11:42:39.536Z</time>
      </trkpt>
      <trkpt lat="43.1849" lon="3.13629">
        <ele>141</ele>
        <time>2024-03-31T11:42:44.536Z</time>
      </trkpt>
      <trkpt lat="43.1849" lon="3.13634">
        <ele>141</ele>
        <time>2024-03-31T11:42:49.536Z</time>
      </trkpt>
      <trkpt lat="43.1849" lon="3.13641">
        <ele>141</ele>
        <time>2024-03-31T11:42:54.536Z</time>
      </trkpt>
      <trkpt lat="43.1849" lon="3.13649">
        <ele>141</ele>
        <time>2024-03-31T11:42:59.536Z</time>
      </trkpt>
      <trkpt lat="43.1849" lon="3.13658">
        <ele>141</ele>
        <time>2024-03-31T11:43:04.536Z</time>
      </trkpt>
      <trkpt lat="43.1849" lon="3.13666">
        <ele>141</ele>
        <time>2024-03-31T11:43:09.536Z</time>
      </trkpt>
      <trkpt lat="43.18489" lon="3.13672">
        <ele>141</ele>
        <time>2024-03-31T11:43:13.536Z</time>
      </trkpt>
      <trkpt lat="43.18489" lon="3.1368">
        <ele>141</ele>
        <time>2024-03-31T11:43:18.536Z</time>
      </trkpt>
      <trkpt lat="43.1849" lon="3.13688">
        <ele>142</ele>
        <time>2024-03-31T11:43:23.536Z</time>
      </trkpt>
      <trkpt lat="43.1849" lon="3.13696">
        <ele>142</ele>
        <time>2024-03-31T11:43:28.536Z</time>
      </trkpt>
      <trkpt lat="43.18489" lon="3.13705">
        <ele>142</ele>
        <time>2024-03-31T11:43:33.536Z</time>
      </trkpt>
      <trkpt lat="43.18488" lon="3.13713">
        <ele>140</ele>
        <time>2024-03-31T11:43:38.536Z</time>
      </trkpt>
      <trkpt lat="43.18488" lon="3.13721">
        <ele>140</ele>
        <time>2024-03-31T11:43:43.536Z</time>
      </trkpt>
      <trkpt lat="43.18488" lon="3.13729">
        <ele>140</ele>
        <time>2024-03-31T11:43:48.536Z</time>
      </trkpt>
      <trkpt lat="43.18488" lon="3.13736">
        <ele>140</ele>
        <time>2024-03-31T11:43:53.536Z</time>
      </trkpt>
      <trkpt lat="43.18488" lon="3.13742">
        <ele>140</ele>
        <time>2024-03-31T11:43:58.536Z</time>
      </trkpt>
      <trkpt lat="43.18489" lon="3.13746">
        <ele>140</ele>
        <time>2024-03-31T11:44:02.536Z</time>
      </trkpt>
      <trkpt lat="43.18489" lon="3.13752">
        <ele>140</ele>
        <time>2024-03-31T11:44:07.536Z</time>
      </trkpt>
      <trkpt lat="43.18489" lon="3.1376">
        <ele>140</ele>
        <time>2024-03-31T11:44:12.536Z</time>
      </trkpt>
      <trkpt lat="43.18489" lon="3.13768">
        <ele>139</ele>
        <time>2024-03-31T11:44:17.536Z</time>
      </trkpt>
      <trkpt lat="43.1849" lon="3.13776">
        <ele>139</ele>
        <time>2024-03-31T11:44:21.536Z</time>
      </trkpt>
      <trkpt lat="43.1849" lon="3.13785">
        <ele>139</ele>
        <time>2024-03-31T11:44:26.536Z</time>
      </trkpt>
      <trkpt lat="43.1849" lon="3.13792">
        <ele>140</ele>
        <time>2024-03-31T11:44:31.536Z</time>
      </trkpt>
      <trkpt lat="43.1849" lon="3.13799">
        <ele>140</ele>
        <time>2024-03-31T11:44:36.536Z</time>
      </trkpt>
      <trkpt lat="43.18491" lon="3.13806">
        <ele>140</ele>
        <time>2024-03-31T11:44:41.536Z</time>
      </trkpt>
      <trkpt lat="43.1849" lon="3.13812">
        <ele>140</ele>
        <time>2024-03-31T11:44:46.536Z</time>
      </trkpt>
      <trkpt lat="43.18491" lon="3.13816">
        <ele>140</ele>
        <time>2024-03-31T11:44:51.536Z</time>
      </trkpt>
      <trkpt lat="43.18491" lon="3.13823">
        <ele>139</ele>
        <time>2024-03-31T11:44:56.536Z</time>
      </trkpt>
      <trkpt lat="43.18491" lon="3.13831">
        <ele>139</ele>
        <time>2024-03-31T11:45:01.536Z</time>
      </trkpt>
      <trkpt lat="43.18491" lon="3.13838">
        <ele>139</ele>
        <time>2024-03-31T11:45:06.536Z</time>
      </trkpt>
      <trkpt lat="43.18491" lon="3.13845">
        <ele>139</ele>
        <time>2024-03-31T11:45:11.536Z</time>
      </trkpt>
      <trkpt lat="43.18491" lon="3.13853">
        <ele>138</ele>
        <time>2024-03-31T11:45:16.536Z</time>
      </trkpt>
      <trkpt lat="43.18491" lon="3.1386">
        <ele>138</ele>
        <time>2024-03-31T11:45:21.536Z</time>
      </trkpt>
      <trkpt lat="43.18491" lon="3.13869">
        <ele>138</ele>
        <time>2024-03-31T11:45:26.536Z</time>
      </trkpt>
      <trkpt lat="43.18491" lon="3.13875">
        <ele>137</ele>
        <time>2024-03-31T11:45:31.536Z</time>
      </trkpt>
      <trkpt lat="43.18492" lon="3.1388">
        <ele>137</ele>
        <time>2024-03-31T11:45:36.536Z</time>
      </trkpt>
      <trkpt lat="43.18492" lon="3.13887">
        <ele>137</ele>
        <time>2024-03-31T11:45:41.536Z</time>
      </trkpt>
      <trkpt lat="43.18493" lon="3.13894">
        <ele>137</ele>
        <time>2024-03-31T11:45:46.536Z</time>
      </trkpt>
      <trkpt lat="43.18496" lon="3.13902">
        <ele>137</ele>
        <time>2024-03-31T11:45:51.536Z</time>
      </trkpt>
      <trkpt lat="43.185" lon="3.13905">
        <ele>137</ele>
        <time>2024-03-31T11:45:56.536Z</time>
      </trkpt>
      <trkpt lat="43.18505" lon="3.13905">
        <ele>137</ele>
        <time>2024-03-31T11:46:01.536Z</time>
      </trkpt>
      <trkpt lat="43.18512" lon="3.13906">
        <ele>137</ele>
        <time>2024-03-31T11:46:06.536Z</time>
      </trkpt>
      <trkpt lat="43.18516" lon="3.13907">
        <ele>136</ele>
        <time>2024-03-31T11:46:10.536Z</time>
      </trkpt>
      <trkpt lat="43.1852" lon="3.13909">
        <ele>136</ele>
        <time>2024-03-31T11:46:14.536Z</time>
      </trkpt>
      <trkpt lat="43.18524" lon="3.13909">
        <ele>136</ele>
        <time>2024-03-31T11:46:19.536Z</time>
      </trkpt>
      <trkpt lat="43.18527" lon="3.13908">
        <ele>136</ele>
        <time>2024-03-31T11:46:24.536Z</time>
      </trkpt>
      <trkpt lat="43.18532" lon="3.1391">
        <ele>136</ele>
        <time>2024-03-31T11:46:29.536Z</time>
      </trkpt>
      <trkpt lat="43.18538" lon="3.13912">
        <ele>136</ele>
        <time>2024-03-31T11:46:34.536Z</time>
      </trkpt>
      <trkpt lat="43.18544" lon="3.13913">
        <ele>133</ele>
        <time>2024-03-31T11:46:39.536Z</time>
      </trkpt>
      <trkpt lat="43.1855" lon="3.13913">
        <ele>133</ele>
        <time>2024-03-31T11:46:44.536Z</time>
      </trkpt>
      <trkpt lat="43.18556" lon="3.13913">
        <ele>133</ele>
        <time>2024-03-31T11:46:49.536Z</time>
      </trkpt>
      <trkpt lat="43.1856" lon="3.13913">
        <ele>133</ele>
        <time>2024-03-31T11:46:54.536Z</time>
      </trkpt>
      <trkpt lat="43.18565" lon="3.13913">
        <ele>133</ele>
        <time>2024-03-31T11:46:59.536Z</time>
      </trkpt>
      <trkpt lat="43.18569" lon="3.13914">
        <ele>133</ele>
        <time>2024-03-31T11:47:03.536Z</time>
      </trkpt>
      <trkpt lat="43.18574" lon="3.13915">
        <ele>129</ele>
        <time>2024-03-31T11:47:08.536Z</time>
      </trkpt>
      <trkpt lat="43.18579" lon="3.13915">
        <ele>129</ele>
        <time>2024-03-31T11:47:12.536Z</time>
      </trkpt>
      <trkpt lat="43.18585" lon="3.13915">
        <ele>129</ele>
        <time>2024-03-31T11:47:17.536Z</time>
      </trkpt>
      <trkpt lat="43.1859" lon="3.13914">
        <ele>129</ele>
        <time>2024-03-31T11:47:22.536Z</time>
      </trkpt>
      <trkpt lat="43.18594" lon="3.13915">
        <ele>129</ele>
        <time>2024-03-31T11:47:27.536Z</time>
      </trkpt>
      <trkpt lat="43.18599" lon="3.13916">
        <ele>127</ele>
        <time>2024-03-31T11:47:32.536Z</time>
      </trkpt>
      <trkpt lat="43.18603" lon="3.13917">
        <ele>127</ele>
        <time>2024-03-31T11:47:37.536Z</time>
      </trkpt>
      <trkpt lat="43.18608" lon="3.13917">
        <ele>127</ele>
        <time>2024-03-31T11:47:42.536Z</time>
      </trkpt>
      <trkpt lat="43.18614" lon="3.13917">
        <ele>127</ele>
        <time>2024-03-31T11:47:47.536Z</time>
      </trkpt>
      <trkpt lat="43.18618" lon="3.13917">
        <ele>127</ele>
        <time>2024-03-31T11:47:52.536Z</time>
      </trkpt>
      <trkpt lat="43.18623" lon="3.13918">
        <ele>127</ele>
        <time>2024-03-31T11:47:57.536Z</time>
      </trkpt>
      <trkpt lat="43.18628" lon="3.13919">
        <ele>126</ele>
        <time>2024-03-31T11:48:02.536Z</time>
      </trkpt>
      <trkpt lat="43.18634" lon="3.1392">
        <ele>126</ele>
        <time>2024-03-31T11:48:07.536Z</time>
      </trkpt>
      <trkpt lat="43.18639" lon="3.1392">
        <ele>126</ele>
        <time>2024-03-31T11:48:12.536Z</time>
      </trkpt>
      <trkpt lat="43.18644" lon="3.13921">
        <ele>126</ele>
        <time>2024-03-31T11:48:17.536Z</time>
      </trkpt>
      <trkpt lat="43.18649" lon="3.1392">
        <ele>126</ele>
        <time>2024-03-31T11:48:22.536Z</time>
      </trkpt>
      <trkpt lat="43.18654" lon="3.1392">
        <ele>124</ele>
        <time>2024-03-31T11:48:27.536Z</time>
      </trkpt>
      <trkpt lat="43.18658" lon="3.13919">
        <ele>124</ele>
        <time>2024-03-31T11:48:31.536Z</time>
      </trkpt>
      <trkpt lat="43.18662" lon="3.13921">
        <ele>124</ele>
        <time>2024-03-31T11:48:36.536Z</time>
      </trkpt>
      <trkpt lat="43.18668" lon="3.13921">
        <ele>124</ele>
        <time>2024-03-31T11:48:41.536Z</time>
      </trkpt>
      <trkpt lat="43.18675" lon="3.13922">
        <ele>124</ele>
        <time>2024-03-31T11:48:46.536Z</time>
      </trkpt>
      <trkpt lat="43.18679" lon="3.13924">
        <ele>124</ele>
        <time>2024-03-31T11:48:50.536Z</time>
      </trkpt>
      <trkpt lat="43.18684" lon="3.13929">
        <ele>122</ele>
        <time>2024-03-31T11:48:55.536Z</time>
      </trkpt>
      <trkpt lat="43.18686" lon="3.13935">
        <ele>122</ele>
        <time>2024-03-31T11:48:59.536Z</time>
      </trkpt>
      <trkpt lat="43.18687" lon="3.13941">
        <ele>122</ele>
        <time>2024-03-31T11:49:04.536Z</time>
      </trkpt>
      <trkpt lat="43.18688" lon="3.13949">
        <ele>122</ele>
        <time>2024-03-31T11:49:09.536Z</time>
      </trkpt>
      <trkpt lat="43.18689" lon="3.13954">
        <ele>122</ele>
        <time>2024-03-31T11:49:14.536Z</time>
      </trkpt>
      <trkpt lat="43.1869" lon="3.13961">
        <ele>121</ele>
        <time>2024-03-31T11:49:19.536Z</time>
      </trkpt>
      <trkpt lat="43.18691" lon="3.13968">
        <ele>121</ele>
        <time>2024-03-31T11:49:24.536Z</time>
      </trkpt>
      <trkpt lat="43.18692" lon="3.13975">
        <ele>121</ele>
        <time>2024-03-31T11:49:29.536Z</time>
      </trkpt>
      <trkpt lat="43.18692" lon="3.13983">
        <ele>121</ele>
        <time>2024-03-31T11:49:34.536Z</time>
      </trkpt>
      <trkpt lat="43.18693" lon="3.1399">
        <ele>119</ele>
        <time>2024-03-31T11:49:38.536Z</time>
      </trkpt>
      <trkpt lat="43.18693" lon="3.13996">
        <ele>119</ele>
        <time>2024-03-31T11:49:43.536Z</time>
      </trkpt>
      <trkpt lat="43.18694" lon="3.14003">
        <ele>119</ele>
        <time>2024-03-31T11:49:48.536Z</time>
      </trkpt>
      <trkpt lat="43.18694" lon="3.14009">
        <ele>119</ele>
        <time>2024-03-31T11:49:52.536Z</time>
      </trkpt>
      <trkpt lat="43.18694" lon="3.14015">
        <ele>119</ele>
        <time>2024-03-31T11:49:56.536Z</time>
      </trkpt>
      <trkpt lat="43.18695" lon="3.14022">
        <ele>119</ele>
        <time>2024-03-31T11:50:01.536Z</time>
      </trkpt>
      <trkpt lat="43.18696" lon="3.14031">
        <ele>119</ele>
        <time>2024-03-31T11:50:06.536Z</time>
      </trkpt>
      <trkpt lat="43.18697" lon="3.14038">
        <ele>119</ele>
        <time>2024-03-31T11:50:11.536Z</time>
      </trkpt>
      <trkpt lat="43.18698" lon="3.14044">
        <ele>118</ele>
        <time>2024-03-31T11:50:15.536Z</time>
      </trkpt>
      <trkpt lat="43.18698" lon="3.14049">
        <ele>118</ele>
        <time>2024-03-31T11:50:20.536Z</time>
      </trkpt>
      <trkpt lat="43.18698" lon="3.14054">
        <ele>118</ele>
        <time>2024-03-31T11:50:24.536Z</time>
      </trkpt>
      <trkpt lat="43.18698" lon="3.14061">
        <ele>118</ele>
        <time>2024-03-31T11:50:29.536Z</time>
      </trkpt>
      <trkpt lat="43.18699" lon="3.14068">
        <ele>118</ele>
        <time>2024-03-31T11:50:34.536Z</time>
      </trkpt>
      <trkpt lat="43.18698" lon="3.14075">
        <ele>118</ele>
        <time>2024-03-31T11:50:38.536Z</time>
      </trkpt>
      <trkpt lat="43.18696" lon="3.14082">
        <ele>118</ele>
        <time>2024-03-31T11:50:42.536Z</time>
      </trkpt>
      <trkpt lat="43.18692" lon="3.14089">
        <ele>118</ele>
        <time>2024-03-31T11:50:47.536Z</time>
      </trkpt>
      <trkpt lat="43.18689" lon="3.14092">
        <ele>118</ele>
        <time>2024-03-31T11:50:52.536Z</time>
      </trkpt>
      <trkpt lat="43.18686" lon="3.14097">
        <ele>118</ele>
        <time>2024-03-31T11:50:57.537Z</time>
      </trkpt>
      <trkpt lat="43.18682" lon="3.14102">
        <ele>117</ele>
        <time>2024-03-31T11:51:02.537Z</time>
      </trkpt>
      <trkpt lat="43.18677" lon="3.14105">
        <ele>121</ele>
        <time>2024-03-31T11:51:07.537Z</time>
      </trkpt>
      <trkpt lat="43.18674" lon="3.14108">
        <ele>121</ele>
        <time>2024-03-31T11:51:12.537Z</time>
      </trkpt>
      <trkpt lat="43.18669" lon="3.14112">
        <ele>121</ele>
        <time>2024-03-31T11:51:17.537Z</time>
      </trkpt>
      <trkpt lat="43.18663" lon="3.14116">
        <ele>121</ele>
        <time>2024-03-31T11:51:22.537Z</time>
      </trkpt>
      <trkpt lat="43.1866" lon="3.1412">
        <ele>121</ele>
        <time>2024-03-31T11:51:26.537Z</time>
      </trkpt>
      <trkpt lat="43.18657" lon="3.14122">
        <ele>121</ele>
        <time>2024-03-31T11:51:31.537Z</time>
      </trkpt>
      <trkpt lat="43.18653" lon="3.14126">
        <ele>122</ele>
        <time>2024-03-31T11:51:36.537Z</time>
      </trkpt>
      <trkpt lat="43.18649" lon="3.14132">
        <ele>122</ele>
        <time>2024-03-31T11:51:41.537Z</time>
      </trkpt>
      <trkpt lat="43.18646" lon="3.14137">
        <ele>122</ele>
        <time>2024-03-31T11:51:46.537Z</time>
      </trkpt>
      <trkpt lat="43.18641" lon="3.14144">
        <ele>122</ele>
        <time>2024-03-31T11:51:51.537Z</time>
      </trkpt>
      <trkpt lat="43.18637" lon="3.14149">
        <ele>122</ele>
        <time>2024-03-31T11:51:56.537Z</time>
      </trkpt>
      <trkpt lat="43.18634" lon="3.14156">
        <ele>119</ele>
        <time>2024-03-31T11:52:01.537Z</time>
      </trkpt>
      <trkpt lat="43.18633" lon="3.14162">
        <ele>119</ele>
        <time>2024-03-31T11:52:06.537Z</time>
      </trkpt>
      <trkpt lat="43.1863" lon="3.14169">
        <ele>119</ele>
        <time>2024-03-31T11:52:11.537Z</time>
      </trkpt>
      <trkpt lat="43.18628" lon="3.14177">
        <ele>119</ele>
        <time>2024-03-31T11:52:16.537Z</time>
      </trkpt>
      <trkpt lat="43.18626" lon="3.14183">
        <ele>119</ele>
        <time>2024-03-31T11:52:21.537Z</time>
      </trkpt>
      <trkpt lat="43.18623" lon="3.14191">
        <ele>120</ele>
        <time>2024-03-31T11:52:26.537Z</time>
      </trkpt>
      <trkpt lat="43.18622" lon="3.14198">
        <ele>120</ele>
        <time>2024-03-31T11:52:30.537Z</time>
      </trkpt>
      <trkpt lat="43.18619" lon="3.14204">
        <ele>120</ele>
        <time>2024-03-31T11:52:35.537Z</time>
      </trkpt>
      <trkpt lat="43.18617" lon="3.14211">
        <ele>120</ele>
        <time>2024-03-31T11:52:40.537Z</time>
      </trkpt>
      <trkpt lat="43.18615" lon="3.14215">
        <ele>120</ele>
        <time>2024-03-31T11:52:44.537Z</time>
      </trkpt>
      <trkpt lat="43.18612" lon="3.14221">
        <ele>120</ele>
        <time>2024-03-31T11:52:49.537Z</time>
      </trkpt>
      <trkpt lat="43.18609" lon="3.14225">
        <ele>120</ele>
        <time>2024-03-31T11:52:54.537Z</time>
      </trkpt>
      <trkpt lat="43.18605" lon="3.14231">
        <ele>120</ele>
        <time>2024-03-31T11:52:59.537Z</time>
      </trkpt>
      <trkpt lat="43.18601" lon="3.14236">
        <ele>120</ele>
        <time>2024-03-31T11:53:04.537Z</time>
      </trkpt>
      <trkpt lat="43.18596" lon="3.14239">
        <ele>123</ele>
        <time>2024-03-31T11:53:09.537Z</time>
      </trkpt>
      <trkpt lat="43.18594" lon="3.14243">
        <ele>123</ele>
        <time>2024-03-31T11:53:13.537Z</time>
      </trkpt>
      <trkpt lat="43.1859" lon="3.14248">
        <ele>123</ele>
        <time>2024-03-31T11:53:18.537Z</time>
      </trkpt>
      <trkpt lat="43.18586" lon="3.14253">
        <ele>123</ele>
        <time>2024-03-31T11:53:22.537Z</time>
      </trkpt>
      <trkpt lat="43.18584" lon="3.14256">
        <ele>123</ele>
        <time>2024-03-31T11:53:26.537Z</time>
      </trkpt>
      <trkpt lat="43.1858" lon="3.14259">
        <ele>123</ele>
        <time>2024-03-31T11:53:31.537Z</time>
      </trkpt>
      <trkpt lat="43.18576" lon="3.14263">
        <ele>123</ele>
        <time>2024-03-31T11:53:36.537Z</time>
      </trkpt>
      <trkpt lat="43.18573" lon="3.14265">
        <ele>122</ele>
        <time>2024-03-31T11:53:40.537Z</time>
      </trkpt>
      <trkpt lat="43.18568" lon="3.14268">
        <ele>125</ele>
        <time>2024-03-31T11:53:45.537Z</time>
      </trkpt>
      <trkpt lat="43.18563" lon="3.14271">
        <ele>125</ele>
        <time>2024-03-31T11:53:50.537Z</time>
      </trkpt>
      <trkpt lat="43.18558" lon="3.14274">
        <ele>125</ele>
        <time>2024-03-31T11:53:55.537Z</time>
      </trkpt>
      <trkpt lat="43.18554" lon="3.14276">
        <ele>125</ele>
        <time>2024-03-31T11:53:59.537Z</time>
      </trkpt>
      <trkpt lat="43.18549" lon="3.14277">
        <ele>125</ele>
        <time>2024-03-31T11:54:04.537Z</time>
      </trkpt>
      <trkpt lat="43.18544" lon="3.14279">
        <ele>125</ele>
        <time>2024-03-31T11:54:09.537Z</time>
      </trkpt>
      <trkpt lat="43.18541" lon="3.1428">
        <ele>127</ele>
        <time>2024-03-31T11:54:13.537Z</time>
      </trkpt>
      <trkpt lat="43.18537" lon="3.14281">
        <ele>127</ele>
        <time>2024-03-31T11:54:18.537Z</time>
      </trkpt>
      <trkpt lat="43.18532" lon="3.14281">
        <ele>127</ele>
        <time>2024-03-31T11:54:23.537Z</time>
      </trkpt>
      <trkpt lat="43.18528" lon="3.14283">
        <ele>127</ele>
        <time>2024-03-31T11:54:28.537Z</time>
      </trkpt>
      <trkpt lat="43.18523" lon="3.14284">
        <ele>127</ele>
        <time>2024-03-31T11:54:33.537Z</time>
      </trkpt>
      <trkpt lat="43.1852" lon="3.14284">
        <ele>127</ele>
        <time>2024-03-31T11:54:37.537Z</time>
      </trkpt>
      <trkpt lat="43.18517" lon="3.14287">
        <ele>127</ele>
        <time>2024-03-31T11:54:41.537Z</time>
      </trkpt>
      <trkpt lat="43.18513" lon="3.14287">
        <ele>132</ele>
        <time>2024-03-31T11:54:46.537Z</time>
      </trkpt>
      <trkpt lat="43.18509" lon="3.14288">
        <ele>132</ele>
        <time>2024-03-31T11:54:51.537Z</time>
      </trkpt>
      <trkpt lat="43.18505" lon="3.14288">
        <ele>132</ele>
        <time>2024-03-31T11:54:56.537Z</time>
      </trkpt>
      <trkpt lat="43.185" lon="3.14288">
        <ele>132</ele>
        <time>2024-03-31T11:55:01.537Z</time>
      </trkpt>
      <trkpt lat="43.18495" lon="3.14288">
        <ele>132</ele>
        <time>2024-03-31T11:55:06.537Z</time>
      </trkpt>
      <trkpt lat="43.1849" lon="3.14288">
        <ele>132</ele>
        <time>2024-03-31T11:55:11.537Z</time>
      </trkpt>
      <trkpt lat="43.18485" lon="3.14289">
        <ele>135</ele>
        <time>2024-03-31T11:55:15.537Z</time>
      </trkpt>
      <trkpt lat="43.1848" lon="3.1429">
        <ele>135</ele>
        <time>2024-03-31T11:55:20.537Z</time>
      </trkpt>
      <trkpt lat="43.18474" lon="3.14292">
        <ele>131</ele>
        <time>2024-03-31T11:55:25.537Z</time>
      </trkpt>
      <trkpt lat="43.18469" lon="3.14294">
        <ele>131</ele>
        <time>2024-03-31T11:55:30.537Z</time>
      </trkpt>
      <trkpt lat="43.18465" lon="3.14296">
        <ele>131</ele>
        <time>2024-03-31T11:55:35.537Z</time>
      </trkpt>
      <trkpt lat="43.18461" lon="3.14298">
        <ele>131</ele>
        <time>2024-03-31T11:55:40.537Z</time>
      </trkpt>
      <trkpt lat="43.18456" lon="3.14299">
        <ele>132</ele>
        <time>2024-03-31T11:55:45.537Z</time>
      </trkpt>
      <trkpt lat="43.18452" lon="3.14302">
        <ele>132</ele>
        <time>2024-03-31T11:55:49.537Z</time>
      </trkpt>
      <trkpt lat="43.18448" lon="3.14304">
        <ele>132</ele>
        <time>2024-03-31T11:55:54.537Z</time>
      </trkpt>
      <trkpt lat="43.18443" lon="3.14305">
        <ele>132</ele>
        <time>2024-03-31T11:55:59.537Z</time>
      </trkpt>
      <trkpt lat="43.18438" lon="3.14305">
        <ele>132</ele>
        <time>2024-03-31T11:56:03.537Z</time>
      </trkpt>
      <trkpt lat="43.18434" lon="3.14306">
        <ele>132</ele>
        <time>2024-03-31T11:56:08.537Z</time>
      </trkpt>
      <trkpt lat="43.18429" lon="3.14308">
        <ele>134</ele>
        <time>2024-03-31T11:56:12.537Z</time>
      </trkpt>
      <trkpt lat="43.18423" lon="3.1431">
        <ele>134</ele>
        <time>2024-03-31T11:56:17.537Z</time>
      </trkpt>
      <trkpt lat="43.18419" lon="3.14314">
        <ele>134</ele>
        <time>2024-03-31T11:56:22.537Z</time>
      </trkpt>
      <trkpt lat="43.18415" lon="3.1432">
        <ele>133</ele>
        <time>2024-03-31T11:56:27.537Z</time>
      </trkpt>
      <trkpt lat="43.18411" lon="3.14323">
        <ele>133</ele>
        <time>2024-03-31T11:56:32.537Z</time>
      </trkpt>
      <trkpt lat="43.18405" lon="3.14326">
        <ele>133</ele>
        <time>2024-03-31T11:56:37.537Z</time>
      </trkpt>
      <trkpt lat="43.184" lon="3.14328">
        <ele>136</ele>
        <time>2024-03-31T11:56:42.537Z</time>
      </trkpt>
      <trkpt lat="43.18396" lon="3.14328">
        <ele>136</ele>
        <time>2024-03-31T11:56:47.537Z</time>
      </trkpt>
      <trkpt lat="43.18393" lon="3.14331">
        <ele>136</ele>
        <time>2024-03-31T11:56:52.537Z</time>
      </trkpt>
      <trkpt lat="43.18391" lon="3.14333">
        <ele>136</ele>
        <time>2024-03-31T11:56:56.537Z</time>
      </trkpt>
      <trkpt lat="43.18386" lon="3.14337">
        <ele>136</ele>
        <time>2024-03-31T11:57:01.537Z</time>
      </trkpt>
      <trkpt lat="43.18382" lon="3.1434">
        <ele>136</ele>
        <time>2024-03-31T11:57:06.537Z</time>
      </trkpt>
      <trkpt lat="43.18376" lon="3.14342">
        <ele>136</ele>
        <time>2024-03-31T11:57:11.537Z</time>
      </trkpt>
      <trkpt lat="43.18371" lon="3.14345">
        <ele>138</ele>
        <time>2024-03-31T11:57:15.537Z</time>
      </trkpt>
      <trkpt lat="43.18366" lon="3.1435">
        <ele>135</ele>
        <time>2024-03-31T11:57:20.537Z</time>
      </trkpt>
      <trkpt lat="43.18362" lon="3.14353">
        <ele>135</ele>
        <time>2024-03-31T11:57:24.537Z</time>
      </trkpt>
      <trkpt lat="43.18356" lon="3.14356">
        <ele>135</ele>
        <time>2024-03-31T11:57:29.537Z</time>
      </trkpt>
      <trkpt lat="43.18352" lon="3.14358">
        <ele>135</ele>
        <time>2024-03-31T11:57:34.537Z</time>
      </trkpt>
      <trkpt lat="43.18347" lon="3.14361">
        <ele>138</ele>
        <time>2024-03-31T11:57:39.537Z</time>
      </trkpt>
      <trkpt lat="43.18342" lon="3.14364">
        <ele>138</ele>
        <time>2024-03-31T11:57:44.537Z</time>
      </trkpt>
      <trkpt lat="43.18336" lon="3.14367">
        <ele>138</ele>
        <time>2024-03-31T11:57:49.537Z</time>
      </trkpt>
      <trkpt lat="43.18332" lon="3.14369">
        <ele>138</ele>
        <time>2024-03-31T11:57:53.537Z</time>
      </trkpt>
      <trkpt lat="43.18327" lon="3.14371">
        <ele>138</ele>
        <time>2024-03-31T11:57:58.537Z</time>
      </trkpt>
      <trkpt lat="43.18322" lon="3.14372">
        <ele>138</ele>
        <time>2024-03-31T11:58:03.537Z</time>
      </trkpt>
      <trkpt lat="43.18318" lon="3.14375">
        <ele>139</ele>
        <time>2024-03-31T11:58:08.537Z</time>
      </trkpt>
      <trkpt lat="43.18313" lon="3.14379">
        <ele>139</ele>
        <time>2024-03-31T11:58:13.537Z</time>
      </trkpt>
      <trkpt lat="43.1831" lon="3.14381">
        <ele>139</ele>
        <time>2024-03-31T11:58:17.537Z</time>
      </trkpt>
      <trkpt lat="43.18305" lon="3.14382">
        <ele>139</ele>
        <time>2024-03-31T11:58:22.537Z</time>
      </trkpt>
      <trkpt lat="43.183" lon="3.14385">
        <ele>139</ele>
        <time>2024-03-31T11:58:26.537Z</time>
      </trkpt>
      <trkpt lat="43.18294" lon="3.14388">
        <ele>139</ele>
        <time>2024-03-31T11:58:31.537Z</time>
      </trkpt>
      <trkpt lat="43.18289" lon="3.14391">
        <ele>142</ele>
        <time>2024-03-31T11:58:35.537Z</time>
      </trkpt>
      <trkpt lat="43.18284" lon="3.14396">
        <ele>142</ele>
        <time>2024-03-31T11:58:40.537Z</time>
      </trkpt>
      <trkpt lat="43.18278" lon="3.14403">
        <ele>142</ele>
        <time>2024-03-31T11:58:45.537Z</time>
      </trkpt>
      <trkpt lat="43.18273" lon="3.14409">
        <ele>140</ele>
        <time>2024-03-31T11:58:49.537Z</time>
      </trkpt>
      <trkpt lat="43.1827" lon="3.14413">
        <ele>140</ele>
        <time>2024-03-31T11:58:54.537Z</time>
      </trkpt>
      <trkpt lat="43.18267" lon="3.14417">
        <ele>140</ele>
        <time>2024-03-31T11:58:59.537Z</time>
      </trkpt>
      <trkpt lat="43.18265" lon="3.14421">
        <ele>140</ele>
        <time>2024-03-31T11:59:04.537Z</time>
      </trkpt>
      <trkpt lat="43.18262" lon="3.14423">
        <ele>144</ele>
        <time>2024-03-31T11:59:08.537Z</time>
      </trkpt>
      <trkpt lat="43.18258" lon="3.14428">
        <ele>144</ele>
        <time>2024-03-31T11:59:13.537Z</time>
      </trkpt>
      <trkpt lat="43.18255" lon="3.14435">
        <ele>143</ele>
        <time>2024-03-31T11:59:18.537Z</time>
      </trkpt>
      <trkpt lat="43.18252" lon="3.14439">
        <ele>143</ele>
        <time>2024-03-31T11:59:22.537Z</time>
      </trkpt>
      <trkpt lat="43.18247" lon="3.14444">
        <ele>143</ele>
        <time>2024-03-31T11:59:27.537Z</time>
      </trkpt>
      <trkpt lat="43.18243" lon="3.1445">
        <ele>143</ele>
        <time>2024-03-31T11:59:32.537Z</time>
      </trkpt>
      <trkpt lat="43.18239" lon="3.14455">
        <ele>143</ele>
        <time>2024-03-31T11:59:37.537Z</time>
      </trkpt>
      <trkpt lat="43.18237" lon="3.14458">
        <ele>143</ele>
        <time>2024-03-31T11:59:41.537Z</time>
      </trkpt>
      <trkpt lat="43.18234" lon="3.14463">
        <ele>147</ele>
        <time>2024-03-31T11:59:46.537Z</time>
      </trkpt>
      <trkpt lat="43.18231" lon="3.1447">
        <ele>147</ele>
        <time>2024-03-31T11:59:51.537Z</time>
      </trkpt>
      <trkpt lat="43.18228" lon="3.14473">
        <ele>147</ele>
        <time>2024-03-31T11:59:56.538Z</time>
      </trkpt>
      <trkpt lat="43.18225" lon="3.14476">
        <ele>147</ele>
        <time>2024-03-31T12:00:01.538Z</time>
      </trkpt>
      <trkpt lat="43.18223" lon="3.1448">
        <ele>147</ele>
        <time>2024-03-31T12:00:06.538Z</time>
      </trkpt>
      <trkpt lat="43.1822" lon="3.14486">
        <ele>147</ele>
        <time>2024-03-31T12:00:11.538Z</time>
      </trkpt>
      <trkpt lat="43.18217" lon="3.14492">
        <ele>145</ele>
        <time>2024-03-31T12:00:16.538Z</time>
      </trkpt>
      <trkpt lat="43.18214" lon="3.14496">
        <ele>145</ele>
        <time>2024-03-31T12:00:20.538Z</time>
      </trkpt>
      <trkpt lat="43.18212" lon="3.14503">
        <ele>145</ele>
        <time>2024-03-31T12:00:25.538Z</time>
      </trkpt>
      <trkpt lat="43.18209" lon="3.14509">
        <ele>145</ele>
        <time>2024-03-31T12:00:30.538Z</time>
      </trkpt>
      <trkpt lat="43.18205" lon="3.14515">
        <ele>147</ele>
        <time>2024-03-31T12:00:35.538Z</time>
      </trkpt>
      <trkpt lat="43.18202" lon="3.1452">
        <ele>147</ele>
        <time>2024-03-31T12:00:40.538Z</time>
      </trkpt>
      <trkpt lat="43.18198" lon="3.14525">
        <ele>147</ele>
        <time>2024-03-31T12:00:45.538Z</time>
      </trkpt>
      <trkpt lat="43.18194" lon="3.14531">
        <ele>147</ele>
        <time>2024-03-31T12:00:50.538Z</time>
      </trkpt>
      <trkpt lat="43.1819" lon="3.14536">
        <ele>147</ele>
        <time>2024-03-31T12:00:55.538Z</time>
      </trkpt>
      <trkpt lat="43.18187" lon="3.14542">
        <ele>146</ele>
        <time>2024-03-31T12:01:00.538Z</time>
      </trkpt>
      <trkpt lat="43.18183" lon="3.14546">
        <ele>146</ele>
        <time>2024-03-31T12:01:04.538Z</time>
      </trkpt>
      <trkpt lat="43.18179" lon="3.14551">
        <ele>150</ele>
        <time>2024-03-31T12:01:09.538Z</time>
      </trkpt>
      <trkpt lat="43.18176" lon="3.14554">
        <ele>150</ele>
        <time>2024-03-31T12:01:13.538Z</time>
      </trkpt>
      <trkpt lat="43.18172" lon="3.14558">
        <ele>150</ele>
        <time>2024-03-31T12:01:18.538Z</time>
      </trkpt>
      <trkpt lat="43.18168" lon="3.14559">
        <ele>150</ele>
        <time>2024-03-31T12:01:22.538Z</time>
      </trkpt>
      <trkpt lat="43.18164" lon="3.14561">
        <ele>150</ele>
        <time>2024-03-31T12:01:27.538Z</time>
      </trkpt>
      <trkpt lat="43.1816" lon="3.14558">
        <ele>150</ele>
        <time>2024-03-31T12:01:32.538Z</time>
      </trkpt>
      <trkpt lat="43.18159" lon="3.14553">
        <ele>150</ele>
        <time>2024-03-31T12:01:37.538Z</time>
      </trkpt>
      <trkpt lat="43.18159" lon="3.14547">
        <ele>150</ele>
        <time>2024-03-31T12:01:42.538Z</time>
      </trkpt>
      <trkpt lat="43.18161" lon="3.14539">
        <ele>150</ele>
        <time>2024-03-31T12:01:47.538Z</time>
      </trkpt>
      <trkpt lat="43.18162" lon="3.14533">
        <ele>150</ele>
        <time>2024-03-31T12:01:52.538Z</time>
      </trkpt>
      <trkpt lat="43.18163" lon="3.14527">
        <ele>150</ele>
        <time>2024-03-31T12:01:57.538Z</time>
      </trkpt>
      <trkpt lat="43.18165" lon="3.14521">
        <ele>150</ele>
        <time>2024-03-31T12:02:02.538Z</time>
      </trkpt>
      <trkpt lat="43.18168" lon="3.14515">
        <ele>150</ele>
        <time>2024-03-31T12:02:07.538Z</time>
      </trkpt>
      <trkpt lat="43.1817" lon="3.14508">
        <ele>152</ele>
        <time>2024-03-31T12:02:12.538Z</time>
      </trkpt>
      <trkpt lat="43.18172" lon="3.14502">
        <ele>152</ele>
        <time>2024-03-31T12:02:16.538Z</time>
      </trkpt>
      <trkpt lat="43.18173" lon="3.14496">
        <ele>152</ele>
        <time>2024-03-31T12:02:20.538Z</time>
      </trkpt>
      <trkpt lat="43.18175" lon="3.14489">
        <ele>152</ele>
        <time>2024-03-31T12:02:25.538Z</time>
      </trkpt>
      <trkpt lat="43.18178" lon="3.14483">
        <ele>156</ele>
        <time>2024-03-31T12:02:29.538Z</time>
      </trkpt>
      <trkpt lat="43.18182" lon="3.14471">
        <ele>152</ele>
        <time>2024-03-31T12:02:39.538Z</time>
      </trkpt>
      <trkpt lat="43.18179" lon="3.14468">
        <ele>156</ele>
        <time>2024-03-31T12:02:44.538Z</time>
      </trkpt>
      <trkpt lat="43.18177" lon="3.14466">
        <ele>156</ele>
        <time>2024-03-31T12:02:49.538Z</time>
      </trkpt>
      <trkpt lat="43.18175" lon="3.14467">
        <ele>156</ele>
        <time>2024-03-31T12:02:54.538Z</time>
      </trkpt>
      <trkpt lat="43.18173" lon="3.14471">
        <ele>156</ele>
        <time>2024-03-31T12:02:59.538Z</time>
      </trkpt>
      <trkpt lat="43.18169" lon="3.14475">
        <ele>156</ele>
        <time>2024-03-31T12:03:04.538Z</time>
      </trkpt>
      <trkpt lat="43.18166" lon="3.14478">
        <ele>156</ele>
        <time>2024-03-31T12:03:08.538Z</time>
      </trkpt>
      <trkpt lat="43.18164" lon="3.14482">
        <ele>156</ele>
        <time>2024-03-31T12:03:13.538Z</time>
      </trkpt>
      <trkpt lat="43.1816" lon="3.14487">
        <ele>152</ele>
        <time>2024-03-31T12:03:17.538Z</time>
      </trkpt>
      <trkpt lat="43.18158" lon="3.1449">
        <ele>152</ele>
        <time>2024-03-31T12:03:21.538Z</time>
      </trkpt>
      <trkpt lat="43.18155" lon="3.14497">
        <ele>152</ele>
        <time>2024-03-31T12:03:26.538Z</time>
      </trkpt>
      <trkpt lat="43.18152" lon="3.14501">
        <ele>156</ele>
        <time>2024-03-31T12:03:30.538Z</time>
      </trkpt>
      <trkpt lat="43.18148" lon="3.14506">
        <ele>156</ele>
        <time>2024-03-31T12:03:35.538Z</time>
      </trkpt>
      <trkpt lat="43.18144" lon="3.1451">
        <ele>156</ele>
        <time>2024-03-31T12:03:40.538Z</time>
      </trkpt>
      <trkpt lat="43.18141" lon="3.14513">
        <ele>156</ele>
        <time>2024-03-31T12:03:44.538Z</time>
      </trkpt>
      <trkpt lat="43.18139" lon="3.14517">
        <ele>155</ele>
        <time>2024-03-31T12:03:48.538Z</time>
      </trkpt>
      <trkpt lat="43.18135" lon="3.14523">
        <ele>155</ele>
        <time>2024-03-31T12:03:53.538Z</time>
      </trkpt>
      <trkpt lat="43.18132" lon="3.14528">
        <ele>155</ele>
        <time>2024-03-31T12:03:57.538Z</time>
      </trkpt>
      <trkpt lat="43.18129" lon="3.14533">
        <ele>155</ele>
        <time>2024-03-31T12:04:02.538Z</time>
      </trkpt>
      <trkpt lat="43.18125" lon="3.14539">
        <ele>155</ele>
        <time>2024-03-31T12:04:07.538Z</time>
      </trkpt>
      <trkpt lat="43.18121" lon="3.14544">
        <ele>160</ele>
        <time>2024-03-31T12:04:12.538Z</time>
      </trkpt>
      <trkpt lat="43.18118" lon="3.14548">
        <ele>160</ele>
        <time>2024-03-31T12:04:16.538Z</time>
      </trkpt>
      <trkpt lat="43.18114" lon="3.14554">
        <ele>160</ele>
        <time>2024-03-31T12:04:21.538Z</time>
      </trkpt>
      <trkpt lat="43.1811" lon="3.14558">
        <ele>160</ele>
        <time>2024-03-31T12:04:25.538Z</time>
      </trkpt>
      <trkpt lat="43.18107" lon="3.14562">
        <ele>160</ele>
        <time>2024-03-31T12:04:30.538Z</time>
      </trkpt>
      <trkpt lat="43.18105" lon="3.14567">
        <ele>160</ele>
        <time>2024-03-31T12:04:34.538Z</time>
      </trkpt>
      <trkpt lat="43.18102" lon="3.14571">
        <ele>160</ele>
        <time>2024-03-31T12:04:38.538Z</time>
      </trkpt>
      <trkpt lat="43.18099" lon="3.14576">
        <ele>160</ele>
        <time>2024-03-31T12:04:43.538Z</time>
      </trkpt>
      <trkpt lat="43.18097" lon="3.14582">
        <ele>163</ele>
        <time>2024-03-31T12:04:48.538Z</time>
      </trkpt>
      <trkpt lat="43.18093" lon="3.14588">
        <ele>163</ele>
        <time>2024-03-31T12:04:53.538Z</time>
      </trkpt>
      <trkpt lat="43.18091" lon="3.14592">
        <ele>163</ele>
        <time>2024-03-31T12:04:57.538Z</time>
      </trkpt>
      <trkpt lat="43.18089" lon="3.14598">
        <ele>163</ele>
        <time>2024-03-31T12:05:02.538Z</time>
      </trkpt>
      <trkpt lat="43.18086" lon="3.14603">
        <ele>163</ele>
        <time>2024-03-31T12:05:07.538Z</time>
      </trkpt>
      <trkpt lat="43.18084" lon="3.14609">
        <ele>163</ele>
        <time>2024-03-31T12:05:12.538Z</time>
      </trkpt>
      <trkpt lat="43.18082" lon="3.14614">
        <ele>163</ele>
        <time>2024-03-31T12:05:16.538Z</time>
      </trkpt>
      <trkpt lat="43.18079" lon="3.1462">
        <ele>163</ele>
        <time>2024-03-31T12:05:21.538Z</time>
      </trkpt>
      <trkpt lat="43.18075" lon="3.14626">
        <ele>162</ele>
        <time>2024-03-31T12:05:26.538Z</time>
      </trkpt>
      <trkpt lat="43.18073" lon="3.1463">
        <ele>162</ele>
        <time>2024-03-31T12:05:30.538Z</time>
      </trkpt>
      <trkpt lat="43.18071" lon="3.14633">
        <ele>162</ele>
        <time>2024-03-31T12:05:35.538Z</time>
      </trkpt>
      <trkpt lat="43.18069" lon="3.14637">
        <ele>167</ele>
        <time>2024-03-31T12:05:39.538Z</time>
      </trkpt>
      <trkpt lat="43.18068" lon="3.1464">
        <ele>167</ele>
        <time>2024-03-31T12:05:44.538Z</time>
      </trkpt>
      <trkpt lat="43.18067" lon="3.14645">
        <ele>167</ele>
        <time>2024-03-31T12:05:49.538Z</time>
      </trkpt>
      <trkpt lat="43.18065" lon="3.1465">
        <ele>167</ele>
        <time>2024-03-31T12:05:53.538Z</time>
      </trkpt>
      <trkpt lat="43.18063" lon="3.14656">
        <ele>167</ele>
        <time>2024-03-31T12:05:58.538Z</time>
      </trkpt>
      <trkpt lat="43.18061" lon="3.14662">
        <ele>167</ele>
        <time>2024-03-31T12:06:02.538Z</time>
      </trkpt>
      <trkpt lat="43.18059" lon="3.14669">
        <ele>167</ele>
        <time>2024-03-31T12:06:07.538Z</time>
      </trkpt>
      <trkpt lat="43.18057" lon="3.14676">
        <ele>167</ele>
        <time>2024-03-31T12:06:12.538Z</time>
      </trkpt>
      <trkpt lat="43.18055" lon="3.14683">
        <ele>167</ele>
        <time>2024-03-31T12:06:16.538Z</time>
      </trkpt>
      <trkpt lat="43.18053" lon="3.14692">
        <ele>167</ele>
        <time>2024-03-31T12:06:21.538Z</time>
      </trkpt>
      <trkpt lat="43.18052" lon="3.147">
        <ele>167</ele>
        <time>2024-03-31T12:06:26.538Z</time>
      </trkpt>
      <trkpt lat="43.18051" lon="3.14708">
        <ele>167</ele>
        <time>2024-03-31T12:06:31.538Z</time>
      </trkpt>
      <trkpt lat="43.18052" lon="3.14713">
        <ele>167</ele>
        <time>2024-03-31T12:06:35.538Z</time>
      </trkpt>
      <trkpt lat="43.18052" lon="3.14721">
        <ele>167</ele>
        <time>2024-03-31T12:06:40.538Z</time>
      </trkpt>
      <trkpt lat="43.18051" lon="3.14727">
        <ele>167</ele>
        <time>2024-03-31T12:06:45.538Z</time>
      </trkpt>
      <trkpt lat="43.18051" lon="3.14733">
        <ele>167</ele>
        <time>2024-03-31T12:06:50.538Z</time>
      </trkpt>
      <trkpt lat="43.1805" lon="3.1474">
        <ele>167</ele>
        <time>2024-03-31T12:06:55.538Z</time>
      </trkpt>
      <trkpt lat="43.18051" lon="3.14746">
        <ele>167</ele>
        <time>2024-03-31T12:07:00.538Z</time>
      </trkpt>
      <trkpt lat="43.18051" lon="3.14752">
        <ele>167</ele>
        <time>2024-03-31T12:07:05.538Z</time>
      </trkpt>
      <trkpt lat="43.1805" lon="3.14758">
        <ele>167</ele>
        <time>2024-03-31T12:07:10.538Z</time>
      </trkpt>
      <trkpt lat="43.18051" lon="3.14765">
        <ele>168</ele>
        <time>2024-03-31T12:07:14.538Z</time>
      </trkpt>
      <trkpt lat="43.18051" lon="3.14773">
        <ele>168</ele>
        <time>2024-03-31T12:07:19.538Z</time>
      </trkpt>
      <trkpt lat="43.18049" lon="3.1478">
        <ele>168</ele>
        <time>2024-03-31T12:07:24.538Z</time>
      </trkpt>
      <trkpt lat="43.18049" lon="3.14787">
        <ele>168</ele>
        <time>2024-03-31T12:07:29.538Z</time>
      </trkpt>
      <trkpt lat="43.1805" lon="3.14795">
        <ele>169</ele>
        <time>2024-03-31T12:07:34.538Z</time>
      </trkpt>
      <trkpt lat="43.1805" lon="3.14802">
        <ele>169</ele>
        <time>2024-03-31T12:07:38.538Z</time>
      </trkpt>
      <trkpt lat="43.1805" lon="3.14808">
        <ele>169</ele>
        <time>2024-03-31T12:07:43.538Z</time>
      </trkpt>
      <trkpt lat="43.18051" lon="3.14813">
        <ele>169</ele>
        <time>2024-03-31T12:07:47.538Z</time>
      </trkpt>
      <trkpt lat="43.1805" lon="3.1482">
        <ele>170</ele>
        <time>2024-03-31T12:07:52.538Z</time>
      </trkpt>
      <trkpt lat="43.1805" lon="3.14826">
        <ele>170</ele>
        <time>2024-03-31T12:07:57.539Z</time>
      </trkpt>
      <trkpt lat="43.1805" lon="3.14833">
        <ele>170</ele>
        <time>2024-03-31T12:08:02.539Z</time>
      </trkpt>
      <trkpt lat="43.18047" lon="3.1485">
        <ele>170</ele>
        <time>2024-03-31T12:08:20.539Z</time>
      </trkpt>
      <trkpt lat="43.18047" lon="3.14853">
        <ele>170</ele>
        <time>2024-03-31T12:09:24.539Z</time>
      </trkpt>
      <trkpt lat="43.18044" lon="3.14856">
        <ele>170</ele>
        <time>2024-03-31T12:09:29.539Z</time>
      </trkpt>
      <trkpt lat="43.18041" lon="3.1486">
        <ele>171</ele>
        <time>2024-03-31T12:09:34.539Z</time>
      </trkpt>
      <trkpt lat="43.18038" lon="3.14864">
        <ele>171</ele>
        <time>2024-03-31T12:09:39.539Z</time>
      </trkpt>
      <trkpt lat="43.18037" lon="3.14864">
        <ele>171</ele>
        <time>2024-03-31T12:09:44.539Z</time>
      </trkpt>
      <trkpt lat="43.18037" lon="3.14865">
        <ele>171</ele>
        <time>2024-03-31T12:09:48.539Z</time>
      </trkpt>
      <trkpt lat="43.18035" lon="3.14867">
        <ele>171</ele>
        <time>2024-03-31T12:09:52.539Z</time>
      </trkpt>
      <trkpt lat="43.18032" lon="3.1487">
        <ele>171</ele>
        <time>2024-03-31T12:09:57.539Z</time>
      </trkpt>
      <trkpt lat="43.1803" lon="3.14873">
        <ele>171</ele>
        <time>2024-03-31T12:10:02.539Z</time>
      </trkpt>
      <trkpt lat="43.18029" lon="3.14876">
        <ele>170</ele>
        <time>2024-03-31T12:10:06.539Z</time>
      </trkpt>
      <trkpt lat="43.18026" lon="3.14879">
        <ele>170</ele>
        <time>2024-03-31T12:10:10.539Z</time>
      </trkpt>
      <trkpt lat="43.18022" lon="3.14883">
        <ele>170</ele>
        <time>2024-03-31T12:10:15.539Z</time>
      </trkpt>
      <trkpt lat="43.18019" lon="3.14885">
        <ele>170</ele>
        <time>2024-03-31T12:10:19.539Z</time>
      </trkpt>
      <trkpt lat="43.18018" lon="3.14886">
        <ele>170</ele>
        <time>2024-03-31T12:10:23.539Z</time>
      </trkpt>
      <trkpt lat="43.18017" lon="3.14887">
        <ele>170</ele>
        <time>2024-03-31T12:10:28.539Z</time>
      </trkpt>
      <trkpt lat="43.18014" lon="3.1489">
        <ele>170</ele>
        <time>2024-03-31T12:10:32.539Z</time>
      </trkpt>
      <trkpt lat="43.1801" lon="3.14895">
        <ele>170</ele>
        <time>2024-03-31T12:10:37.539Z</time>
      </trkpt>
      <trkpt lat="43.18007" lon="3.149">
        <ele>170</ele>
        <time>2024-03-31T12:10:42.539Z</time>
      </trkpt>
      <trkpt lat="43.18007" lon="3.14901">
        <ele>170</ele>
        <time>2024-03-31T12:10:47.539Z</time>
      </trkpt>
      <trkpt lat="43.18006" lon="3.14901">
        <ele>170</ele>
        <time>2024-03-31T12:10:52.539Z</time>
      </trkpt>
      <trkpt lat="43.18001" lon="3.14906">
        <ele>169</ele>
        <time>2024-03-31T12:10:57.539Z</time>
      </trkpt>
      <trkpt lat="43.17997" lon="3.14909">
        <ele>169</ele>
        <time>2024-03-31T12:11:01.539Z</time>
      </trkpt>
      <trkpt lat="43.17994" lon="3.14913">
        <ele>169</ele>
        <time>2024-03-31T12:11:05.539Z</time>
      </trkpt>
      <trkpt lat="43.17991" lon="3.14916">
        <ele>169</ele>
        <time>2024-03-31T12:11:10.539Z</time>
      </trkpt>
      <trkpt lat="43.17988" lon="3.14919">
        <ele>169</ele>
        <time>2024-03-31T12:11:15.539Z</time>
      </trkpt>
      <trkpt lat="43.17983" lon="3.14924">
        <ele>170</ele>
        <time>2024-03-31T12:11:20.539Z</time>
      </trkpt>
      <trkpt lat="43.17979" lon="3.14928">
        <ele>170</ele>
        <time>2024-03-31T12:11:25.539Z</time>
      </trkpt>
      <trkpt lat="43.17975" lon="3.1493">
        <ele>170</ele>
        <time>2024-03-31T12:11:29.539Z</time>
      </trkpt>
      <trkpt lat="43.17971" lon="3.14931">
        <ele>169</ele>
        <time>2024-03-31T12:11:34.539Z</time>
      </trkpt>
      <trkpt lat="43.17965" lon="3.14935">
        <ele>169</ele>
        <time>2024-03-31T12:11:39.539Z</time>
      </trkpt>
      <trkpt lat="43.1796" lon="3.14936">
        <ele>169</ele>
        <time>2024-03-31T12:11:44.539Z</time>
      </trkpt>
      <trkpt lat="43.17954" lon="3.14937">
        <ele>167</ele>
        <time>2024-03-31T12:11:49.539Z</time>
      </trkpt>
      <trkpt lat="43.17948" lon="3.14938">
        <ele>167</ele>
        <time>2024-03-31T12:11:54.539Z</time>
      </trkpt>
      <trkpt lat="43.17943" lon="3.14938">
        <ele>167</ele>
        <time>2024-03-31T12:11:59.539Z</time>
      </trkpt>
      <trkpt lat="43.17938" lon="3.14938">
        <ele>167</ele>
        <time>2024-03-31T12:12:04.539Z</time>
      </trkpt>
      <trkpt lat="43.17932" lon="3.14939">
        <ele>167</ele>
        <time>2024-03-31T12:12:09.539Z</time>
      </trkpt>
      <trkpt lat="43.17927" lon="3.14939">
        <ele>166</ele>
        <time>2024-03-31T12:12:13.539Z</time>
      </trkpt>
      <trkpt lat="43.17922" lon="3.1494">
        <ele>166</ele>
        <time>2024-03-31T12:12:18.539Z</time>
      </trkpt>
      <trkpt lat="43.17916" lon="3.1494">
        <ele>166</ele>
        <time>2024-03-31T12:12:23.539Z</time>
      </trkpt>
      <trkpt lat="43.1791" lon="3.14941">
        <ele>166</ele>
        <time>2024-03-31T12:12:28.539Z</time>
      </trkpt>
      <trkpt lat="43.17904" lon="3.14942">
        <ele>166</ele>
        <time>2024-03-31T12:12:33.539Z</time>
      </trkpt>
      <trkpt lat="43.179" lon="3.14943">
        <ele>165</ele>
        <time>2024-03-31T12:12:37.539Z</time>
      </trkpt>
      <trkpt lat="43.17895" lon="3.14944">
        <ele>165</ele>
        <time>2024-03-31T12:12:42.539Z</time>
      </trkpt>
      <trkpt lat="43.17889" lon="3.14946">
        <ele>165</ele>
        <time>2024-03-31T12:12:47.539Z</time>
      </trkpt>
      <trkpt lat="43.17883" lon="3.14946">
        <ele>165</ele>
        <time>2024-03-31T12:12:52.539Z</time>
      </trkpt>
      <trkpt lat="43.17878" lon="3.14946">
        <ele>165</ele>
        <time>2024-03-31T12:12:56.539Z</time>
      </trkpt>
      <trkpt lat="43.17873" lon="3.14946">
        <ele>164</ele>
        <time>2024-03-31T12:13:01.539Z</time>
      </trkpt>
      <trkpt lat="43.17868" lon="3.14945">
        <ele>164</ele>
        <time>2024-03-31T12:13:06.539Z</time>
      </trkpt>
      <trkpt lat="43.17862" lon="3.14945">
        <ele>164</ele>
        <time>2024-03-31T12:13:11.539Z</time>
      </trkpt>
      <trkpt lat="43.17856" lon="3.14945">
        <ele>164</ele>
        <time>2024-03-31T12:13:16.539Z</time>
      </trkpt>
      <trkpt lat="43.17851" lon="3.14943">
        <ele>164</ele>
        <time>2024-03-31T12:13:21.539Z</time>
      </trkpt>
      <trkpt lat="43.17846" lon="3.14943">
        <ele>163</ele>
        <time>2024-03-31T12:13:26.539Z</time>
      </trkpt>
      <trkpt lat="43.17841" lon="3.14941">
        <ele>163</ele>
        <time>2024-03-31T12:13:30.539Z</time>
      </trkpt>
      <trkpt lat="43.17836" lon="3.1494">
        <ele>163</ele>
        <time>2024-03-31T12:13:34.539Z</time>
      </trkpt>
      <trkpt lat="43.1783" lon="3.14939">
        <ele>163</ele>
        <time>2024-03-31T12:13:39.539Z</time>
      </trkpt>
      <trkpt lat="43.17827" lon="3.14938">
        <ele>163</ele>
        <time>2024-03-31T12:13:43.539Z</time>
      </trkpt>
      <trkpt lat="43.17821" lon="3.14937">
        <ele>163</ele>
        <time>2024-03-31T12:13:48.539Z</time>
      </trkpt>
      <trkpt lat="43.17816" lon="3.14937">
        <ele>162</ele>
        <time>2024-03-31T12:13:53.539Z</time>
      </trkpt>
      <trkpt lat="43.17811" lon="3.14935">
        <ele>162</ele>
        <time>2024-03-31T12:13:58.539Z</time>
      </trkpt>
      <trkpt lat="43.17805" lon="3.14933">
        <ele>162</ele>
        <time>2024-03-31T12:14:03.539Z</time>
      </trkpt>
      <trkpt lat="43.178" lon="3.14931">
        <ele>162</ele>
        <time>2024-03-31T12:14:07.539Z</time>
      </trkpt>
      <trkpt lat="43.17795" lon="3.14931">
        <ele>161</ele>
        <time>2024-03-31T12:14:12.539Z</time>
      </trkpt>
      <trkpt lat="43.1779" lon="3.14929">
        <ele>161</ele>
        <time>2024-03-31T12:14:17.539Z</time>
      </trkpt>
      <trkpt lat="43.17785" lon="3.14928">
        <ele>161</ele>
        <time>2024-03-31T12:14:22.539Z</time>
      </trkpt>
      <trkpt lat="43.17781" lon="3.14928">
        <ele>161</ele>
        <time>2024-03-31T12:14:26.539Z</time>
      </trkpt>
      <trkpt lat="43.17775" lon="3.14927">
        <ele>161</ele>
        <time>2024-03-31T12:14:31.539Z</time>
      </trkpt>
      <trkpt lat="43.1777" lon="3.14926">
        <ele>161</ele>
        <time>2024-03-31T12:14:36.539Z</time>
      </trkpt>
      <trkpt lat="43.17765" lon="3.14925">
        <ele>161</ele>
        <time>2024-03-31T12:14:41.539Z</time>
      </trkpt>
      <trkpt lat="43.1776" lon="3.14926">
        <ele>161</ele>
        <time>2024-03-31T12:14:46.539Z</time>
      </trkpt>
      <trkpt lat="43.17755" lon="3.14926">
        <ele>161</ele>
        <time>2024-03-31T12:14:51.539Z</time>
      </trkpt>
      <trkpt lat="43.17751" lon="3.14927">
        <ele>161</ele>
        <time>2024-03-31T12:14:55.539Z</time>
      </trkpt>
      <trkpt lat="43.17748" lon="3.14928">
        <ele>161</ele>
        <time>2024-03-31T12:14:59.539Z</time>
      </trkpt>
      <trkpt lat="43.17746" lon="3.14929">
        <ele>161</ele>
        <time>2024-03-31T12:15:03.540Z</time>
      </trkpt>
      <trkpt lat="43.17743" lon="3.14931">
        <ele>161</ele>
        <time>2024-03-31T12:15:08.540Z</time>
      </trkpt>
      <trkpt lat="43.17742" lon="3.14932">
        <ele>161</ele>
        <time>2024-03-31T12:15:13.540Z</time>
      </trkpt>
      <trkpt lat="43.17742" lon="3.14932">
        <ele>161</ele>
        <time>2024-03-31T12:15:29.540Z</time>
      </trkpt>
      <trkpt lat="43.17743" lon="3.14933">
        <ele>161</ele>
        <time>2024-03-31T12:15:34.540Z</time>
      </trkpt>
      <trkpt lat="43.17745" lon="3.14936">
        <ele>161</ele>
        <time>2024-03-31T12:15:39.540Z</time>
      </trkpt>
      <trkpt lat="43.17745" lon="3.14942">
        <ele>161</ele>
        <time>2024-03-31T12:15:44.540Z</time>
      </trkpt>
      <trkpt lat="43.17744" lon="3.14947">
        <ele>161</ele>
        <time>2024-03-31T12:15:49.540Z</time>
      </trkpt>
      <trkpt lat="43.17744" lon="3.1495">
        <ele>161</ele>
        <time>2024-03-31T12:15:53.540Z</time>
      </trkpt>
      <trkpt lat="43.17743" lon="3.14954">
        <ele>161</ele>
        <time>2024-03-31T12:15:58.540Z</time>
      </trkpt>
      <trkpt lat="43.17742" lon="3.14959">
        <ele>160</ele>
        <time>2024-03-31T12:16:03.540Z</time>
      </trkpt>
      <trkpt lat="43.17739" lon="3.14963">
        <ele>160</ele>
        <time>2024-03-31T12:16:08.540Z</time>
      </trkpt>
      <trkpt lat="43.17738" lon="3.14966">
        <ele>160</ele>
        <time>2024-03-31T12:16:13.540Z</time>
      </trkpt>
      <trkpt lat="43.17735" lon="3.14971">
        <ele>158</ele>
        <time>2024-03-31T12:16:18.540Z</time>
      </trkpt>
      <trkpt lat="43.17734" lon="3.14977">
        <ele>158</ele>
        <time>2024-03-31T12:16:23.540Z</time>
      </trkpt>
      <trkpt lat="43.17733" lon="3.14981">
        <ele>158</ele>
        <time>2024-03-31T12:16:28.540Z</time>
      </trkpt>
      <trkpt lat="43.17734" lon="3.14987">
        <ele>156</ele>
        <time>2024-03-31T12:16:33.540Z</time>
      </trkpt>
      <trkpt lat="43.17733" lon="3.14992">
        <ele>156</ele>
        <time>2024-03-31T12:16:38.540Z</time>
      </trkpt>
      <trkpt lat="43.17733" lon="3.14996">
        <ele>156</ele>
        <time>2024-03-31T12:16:43.540Z</time>
      </trkpt>
      <trkpt lat="43.17733" lon="3.15003">
        <ele>156</ele>
        <time>2024-03-31T12:16:48.540Z</time>
      </trkpt>
      <trkpt lat="43.17733" lon="3.15011">
        <ele>156</ele>
        <time>2024-03-31T12:16:53.540Z</time>
      </trkpt>
      <trkpt lat="43.17735" lon="3.15017">
        <ele>154</ele>
        <time>2024-03-31T12:16:58.540Z</time>
      </trkpt>
      <trkpt lat="43.17734" lon="3.15024">
        <ele>154</ele>
        <time>2024-03-31T12:17:03.540Z</time>
      </trkpt>
      <trkpt lat="43.17735" lon="3.15028">
        <ele>154</ele>
        <time>2024-03-31T12:17:07.540Z</time>
      </trkpt>
      <trkpt lat="43.17734" lon="3.15034">
        <ele>154</ele>
        <time>2024-03-31T12:17:12.540Z</time>
      </trkpt>
      <trkpt lat="43.17733" lon="3.1504">
        <ele>154</ele>
        <time>2024-03-31T12:17:17.540Z</time>
      </trkpt>
      <trkpt lat="43.1773" lon="3.15047">
        <ele>154</ele>
        <time>2024-03-31T12:17:22.540Z</time>
      </trkpt>
      <trkpt lat="43.17728" lon="3.15051">
        <ele>154</ele>
        <time>2024-03-31T12:17:26.540Z</time>
      </trkpt>
      <trkpt lat="43.17724" lon="3.15055">
        <ele>154</ele>
        <time>2024-03-31T12:17:31.540Z</time>
      </trkpt>
      <trkpt lat="43.1772" lon="3.1506">
        <ele>154</ele>
        <time>2024-03-31T12:17:36.540Z</time>
      </trkpt>
      <trkpt lat="43.17716" lon="3.15066">
        <ele>154</ele>
        <time>2024-03-31T12:17:41.540Z</time>
      </trkpt>
      <trkpt lat="43.17713" lon="3.15072">
        <ele>152</ele>
        <time>2024-03-31T12:17:46.540Z</time>
      </trkpt>
      <trkpt lat="43.17712" lon="3.15074">
        <ele>152</ele>
        <time>2024-03-31T12:17:51.540Z</time>
      </trkpt>
      <trkpt lat="43.17713" lon="3.15078">
        <ele>152</ele>
        <time>2024-03-31T12:17:56.540Z</time>
      </trkpt>
      <trkpt lat="43.17712" lon="3.15082">
        <ele>152</ele>
        <time>2024-03-31T12:18:00.540Z</time>
      </trkpt>
      <trkpt lat="43.17712" lon="3.15088">
        <ele>152</ele>
        <time>2024-03-31T12:18:05.540Z</time>
      </trkpt>
      <trkpt lat="43.17713" lon="3.15092">
        <ele>152</ele>
        <time>2024-03-31T12:18:10.540Z</time>
      </trkpt>
      <trkpt lat="43.17714" lon="3.15095">
        <ele>152</ele>
        <time>2024-03-31T12:18:14.540Z</time>
      </trkpt>
      <trkpt lat="43.17713" lon="3.151">
        <ele>148</ele>
        <time>2024-03-31T12:18:19.540Z</time>
      </trkpt>
      <trkpt lat="43.17711" lon="3.15108">
        <ele>148</ele>
        <time>2024-03-31T12:18:24.540Z</time>
      </trkpt>
      <trkpt lat="43.17708" lon="3.15113">
        <ele>148</ele>
        <time>2024-03-31T12:18:28.540Z</time>
      </trkpt>
      <trkpt lat="43.17706" lon="3.15119">
        <ele>147</ele>
        <time>2024-03-31T12:18:33.540Z</time>
      </trkpt>
      <trkpt lat="43.17704" lon="3.15124">
        <ele>147</ele>
        <time>2024-03-31T12:18:38.540Z</time>
      </trkpt>
      <trkpt lat="43.17702" lon="3.15129">
        <ele>145</ele>
        <time>2024-03-31T12:18:43.540Z</time>
      </trkpt>
      <trkpt lat="43.177" lon="3.15134">
        <ele>145</ele>
        <time>2024-03-31T12:18:48.540Z</time>
      </trkpt>
      <trkpt lat="43.17698" lon="3.15138">
        <ele>145</ele>
        <time>2024-03-31T12:18:52.540Z</time>
      </trkpt>
      <trkpt lat="43.17696" lon="3.15143">
        <ele>145</ele>
        <time>2024-03-31T12:18:57.540Z</time>
      </trkpt>
      <trkpt lat="43.17693" lon="3.15147">
        <ele>145</ele>
        <time>2024-03-31T12:19:01.540Z</time>
      </trkpt>
      <trkpt lat="43.1769" lon="3.1515">
        <ele>145</ele>
        <time>2024-03-31T12:19:06.540Z</time>
      </trkpt>
      <trkpt lat="43.17687" lon="3.15156">
        <ele>142</ele>
        <time>2024-03-31T12:19:11.540Z</time>
      </trkpt>
      <trkpt lat="43.17685" lon="3.15161">
        <ele>142</ele>
        <time>2024-03-31T12:19:16.540Z</time>
      </trkpt>
      <trkpt lat="43.17681" lon="3.15165">
        <ele>142</ele>
        <time>2024-03-31T12:19:21.540Z</time>
      </trkpt>
      <trkpt lat="43.17676" lon="3.15168">
        <ele>139</ele>
        <time>2024-03-31T12:19:26.540Z</time>
      </trkpt>
      <trkpt lat="43.17672" lon="3.15171">
        <ele>139</ele>
        <time>2024-03-31T12:19:31.540Z</time>
      </trkpt>
      <trkpt lat="43.1767" lon="3.15176">
        <ele>139</ele>
        <time>2024-03-31T12:19:36.540Z</time>
      </trkpt>
      <trkpt lat="43.17667" lon="3.15178">
        <ele>139</ele>
        <time>2024-03-31T12:19:40.540Z</time>
      </trkpt>
      <trkpt lat="43.17662" lon="3.1518">
        <ele>139</ele>
        <time>2024-03-31T12:19:45.540Z</time>
      </trkpt>
      <trkpt lat="43.17657" lon="3.15182">
        <ele>136</ele>
        <time>2024-03-31T12:19:50.540Z</time>
      </trkpt>
      <trkpt lat="43.17652" lon="3.15185">
        <ele>131</ele>
        <time>2024-03-31T12:19:55.540Z</time>
      </trkpt>
      <trkpt lat="43.17648" lon="3.15187">
        <ele>131</ele>
        <time>2024-03-31T12:19:59.540Z</time>
      </trkpt>
      <trkpt lat="43.17643" lon="3.15188">
        <ele>131</ele>
        <time>2024-03-31T12:20:04.540Z</time>
      </trkpt>
      <trkpt lat="43.17638" lon="3.15187">
        <ele>131</ele>
        <time>2024-03-31T12:20:09.540Z</time>
      </trkpt>
      <trkpt lat="43.17635" lon="3.15188">
        <ele>131</ele>
        <time>2024-03-31T12:20:14.540Z</time>
      </trkpt>
      <trkpt lat="43.17632" lon="3.15188">
        <ele>131</ele>
        <time>2024-03-31T12:20:18.540Z</time>
      </trkpt>
      <trkpt lat="43.17629" lon="3.15189">
        <ele>131</ele>
        <time>2024-03-31T12:20:23.540Z</time>
      </trkpt>
      <trkpt lat="43.17625" lon="3.1519">
        <ele>131</ele>
        <time>2024-03-31T12:20:28.540Z</time>
      </trkpt>
      <trkpt lat="43.17621" lon="3.15193">
        <ele>126</ele>
        <time>2024-03-31T12:20:33.540Z</time>
      </trkpt>
      <trkpt lat="43.17615" lon="3.15194">
        <ele>126</ele>
        <time>2024-03-31T12:20:38.540Z</time>
      </trkpt>
      <trkpt lat="43.17611" lon="3.15197">
        <ele>126</ele>
        <time>2024-03-31T12:20:42.540Z</time>
      </trkpt>
      <trkpt lat="43.17607" lon="3.15199">
        <ele>126</ele>
        <time>2024-03-31T12:20:47.540Z</time>
      </trkpt>
      <trkpt lat="43.17603" lon="3.15201">
        <ele>126</ele>
        <time>2024-03-31T12:20:51.540Z</time>
      </trkpt>
      <trkpt lat="43.17599" lon="3.15203">
        <ele>126</ele>
        <time>2024-03-31T12:20:56.540Z</time>
      </trkpt>
      <trkpt lat="43.17594" lon="3.15205">
        <ele>123</ele>
        <time>2024-03-31T12:21:01.540Z</time>
      </trkpt>
      <trkpt lat="43.17591" lon="3.15207">
        <ele>123</ele>
        <time>2024-03-31T12:21:05.540Z</time>
      </trkpt>
      <trkpt lat="43.17585" lon="3.15209">
        <ele>122</ele>
        <time>2024-03-31T12:21:10.540Z</time>
      </trkpt>
      <trkpt lat="43.17582" lon="3.1521">
        <ele>122</ele>
        <time>2024-03-31T12:21:14.540Z</time>
      </trkpt>
      <trkpt lat="43.17577" lon="3.15211">
        <ele>122</ele>
        <time>2024-03-31T12:21:19.540Z</time>
      </trkpt>
      <trkpt lat="43.17574" lon="3.15211">
        <ele>122</ele>
        <time>2024-03-31T12:21:24.541Z</time>
      </trkpt>
      <trkpt lat="43.1757" lon="3.15212">
        <ele>122</ele>
        <time>2024-03-31T12:21:28.541Z</time>
      </trkpt>
      <trkpt lat="43.17565" lon="3.15214">
        <ele>118</ele>
        <time>2024-03-31T12:21:33.541Z</time>
      </trkpt>
      <trkpt lat="43.17561" lon="3.15218">
        <ele>118</ele>
        <time>2024-03-31T12:21:38.541Z</time>
      </trkpt>
      <trkpt lat="43.17558" lon="3.1522">
        <ele>118</ele>
        <time>2024-03-31T12:21:43.541Z</time>
      </trkpt>
      <trkpt lat="43.17554" lon="3.15223">
        <ele>118</ele>
        <time>2024-03-31T12:21:48.541Z</time>
      </trkpt>
      <trkpt lat="43.1755" lon="3.15227">
        <ele>118</ele>
        <time>2024-03-31T12:21:52.541Z</time>
      </trkpt>
      <trkpt lat="43.17545" lon="3.15232">
        <ele>118</ele>
        <time>2024-03-31T12:21:57.541Z</time>
      </trkpt>
      <trkpt lat="43.17542" lon="3.15236">
        <ele>112</ele>
        <time>2024-03-31T12:22:02.541Z</time>
      </trkpt>
      <trkpt lat="43.17538" lon="3.15239">
        <ele>112</ele>
        <time>2024-03-31T12:22:07.541Z</time>
      </trkpt>
      <trkpt lat="43.17534" lon="3.15243">
        <ele>112</ele>
        <time>2024-03-31T12:22:12.541Z</time>
      </trkpt>
      <trkpt lat="43.1753" lon="3.15246">
        <ele>112</ele>
        <time>2024-03-31T12:22:16.541Z</time>
      </trkpt>
      <trkpt lat="43.17526" lon="3.15249">
        <ele>112</ele>
        <time>2024-03-31T12:22:21.541Z</time>
      </trkpt>
      <trkpt lat="43.17521" lon="3.15252">
        <ele>112</ele>
        <time>2024-03-31T12:22:26.541Z</time>
      </trkpt>
      <trkpt lat="43.17516" lon="3.15256">
        <ele>112</ele>
        <time>2024-03-31T12:22:31.541Z</time>
      </trkpt>
      <trkpt lat="43.17512" lon="3.15259">
        <ele>109</ele>
        <time>2024-03-31T12:22:36.541Z</time>
      </trkpt>
      <trkpt lat="43.17508" lon="3.15262">
        <ele>109</ele>
        <time>2024-03-31T12:22:41.541Z</time>
      </trkpt>
      <trkpt lat="43.17505" lon="3.15263">
        <ele>109</ele>
        <time>2024-03-31T12:22:45.541Z</time>
      </trkpt>
      <trkpt lat="43.175" lon="3.15267">
        <ele>107</ele>
        <time>2024-03-31T12:22:50.541Z</time>
      </trkpt>
      <trkpt lat="43.17495" lon="3.15271">
        <ele>107</ele>
        <time>2024-03-31T12:22:54.541Z</time>
      </trkpt>
      <trkpt lat="43.17493" lon="3.15274">
        <ele>107</ele>
        <time>2024-03-31T12:22:59.541Z</time>
      </trkpt>
      <trkpt lat="43.17494" lon="3.15275">
        <ele>107</ele>
        <time>2024-03-31T12:23:04.541Z</time>
      </trkpt>
      <trkpt lat="43.17495" lon="3.15278">
        <ele>107</ele>
        <time>2024-03-31T12:23:09.541Z</time>
      </trkpt>
      <trkpt lat="43.17495" lon="3.15284">
        <ele>107</ele>
        <time>2024-03-31T12:23:14.541Z</time>
      </trkpt>
      <trkpt lat="43.17494" lon="3.15293">
        <ele>106</ele>
        <time>2024-03-31T12:23:19.541Z</time>
      </trkpt>
      <trkpt lat="43.17492" lon="3.15302">
        <ele>106</ele>
        <time>2024-03-31T12:23:24.541Z</time>
      </trkpt>
      <trkpt lat="43.1749" lon="3.15309">
        <ele>106</ele>
        <time>2024-03-31T12:23:29.541Z</time>
      </trkpt>
      <trkpt lat="43.17486" lon="3.15319">
        <ele>105</ele>
        <time>2024-03-31T12:23:34.541Z</time>
      </trkpt>
      <trkpt lat="43.17482" lon="3.15326">
        <ele>104</ele>
        <time>2024-03-31T12:23:39.541Z</time>
      </trkpt>
      <trkpt lat="43.17481" lon="3.15328">
        <ele>104</ele>
        <time>2024-03-31T12:23:44.541Z</time>
      </trkpt>
      <trkpt lat="43.17481" lon="3.15328">
        <ele>104</ele>
        <time>2024-03-31T12:23:48.541Z</time>
      </trkpt>
      <trkpt lat="43.1748" lon="3.15335">
        <ele>104</ele>
        <time>2024-03-31T12:23:52.541Z</time>
      </trkpt>
      <trkpt lat="43.17477" lon="3.15342">
        <ele>104</ele>
        <time>2024-03-31T12:23:56.541Z</time>
      </trkpt>
      <trkpt lat="43.17475" lon="3.15348">
        <ele>105</ele>
        <time>2024-03-31T12:24:01.541Z</time>
      </trkpt>
      <trkpt lat="43.17473" lon="3.15353">
        <ele>105</ele>
        <time>2024-03-31T12:24:05.541Z</time>
      </trkpt>
      <trkpt lat="43.17471" lon="3.15359">
        <ele>105</ele>
        <time>2024-03-31T12:24:09.541Z</time>
      </trkpt>
      <trkpt lat="43.1747" lon="3.15365">
        <ele>105</ele>
        <time>2024-03-31T12:24:13.541Z</time>
      </trkpt>
      <trkpt lat="43.17469" lon="3.1537">
        <ele>105</ele>
        <time>2024-03-31T12:24:17.541Z</time>
      </trkpt>
      <trkpt lat="43.17467" lon="3.15376">
        <ele>106</ele>
        <time>2024-03-31T12:24:22.541Z</time>
      </trkpt>
      <trkpt lat="43.17465" lon="3.15382">
        <ele>106</ele>
        <time>2024-03-31T12:24:26.541Z</time>
      </trkpt>
      <trkpt lat="43.17463" lon="3.15389">
        <ele>106</ele>
        <time>2024-03-31T12:24:31.541Z</time>
      </trkpt>
      <trkpt lat="43.17462" lon="3.15394">
        <ele>106</ele>
        <time>2024-03-31T12:24:35.541Z</time>
      </trkpt>
      <trkpt lat="43.1746" lon="3.15402">
        <ele>106</ele>
        <time>2024-03-31T12:24:40.541Z</time>
      </trkpt>
      <trkpt lat="43.1746" lon="3.15409">
        <ele>106</ele>
        <time>2024-03-31T12:24:45.541Z</time>
      </trkpt>
      <trkpt lat="43.17458" lon="3.15414">
        <ele>106</ele>
        <time>2024-03-31T12:24:49.541Z</time>
      </trkpt>
      <trkpt lat="43.17457" lon="3.1542">
        <ele>103</ele>
        <time>2024-03-31T12:24:53.541Z</time>
      </trkpt>
      <trkpt lat="43.17455" lon="3.15426">
        <ele>103</ele>
        <time>2024-03-31T12:24:58.541Z</time>
      </trkpt>
      <trkpt lat="43.17455" lon="3.15431">
        <ele>102</ele>
        <time>2024-03-31T12:25:02.541Z</time>
      </trkpt>
      <trkpt lat="43.17452" lon="3.15438">
        <ele>102</ele>
        <time>2024-03-31T12:25:07.541Z</time>
      </trkpt>
      <trkpt lat="43.1745" lon="3.15445">
        <ele>102</ele>
        <time>2024-03-31T12:25:12.541Z</time>
      </trkpt>
      <trkpt lat="43.17448" lon="3.1545">
        <ele>102</ele>
        <time>2024-03-31T12:25:17.541Z</time>
      </trkpt>
      <trkpt lat="43.17447" lon="3.15458">
        <ele>102</ele>
        <time>2024-03-31T12:25:22.541Z</time>
      </trkpt>
      <trkpt lat="43.17446" lon="3.15464">
        <ele>104</ele>
        <time>2024-03-31T12:25:26.541Z</time>
      </trkpt>
      <trkpt lat="43.17444" lon="3.1547">
        <ele>104</ele>
        <time>2024-03-31T12:25:31.541Z</time>
      </trkpt>
      <trkpt lat="43.17442" lon="3.15478">
        <ele>104</ele>
        <time>2024-03-31T12:25:36.541Z</time>
      </trkpt>
      <trkpt lat="43.17441" lon="3.15484">
        <ele>104</ele>
        <time>2024-03-31T12:25:41.541Z</time>
      </trkpt>
      <trkpt lat="43.1744" lon="3.15491">
        <ele>104</ele>
        <time>2024-03-31T12:25:46.541Z</time>
      </trkpt>
      <trkpt lat="43.17439" lon="3.15497">
        <ele>104</ele>
        <time>2024-03-31T12:25:50.541Z</time>
      </trkpt>
      <trkpt lat="43.17438" lon="3.15505">
        <ele>104</ele>
        <time>2024-03-31T12:25:55.541Z</time>
      </trkpt>
      <trkpt lat="43.17437" lon="3.15512">
        <ele>104</ele>
        <time>2024-03-31T12:26:00.541Z</time>
      </trkpt>
      <trkpt lat="43.17436" lon="3.1552">
        <ele>104</ele>
        <time>2024-03-31T12:26:05.541Z</time>
      </trkpt>
      <trkpt lat="43.17437" lon="3.15525">
        <ele>104</ele>
        <time>2024-03-31T12:26:10.541Z</time>
      </trkpt>
      <trkpt lat="43.17437" lon="3.15531">
        <ele>104</ele>
        <time>2024-03-31T12:26:15.541Z</time>
      </trkpt>
      <trkpt lat="43.17436" lon="3.15538">
        <ele>104</ele>
        <time>2024-03-31T12:26:20.541Z</time>
      </trkpt>
      <trkpt lat="43.17435" lon="3.15544">
        <ele>103</ele>
        <time>2024-03-31T12:26:24.541Z</time>
      </trkpt>
      <trkpt lat="43.17433" lon="3.1555">
        <ele>103</ele>
        <time>2024-03-31T12:26:29.541Z</time>
      </trkpt>
      <trkpt lat="43.17431" lon="3.15557">
        <ele>103</ele>
        <time>2024-03-31T12:26:33.541Z</time>
      </trkpt>
      <trkpt lat="43.17429" lon="3.15564">
        <ele>98</ele>
        <time>2024-03-31T12:26:38.541Z</time>
      </trkpt>
      <trkpt lat="43.17426" lon="3.15571">
        <ele>98</ele>
        <time>2024-03-31T12:26:43.541Z</time>
      </trkpt>
      <trkpt lat="43.17424" lon="3.15577">
        <ele>98</ele>
        <time>2024-03-31T12:26:48.541Z</time>
      </trkpt>
      <trkpt lat="43.17421" lon="3.15584">
        <ele>98</ele>
        <time>2024-03-31T12:26:53.541Z</time>
      </trkpt>
      <trkpt lat="43.17418" lon="3.1559">
        <ele>98</ele>
        <time>2024-03-31T12:26:58.541Z</time>
      </trkpt>
      <trkpt lat="43.17415" lon="3.15596">
        <ele>98</ele>
        <time>2024-03-31T12:27:03.541Z</time>
      </trkpt>
      <trkpt lat="43.17412" lon="3.15602">
        <ele>98</ele>
        <time>2024-03-31T12:27:07.541Z</time>
      </trkpt>
      <trkpt lat="43.1741" lon="3.15607">
        <ele>98</ele>
        <time>2024-03-31T12:27:11.541Z</time>
      </trkpt>
      <trkpt lat="43.17407" lon="3.15613">
        <ele>98</ele>
        <time>2024-03-31T12:27:16.541Z</time>
      </trkpt>
      <trkpt lat="43.17404" lon="3.15618">
        <ele>98</ele>
        <time>2024-03-31T12:27:20.541Z</time>
      </trkpt>
      <trkpt lat="43.17402" lon="3.15625">
        <ele>96</ele>
        <time>2024-03-31T12:27:25.541Z</time>
      </trkpt>
      <trkpt lat="43.17399" lon="3.15632">
        <ele>96</ele>
        <time>2024-03-31T12:27:30.541Z</time>
      </trkpt>
      <trkpt lat="43.17396" lon="3.15639">
        <ele>96</ele>
        <time>2024-03-31T12:27:35.541Z</time>
      </trkpt>
      <trkpt lat="43.17393" lon="3.15647">
        <ele>96</ele>
        <time>2024-03-31T12:27:40.541Z</time>
      </trkpt>
      <trkpt lat="43.17391" lon="3.15652">
        <ele>96</ele>
        <time>2024-03-31T12:27:44.541Z</time>
      </trkpt>
      <trkpt lat="43.17389" lon="3.15657">
        <ele>95</ele>
        <time>2024-03-31T12:27:49.541Z</time>
      </trkpt>
      <trkpt lat="43.17387" lon="3.15664">
        <ele>95</ele>
        <time>2024-03-31T12:27:54.541Z</time>
      </trkpt>
      <trkpt lat="43.17385" lon="3.15671">
        <ele>95</ele>
        <time>2024-03-31T12:27:59.541Z</time>
      </trkpt>
      <trkpt lat="43.17384" lon="3.15678">
        <ele>95</ele>
        <time>2024-03-31T12:28:04.541Z</time>
      </trkpt>
      <trkpt lat="43.17382" lon="3.15685">
        <ele>95</ele>
        <time>2024-03-31T12:28:09.541Z</time>
      </trkpt>
      <trkpt lat="43.17382" lon="3.15691">
        <ele>95</ele>
        <time>2024-03-31T12:28:13.542Z</time>
      </trkpt>
      <trkpt lat="43.1738" lon="3.15699">
        <ele>95</ele>
        <time>2024-03-31T12:28:18.542Z</time>
      </trkpt>
      <trkpt lat="43.17379" lon="3.15706">
        <ele>95</ele>
        <time>2024-03-31T12:28:23.542Z</time>
      </trkpt>
      <trkpt lat="43.17378" lon="3.15713">
        <ele>96</ele>
        <time>2024-03-31T12:28:28.542Z</time>
      </trkpt>
      <trkpt lat="43.17377" lon="3.1572">
        <ele>96</ele>
        <time>2024-03-31T12:28:33.542Z</time>
      </trkpt>
      <trkpt lat="43.17374" lon="3.15726">
        <ele>93</ele>
        <time>2024-03-31T12:28:38.542Z</time>
      </trkpt>
      <trkpt lat="43.17373" lon="3.15732">
        <ele>93</ele>
        <time>2024-03-31T12:28:43.542Z</time>
      </trkpt>
      <trkpt lat="43.17369" lon="3.15738">
        <ele>93</ele>
        <time>2024-03-31T12:28:48.542Z</time>
      </trkpt>
      <trkpt lat="43.17366" lon="3.15743">
        <ele>93</ele>
        <time>2024-03-31T12:28:52.542Z</time>
      </trkpt>
      <trkpt lat="43.17365" lon="3.15749">
        <ele>93</ele>
        <time>2024-03-31T12:28:57.542Z</time>
      </trkpt>
      <trkpt lat="43.17363" lon="3.15754">
        <ele>93</ele>
        <time>2024-03-31T12:29:01.542Z</time>
      </trkpt>
      <trkpt lat="43.17361" lon="3.15761">
        <ele>93</ele>
        <time>2024-03-31T12:29:06.542Z</time>
      </trkpt>
      <trkpt lat="43.17359" lon="3.15766">
        <ele>92</ele>
        <time>2024-03-31T12:29:11.542Z</time>
      </trkpt>
      <trkpt lat="43.17356" lon="3.15774">
        <ele>92</ele>
        <time>2024-03-31T12:29:16.542Z</time>
      </trkpt>
      <trkpt lat="43.17352" lon="3.1578">
        <ele>92</ele>
        <time>2024-03-31T12:29:21.542Z</time>
      </trkpt>
      <trkpt lat="43.17348" lon="3.15786">
        <ele>92</ele>
        <time>2024-03-31T12:29:26.542Z</time>
      </trkpt>
      <trkpt lat="43.17345" lon="3.15791">
        <ele>91</ele>
        <time>2024-03-31T12:29:31.542Z</time>
      </trkpt>
      <trkpt lat="43.17341" lon="3.15797">
        <ele>92</ele>
        <time>2024-03-31T12:29:36.542Z</time>
      </trkpt>
      <trkpt lat="43.17339" lon="3.15802">
        <ele>92</ele>
        <time>2024-03-31T12:29:40.542Z</time>
      </trkpt>
      <trkpt lat="43.17337" lon="3.15808">
        <ele>92</ele>
        <time>2024-03-31T12:29:45.542Z</time>
      </trkpt>
      <trkpt lat="43.17335" lon="3.15813">
        <ele>92</ele>
        <time>2024-03-31T12:29:49.542Z</time>
      </trkpt>
      <trkpt lat="43.17333" lon="3.15821">
        <ele>91</ele>
        <time>2024-03-31T12:29:54.542Z</time>
      </trkpt>
      <trkpt lat="43.17332" lon="3.15826">
        <ele>91</ele>
        <time>2024-03-31T12:29:58.542Z</time>
      </trkpt>
      <trkpt lat="43.1733" lon="3.15832">
        <ele>91</ele>
        <time>2024-03-31T12:30:03.542Z</time>
      </trkpt>
      <trkpt lat="43.17329" lon="3.15839">
        <ele>91</ele>
        <time>2024-03-31T12:30:08.542Z</time>
      </trkpt>
      <trkpt lat="43.17327" lon="3.15846">
        <ele>91</ele>
        <time>2024-03-31T12:30:13.542Z</time>
      </trkpt>
      <trkpt lat="43.17326" lon="3.15852">
        <ele>87</ele>
        <time>2024-03-31T12:30:18.542Z</time>
      </trkpt>
      <trkpt lat="43.17325" lon="3.15859">
        <ele>87</ele>
        <time>2024-03-31T12:30:23.542Z</time>
      </trkpt>
      <trkpt lat="43.17323" lon="3.15865">
        <ele>87</ele>
        <time>2024-03-31T12:30:28.542Z</time>
      </trkpt>
      <trkpt lat="43.17321" lon="3.1587">
        <ele>87</ele>
        <time>2024-03-31T12:30:33.542Z</time>
      </trkpt>
      <trkpt lat="43.17319" lon="3.15876">
        <ele>84</ele>
        <time>2024-03-31T12:30:38.542Z</time>
      </trkpt>
      <trkpt lat="43.17316" lon="3.1588">
        <ele>84</ele>
        <time>2024-03-31T12:30:42.542Z</time>
      </trkpt>
      <trkpt lat="43.17311" lon="3.15884">
        <ele>84</ele>
        <time>2024-03-31T12:30:47.542Z</time>
      </trkpt>
      <trkpt lat="43.17306" lon="3.15889">
        <ele>84</ele>
        <time>2024-03-31T12:30:52.542Z</time>
      </trkpt>
      <trkpt lat="43.17304" lon="3.15893">
        <ele>84</ele>
        <time>2024-03-31T12:30:56.542Z</time>
      </trkpt>
      <trkpt lat="43.17302" lon="3.15897">
        <ele>84</ele>
        <time>2024-03-31T12:31:00.542Z</time>
      </trkpt>
      <trkpt lat="43.17298" lon="3.15904">
        <ele>80</ele>
        <time>2024-03-31T12:31:05.542Z</time>
      </trkpt>
      <trkpt lat="43.17297" lon="3.15909">
        <ele>80</ele>
        <time>2024-03-31T12:31:09.542Z</time>
      </trkpt>
      <trkpt lat="43.17294" lon="3.15916">
        <ele>80</ele>
        <time>2024-03-31T12:31:14.542Z</time>
      </trkpt>
      <trkpt lat="43.17291" lon="3.15919">
        <ele>83</ele>
        <time>2024-03-31T12:31:18.542Z</time>
      </trkpt>
      <trkpt lat="43.17286" lon="3.15922">
        <ele>83</ele>
        <time>2024-03-31T12:31:23.542Z</time>
      </trkpt>
      <trkpt lat="43.17283" lon="3.15925">
        <ele>83</ele>
        <time>2024-03-31T12:31:27.542Z</time>
      </trkpt>
      <trkpt lat="43.17279" lon="3.1593">
        <ele>83</ele>
        <time>2024-03-31T12:31:32.542Z</time>
      </trkpt>
      <trkpt lat="43.17277" lon="3.15936">
        <ele>80</ele>
        <time>2024-03-31T12:31:37.542Z</time>
      </trkpt>
      <trkpt lat="43.17276" lon="3.15942">
        <ele>80</ele>
        <time>2024-03-31T12:31:42.542Z</time>
      </trkpt>
      <trkpt lat="43.17274" lon="3.15948">
        <ele>80</ele>
        <time>2024-03-31T12:31:47.542Z</time>
      </trkpt>
      <trkpt lat="43.17271" lon="3.15953">
        <ele>80</ele>
        <time>2024-03-31T12:31:52.542Z</time>
      </trkpt>
      <trkpt lat="43.17267" lon="3.15961">
        <ele>77</ele>
        <time>2024-03-31T12:31:57.542Z</time>
      </trkpt>
      <trkpt lat="43.17264" lon="3.15968">
        <ele>77</ele>
        <time>2024-03-31T12:32:02.542Z</time>
      </trkpt>
      <trkpt lat="43.17261" lon="3.15973">
        <ele>81</ele>
        <time>2024-03-31T12:32:07.542Z</time>
      </trkpt>
      <trkpt lat="43.17257" lon="3.1598">
        <ele>81</ele>
        <time>2024-03-31T12:32:12.542Z</time>
      </trkpt>
      <trkpt lat="43.17255" lon="3.15986">
        <ele>78</ele>
        <time>2024-03-31T12:32:17.542Z</time>
      </trkpt>
      <trkpt lat="43.17251" lon="3.15992">
        <ele>78</ele>
        <time>2024-03-31T12:32:22.542Z</time>
      </trkpt>
      <trkpt lat="43.17249" lon="3.15998">
        <ele>78</ele>
        <time>2024-03-31T12:32:27.542Z</time>
      </trkpt>
      <trkpt lat="43.17246" lon="3.16004">
        <ele>78</ele>
        <time>2024-03-31T12:32:32.542Z</time>
      </trkpt>
      <trkpt lat="43.17243" lon="3.16009">
        <ele>78</ele>
        <time>2024-03-31T12:32:36.542Z</time>
      </trkpt>
      <trkpt lat="43.17239" lon="3.16015">
        <ele>72</ele>
        <time>2024-03-31T12:32:41.542Z</time>
      </trkpt>
      <trkpt lat="43.17236" lon="3.16022">
        <ele>76</ele>
        <time>2024-03-31T12:32:46.542Z</time>
      </trkpt>
      <trkpt lat="43.17232" lon="3.16027">
        <ele>76</ele>
        <time>2024-03-31T12:32:51.542Z</time>
      </trkpt>
      <trkpt lat="43.1723" lon="3.16033">
        <ele>76</ele>
        <time>2024-03-31T12:32:56.542Z</time>
      </trkpt>
      <trkpt lat="43.17226" lon="3.1604">
        <ele>76</ele>
        <time>2024-03-31T12:33:01.542Z</time>
      </trkpt>
      <trkpt lat="43.17223" lon="3.16047">
        <ele>73</ele>
        <time>2024-03-31T12:33:06.542Z</time>
      </trkpt>
      <trkpt lat="43.17219" lon="3.16053">
        <ele>73</ele>
        <time>2024-03-31T12:33:11.542Z</time>
      </trkpt>
      <trkpt lat="43.17216" lon="3.16058">
        <ele>73</ele>
        <time>2024-03-31T12:33:16.542Z</time>
      </trkpt>
      <trkpt lat="43.17212" lon="3.16064">
        <ele>73</ele>
        <time>2024-03-31T12:33:21.542Z</time>
      </trkpt>
      <trkpt lat="43.17209" lon="3.1607">
        <ele>72</ele>
        <time>2024-03-31T12:33:26.542Z</time>
      </trkpt>
      <trkpt lat="43.17207" lon="3.16076">
        <ele>73</ele>
        <time>2024-03-31T12:33:31.542Z</time>
      </trkpt>
      <trkpt lat="43.17204" lon="3.16082">
        <ele>73</ele>
        <time>2024-03-31T12:33:36.542Z</time>
      </trkpt>
      <trkpt lat="43.17202" lon="3.16088">
        <ele>73</ele>
        <time>2024-03-31T12:33:41.542Z</time>
      </trkpt>
      <trkpt lat="43.17198" lon="3.16093">
        <ele>73</ele>
        <time>2024-03-31T12:33:46.542Z</time>
      </trkpt>
      <trkpt lat="43.17196" lon="3.16098">
        <ele>69</ele>
        <time>2024-03-31T12:33:50.542Z</time>
      </trkpt>
      <trkpt lat="43.17192" lon="3.16102">
        <ele>69</ele>
        <time>2024-03-31T12:33:55.542Z</time>
      </trkpt>
      <trkpt lat="43.17187" lon="3.16104">
        <ele>69</ele>
        <time>2024-03-31T12:34:00.542Z</time>
      </trkpt>
      <trkpt lat="43.17182" lon="3.16104">
        <ele>69</ele>
        <time>2024-03-31T12:34:05.542Z</time>
      </trkpt>
      <trkpt lat="43.17177" lon="3.16104">
        <ele>69</ele>
        <time>2024-03-31T12:34:10.542Z</time>
      </trkpt>
      <trkpt lat="43.17172" lon="3.16104">
        <ele>69</ele>
        <time>2024-03-31T12:34:15.542Z</time>
      </trkpt>
      <trkpt lat="43.17167" lon="3.16103">
        <ele>69</ele>
        <time>2024-03-31T12:34:20.542Z</time>
      </trkpt>
      <trkpt lat="43.17162" lon="3.16105">
        <ele>69</ele>
        <time>2024-03-31T12:34:25.542Z</time>
      </trkpt>
      <trkpt lat="43.17158" lon="3.16107">
        <ele>69</ele>
        <time>2024-03-31T12:34:30.542Z</time>
      </trkpt>
      <trkpt lat="43.17156" lon="3.16114">
        <ele>69</ele>
        <time>2024-03-31T12:34:35.543Z</time>
      </trkpt>
      <trkpt lat="43.17154" lon="3.16118">
        <ele>69</ele>
        <time>2024-03-31T12:34:39.543Z</time>
      </trkpt>
      <trkpt lat="43.17149" lon="3.16122">
        <ele>69</ele>
        <time>2024-03-31T12:34:44.543Z</time>
      </trkpt>
      <trkpt lat="43.17147" lon="3.16127">
        <ele>67</ele>
        <time>2024-03-31T12:34:49.543Z</time>
      </trkpt>
      <trkpt lat="43.17145" lon="3.16132">
        <ele>67</ele>
        <time>2024-03-31T12:34:54.543Z</time>
      </trkpt>
      <trkpt lat="43.17143" lon="3.16137">
        <ele>67</ele>
        <time>2024-03-31T12:34:58.543Z</time>
      </trkpt>
      <trkpt lat="43.17142" lon="3.16139">
        <ele>67</ele>
        <time>2024-03-31T12:35:03.543Z</time>
      </trkpt>
      <trkpt lat="43.17139" lon="3.16143">
        <ele>67</ele>
        <time>2024-03-31T12:35:26.543Z</time>
      </trkpt>
      <trkpt lat="43.1714" lon="3.1615">
        <ele>67</ele>
        <time>2024-03-31T12:36:29.543Z</time>
      </trkpt>
      <trkpt lat="43.1714" lon="3.16155">
        <ele>66</ele>
        <time>2024-03-31T12:36:33.543Z</time>
      </trkpt>
      <trkpt lat="43.17139" lon="3.1616">
        <ele>66</ele>
        <time>2024-03-31T12:36:38.543Z</time>
      </trkpt>
      <trkpt lat="43.17138" lon="3.16163">
        <ele>66</ele>
        <time>2024-03-31T12:36:43.543Z</time>
      </trkpt>
      <trkpt lat="43.17138" lon="3.16163">
        <ele>66</ele>
        <time>2024-03-31T12:36:48.543Z</time>
      </trkpt>
      <trkpt lat="43.17139" lon="3.16164">
        <ele>66</ele>
        <time>2024-03-31T12:37:25.543Z</time>
      </trkpt>
      <trkpt lat="43.17142" lon="3.16168">
        <ele>66</ele>
        <time>2024-03-31T12:37:29.543Z</time>
      </trkpt>
      <trkpt lat="43.17145" lon="3.16174">
        <ele>66</ele>
        <time>2024-03-31T12:37:34.543Z</time>
      </trkpt>
      <trkpt lat="43.17155" lon="3.16184">
        <ele>60</ele>
        <time>2024-03-31T12:38:02.543Z</time>
      </trkpt>
      <trkpt lat="43.17158" lon="3.1618">
        <ele>64</ele>
        <time>2024-03-31T12:38:15.543Z</time>
      </trkpt>
      <trkpt lat="43.17163" lon="3.16178">
        <ele>64</ele>
        <time>2024-03-31T12:38:20.543Z</time>
      </trkpt>
      <trkpt lat="43.17168" lon="3.16176">
        <ele>64</ele>
        <time>2024-03-31T12:38:25.543Z</time>
      </trkpt>
      <trkpt lat="43.17171" lon="3.16175">
        <ele>64</ele>
        <time>2024-03-31T12:38:30.543Z</time>
      </trkpt>
      <trkpt lat="43.17175" lon="3.16174">
        <ele>64</ele>
        <time>2024-03-31T12:38:34.543Z</time>
      </trkpt>
      <trkpt lat="43.1718" lon="3.16172">
        <ele>64</ele>
        <time>2024-03-31T12:38:39.543Z</time>
      </trkpt>
      <trkpt lat="43.17185" lon="3.16171">
        <ele>57</ele>
        <time>2024-03-31T12:38:44.543Z</time>
      </trkpt>
      <trkpt lat="43.1719" lon="3.16169">
        <ele>57</ele>
        <time>2024-03-31T12:38:49.543Z</time>
      </trkpt>
      <trkpt lat="43.17195" lon="3.16168">
        <ele>57</ele>
        <time>2024-03-31T12:38:54.543Z</time>
      </trkpt>
      <trkpt lat="43.17198" lon="3.16168">
        <ele>57</ele>
        <time>2024-03-31T12:38:59.543Z</time>
      </trkpt>
      <trkpt lat="43.17203" lon="3.16167">
        <ele>57</ele>
        <time>2024-03-31T12:39:04.543Z</time>
      </trkpt>
      <trkpt lat="43.17207" lon="3.16167">
        <ele>57</ele>
        <time>2024-03-31T12:39:09.543Z</time>
      </trkpt>
      <trkpt lat="43.17211" lon="3.16165">
        <ele>54</ele>
        <time>2024-03-31T12:39:13.543Z</time>
      </trkpt>
      <trkpt lat="43.17216" lon="3.16164">
        <ele>54</ele>
        <time>2024-03-31T12:39:18.543Z</time>
      </trkpt>
      <trkpt lat="43.1722" lon="3.16164">
        <ele>54</ele>
        <time>2024-03-31T12:39:23.543Z</time>
      </trkpt>
      <trkpt lat="43.17222" lon="3.16163">
        <ele>54</ele>
        <time>2024-03-31T12:39:27.543Z</time>
      </trkpt>
      <trkpt lat="43.17225" lon="3.16162">
        <ele>54</ele>
        <time>2024-03-31T12:39:31.543Z</time>
      </trkpt>
      <trkpt lat="43.17229" lon="3.1616">
        <ele>54</ele>
        <time>2024-03-31T12:39:36.543Z</time>
      </trkpt>
      <trkpt lat="43.17235" lon="3.16157">
        <ele>54</ele>
        <time>2024-03-31T12:39:41.543Z</time>
      </trkpt>
      <trkpt lat="43.17241" lon="3.16154">
        <ele>53</ele>
        <time>2024-03-31T12:39:45.543Z</time>
      </trkpt>
      <trkpt lat="43.1725" lon="3.16152">
        <ele>57</ele>
        <time>2024-03-31T12:39:50.543Z</time>
      </trkpt>
      <trkpt lat="43.17256" lon="3.16152">
        <ele>57</ele>
        <time>2024-03-31T12:39:55.543Z</time>
      </trkpt>
      <trkpt lat="43.17263" lon="3.16152">
        <ele>57</ele>
        <time>2024-03-31T12:40:00.543Z</time>
      </trkpt>
      <trkpt lat="43.1727" lon="3.1615">
        <ele>51</ele>
        <time>2024-03-31T12:40:05.543Z</time>
      </trkpt>
      <trkpt lat="43.17276" lon="3.16149">
        <ele>51</ele>
        <time>2024-03-31T12:40:10.543Z</time>
      </trkpt>
      <trkpt lat="43.17281" lon="3.1615">
        <ele>51</ele>
        <time>2024-03-31T12:40:15.543Z</time>
      </trkpt>
      <trkpt lat="43.17286" lon="3.16151">
        <ele>51</ele>
        <time>2024-03-31T12:40:20.543Z</time>
      </trkpt>
      <trkpt lat="43.17292" lon="3.16148">
        <ele>48</ele>
        <time>2024-03-31T12:40:25.543Z</time>
      </trkpt>
      <trkpt lat="43.17297" lon="3.16146">
        <ele>48</ele>
        <time>2024-03-31T12:40:29.543Z</time>
      </trkpt>
      <trkpt lat="43.17301" lon="3.16143">
        <ele>48</ele>
        <time>2024-03-31T12:40:34.543Z</time>
      </trkpt>
      <trkpt lat="43.17305" lon="3.16139">
        <ele>48</ele>
        <time>2024-03-31T12:40:39.543Z</time>
      </trkpt>
      <trkpt lat="43.17309" lon="3.16133">
        <ele>48</ele>
        <time>2024-03-31T12:40:44.543Z</time>
      </trkpt>
      <trkpt lat="43.17312" lon="3.16128">
        <ele>48</ele>
        <time>2024-03-31T12:40:49.543Z</time>
      </trkpt>
      <trkpt lat="43.17316" lon="3.16122">
        <ele>51</ele>
        <time>2024-03-31T12:40:54.543Z</time>
      </trkpt>
      <trkpt lat="43.1732" lon="3.16118">
        <ele>51</ele>
        <time>2024-03-31T12:40:58.543Z</time>
      </trkpt>
      <trkpt lat="43.17324" lon="3.16112">
        <ele>51</ele>
        <time>2024-03-31T12:41:03.543Z</time>
      </trkpt>
      <trkpt lat="43.17329" lon="3.16106">
        <ele>51</ele>
        <time>2024-03-31T12:41:08.543Z</time>
      </trkpt>
      <trkpt lat="43.17335" lon="3.16107">
        <ele>51</ele>
        <time>2024-03-31T12:41:13.543Z</time>
      </trkpt>
      <trkpt lat="43.17338" lon="3.16111">
        <ele>51</ele>
        <time>2024-03-31T12:41:17.543Z</time>
      </trkpt>
      <trkpt lat="43.1734" lon="3.1612">
        <ele>51</ele>
        <time>2024-03-31T12:41:22.544Z</time>
      </trkpt>
      <trkpt lat="43.17341" lon="3.16126">
        <ele>48</ele>
        <time>2024-03-31T12:41:26.544Z</time>
      </trkpt>
      <trkpt lat="43.17344" lon="3.16132">
        <ele>48</ele>
        <time>2024-03-31T12:41:31.544Z</time>
      </trkpt>
      <trkpt lat="43.17347" lon="3.16136">
        <ele>48</ele>
        <time>2024-03-31T12:41:36.544Z</time>
      </trkpt>
      <trkpt lat="43.17351" lon="3.16139">
        <ele>50</ele>
        <time>2024-03-31T12:41:41.544Z</time>
      </trkpt>
      <trkpt lat="43.17353" lon="3.16143">
        <ele>50</ele>
        <time>2024-03-31T12:41:46.544Z</time>
      </trkpt>
      <trkpt lat="43.17356" lon="3.16145">
        <ele>50</ele>
        <time>2024-03-31T12:41:50.544Z</time>
      </trkpt>
      <trkpt lat="43.17361" lon="3.16147">
        <ele>50</ele>
        <time>2024-03-31T12:41:55.544Z</time>
      </trkpt>
      <trkpt lat="43.17365" lon="3.16151">
        <ele>50</ele>
        <time>2024-03-31T12:42:00.544Z</time>
      </trkpt>
      <trkpt lat="43.17369" lon="3.16151">
        <ele>50</ele>
        <time>2024-03-31T12:42:04.544Z</time>
      </trkpt>
      <trkpt lat="43.17374" lon="3.16148">
        <ele>50</ele>
        <time>2024-03-31T12:42:09.544Z</time>
      </trkpt>
      <trkpt lat="43.17379" lon="3.16147">
        <ele>52</ele>
        <time>2024-03-31T12:42:14.544Z</time>
      </trkpt>
      <trkpt lat="43.17384" lon="3.16146">
        <ele>52</ele>
        <time>2024-03-31T12:42:18.544Z</time>
      </trkpt>
      <trkpt lat="43.17391" lon="3.16146">
        <ele>52</ele>
        <time>2024-03-31T12:42:23.544Z</time>
      </trkpt>
      <trkpt lat="43.17397" lon="3.16149">
        <ele>52</ele>
        <time>2024-03-31T12:42:28.544Z</time>
      </trkpt>
      <trkpt lat="43.17402" lon="3.16152">
        <ele>52</ele>
        <time>2024-03-31T12:42:33.544Z</time>
      </trkpt>
      <trkpt lat="43.17407" lon="3.16155">
        <ele>46</ele>
        <time>2024-03-31T12:42:38.544Z</time>
      </trkpt>
      <trkpt lat="43.17413" lon="3.16159">
        <ele>46</ele>
        <time>2024-03-31T12:42:43.544Z</time>
      </trkpt>
      <trkpt lat="43.17418" lon="3.16162">
        <ele>46</ele>
        <time>2024-03-31T12:42:48.544Z</time>
      </trkpt>
      <trkpt lat="43.17422" lon="3.16166">
        <ele>46</ele>
        <time>2024-03-31T12:42:53.544Z</time>
      </trkpt>
      <trkpt lat="43.17427" lon="3.16169">
        <ele>46</ele>
        <time>2024-03-31T12:42:58.544Z</time>
      </trkpt>
      <trkpt lat="43.17433" lon="3.16169">
        <ele>45</ele>
        <time>2024-03-31T12:43:03.544Z</time>
      </trkpt>
      <trkpt lat="43.17439" lon="3.1617">
        <ele>45</ele>
        <time>2024-03-31T12:43:08.544Z</time>
      </trkpt>
      <trkpt lat="43.17444" lon="3.16171">
        <ele>45</ele>
        <time>2024-03-31T12:43:13.544Z</time>
      </trkpt>
      <trkpt lat="43.17449" lon="3.16172">
        <ele>45</ele>
        <time>2024-03-31T12:43:17.544Z</time>
      </trkpt>
      <trkpt lat="43.17454" lon="3.16174">
        <ele>45</ele>
        <time>2024-03-31T12:43:21.544Z</time>
      </trkpt>
      <trkpt lat="43.17459" lon="3.16176">
        <ele>48</ele>
        <time>2024-03-31T12:43:26.544Z</time>
      </trkpt>
      <trkpt lat="43.17466" lon="3.16177">
        <ele>48</ele>
        <time>2024-03-31T12:43:31.544Z</time>
      </trkpt>
      <trkpt lat="43.17471" lon="3.16177">
        <ele>48</ele>
        <time>2024-03-31T12:43:36.544Z</time>
      </trkpt>
      <trkpt lat="43.17477" lon="3.16178">
        <ele>48</ele>
        <time>2024-03-31T12:43:41.544Z</time>
      </trkpt>
      <trkpt lat="43.17481" lon="3.16178">
        <ele>48</ele>
        <time>2024-03-31T12:43:45.544Z</time>
      </trkpt>
      <trkpt lat="43.17485" lon="3.16179">
        <ele>48</ele>
        <time>2024-03-31T12:43:49.544Z</time>
      </trkpt>
      <trkpt lat="43.17491" lon="3.16178">
        <ele>49</ele>
        <time>2024-03-31T12:43:54.544Z</time>
      </trkpt>
      <trkpt lat="43.17496" lon="3.16177">
        <ele>49</ele>
        <time>2024-03-31T12:43:59.544Z</time>
      </trkpt>
      <trkpt lat="43.17501" lon="3.16177">
        <ele>49</ele>
        <time>2024-03-31T12:44:03.544Z</time>
      </trkpt>
      <trkpt lat="43.17507" lon="3.16175">
        <ele>49</ele>
        <time>2024-03-31T12:44:08.544Z</time>
      </trkpt>
      <trkpt lat="43.17511" lon="3.16173">
        <ele>49</ele>
        <time>2024-03-31T12:44:12.544Z</time>
      </trkpt>
      <trkpt lat="43.17516" lon="3.16173">
        <ele>49</ele>
        <time>2024-03-31T12:44:17.544Z</time>
      </trkpt>
      <trkpt lat="43.17521" lon="3.16173">
        <ele>49</ele>
        <time>2024-03-31T12:44:21.544Z</time>
      </trkpt>
      <trkpt lat="43.17526" lon="3.16172">
        <ele>49</ele>
        <time>2024-03-31T12:44:26.544Z</time>
      </trkpt>
      <trkpt lat="43.17532" lon="3.1617">
        <ele>49</ele>
        <time>2024-03-31T12:44:31.544Z</time>
      </trkpt>
      <trkpt lat="43.17537" lon="3.16168">
        <ele>49</ele>
        <time>2024-03-31T12:44:36.544Z</time>
      </trkpt>
      <trkpt lat="43.17543" lon="3.16166">
        <ele>50</ele>
        <time>2024-03-31T12:44:41.544Z</time>
      </trkpt>
      <trkpt lat="43.17548" lon="3.16165">
        <ele>50</ele>
        <time>2024-03-31T12:44:46.544Z</time>
      </trkpt>
      <trkpt lat="43.17554" lon="3.16162">
        <ele>50</ele>
        <time>2024-03-31T12:44:51.544Z</time>
      </trkpt>
      <trkpt lat="43.17561" lon="3.1616">
        <ele>50</ele>
        <time>2024-03-31T12:45:04.544Z</time>
      </trkpt>
      <trkpt lat="43.17561" lon="3.1616">
        <ele>50</ele>
        <time>2024-03-31T12:45:09.544Z</time>
      </trkpt>
      <trkpt lat="43.17564" lon="3.16158">
        <ele>50</ele>
        <time>2024-03-31T12:45:18.544Z</time>
      </trkpt>
      <trkpt lat="43.17568" lon="3.16156">
        <ele>50</ele>
        <time>2024-03-31T12:45:22.544Z</time>
      </trkpt>
      <trkpt lat="43.17575" lon="3.16154">
        <ele>50</ele>
        <time>2024-03-31T12:45:27.544Z</time>
      </trkpt>
      <trkpt lat="43.1758" lon="3.16152">
        <ele>52</ele>
        <time>2024-03-31T12:45:32.544Z</time>
      </trkpt>
      <trkpt lat="43.17585" lon="3.16149">
        <ele>52</ele>
        <time>2024-03-31T12:45:37.544Z</time>
      </trkpt>
      <trkpt lat="43.17589" lon="3.16147">
        <ele>52</ele>
        <time>2024-03-31T12:45:42.544Z</time>
      </trkpt>
      <trkpt lat="43.17594" lon="3.16145">
        <ele>52</ele>
        <time>2024-03-31T12:45:47.544Z</time>
      </trkpt>
      <trkpt lat="43.17599" lon="3.16143">
        <ele>54</ele>
        <time>2024-03-31T12:45:52.544Z</time>
      </trkpt>
      <trkpt lat="43.17604" lon="3.16142">
        <ele>54</ele>
        <time>2024-03-31T12:45:56.544Z</time>
      </trkpt>
      <trkpt lat="43.17609" lon="3.16139">
        <ele>54</ele>
        <time>2024-03-31T12:46:01.544Z</time>
      </trkpt>
      <trkpt lat="43.17614" lon="3.16137">
        <ele>54</ele>
        <time>2024-03-31T12:46:06.544Z</time>
      </trkpt>
      <trkpt lat="43.17619" lon="3.16136">
        <ele>54</ele>
        <time>2024-03-31T12:46:11.544Z</time>
      </trkpt>
      <trkpt lat="43.17624" lon="3.16134">
        <ele>54</ele>
        <time>2024-03-31T12:46:15.544Z</time>
      </trkpt>
      <trkpt lat="43.17628" lon="3.16132">
        <ele>58</ele>
        <time>2024-03-31T12:46:19.544Z</time>
      </trkpt>
      <trkpt lat="43.17633" lon="3.1613">
        <ele>58</ele>
        <time>2024-03-31T12:46:24.544Z</time>
      </trkpt>
      <trkpt lat="43.17638" lon="3.16129">
        <ele>58</ele>
        <time>2024-03-31T12:46:29.544Z</time>
      </trkpt>
      <trkpt lat="43.17644" lon="3.16127">
        <ele>58</ele>
        <time>2024-03-31T12:46:34.544Z</time>
      </trkpt>
      <trkpt lat="43.17648" lon="3.16125">
        <ele>58</ele>
        <time>2024-03-31T12:46:38.544Z</time>
      </trkpt>
      <trkpt lat="43.17653" lon="3.16123">
        <ele>58</ele>
        <time>2024-03-31T12:46:43.544Z</time>
      </trkpt>
      <trkpt lat="43.17658" lon="3.16121">
        <ele>58</ele>
        <time>2024-03-31T12:46:48.544Z</time>
      </trkpt>
      <trkpt lat="43.17664" lon="3.16119">
        <ele>58</ele>
        <time>2024-03-31T12:46:53.544Z</time>
      </trkpt>
      <trkpt lat="43.17669" lon="3.16118">
        <ele>58</ele>
        <time>2024-03-31T12:46:58.544Z</time>
      </trkpt>
      <trkpt lat="43.17675" lon="3.16117">
        <ele>58</ele>
        <time>2024-03-31T12:47:03.544Z</time>
      </trkpt>
      <trkpt lat="43.1768" lon="3.16117">
        <ele>58</ele>
        <time>2024-03-31T12:47:08.544Z</time>
      </trkpt>
      <trkpt lat="43.17686" lon="3.16117">
        <ele>57</ele>
        <time>2024-03-31T12:47:13.544Z</time>
      </trkpt>
      <trkpt lat="43.17691" lon="3.16116">
        <ele>57</ele>
        <time>2024-03-31T12:47:18.544Z</time>
      </trkpt>
      <trkpt lat="43.17696" lon="3.16117">
        <ele>57</ele>
        <time>2024-03-31T12:47:23.544Z</time>
      </trkpt>
      <trkpt lat="43.17701" lon="3.16119">
        <ele>57</ele>
        <time>2024-03-31T12:47:28.544Z</time>
      </trkpt>
      <trkpt lat="43.17705" lon="3.16121">
        <ele>57</ele>
        <time>2024-03-31T12:47:33.544Z</time>
      </trkpt>
      <trkpt lat="43.17711" lon="3.16123">
        <ele>56</ele>
        <time>2024-03-31T12:47:38.544Z</time>
      </trkpt>
      <trkpt lat="43.17715" lon="3.16125">
        <ele>56</ele>
        <time>2024-03-31T12:47:43.544Z</time>
      </trkpt>
      <trkpt lat="43.17719" lon="3.16128">
        <ele>58</ele>
        <time>2024-03-31T12:47:48.544Z</time>
      </trkpt>
      <trkpt lat="43.17724" lon="3.16131">
        <ele>58</ele>
        <time>2024-03-31T12:47:53.544Z</time>
      </trkpt>
      <trkpt lat="43.1773" lon="3.16134">
        <ele>58</ele>
        <time>2024-03-31T12:47:58.544Z</time>
      </trkpt>
      <trkpt lat="43.17733" lon="3.16135">
        <ele>58</ele>
        <time>2024-03-31T12:48:03.544Z</time>
      </trkpt>
      <trkpt lat="43.17735" lon="3.16136">
        <ele>58</ele>
        <time>2024-03-31T12:48:25.544Z</time>
      </trkpt>
      <trkpt lat="43.17737" lon="3.16136">
        <ele>55</ele>
        <time>2024-03-31T12:48:30.544Z</time>
      </trkpt>
      <trkpt lat="43.17738" lon="3.16136">
        <ele>55</ele>
        <time>2024-03-31T12:48:35.544Z</time>
      </trkpt>
      <trkpt lat="43.17739" lon="3.16135">
        <ele>55</ele>
        <time>2024-03-31T12:48:40.544Z</time>
      </trkpt>
      <trkpt lat="43.17741" lon="3.16137">
        <ele>55</ele>
        <time>2024-03-31T12:48:45.544Z</time>
      </trkpt>
      <trkpt lat="43.17745" lon="3.1614">
        <ele>55</ele>
        <time>2024-03-31T12:48:49.544Z</time>
      </trkpt>
      <trkpt lat="43.17749" lon="3.16142">
        <ele>55</ele>
        <time>2024-03-31T12:48:53.544Z</time>
      </trkpt>
      <trkpt lat="43.17754" lon="3.16146">
        <ele>55</ele>
        <time>2024-03-31T12:48:58.544Z</time>
      </trkpt>
      <trkpt lat="43.17758" lon="3.1615">
        <ele>55</ele>
        <time>2024-03-31T12:49:03.544Z</time>
      </trkpt>
      <trkpt lat="43.17761" lon="3.16152">
        <ele>55</ele>
        <time>2024-03-31T12:49:07.544Z</time>
      </trkpt>
      <trkpt lat="43.17764" lon="3.16155">
        <ele>51</ele>
        <time>2024-03-31T12:49:12.544Z</time>
      </trkpt>
      <trkpt lat="43.17764" lon="3.16155">
        <ele>51</ele>
        <time>2024-03-31T12:49:16.545Z</time>
      </trkpt>
      <trkpt lat="43.17768" lon="3.16158">
        <ele>51</ele>
        <time>2024-03-31T12:49:21.545Z</time>
      </trkpt>
      <trkpt lat="43.17771" lon="3.16161">
        <ele>51</ele>
        <time>2024-03-31T12:49:25.545Z</time>
      </trkpt>
      <trkpt lat="43.17777" lon="3.16165">
        <ele>51</ele>
        <time>2024-03-31T12:49:30.545Z</time>
      </trkpt>
      <trkpt lat="43.17781" lon="3.1617">
        <ele>51</ele>
        <time>2024-03-31T12:49:35.545Z</time>
      </trkpt>
      <trkpt lat="43.17786" lon="3.16173">
        <ele>51</ele>
        <time>2024-03-31T12:49:40.545Z</time>
      </trkpt>
      <trkpt lat="43.17791" lon="3.16177">
        <ele>51</ele>
        <time>2024-03-31T12:49:45.545Z</time>
      </trkpt>
      <trkpt lat="43.17795" lon="3.16181">
        <ele>48</ele>
        <time>2024-03-31T12:49:50.545Z</time>
      </trkpt>
      <trkpt lat="43.17797" lon="3.16183">
        <ele>48</ele>
        <time>2024-03-31T12:49:54.545Z</time>
      </trkpt>
      <trkpt lat="43.17802" lon="3.16186">
        <ele>48</ele>
        <time>2024-03-31T12:49:59.545Z</time>
      </trkpt>
      <trkpt lat="43.17806" lon="3.16189">
        <ele>48</ele>
        <time>2024-03-31T12:50:04.545Z</time>
      </trkpt>
      <trkpt lat="43.1781" lon="3.16191">
        <ele>48</ele>
        <time>2024-03-31T12:50:08.545Z</time>
      </trkpt>
      <trkpt lat="43.17813" lon="3.16192">
        <ele>48</ele>
        <time>2024-03-31T12:50:13.545Z</time>
      </trkpt>
      <trkpt lat="43.17818" lon="3.16194">
        <ele>48</ele>
        <time>2024-03-31T12:50:18.545Z</time>
      </trkpt>
      <trkpt lat="43.17821" lon="3.16195">
        <ele>48</ele>
        <time>2024-03-31T12:50:22.545Z</time>
      </trkpt>
      <trkpt lat="43.17822" lon="3.16197">
        <ele>48</ele>
        <time>2024-03-31T12:50:26.545Z</time>
      </trkpt>
      <trkpt lat="43.17828" lon="3.16197">
        <ele>48</ele>
        <time>2024-03-31T12:50:31.545Z</time>
      </trkpt>
      <trkpt lat="43.17833" lon="3.16201">
        <ele>48</ele>
        <time>2024-03-31T12:50:36.545Z</time>
      </trkpt>
      <trkpt lat="43.17838" lon="3.16202">
        <ele>48</ele>
        <time>2024-03-31T12:50:41.545Z</time>
      </trkpt>
      <trkpt lat="43.17844" lon="3.16202">
        <ele>48</ele>
        <time>2024-03-31T12:50:46.545Z</time>
      </trkpt>
      <trkpt lat="43.17849" lon="3.16202">
        <ele>46</ele>
        <time>2024-03-31T12:50:51.545Z</time>
      </trkpt>
      <trkpt lat="43.17856" lon="3.16203">
        <ele>46</ele>
        <time>2024-03-31T12:50:56.545Z</time>
      </trkpt>
      <trkpt lat="43.1786" lon="3.16205">
        <ele>46</ele>
        <time>2024-03-31T12:51:01.545Z</time>
      </trkpt>
      <trkpt lat="43.17864" lon="3.16206">
        <ele>46</ele>
        <time>2024-03-31T12:51:06.545Z</time>
      </trkpt>
      <trkpt lat="43.17869" lon="3.16205">
        <ele>46</ele>
        <time>2024-03-31T12:51:11.545Z</time>
      </trkpt>
      <trkpt lat="43.17875" lon="3.16205">
        <ele>46</ele>
        <time>2024-03-31T12:51:16.545Z</time>
      </trkpt>
      <trkpt lat="43.17879" lon="3.1621">
        <ele>45</ele>
        <time>2024-03-31T12:51:21.545Z</time>
      </trkpt>
      <trkpt lat="43.17884" lon="3.16213">
        <ele>45</ele>
        <time>2024-03-31T12:51:26.545Z</time>
      </trkpt>
      <trkpt lat="43.17888" lon="3.16216">
        <ele>45</ele>
        <time>2024-03-31T12:51:31.545Z</time>
      </trkpt>
      <trkpt lat="43.17893" lon="3.16219">
        <ele>45</ele>
        <time>2024-03-31T12:51:36.545Z</time>
      </trkpt>
      <trkpt lat="43.17897" lon="3.16221">
        <ele>45</ele>
        <time>2024-03-31T12:51:41.545Z</time>
      </trkpt>
      <trkpt lat="43.17901" lon="3.16226">
        <ele>45</ele>
        <time>2024-03-31T12:51:46.545Z</time>
      </trkpt>
      <trkpt lat="43.17906" lon="3.16229">
        <ele>51</ele>
        <time>2024-03-31T12:51:51.545Z</time>
      </trkpt>
      <trkpt lat="43.17911" lon="3.16232">
        <ele>51</ele>
        <time>2024-03-31T12:51:56.545Z</time>
      </trkpt>
      <trkpt lat="43.17914" lon="3.16236">
        <ele>51</ele>
        <time>2024-03-31T12:52:00.545Z</time>
      </trkpt>
      <trkpt lat="43.17919" lon="3.16238">
        <ele>47</ele>
        <time>2024-03-31T12:52:05.545Z</time>
      </trkpt>
      <trkpt lat="43.17923" lon="3.16243">
        <ele>47</ele>
        <time>2024-03-31T12:52:10.545Z</time>
      </trkpt>
      <trkpt lat="43.17928" lon="3.16246">
        <ele>47</ele>
        <time>2024-03-31T12:52:15.545Z</time>
      </trkpt>
      <trkpt lat="43.17933" lon="3.16249">
        <ele>53</ele>
        <time>2024-03-31T12:52:20.545Z</time>
      </trkpt>
      <trkpt lat="43.17939" lon="3.1625">
        <ele>53</ele>
        <time>2024-03-31T12:52:25.545Z</time>
      </trkpt>
      <trkpt lat="43.17944" lon="3.16252">
        <ele>53</ele>
        <time>2024-03-31T12:52:30.545Z</time>
      </trkpt>
      <trkpt lat="43.17949" lon="3.16254">
        <ele>53</ele>
        <time>2024-03-31T12:52:35.545Z</time>
      </trkpt>
      <trkpt lat="43.17951" lon="3.16257">
        <ele>53</ele>
        <time>2024-03-31T12:52:39.545Z</time>
      </trkpt>
      <trkpt lat="43.17956" lon="3.16262">
        <ele>53</ele>
        <time>2024-03-31T12:52:44.545Z</time>
      </trkpt>
      <trkpt lat="43.17961" lon="3.16265">
        <ele>51</ele>
        <time>2024-03-31T12:52:49.545Z</time>
      </trkpt>
      <trkpt lat="43.17968" lon="3.16268">
        <ele>51</ele>
        <time>2024-03-31T12:52:54.545Z</time>
      </trkpt>
      <trkpt lat="43.17973" lon="3.16271">
        <ele>51</ele>
        <time>2024-03-31T12:52:59.545Z</time>
      </trkpt>
      <trkpt lat="43.17979" lon="3.16275">
        <ele>51</ele>
        <time>2024-03-31T12:53:04.545Z</time>
      </trkpt>
      <trkpt lat="43.17983" lon="3.16279">
        <ele>51</ele>
        <time>2024-03-31T12:53:09.545Z</time>
      </trkpt>
      <trkpt lat="43.17987" lon="3.16281">
        <ele>54</ele>
        <time>2024-03-31T12:53:13.545Z</time>
      </trkpt>
      <trkpt lat="43.17992" lon="3.16284">
        <ele>54</ele>
        <time>2024-03-31T12:53:18.545Z</time>
      </trkpt>
      <trkpt lat="43.17997" lon="3.16287">
        <ele>54</ele>
        <time>2024-03-31T12:53:23.545Z</time>
      </trkpt>
      <trkpt lat="43.18002" lon="3.16291">
        <ele>54</ele>
        <time>2024-03-31T12:53:28.545Z</time>
      </trkpt>
      <trkpt lat="43.18005" lon="3.16292">
        <ele>49</ele>
        <time>2024-03-31T12:53:32.545Z</time>
      </trkpt>
      <trkpt lat="43.1801" lon="3.16295">
        <ele>49</ele>
        <time>2024-03-31T12:53:37.545Z</time>
      </trkpt>
      <trkpt lat="43.18014" lon="3.16299">
        <ele>53</ele>
        <time>2024-03-31T12:53:42.545Z</time>
      </trkpt>
      <trkpt lat="43.18018" lon="3.16302">
        <ele>53</ele>
        <time>2024-03-31T12:53:47.545Z</time>
      </trkpt>
      <trkpt lat="43.18022" lon="3.16307">
        <ele>53</ele>
        <time>2024-03-31T12:53:52.545Z</time>
      </trkpt>
      <trkpt lat="43.18026" lon="3.16312">
        <ele>53</ele>
        <time>2024-03-31T12:53:57.545Z</time>
      </trkpt>
      <trkpt lat="43.1803" lon="3.16316">
        <ele>53</ele>
        <time>2024-03-31T12:54:02.545Z</time>
      </trkpt>
      <trkpt lat="43.18036" lon="3.1632">
        <ele>48</ele>
        <time>2024-03-31T12:54:07.545Z</time>
      </trkpt>
      <trkpt lat="43.18039" lon="3.16323">
        <ele>48</ele>
        <time>2024-03-31T12:54:11.545Z</time>
      </trkpt>
      <trkpt lat="43.18043" lon="3.16327">
        <ele>53</ele>
        <time>2024-03-31T12:54:16.545Z</time>
      </trkpt>
      <trkpt lat="43.18047" lon="3.16331">
        <ele>53</ele>
        <time>2024-03-31T12:54:21.545Z</time>
      </trkpt>
      <trkpt lat="43.18052" lon="3.16334">
        <ele>53</ele>
        <time>2024-03-31T12:54:26.545Z</time>
      </trkpt>
      <trkpt lat="43.18058" lon="3.16338">
        <ele>53</ele>
        <time>2024-03-31T12:54:31.545Z</time>
      </trkpt>
      <trkpt lat="43.18063" lon="3.16342">
        <ele>53</ele>
        <time>2024-03-31T12:54:36.545Z</time>
      </trkpt>
      <trkpt lat="43.18068" lon="3.16347">
        <ele>53</ele>
        <time>2024-03-31T12:54:41.545Z</time>
      </trkpt>
      <trkpt lat="43.18072" lon="3.16351">
        <ele>56</ele>
        <time>2024-03-31T12:54:46.545Z</time>
      </trkpt>
      <trkpt lat="43.18075" lon="3.16355">
        <ele>56</ele>
        <time>2024-03-31T12:54:50.545Z</time>
      </trkpt>
      <trkpt lat="43.18078" lon="3.1636">
        <ele>56</ele>
        <time>2024-03-31T12:54:55.545Z</time>
      </trkpt>
      <trkpt lat="43.18082" lon="3.16365">
        <ele>56</ele>
        <time>2024-03-31T12:55:00.545Z</time>
      </trkpt>
      <trkpt lat="43.18085" lon="3.16368">
        <ele>56</ele>
        <time>2024-03-31T12:55:04.545Z</time>
      </trkpt>
      <trkpt lat="43.18087" lon="3.16372">
        <ele>56</ele>
        <time>2024-03-31T12:55:08.545Z</time>
      </trkpt>
      <trkpt lat="43.18091" lon="3.16379">
        <ele>53</ele>
        <time>2024-03-31T12:55:13.545Z</time>
      </trkpt>
      <trkpt lat="43.18093" lon="3.16384">
        <ele>53</ele>
        <time>2024-03-31T12:55:17.545Z</time>
      </trkpt>
      <trkpt lat="43.18096" lon="3.16392">
        <ele>53</ele>
        <time>2024-03-31T12:55:22.545Z</time>
      </trkpt>
      <trkpt lat="43.18097" lon="3.16398">
        <ele>53</ele>
        <time>2024-03-31T12:55:26.545Z</time>
      </trkpt>
      <trkpt lat="43.18098" lon="3.16403">
        <ele>52</ele>
        <time>2024-03-31T12:55:31.545Z</time>
      </trkpt>
      <trkpt lat="43.18099" lon="3.16408">
        <ele>52</ele>
        <time>2024-03-31T12:55:35.545Z</time>
      </trkpt>
      <trkpt lat="43.181" lon="3.16417">
        <ele>52</ele>
        <time>2024-03-31T12:55:40.545Z</time>
      </trkpt>
      <trkpt lat="43.18102" lon="3.16424">
        <ele>52</ele>
        <time>2024-03-31T12:55:45.545Z</time>
      </trkpt>
      <trkpt lat="43.18103" lon="3.16431">
        <ele>51</ele>
        <time>2024-03-31T12:55:50.545Z</time>
      </trkpt>
      <trkpt lat="43.18105" lon="3.16438">
        <ele>51</ele>
        <time>2024-03-31T12:55:55.545Z</time>
      </trkpt>
      <trkpt lat="43.18106" lon="3.16445">
        <ele>51</ele>
        <time>2024-03-31T12:55:59.545Z</time>
      </trkpt>
      <trkpt lat="43.18107" lon="3.16452">
        <ele>51</ele>
        <time>2024-03-31T12:56:04.545Z</time>
      </trkpt>
      <trkpt lat="43.1811" lon="3.16458">
        <ele>51</ele>
        <time>2024-03-31T12:56:09.545Z</time>
      </trkpt>
      <trkpt lat="43.18113" lon="3.16465">
        <ele>51</ele>
        <time>2024-03-31T12:56:14.545Z</time>
      </trkpt>
      <trkpt lat="43.18115" lon="3.16473">
        <ele>51</ele>
        <time>2024-03-31T12:56:19.545Z</time>
      </trkpt>
      <trkpt lat="43.18118" lon="3.16479">
        <ele>51</ele>
        <time>2024-03-31T12:56:24.545Z</time>
      </trkpt>
      <trkpt lat="43.18121" lon="3.16486">
        <ele>51</ele>
        <time>2024-03-31T12:56:29.545Z</time>
      </trkpt>
      <trkpt lat="43.18124" lon="3.16492">
        <ele>50</ele>
        <time>2024-03-31T12:56:34.545Z</time>
      </trkpt>
      <trkpt lat="43.18127" lon="3.16497">
        <ele>51</ele>
        <time>2024-03-31T12:56:39.545Z</time>
      </trkpt>
      <trkpt lat="43.1813" lon="3.16502">
        <ele>51</ele>
        <time>2024-03-31T12:56:44.545Z</time>
      </trkpt>
      <trkpt lat="43.18134" lon="3.16509">
        <ele>51</ele>
        <time>2024-03-31T12:56:49.545Z</time>
      </trkpt>
      <trkpt lat="43.18138" lon="3.16514">
        <ele>51</ele>
        <time>2024-03-31T12:56:54.545Z</time>
      </trkpt>
      <trkpt lat="43.18141" lon="3.16519">
        <ele>51</ele>
        <time>2024-03-31T12:56:59.545Z</time>
      </trkpt>
      <trkpt lat="43.18145" lon="3.16525">
        <ele>51</ele>
        <time>2024-03-31T12:57:04.545Z</time>
      </trkpt>
      <trkpt lat="43.18148" lon="3.16531">
        <ele>51</ele>
        <time>2024-03-31T12:57:09.545Z</time>
      </trkpt>
      <trkpt lat="43.18151" lon="3.16537">
        <ele>51</ele>
        <time>2024-03-31T12:57:14.545Z</time>
      </trkpt>
      <trkpt lat="43.18154" lon="3.16543">
        <ele>52</ele>
        <time>2024-03-31T12:57:19.545Z</time>
      </trkpt>
      <trkpt lat="43.18158" lon="3.16551">
        <ele>52</ele>
        <time>2024-03-31T12:57:24.545Z</time>
      </trkpt>
      <trkpt lat="43.1816" lon="3.16557">
        <ele>52</ele>
        <time>2024-03-31T12:57:28.545Z</time>
      </trkpt>
      <trkpt lat="43.18164" lon="3.16573">
        <ele>52</ele>
        <time>2024-03-31T12:57:51.546Z</time>
      </trkpt>
      <trkpt lat="43.18164" lon="3.16573">
        <ele>52</ele>
        <time>2024-03-31T12:57:56.546Z</time>
      </trkpt>
      <trkpt lat="43.18165" lon="3.16578">
        <ele>52</ele>
        <time>2024-03-31T12:58:01.546Z</time>
      </trkpt>
      <trkpt lat="43.18167" lon="3.16583">
        <ele>52</ele>
        <time>2024-03-31T12:58:05.546Z</time>
      </trkpt>
      <trkpt lat="43.18169" lon="3.1659">
        <ele>52</ele>
        <time>2024-03-31T12:58:10.546Z</time>
      </trkpt>
      <trkpt lat="43.18171" lon="3.16597">
        <ele>52</ele>
        <time>2024-03-31T12:58:15.546Z</time>
      </trkpt>
      <trkpt lat="43.18172" lon="3.16605">
        <ele>52</ele>
        <time>2024-03-31T12:58:20.546Z</time>
      </trkpt>
      <trkpt lat="43.18172" lon="3.1661">
        <ele>52</ele>
        <time>2024-03-31T12:58:24.546Z</time>
      </trkpt>
      <trkpt lat="43.18173" lon="3.16617">
        <ele>52</ele>
        <time>2024-03-31T12:58:29.546Z</time>
      </trkpt>
      <trkpt lat="43.18174" lon="3.16622">
        <ele>52</ele>
        <time>2024-03-31T12:58:34.546Z</time>
      </trkpt>
      <trkpt lat="43.18173" lon="3.16626">
        <ele>52</ele>
        <time>2024-03-31T12:58:38.546Z</time>
      </trkpt>
      <trkpt lat="43.18173" lon="3.16633">
        <ele>52</ele>
        <time>2024-03-31T12:58:42.546Z</time>
      </trkpt>
      <trkpt lat="43.18173" lon="3.16638">
        <ele>52</ele>
        <time>2024-03-31T12:58:47.546Z</time>
      </trkpt>
      <trkpt lat="43.18171" lon="3.16646">
        <ele>52</ele>
        <time>2024-03-31T12:58:52.546Z</time>
      </trkpt>
      <trkpt lat="43.1817" lon="3.16652">
        <ele>52</ele>
        <time>2024-03-31T12:58:56.546Z</time>
      </trkpt>
      <trkpt lat="43.18169" lon="3.16659">
        <ele>52</ele>
        <time>2024-03-31T12:59:01.546Z</time>
      </trkpt>
      <trkpt lat="43.18168" lon="3.16665">
        <ele>52</ele>
        <time>2024-03-31T12:59:06.546Z</time>
      </trkpt>
      <trkpt lat="43.18167" lon="3.16671">
        <ele>52</ele>
        <time>2024-03-31T12:59:11.546Z</time>
      </trkpt>
      <trkpt lat="43.18167" lon="3.16679">
        <ele>52</ele>
        <time>2024-03-31T12:59:16.546Z</time>
      </trkpt>
      <trkpt lat="43.18166" lon="3.16687">
        <ele>52</ele>
        <time>2024-03-31T12:59:21.546Z</time>
      </trkpt>
      <trkpt lat="43.18165" lon="3.16694">
        <ele>52</ele>
        <time>2024-03-31T12:59:26.546Z</time>
      </trkpt>
      <trkpt lat="43.18165" lon="3.167">
        <ele>52</ele>
        <time>2024-03-31T12:59:30.546Z</time>
      </trkpt>
      <trkpt lat="43.18164" lon="3.16707">
        <ele>52</ele>
        <time>2024-03-31T12:59:35.546Z</time>
      </trkpt>
      <trkpt lat="43.18164" lon="3.16714">
        <ele>52</ele>
        <time>2024-03-31T12:59:40.546Z</time>
      </trkpt>
      <trkpt lat="43.18163" lon="3.16722">
        <ele>52</ele>
        <time>2024-03-31T12:59:45.546Z</time>
      </trkpt>
      <trkpt lat="43.18162" lon="3.1673">
        <ele>52</ele>
        <time>2024-03-31T12:59:50.546Z</time>
      </trkpt>
      <trkpt lat="43.18161" lon="3.16737">
        <ele>53</ele>
        <time>2024-03-31T12:59:55.546Z</time>
      </trkpt>
      <trkpt lat="43.18161" lon="3.16744">
        <ele>53</ele>
        <time>2024-03-31T13:00:00.546Z</time>
      </trkpt>
      <trkpt lat="43.1816" lon="3.1675">
        <ele>53</ele>
        <time>2024-03-31T13:00:05.546Z</time>
      </trkpt>
      <trkpt lat="43.18159" lon="3.16755">
        <ele>53</ele>
        <time>2024-03-31T13:00:10.546Z</time>
      </trkpt>
      <trkpt lat="43.18158" lon="3.16764">
        <ele>53</ele>
        <time>2024-03-31T13:00:15.546Z</time>
      </trkpt>
      <trkpt lat="43.18156" lon="3.16772">
        <ele>54</ele>
        <time>2024-03-31T13:00:20.546Z</time>
      </trkpt>
      <trkpt lat="43.18155" lon="3.16778">
        <ele>54</ele>
        <time>2024-03-31T13:00:25.546Z</time>
      </trkpt>
      <trkpt lat="43.18154" lon="3.16786">
        <ele>54</ele>
        <time>2024-03-31T13:00:30.546Z</time>
      </trkpt>
      <trkpt lat="43.18155" lon="3.16794">
        <ele>55</ele>
        <time>2024-03-31T13:00:35.546Z</time>
      </trkpt>
      <trkpt lat="43.18154" lon="3.168">
        <ele>55</ele>
        <time>2024-03-31T13:00:39.546Z</time>
      </trkpt>
      <trkpt lat="43.18154" lon="3.16808">
        <ele>55</ele>
        <time>2024-03-31T13:00:44.546Z</time>
      </trkpt>
      <trkpt lat="43.18152" lon="3.16816">
        <ele>52</ele>
        <time>2024-03-31T13:00:49.546Z</time>
      </trkpt>
      <trkpt lat="43.18151" lon="3.16822">
        <ele>51</ele>
        <time>2024-03-31T13:00:54.546Z</time>
      </trkpt>
      <trkpt lat="43.1815" lon="3.16829">
        <ele>51</ele>
        <time>2024-03-31T13:00:59.546Z</time>
      </trkpt>
      <trkpt lat="43.18149" lon="3.16836">
        <ele>51</ele>
        <time>2024-03-31T13:01:04.546Z</time>
      </trkpt>
      <trkpt lat="43.18149" lon="3.16843">
        <ele>51</ele>
        <time>2024-03-31T13:01:09.546Z</time>
      </trkpt>
      <trkpt lat="43.18148" lon="3.16849">
        <ele>51</ele>
        <time>2024-03-31T13:01:14.546Z</time>
      </trkpt>
      <trkpt lat="43.18146" lon="3.16858">
        <ele>51</ele>
        <time>2024-03-31T13:01:19.546Z</time>
      </trkpt>
      <trkpt lat="43.18145" lon="3.16865">
        <ele>51</ele>
        <time>2024-03-31T13:01:24.546Z</time>
      </trkpt>
      <trkpt lat="43.18144" lon="3.16872">
        <ele>51</ele>
        <time>2024-03-31T13:01:29.546Z</time>
      </trkpt>
      <trkpt lat="43.18143" lon="3.16879">
        <ele>51</ele>
        <time>2024-03-31T13:01:34.546Z</time>
      </trkpt>
      <trkpt lat="43.18142" lon="3.16886">
        <ele>51</ele>
        <time>2024-03-31T13:01:39.546Z</time>
      </trkpt>
      <trkpt lat="43.1814" lon="3.16894">
        <ele>51</ele>
        <time>2024-03-31T13:01:44.546Z</time>
      </trkpt>
      <trkpt lat="43.18138" lon="3.169">
        <ele>51</ele>
        <time>2024-03-31T13:01:48.546Z</time>
      </trkpt>
      <trkpt lat="43.18138" lon="3.16907">
        <ele>52</ele>
        <time>2024-03-31T13:01:53.546Z</time>
      </trkpt>
      <trkpt lat="43.18136" lon="3.16916">
        <ele>52</ele>
        <time>2024-03-31T13:01:58.546Z</time>
      </trkpt>
      <trkpt lat="43.18135" lon="3.16921">
        <ele>52</ele>
        <time>2024-03-31T13:02:02.546Z</time>
      </trkpt>
      <trkpt lat="43.18133" lon="3.16929">
        <ele>52</ele>
        <time>2024-03-31T13:02:07.546Z</time>
      </trkpt>
      <trkpt lat="43.18132" lon="3.16935">
        <ele>55</ele>
        <time>2024-03-31T13:02:12.546Z</time>
      </trkpt>
      <trkpt lat="43.18131" lon="3.16942">
        <ele>55</ele>
        <time>2024-03-31T13:02:17.546Z</time>
      </trkpt>
      <trkpt lat="43.1813" lon="3.16949">
        <ele>55</ele>
        <time>2024-03-31T13:02:22.546Z</time>
      </trkpt>
      <trkpt lat="43.18129" lon="3.16954">
        <ele>55</ele>
        <time>2024-03-31T13:02:26.546Z</time>
      </trkpt>
      <trkpt lat="43.18127" lon="3.16964">
        <ele>55</ele>
        <time>2024-03-31T13:02:31.546Z</time>
      </trkpt>
      <trkpt lat="43.18124" lon="3.1697">
        <ele>54</ele>
        <time>2024-03-31T13:02:35.546Z</time>
      </trkpt>
      <trkpt lat="43.18124" lon="3.16974">
        <ele>54</ele>
        <time>2024-03-31T13:02:39.546Z</time>
      </trkpt>
      <trkpt lat="43.18124" lon="3.16974">
        <ele>54</ele>
        <time>2024-03-31T13:02:44.546Z</time>
      </trkpt>
      <trkpt lat="43.18123" lon="3.16977">
        <ele>54</ele>
        <time>2024-03-31T13:02:49.546Z</time>
      </trkpt>
      <trkpt lat="43.18123" lon="3.16979">
        <ele>54</ele>
        <time>2024-03-31T13:02:53.546Z</time>
      </trkpt>
      <trkpt lat="43.18121" lon="3.16985">
        <ele>54</ele>
        <time>2024-03-31T13:02:58.546Z</time>
      </trkpt>
      <trkpt lat="43.1812" lon="3.16991">
        <ele>54</ele>
        <time>2024-03-31T13:03:02.546Z</time>
      </trkpt>
      <trkpt lat="43.18118" lon="3.16996">
        <ele>54</ele>
        <time>2024-03-31T13:03:07.546Z</time>
      </trkpt>
      <trkpt lat="43.18116" lon="3.17002">
        <ele>54</ele>
        <time>2024-03-31T13:03:12.546Z</time>
      </trkpt>
      <trkpt lat="43.18114" lon="3.17007">
        <ele>54</ele>
        <time>2024-03-31T13:03:16.546Z</time>
      </trkpt>
      <trkpt lat="43.18111" lon="3.17013">
        <ele>54</ele>
        <time>2024-03-31T13:03:21.546Z</time>
      </trkpt>
      <trkpt lat="43.18109" lon="3.17019">
        <ele>54</ele>
        <time>2024-03-31T13:03:26.546Z</time>
      </trkpt>
      <trkpt lat="43.18107" lon="3.17024">
        <ele>54</ele>
        <time>2024-03-31T13:03:31.546Z</time>
      </trkpt>
      <trkpt lat="43.18103" lon="3.1703">
        <ele>54</ele>
        <time>2024-03-31T13:03:36.546Z</time>
      </trkpt>
      <trkpt lat="43.18099" lon="3.17038">
        <ele>54</ele>
        <time>2024-03-31T13:03:41.546Z</time>
      </trkpt>
      <trkpt lat="43.18097" lon="3.17044">
        <ele>54</ele>
        <time>2024-03-31T13:03:46.546Z</time>
      </trkpt>
      <trkpt lat="43.18094" lon="3.1705">
        <ele>54</ele>
        <time>2024-03-31T13:03:50.546Z</time>
      </trkpt>
      <trkpt lat="43.18092" lon="3.17056">
        <ele>54</ele>
        <time>2024-03-31T13:03:55.546Z</time>
      </trkpt>
      <trkpt lat="43.1809" lon="3.17061">
        <ele>54</ele>
        <time>2024-03-31T13:04:00.546Z</time>
      </trkpt>
      <trkpt lat="43.18089" lon="3.17068">
        <ele>54</ele>
        <time>2024-03-31T13:04:05.546Z</time>
      </trkpt>
      <trkpt lat="43.18088" lon="3.17075">
        <ele>54</ele>
        <time>2024-03-31T13:04:10.546Z</time>
      </trkpt>
      <trkpt lat="43.18087" lon="3.17081">
        <ele>54</ele>
        <time>2024-03-31T13:04:15.546Z</time>
      </trkpt>
      <trkpt lat="43.18086" lon="3.17087">
        <ele>54</ele>
        <time>2024-03-31T13:04:20.546Z</time>
      </trkpt>
      <trkpt lat="43.18085" lon="3.17094">
        <ele>54</ele>
        <time>2024-03-31T13:04:25.546Z</time>
      </trkpt>
      <trkpt lat="43.18085" lon="3.17099">
        <ele>55</ele>
        <time>2024-03-31T13:04:30.546Z</time>
      </trkpt>
      <trkpt lat="43.18084" lon="3.17107">
        <ele>55</ele>
        <time>2024-03-31T13:04:35.546Z</time>
      </trkpt>
      <trkpt lat="43.18083" lon="3.17116">
        <ele>55</ele>
        <time>2024-03-31T13:04:40.546Z</time>
      </trkpt>
      <trkpt lat="43.18082" lon="3.17122">
        <ele>55</ele>
        <time>2024-03-31T13:04:44.546Z</time>
      </trkpt>
      <trkpt lat="43.18081" lon="3.17129">
        <ele>55</ele>
        <time>2024-03-31T13:04:49.546Z</time>
      </trkpt>
      <trkpt lat="43.18081" lon="3.17134">
        <ele>55</ele>
        <time>2024-03-31T13:04:53.546Z</time>
      </trkpt>
      <trkpt lat="43.18079" lon="3.17143">
        <ele>55</ele>
        <time>2024-03-31T13:04:58.546Z</time>
      </trkpt>
      <trkpt lat="43.18079" lon="3.17149">
        <ele>55</ele>
        <time>2024-03-31T13:05:02.546Z</time>
      </trkpt>
      <trkpt lat="43.18079" lon="3.17156">
        <ele>55</ele>
        <time>2024-03-31T13:05:07.546Z</time>
      </trkpt>
      <trkpt lat="43.18079" lon="3.17163">
        <ele>55</ele>
        <time>2024-03-31T13:05:12.546Z</time>
      </trkpt>
      <trkpt lat="43.18078" lon="3.17171">
        <ele>55</ele>
        <time>2024-03-31T13:05:17.546Z</time>
      </trkpt>
      <trkpt lat="43.18077" lon="3.1718">
        <ele>55</ele>
        <time>2024-03-31T13:05:22.546Z</time>
      </trkpt>
      <trkpt lat="43.18076" lon="3.17186">
        <ele>56</ele>
        <time>2024-03-31T13:05:27.546Z</time>
      </trkpt>
      <trkpt lat="43.18075" lon="3.17193">
        <ele>56</ele>
        <time>2024-03-31T13:05:32.546Z</time>
      </trkpt>
      <trkpt lat="43.18075" lon="3.17199">
        <ele>56</ele>
        <time>2024-03-31T13:05:37.546Z</time>
      </trkpt>
      <trkpt lat="43.18075" lon="3.17205">
        <ele>56</ele>
        <time>2024-03-31T13:05:42.546Z</time>
      </trkpt>
      <trkpt lat="43.18074" lon="3.17212">
        <ele>56</ele>
        <time>2024-03-31T13:05:47.546Z</time>
      </trkpt>
      <trkpt lat="43.18074" lon="3.17218">
        <ele>56</ele>
        <time>2024-03-31T13:05:52.546Z</time>
      </trkpt>
      <trkpt lat="43.18073" lon="3.17224">
        <ele>56</ele>
        <time>2024-03-31T13:05:56.546Z</time>
      </trkpt>
      <trkpt lat="43.18071" lon="3.17233">
        <ele>56</ele>
        <time>2024-03-31T13:06:01.546Z</time>
      </trkpt>
      <trkpt lat="43.18069" lon="3.1724">
        <ele>56</ele>
        <time>2024-03-31T13:06:06.546Z</time>
      </trkpt>
      <trkpt lat="43.18067" lon="3.17246">
        <ele>56</ele>
        <time>2024-03-31T13:06:11.546Z</time>
      </trkpt>
      <trkpt lat="43.18067" lon="3.17248">
        <ele>56</ele>
        <time>2024-03-31T13:06:16.547Z</time>
      </trkpt>
      <trkpt lat="43.18068" lon="3.17252">
        <ele>56</ele>
        <time>2024-03-31T13:06:20.547Z</time>
      </trkpt>
      <trkpt lat="43.18067" lon="3.1726">
        <ele>56</ele>
        <time>2024-03-31T13:06:25.547Z</time>
      </trkpt>
      <trkpt lat="43.18067" lon="3.17266">
        <ele>55</ele>
        <time>2024-03-31T13:06:29.547Z</time>
      </trkpt>
      <trkpt lat="43.18068" lon="3.17271">
        <ele>55</ele>
        <time>2024-03-31T13:06:34.547Z</time>
      </trkpt>
      <trkpt lat="43.18068" lon="3.17276">
        <ele>55</ele>
        <time>2024-03-31T13:06:38.547Z</time>
      </trkpt>
      <trkpt lat="43.18068" lon="3.17282">
        <ele>55</ele>
        <time>2024-03-31T13:06:43.547Z</time>
      </trkpt>
      <trkpt lat="43.18068" lon="3.17288">
        <ele>55</ele>
        <time>2024-03-31T13:06:48.547Z</time>
      </trkpt>
      <trkpt lat="43.18067" lon="3.17298">
        <ele>54</ele>
        <time>2024-03-31T13:06:53.547Z</time>
      </trkpt>
      <trkpt lat="43.18066" lon="3.17307">
        <ele>54</ele>
        <time>2024-03-31T13:06:58.547Z</time>
      </trkpt>
      <trkpt lat="43.18067" lon="3.17313">
        <ele>54</ele>
        <time>2024-03-31T13:07:02.547Z</time>
      </trkpt>
      <trkpt lat="43.18067" lon="3.17319">
        <ele>54</ele>
        <time>2024-03-31T13:07:07.547Z</time>
      </trkpt>
      <trkpt lat="43.18066" lon="3.17325">
        <ele>54</ele>
        <time>2024-03-31T13:07:11.547Z</time>
      </trkpt>
      <trkpt lat="43.18065" lon="3.17333">
        <ele>54</ele>
        <time>2024-03-31T13:07:16.547Z</time>
      </trkpt>
      <trkpt lat="43.18065" lon="3.17339">
        <ele>54</ele>
        <time>2024-03-31T13:07:20.547Z</time>
      </trkpt>
      <trkpt lat="43.18065" lon="3.17345">
        <ele>54</ele>
        <time>2024-03-31T13:07:25.547Z</time>
      </trkpt>
      <trkpt lat="43.18065" lon="3.17351">
        <ele>53</ele>
        <time>2024-03-31T13:07:30.547Z</time>
      </trkpt>
      <trkpt lat="43.18064" lon="3.17357">
        <ele>53</ele>
        <time>2024-03-31T13:07:34.547Z</time>
      </trkpt>
      <trkpt lat="43.18064" lon="3.17366">
        <ele>53</ele>
        <time>2024-03-31T13:07:39.547Z</time>
      </trkpt>
      <trkpt lat="43.18065" lon="3.17373">
        <ele>53</ele>
        <time>2024-03-31T13:07:44.547Z</time>
      </trkpt>
      <trkpt lat="43.18065" lon="3.1738">
        <ele>53</ele>
        <time>2024-03-31T13:07:49.547Z</time>
      </trkpt>
      <trkpt lat="43.18065" lon="3.17388">
        <ele>53</ele>
        <time>2024-03-31T13:07:54.547Z</time>
      </trkpt>
      <trkpt lat="43.18066" lon="3.17395">
        <ele>53</ele>
        <time>2024-03-31T13:07:59.547Z</time>
      </trkpt>
      <trkpt lat="43.18066" lon="3.17402">
        <ele>53</ele>
        <time>2024-03-31T13:08:04.547Z</time>
      </trkpt>
      <trkpt lat="43.18066" lon="3.1741">
        <ele>54</ele>
        <time>2024-03-31T13:08:09.547Z</time>
      </trkpt>
      <trkpt lat="43.18066" lon="3.17417">
        <ele>54</ele>
        <time>2024-03-31T13:08:13.547Z</time>
      </trkpt>
      <trkpt lat="43.18065" lon="3.17424">
        <ele>54</ele>
        <time>2024-03-31T13:08:18.547Z</time>
      </trkpt>
      <trkpt lat="43.18066" lon="3.17432">
        <ele>54</ele>
        <time>2024-03-31T13:08:23.547Z</time>
      </trkpt>
      <trkpt lat="43.18068" lon="3.17436">
        <ele>54</ele>
        <time>2024-03-31T13:08:28.547Z</time>
      </trkpt>
      <trkpt lat="43.18068" lon="3.17441">
        <ele>54</ele>
        <time>2024-03-31T13:08:32.547Z</time>
      </trkpt>
      <trkpt lat="43.18069" lon="3.17447">
        <ele>54</ele>
        <time>2024-03-31T13:08:37.547Z</time>
      </trkpt>
      <trkpt lat="43.1807" lon="3.17455">
        <ele>56</ele>
        <time>2024-03-31T13:08:42.547Z</time>
      </trkpt>
      <trkpt lat="43.1807" lon="3.17462">
        <ele>56</ele>
        <time>2024-03-31T13:08:47.547Z</time>
      </trkpt>
      <trkpt lat="43.18071" lon="3.17467">
        <ele>56</ele>
        <time>2024-03-31T13:08:51.547Z</time>
      </trkpt>
      <trkpt lat="43.18072" lon="3.17474">
        <ele>56</ele>
        <time>2024-03-31T13:08:56.547Z</time>
      </trkpt>
      <trkpt lat="43.18073" lon="3.1748">
        <ele>56</ele>
        <time>2024-03-31T13:09:01.547Z</time>
      </trkpt>
      <trkpt lat="43.18074" lon="3.17487">
        <ele>55</ele>
        <time>2024-03-31T13:09:06.547Z</time>
      </trkpt>
      <trkpt lat="43.18073" lon="3.17495">
        <ele>55</ele>
        <time>2024-03-31T13:09:11.547Z</time>
      </trkpt>
      <trkpt lat="43.18073" lon="3.17504">
        <ele>55</ele>
        <time>2024-03-31T13:09:16.547Z</time>
      </trkpt>
      <trkpt lat="43.18072" lon="3.17512">
        <ele>55</ele>
        <time>2024-03-31T13:09:21.547Z</time>
      </trkpt>
      <trkpt lat="43.18073" lon="3.17522">
        <ele>53</ele>
        <time>2024-03-31T13:09:26.547Z</time>
      </trkpt>
      <trkpt lat="43.18073" lon="3.1753">
        <ele>53</ele>
        <time>2024-03-31T13:09:31.547Z</time>
      </trkpt>
      <trkpt lat="43.18072" lon="3.17538">
        <ele>53</ele>
        <time>2024-03-31T13:09:36.547Z</time>
      </trkpt>
      <trkpt lat="43.18073" lon="3.17543">
        <ele>51</ele>
        <time>2024-03-31T13:09:40.547Z</time>
      </trkpt>
      <trkpt lat="43.18072" lon="3.17552">
        <ele>51</ele>
        <time>2024-03-31T13:09:45.547Z</time>
      </trkpt>
      <trkpt lat="43.1807" lon="3.1756">
        <ele>51</ele>
        <time>2024-03-31T13:09:50.547Z</time>
      </trkpt>
      <trkpt lat="43.18069" lon="3.17568">
        <ele>49</ele>
        <time>2024-03-31T13:09:55.547Z</time>
      </trkpt>
      <trkpt lat="43.18068" lon="3.17574">
        <ele>48</ele>
        <time>2024-03-31T13:09:59.547Z</time>
      </trkpt>
      <trkpt lat="43.18068" lon="3.17581">
        <ele>48</ele>
        <time>2024-03-31T13:10:04.547Z</time>
      </trkpt>
      <trkpt lat="43.18068" lon="3.17587">
        <ele>48</ele>
        <time>2024-03-31T13:10:08.547Z</time>
      </trkpt>
      <trkpt lat="43.18067" lon="3.17594">
        <ele>48</ele>
        <time>2024-03-31T13:10:13.547Z</time>
      </trkpt>
      <trkpt lat="43.18066" lon="3.17601">
        <ele>48</ele>
        <time>2024-03-31T13:10:17.547Z</time>
      </trkpt>
      <trkpt lat="43.18065" lon="3.17607">
        <ele>48</ele>
        <time>2024-03-31T13:10:22.547Z</time>
      </trkpt>
      <trkpt lat="43.18064" lon="3.17613">
        <ele>48</ele>
        <time>2024-03-31T13:10:26.547Z</time>
      </trkpt>
      <trkpt lat="43.18064" lon="3.17621">
        <ele>48</ele>
        <time>2024-03-31T13:10:31.547Z</time>
      </trkpt>
      <trkpt lat="43.18064" lon="3.17628">
        <ele>49</ele>
        <time>2024-03-31T13:10:36.547Z</time>
      </trkpt>
      <trkpt lat="43.18063" lon="3.17635">
        <ele>49</ele>
        <time>2024-03-31T13:10:41.547Z</time>
      </trkpt>
      <trkpt lat="43.18063" lon="3.17642">
        <ele>49</ele>
        <time>2024-03-31T13:10:45.547Z</time>
      </trkpt>
      <trkpt lat="43.18062" lon="3.1765">
        <ele>49</ele>
        <time>2024-03-31T13:10:50.547Z</time>
      </trkpt>
      <trkpt lat="43.18061" lon="3.17655">
        <ele>48</ele>
        <time>2024-03-31T13:10:54.547Z</time>
      </trkpt>
      <trkpt lat="43.18061" lon="3.17663">
        <ele>48</ele>
        <time>2024-03-31T13:10:59.547Z</time>
      </trkpt>
      <trkpt lat="43.18059" lon="3.1767">
        <ele>48</ele>
        <time>2024-03-31T13:11:04.547Z</time>
      </trkpt>
      <trkpt lat="43.18058" lon="3.17678">
        <ele>48</ele>
        <time>2024-03-31T13:11:09.547Z</time>
      </trkpt>
      <trkpt lat="43.18057" lon="3.17685">
        <ele>48</ele>
        <time>2024-03-31T13:11:14.547Z</time>
      </trkpt>
      <trkpt lat="43.18057" lon="3.17693">
        <ele>48</ele>
        <time>2024-03-31T13:11:19.547Z</time>
      </trkpt>
      <trkpt lat="43.18056" lon="3.17701">
        <ele>48</ele>
        <time>2024-03-31T13:11:24.547Z</time>
      </trkpt>
      <trkpt lat="43.18055" lon="3.17708">
        <ele>48</ele>
        <time>2024-03-31T13:11:29.547Z</time>
      </trkpt>
      <trkpt lat="43.18053" lon="3.17715">
        <ele>47</ele>
        <time>2024-03-31T13:11:34.547Z</time>
      </trkpt>
      <trkpt lat="43.18054" lon="3.17723">
        <ele>47</ele>
        <time>2024-03-31T13:11:39.547Z</time>
      </trkpt>
      <trkpt lat="43.18053" lon="3.17729">
        <ele>47</ele>
        <time>2024-03-31T13:11:44.547Z</time>
      </trkpt>
      <trkpt lat="43.18052" lon="3.17736">
        <ele>46</ele>
        <time>2024-03-31T13:11:49.547Z</time>
      </trkpt>
      <trkpt lat="43.18054" lon="3.17743">
        <ele>46</ele>
        <time>2024-03-31T13:11:54.547Z</time>
      </trkpt>
      <trkpt lat="43.18054" lon="3.17752">
        <ele>46</ele>
        <time>2024-03-31T13:11:59.547Z</time>
      </trkpt>
      <trkpt lat="43.18054" lon="3.17759">
        <ele>46</ele>
        <time>2024-03-31T13:12:04.547Z</time>
      </trkpt>
      <trkpt lat="43.18052" lon="3.17767">
        <ele>47</ele>
        <time>2024-03-31T13:12:09.547Z</time>
      </trkpt>
      <trkpt lat="43.18051" lon="3.17776">
        <ele>47</ele>
        <time>2024-03-31T13:12:14.547Z</time>
      </trkpt>
      <trkpt lat="43.1805" lon="3.17784">
        <ele>47</ele>
        <time>2024-03-31T13:12:19.547Z</time>
      </trkpt>
      <trkpt lat="43.18049" lon="3.17792">
        <ele>48</ele>
        <time>2024-03-31T13:12:24.547Z</time>
      </trkpt>
      <trkpt lat="43.18049" lon="3.17799">
        <ele>48</ele>
        <time>2024-03-31T13:12:29.547Z</time>
      </trkpt>
      <trkpt lat="43.18048" lon="3.17806">
        <ele>48</ele>
        <time>2024-03-31T13:12:34.547Z</time>
      </trkpt>
      <trkpt lat="43.18048" lon="3.17813">
        <ele>48</ele>
        <time>2024-03-31T13:12:39.547Z</time>
      </trkpt>
      <trkpt lat="43.18047" lon="3.17821">
        <ele>49</ele>
        <time>2024-03-31T13:12:44.547Z</time>
      </trkpt>
      <trkpt lat="43.18046" lon="3.17829">
        <ele>49</ele>
        <time>2024-03-31T13:12:49.547Z</time>
      </trkpt>
      <trkpt lat="43.18046" lon="3.17835">
        <ele>49</ele>
        <time>2024-03-31T13:12:53.547Z</time>
      </trkpt>
      <trkpt lat="43.18045" lon="3.17842">
        <ele>49</ele>
        <time>2024-03-31T13:12:58.547Z</time>
      </trkpt>
      <trkpt lat="43.18045" lon="3.17851">
        <ele>48</ele>
        <time>2024-03-31T13:13:03.547Z</time>
      </trkpt>
      <trkpt lat="43.18045" lon="3.17857">
        <ele>48</ele>
        <time>2024-03-31T13:13:08.547Z</time>
      </trkpt>
      <trkpt lat="43.18046" lon="3.17863">
        <ele>48</ele>
        <time>2024-03-31T13:13:13.547Z</time>
      </trkpt>
      <trkpt lat="43.18045" lon="3.17871">
        <ele>48</ele>
        <time>2024-03-31T13:13:18.547Z</time>
      </trkpt>
      <trkpt lat="43.18047" lon="3.17877">
        <ele>47</ele>
        <time>2024-03-31T13:13:23.547Z</time>
      </trkpt>
      <trkpt lat="43.18049" lon="3.17885">
        <ele>47</ele>
        <time>2024-03-31T13:13:28.547Z</time>
      </trkpt>
      <trkpt lat="43.18049" lon="3.17892">
        <ele>47</ele>
        <time>2024-03-31T13:13:33.547Z</time>
      </trkpt>
      <trkpt lat="43.1805" lon="3.17899">
        <ele>47</ele>
        <time>2024-03-31T13:13:38.547Z</time>
      </trkpt>
      <trkpt lat="43.18051" lon="3.17905">
        <ele>46</ele>
        <time>2024-03-31T13:13:42.547Z</time>
      </trkpt>
      <trkpt lat="43.18052" lon="3.17912">
        <ele>46</ele>
        <time>2024-03-31T13:13:47.548Z</time>
      </trkpt>
      <trkpt lat="43.18053" lon="3.17919">
        <ele>46</ele>
        <time>2024-03-31T13:13:52.548Z</time>
      </trkpt>
      <trkpt lat="43.18053" lon="3.17927">
        <ele>46</ele>
        <time>2024-03-31T13:13:57.548Z</time>
      </trkpt>
      <trkpt lat="43.18054" lon="3.17935">
        <ele>46</ele>
        <time>2024-03-31T13:14:02.548Z</time>
      </trkpt>
      <trkpt lat="43.18056" lon="3.17942">
        <ele>46</ele>
        <time>2024-03-31T13:14:07.548Z</time>
      </trkpt>
      <trkpt lat="43.18057" lon="3.17946">
        <ele>46</ele>
        <time>2024-03-31T13:14:11.548Z</time>
      </trkpt>
      <trkpt lat="43.1806" lon="3.17952">
        <ele>46</ele>
        <time>2024-03-31T13:14:16.548Z</time>
      </trkpt>
      <trkpt lat="43.18062" lon="3.17959">
        <ele>46</ele>
        <time>2024-03-31T13:14:21.548Z</time>
      </trkpt>
      <trkpt lat="43.18066" lon="3.17964">
        <ele>46</ele>
        <time>2024-03-31T13:14:26.548Z</time>
      </trkpt>
      <trkpt lat="43.1807" lon="3.17968">
        <ele>46</ele>
        <time>2024-03-31T13:14:31.548Z</time>
      </trkpt>
      <trkpt lat="43.18074" lon="3.17971">
        <ele>46</ele>
        <time>2024-03-31T13:14:36.548Z</time>
      </trkpt>
      <trkpt lat="43.18079" lon="3.17974">
        <ele>46</ele>
        <time>2024-03-31T13:14:41.548Z</time>
      </trkpt>
      <trkpt lat="43.18084" lon="3.17975">
        <ele>46</ele>
        <time>2024-03-31T13:14:46.548Z</time>
      </trkpt>
      <trkpt lat="43.18089" lon="3.17976">
        <ele>46</ele>
        <time>2024-03-31T13:14:50.548Z</time>
      </trkpt>
      <trkpt lat="43.18093" lon="3.17977">
        <ele>46</ele>
        <time>2024-03-31T13:14:55.548Z</time>
      </trkpt>
      <trkpt lat="43.18099" lon="3.17977">
        <ele>47</ele>
        <time>2024-03-31T13:15:00.548Z</time>
      </trkpt>
      <trkpt lat="43.18104" lon="3.17976">
        <ele>47</ele>
        <time>2024-03-31T13:15:05.548Z</time>
      </trkpt>
      <trkpt lat="43.18109" lon="3.17976">
        <ele>47</ele>
        <time>2024-03-31T13:15:10.548Z</time>
      </trkpt>
      <trkpt lat="43.18114" lon="3.17977">
        <ele>47</ele>
        <time>2024-03-31T13:15:15.548Z</time>
      </trkpt>
      <trkpt lat="43.18117" lon="3.17978">
        <ele>47</ele>
        <time>2024-03-31T13:15:19.548Z</time>
      </trkpt>
      <trkpt lat="43.18122" lon="3.1798">
        <ele>47</ele>
        <time>2024-03-31T13:15:24.548Z</time>
      </trkpt>
      <trkpt lat="43.18126" lon="3.17979">
        <ele>47</ele>
        <time>2024-03-31T13:15:28.548Z</time>
      </trkpt>
      <trkpt lat="43.18131" lon="3.17979">
        <ele>47</ele>
        <time>2024-03-31T13:15:33.548Z</time>
      </trkpt>
      <trkpt lat="43.18137" lon="3.17977">
        <ele>47</ele>
        <time>2024-03-31T13:15:38.548Z</time>
      </trkpt>
      <trkpt lat="43.18143" lon="3.17977">
        <ele>47</ele>
        <time>2024-03-31T13:15:43.548Z</time>
      </trkpt>
      <trkpt lat="43.18149" lon="3.17976">
        <ele>47</ele>
        <time>2024-03-31T13:15:48.548Z</time>
      </trkpt>
      <trkpt lat="43.18155" lon="3.17976">
        <ele>47</ele>
        <time>2024-03-31T13:15:53.548Z</time>
      </trkpt>
      <trkpt lat="43.1816" lon="3.17975">
        <ele>47</ele>
        <time>2024-03-31T13:15:58.548Z</time>
      </trkpt>
      <trkpt lat="43.18165" lon="3.17977">
        <ele>47</ele>
        <time>2024-03-31T13:16:03.548Z</time>
      </trkpt>
      <trkpt lat="43.1817" lon="3.17978">
        <ele>47</ele>
        <time>2024-03-31T13:16:08.548Z</time>
      </trkpt>
      <trkpt lat="43.18175" lon="3.17979">
        <ele>47</ele>
        <time>2024-03-31T13:16:13.548Z</time>
      </trkpt>
      <trkpt lat="43.1818" lon="3.17979">
        <ele>47</ele>
        <time>2024-03-31T13:16:18.548Z</time>
      </trkpt>
      <trkpt lat="43.18185" lon="3.17982">
        <ele>47</ele>
        <time>2024-03-31T13:16:23.548Z</time>
      </trkpt>
      <trkpt lat="43.18189" lon="3.17985">
        <ele>47</ele>
        <time>2024-03-31T13:16:28.548Z</time>
      </trkpt>
      <trkpt lat="43.18194" lon="3.17989">
        <ele>47</ele>
        <time>2024-03-31T13:16:33.548Z</time>
      </trkpt>
      <trkpt lat="43.18199" lon="3.17991">
        <ele>47</ele>
        <time>2024-03-31T13:16:38.548Z</time>
      </trkpt>
      <trkpt lat="43.18202" lon="3.17995">
        <ele>47</ele>
        <time>2024-03-31T13:16:43.548Z</time>
      </trkpt>
      <trkpt lat="43.18206" lon="3.17998">
        <ele>47</ele>
        <time>2024-03-31T13:16:47.548Z</time>
      </trkpt>
      <trkpt lat="43.18211" lon="3.18001">
        <ele>48</ele>
        <time>2024-03-31T13:16:52.548Z</time>
      </trkpt>
      <trkpt lat="43.18215" lon="3.18007">
        <ele>48</ele>
        <time>2024-03-31T13:16:57.548Z</time>
      </trkpt>
      <trkpt lat="43.18218" lon="3.18011">
        <ele>48</ele>
        <time>2024-03-31T13:17:01.548Z</time>
      </trkpt>
      <trkpt lat="43.18222" lon="3.18016">
        <ele>47</ele>
        <time>2024-03-31T13:17:06.548Z</time>
      </trkpt>
      <trkpt lat="43.18225" lon="3.18021">
        <ele>47</ele>
        <time>2024-03-31T13:17:11.548Z</time>
      </trkpt>
      <trkpt lat="43.18228" lon="3.18026">
        <ele>47</ele>
        <time>2024-03-31T13:17:16.548Z</time>
      </trkpt>
      <trkpt lat="43.18233" lon="3.18031">
        <ele>47</ele>
        <time>2024-03-31T13:17:21.548Z</time>
      </trkpt>
      <trkpt lat="43.18235" lon="3.18035">
        <ele>47</ele>
        <time>2024-03-31T13:17:25.548Z</time>
      </trkpt>
      <trkpt lat="43.18239" lon="3.1804">
        <ele>48</ele>
        <time>2024-03-31T13:17:30.548Z</time>
      </trkpt>
      <trkpt lat="43.18242" lon="3.18045">
        <ele>47</ele>
        <time>2024-03-31T13:17:35.548Z</time>
      </trkpt>
      <trkpt lat="43.18245" lon="3.1805">
        <ele>47</ele>
        <time>2024-03-31T13:17:39.548Z</time>
      </trkpt>
      <trkpt lat="43.18248" lon="3.18054">
        <ele>47</ele>
        <time>2024-03-31T13:17:43.548Z</time>
      </trkpt>
      <trkpt lat="43.18252" lon="3.18059">
        <ele>47</ele>
        <time>2024-03-31T13:17:48.548Z</time>
      </trkpt>
      <trkpt lat="43.18256" lon="3.18065">
        <ele>47</ele>
        <time>2024-03-31T13:17:53.548Z</time>
      </trkpt>
      <trkpt lat="43.18259" lon="3.1807">
        <ele>46</ele>
        <time>2024-03-31T13:17:57.548Z</time>
      </trkpt>
      <trkpt lat="43.18262" lon="3.18076">
        <ele>46</ele>
        <time>2024-03-31T13:18:02.548Z</time>
      </trkpt>
      <trkpt lat="43.18267" lon="3.1808">
        <ele>48</ele>
        <time>2024-03-31T13:18:07.548Z</time>
      </trkpt>
      <trkpt lat="43.1827" lon="3.18085">
        <ele>48</ele>
        <time>2024-03-31T13:18:11.548Z</time>
      </trkpt>
      <trkpt lat="43.18273" lon="3.18091">
        <ele>48</ele>
        <time>2024-03-31T13:18:16.548Z</time>
      </trkpt>
      <trkpt lat="43.18277" lon="3.18095">
        <ele>48</ele>
        <time>2024-03-31T13:18:21.548Z</time>
      </trkpt>
      <trkpt lat="43.1828" lon="3.181">
        <ele>47</ele>
        <time>2024-03-31T13:18:25.548Z</time>
      </trkpt>
      <trkpt lat="43.18283" lon="3.18106">
        <ele>47</ele>
        <time>2024-03-31T13:18:30.548Z</time>
      </trkpt>
      <trkpt lat="43.18288" lon="3.18111">
        <ele>47</ele>
        <time>2024-03-31T13:18:35.548Z</time>
      </trkpt>
      <trkpt lat="43.18293" lon="3.18115">
        <ele>48</ele>
        <time>2024-03-31T13:18:40.548Z</time>
      </trkpt>
      <trkpt lat="43.18295" lon="3.18119">
        <ele>48</ele>
        <time>2024-03-31T13:18:44.548Z</time>
      </trkpt>
      <trkpt lat="43.18299" lon="3.18125">
        <ele>48</ele>
        <time>2024-03-31T13:18:49.548Z</time>
      </trkpt>
      <trkpt lat="43.18303" lon="3.1813">
        <ele>46</ele>
        <time>2024-03-31T13:18:54.548Z</time>
      </trkpt>
      <trkpt lat="43.18305" lon="3.18135">
        <ele>46</ele>
        <time>2024-03-31T13:18:58.548Z</time>
      </trkpt>
      <trkpt lat="43.18308" lon="3.18141">
        <ele>46</ele>
        <time>2024-03-31T13:19:03.548Z</time>
      </trkpt>
      <trkpt lat="43.1831" lon="3.18146">
        <ele>46</ele>
        <time>2024-03-31T13:19:08.548Z</time>
      </trkpt>
      <trkpt lat="43.18312" lon="3.18153">
        <ele>46</ele>
        <time>2024-03-31T13:19:13.548Z</time>
      </trkpt>
      <trkpt lat="43.18312" lon="3.1816">
        <ele>44</ele>
        <time>2024-03-31T13:19:17.548Z</time>
      </trkpt>
      <trkpt lat="43.18312" lon="3.18167">
        <ele>44</ele>
        <time>2024-03-31T13:19:22.548Z</time>
      </trkpt>
      <trkpt lat="43.18311" lon="3.18173">
        <ele>44</ele>
        <time>2024-03-31T13:19:26.548Z</time>
      </trkpt>
      <trkpt lat="43.18309" lon="3.18179">
        <ele>44</ele>
        <time>2024-03-31T13:19:31.548Z</time>
      </trkpt>
      <trkpt lat="43.18308" lon="3.18187">
        <ele>44</ele>
        <time>2024-03-31T13:19:36.548Z</time>
      </trkpt>
      <trkpt lat="43.18306" lon="3.18193">
        <ele>44</ele>
        <time>2024-03-31T13:19:41.548Z</time>
      </trkpt>
      <trkpt lat="43.18303" lon="3.18196">
        <ele>44</ele>
        <time>2024-03-31T13:19:46.548Z</time>
      </trkpt>
      <trkpt lat="43.18301" lon="3.18199">
        <ele>44</ele>
        <time>2024-03-31T13:19:51.548Z</time>
      </trkpt>
      <trkpt lat="43.18301" lon="3.18204">
        <ele>44</ele>
        <time>2024-03-31T13:19:55.548Z</time>
      </trkpt>
      <trkpt lat="43.18299" lon="3.18209">
        <ele>45</ele>
        <time>2024-03-31T13:20:00.548Z</time>
      </trkpt>
      <trkpt lat="43.18294" lon="3.18213">
        <ele>45</ele>
        <time>2024-03-31T13:20:05.548Z</time>
      </trkpt>
      <trkpt lat="43.18291" lon="3.18215">
        <ele>43</ele>
        <time>2024-03-31T13:20:09.548Z</time>
      </trkpt>
      <trkpt lat="43.18287" lon="3.18219">
        <ele>43</ele>
        <time>2024-03-31T13:20:14.548Z</time>
      </trkpt>
      <trkpt lat="43.18283" lon="3.18223">
        <ele>43</ele>
        <time>2024-03-31T13:20:19.548Z</time>
      </trkpt>
      <trkpt lat="43.18279" lon="3.18226">
        <ele>43</ele>
        <time>2024-03-31T13:20:24.548Z</time>
      </trkpt>
      <trkpt lat="43.18274" lon="3.1823">
        <ele>43</ele>
        <time>2024-03-31T13:20:29.549Z</time>
      </trkpt>
      <trkpt lat="43.18269" lon="3.18234">
        <ele>43</ele>
        <time>2024-03-31T13:20:34.549Z</time>
      </trkpt>
      <trkpt lat="43.18264" lon="3.18238">
        <ele>44</ele>
        <time>2024-03-31T13:20:39.549Z</time>
      </trkpt>
      <trkpt lat="43.1826" lon="3.18243">
        <ele>43</ele>
        <time>2024-03-31T13:20:44.549Z</time>
      </trkpt>
      <trkpt lat="43.18255" lon="3.18248">
        <ele>43</ele>
        <time>2024-03-31T13:20:49.549Z</time>
      </trkpt>
      <trkpt lat="43.1825" lon="3.18252">
        <ele>43</ele>
        <time>2024-03-31T13:20:54.549Z</time>
      </trkpt>
      <trkpt lat="43.18246" lon="3.18257">
        <ele>43</ele>
        <time>2024-03-31T13:20:59.549Z</time>
      </trkpt>
      <trkpt lat="43.18242" lon="3.18262">
        <ele>43</ele>
        <time>2024-03-31T13:21:04.549Z</time>
      </trkpt>
      <trkpt lat="43.18238" lon="3.18266">
        <ele>44</ele>
        <time>2024-03-31T13:21:09.549Z</time>
      </trkpt>
      <trkpt lat="43.18234" lon="3.18268">
        <ele>42</ele>
        <time>2024-03-31T13:21:14.549Z</time>
      </trkpt>
      <trkpt lat="43.18228" lon="3.18271">
        <ele>42</ele>
        <time>2024-03-31T13:21:19.549Z</time>
      </trkpt>
      <trkpt lat="43.18224" lon="3.18275">
        <ele>42</ele>
        <time>2024-03-31T13:21:23.549Z</time>
      </trkpt>
      <trkpt lat="43.18221" lon="3.18279">
        <ele>42</ele>
        <time>2024-03-31T13:21:28.549Z</time>
      </trkpt>
      <trkpt lat="43.18218" lon="3.18284">
        <ele>42</ele>
        <time>2024-03-31T13:21:33.549Z</time>
      </trkpt>
      <trkpt lat="43.18215" lon="3.18289">
        <ele>42</ele>
        <time>2024-03-31T13:21:38.549Z</time>
      </trkpt>
      <trkpt lat="43.18212" lon="3.18293">
        <ele>44</ele>
        <time>2024-03-31T13:21:42.549Z</time>
      </trkpt>
      <trkpt lat="43.18208" lon="3.18299">
        <ele>42</ele>
        <time>2024-03-31T13:21:47.549Z</time>
      </trkpt>
      <trkpt lat="43.18204" lon="3.18304">
        <ele>42</ele>
        <time>2024-03-31T13:21:51.549Z</time>
      </trkpt>
      <trkpt lat="43.18203" lon="3.18309">
        <ele>42</ele>
        <time>2024-03-31T13:21:56.549Z</time>
      </trkpt>
      <trkpt lat="43.18201" lon="3.18315">
        <ele>42</ele>
        <time>2024-03-31T13:22:01.549Z</time>
      </trkpt>
      <trkpt lat="43.18198" lon="3.18322">
        <ele>43</ele>
        <time>2024-03-31T13:22:06.549Z</time>
      </trkpt>
      <trkpt lat="43.18196" lon="3.18328">
        <ele>43</ele>
        <time>2024-03-31T13:22:11.549Z</time>
      </trkpt>
      <trkpt lat="43.18195" lon="3.18332">
        <ele>43</ele>
        <time>2024-03-31T13:22:15.549Z</time>
      </trkpt>
      <trkpt lat="43.18193" lon="3.18339">
        <ele>43</ele>
        <time>2024-03-31T13:22:20.549Z</time>
      </trkpt>
      <trkpt lat="43.18191" lon="3.18347">
        <ele>43</ele>
        <time>2024-03-31T13:22:25.549Z</time>
      </trkpt>
      <trkpt lat="43.18189" lon="3.18352">
        <ele>44</ele>
        <time>2024-03-31T13:22:29.549Z</time>
      </trkpt>
      <trkpt lat="43.18188" lon="3.18359">
        <ele>44</ele>
        <time>2024-03-31T13:22:34.549Z</time>
      </trkpt>
      <trkpt lat="43.18187" lon="3.18366">
        <ele>44</ele>
        <time>2024-03-31T13:22:39.549Z</time>
      </trkpt>
      <trkpt lat="43.18185" lon="3.18373">
        <ele>44</ele>
        <time>2024-03-31T13:22:44.549Z</time>
      </trkpt>
      <trkpt lat="43.18184" lon="3.1838">
        <ele>43</ele>
        <time>2024-03-31T13:22:49.549Z</time>
      </trkpt>
      <trkpt lat="43.18182" lon="3.18387">
        <ele>43</ele>
        <time>2024-03-31T13:22:54.549Z</time>
      </trkpt>
      <trkpt lat="43.18181" lon="3.18393">
        <ele>43</ele>
        <time>2024-03-31T13:22:59.549Z</time>
      </trkpt>
      <trkpt lat="43.18179" lon="3.184">
        <ele>42</ele>
        <time>2024-03-31T13:23:03.549Z</time>
      </trkpt>
      <trkpt lat="43.18176" lon="3.18409">
        <ele>42</ele>
        <time>2024-03-31T13:23:08.549Z</time>
      </trkpt>
      <trkpt lat="43.18174" lon="3.18415">
        <ele>42</ele>
        <time>2024-03-31T13:23:13.549Z</time>
      </trkpt>
      <trkpt lat="43.18172" lon="3.18422">
        <ele>42</ele>
        <time>2024-03-31T13:23:18.549Z</time>
      </trkpt>
      <trkpt lat="43.18169" lon="3.1843">
        <ele>42</ele>
        <time>2024-03-31T13:23:23.549Z</time>
      </trkpt>
      <trkpt lat="43.18167" lon="3.18435">
        <ele>41</ele>
        <time>2024-03-31T13:23:27.549Z</time>
      </trkpt>
      <trkpt lat="43.18165" lon="3.18444">
        <ele>41</ele>
        <time>2024-03-31T13:23:32.549Z</time>
      </trkpt>
      <trkpt lat="43.18164" lon="3.18451">
        <ele>41</ele>
        <time>2024-03-31T13:23:37.549Z</time>
      </trkpt>
      <trkpt lat="43.18165" lon="3.1846">
        <ele>39</ele>
        <time>2024-03-31T13:23:42.549Z</time>
      </trkpt>
      <trkpt lat="43.18166" lon="3.18466">
        <ele>39</ele>
        <time>2024-03-31T13:23:46.549Z</time>
      </trkpt>
      <trkpt lat="43.18167" lon="3.18471">
        <ele>39</ele>
        <time>2024-03-31T13:23:50.549Z</time>
      </trkpt>
      <trkpt lat="43.18168" lon="3.18477">
        <ele>39</ele>
        <time>2024-03-31T13:23:55.549Z</time>
      </trkpt>
      <trkpt lat="43.18168" lon="3.18485">
        <ele>39</ele>
        <time>2024-03-31T13:24:00.549Z</time>
      </trkpt>
      <trkpt lat="43.18167" lon="3.18493">
        <ele>37</ele>
        <time>2024-03-31T13:24:05.549Z</time>
      </trkpt>
      <trkpt lat="43.18165" lon="3.185">
        <ele>37</ele>
        <time>2024-03-31T13:24:10.549Z</time>
      </trkpt>
      <trkpt lat="43.18164" lon="3.18506">
        <ele>37</ele>
        <time>2024-03-31T13:24:14.549Z</time>
      </trkpt>
      <trkpt lat="43.1816" lon="3.18512">
        <ele>37</ele>
        <time>2024-03-31T13:24:19.549Z</time>
      </trkpt>
      <trkpt lat="43.18159" lon="3.18516">
        <ele>36</ele>
        <time>2024-03-31T13:24:24.549Z</time>
      </trkpt>
      <trkpt lat="43.18156" lon="3.18516">
        <ele>36</ele>
        <time>2024-03-31T13:24:29.549Z</time>
      </trkpt>
      <trkpt lat="43.18154" lon="3.18519">
        <ele>36</ele>
        <time>2024-03-31T13:24:33.549Z</time>
      </trkpt>
      <trkpt lat="43.18149" lon="3.18521">
        <ele>36</ele>
        <time>2024-03-31T13:24:38.549Z</time>
      </trkpt>
      <trkpt lat="43.18145" lon="3.18523">
        <ele>36</ele>
        <time>2024-03-31T13:24:43.549Z</time>
      </trkpt>
      <trkpt lat="43.18139" lon="3.18525">
        <ele>36</ele>
        <time>2024-03-31T13:24:48.549Z</time>
      </trkpt>
      <trkpt lat="43.18135" lon="3.18529">
        <ele>36</ele>
        <time>2024-03-31T13:24:53.549Z</time>
      </trkpt>
      <trkpt lat="43.1813" lon="3.18534">
        <ele>36</ele>
        <time>2024-03-31T13:24:58.549Z</time>
      </trkpt>
      <trkpt lat="43.18128" lon="3.18539">
        <ele>36</ele>
        <time>2024-03-31T13:25:02.549Z</time>
      </trkpt>
      <trkpt lat="43.18123" lon="3.18544">
        <ele>35</ele>
        <time>2024-03-31T13:25:07.549Z</time>
      </trkpt>
      <trkpt lat="43.1812" lon="3.18551">
        <ele>35</ele>
        <time>2024-03-31T13:25:12.549Z</time>
      </trkpt>
      <trkpt lat="43.18117" lon="3.18556">
        <ele>35</ele>
        <time>2024-03-31T13:25:16.549Z</time>
      </trkpt>
      <trkpt lat="43.18113" lon="3.18562">
        <ele>35</ele>
        <time>2024-03-31T13:25:21.549Z</time>
      </trkpt>
      <trkpt lat="43.1811" lon="3.18568">
        <ele>35</ele>
        <time>2024-03-31T13:25:26.549Z</time>
      </trkpt>
      <trkpt lat="43.18107" lon="3.18574">
        <ele>34</ele>
        <time>2024-03-31T13:25:31.549Z</time>
      </trkpt>
      <trkpt lat="43.18104" lon="3.18579">
        <ele>34</ele>
        <time>2024-03-31T13:25:36.549Z</time>
      </trkpt>
      <trkpt lat="43.18102" lon="3.18585">
        <ele>34</ele>
        <time>2024-03-31T13:25:41.549Z</time>
      </trkpt>
      <trkpt lat="43.18099" lon="3.18591">
        <ele>34</ele>
        <time>2024-03-31T13:25:46.549Z</time>
      </trkpt>
      <trkpt lat="43.18097" lon="3.18597">
        <ele>33</ele>
        <time>2024-03-31T13:25:50.549Z</time>
      </trkpt>
      <trkpt lat="43.18094" lon="3.18602">
        <ele>31</ele>
        <time>2024-03-31T13:25:55.549Z</time>
      </trkpt>
      <trkpt lat="43.18091" lon="3.18609">
        <ele>31</ele>
        <time>2024-03-31T13:26:00.549Z</time>
      </trkpt>
      <trkpt lat="43.18088" lon="3.18616">
        <ele>31</ele>
        <time>2024-03-31T13:26:05.549Z</time>
      </trkpt>
      <trkpt lat="43.18086" lon="3.1862">
        <ele>31</ele>
        <time>2024-03-31T13:26:09.549Z</time>
      </trkpt>
      <trkpt lat="43.18084" lon="3.18627">
        <ele>28</ele>
        <time>2024-03-31T13:26:14.549Z</time>
      </trkpt>
      <trkpt lat="43.18082" lon="3.18634">
        <ele>28</ele>
        <time>2024-03-31T13:26:19.549Z</time>
      </trkpt>
      <trkpt lat="43.18081" lon="3.18641">
        <ele>28</ele>
        <time>2024-03-31T13:26:24.549Z</time>
      </trkpt>
      <trkpt lat="43.1808" lon="3.18648">
        <ele>28</ele>
        <time>2024-03-31T13:26:29.549Z</time>
      </trkpt>
      <trkpt lat="43.18078" lon="3.18656">
        <ele>26</ele>
        <time>2024-03-31T13:26:34.549Z</time>
      </trkpt>
      <trkpt lat="43.18076" lon="3.18663">
        <ele>26</ele>
        <time>2024-03-31T13:26:39.550Z</time>
      </trkpt>
      <trkpt lat="43.18075" lon="3.18672">
        <ele>26</ele>
        <time>2024-03-31T13:26:44.550Z</time>
      </trkpt>
      <trkpt lat="43.18074" lon="3.18681">
        <ele>25</ele>
        <time>2024-03-31T13:26:49.550Z</time>
      </trkpt>
      <trkpt lat="43.18073" lon="3.18688">
        <ele>25</ele>
        <time>2024-03-31T13:26:54.550Z</time>
      </trkpt>
      <trkpt lat="43.18073" lon="3.18693">
        <ele>25</ele>
        <time>2024-03-31T13:26:59.550Z</time>
      </trkpt>
      <trkpt lat="43.18073" lon="3.18697">
        <ele>25</ele>
        <time>2024-03-31T13:27:03.550Z</time>
      </trkpt>
      <trkpt lat="43.18072" lon="3.18704">
        <ele>25</ele>
        <time>2024-03-31T13:27:08.550Z</time>
      </trkpt>
      <trkpt lat="43.18071" lon="3.18711">
        <ele>23</ele>
        <time>2024-03-31T13:27:13.550Z</time>
      </trkpt>
      <trkpt lat="43.18071" lon="3.18718">
        <ele>23</ele>
        <time>2024-03-31T13:27:18.550Z</time>
      </trkpt>
      <trkpt lat="43.18072" lon="3.18722">
        <ele>23</ele>
        <time>2024-03-31T13:27:23.550Z</time>
      </trkpt>
      <trkpt lat="43.1807" lon="3.18726">
        <ele>23</ele>
        <time>2024-03-31T13:27:27.550Z</time>
      </trkpt>
      <trkpt lat="43.18069" lon="3.18734">
        <ele>25</ele>
        <time>2024-03-31T13:27:32.550Z</time>
      </trkpt>
      <trkpt lat="43.18068" lon="3.1874">
        <ele>23</ele>
        <time>2024-03-31T13:27:36.550Z</time>
      </trkpt>
      <trkpt lat="43.18068" lon="3.18747">
        <ele>23</ele>
        <time>2024-03-31T13:27:41.550Z</time>
      </trkpt>
      <trkpt lat="43.18066" lon="3.18755">
        <ele>23</ele>
        <time>2024-03-31T13:27:46.550Z</time>
      </trkpt>
      <trkpt lat="43.18064" lon="3.18761">
        <ele>23</ele>
        <time>2024-03-31T13:27:51.550Z</time>
      </trkpt>
      <trkpt lat="43.1806" lon="3.18769">
        <ele>21</ele>
        <time>2024-03-31T13:27:56.550Z</time>
      </trkpt>
      <trkpt lat="43.18057" lon="3.18773">
        <ele>21</ele>
        <time>2024-03-31T13:28:00.550Z</time>
      </trkpt>
      <trkpt lat="43.18053" lon="3.18778">
        <ele>21</ele>
        <time>2024-03-31T13:28:05.550Z</time>
      </trkpt>
      <trkpt lat="43.18049" lon="3.18782">
        <ele>21</ele>
        <time>2024-03-31T13:28:10.550Z</time>
      </trkpt>
      <trkpt lat="43.18046" lon="3.18787">
        <ele>21</ele>
        <time>2024-03-31T13:28:15.550Z</time>
      </trkpt>
      <trkpt lat="43.18041" lon="3.18792">
        <ele>21</ele>
        <time>2024-03-31T13:28:20.550Z</time>
      </trkpt>
      <trkpt lat="43.18043" lon="3.18798">
        <ele>17</ele>
        <time>2024-03-31T13:28:25.550Z</time>
      </trkpt>
      <trkpt lat="43.18049" lon="3.18801">
        <ele>17</ele>
        <time>2024-03-31T13:28:30.550Z</time>
      </trkpt>
      <trkpt lat="43.18054" lon="3.18804">
        <ele>17</ele>
        <time>2024-03-31T13:28:35.550Z</time>
      </trkpt>
      <trkpt lat="43.1806" lon="3.18807">
        <ele>17</ele>
        <time>2024-03-31T13:28:40.550Z</time>
      </trkpt>
      <trkpt lat="43.18064" lon="3.1881">
        <ele>17</ele>
        <time>2024-03-31T13:28:45.550Z</time>
      </trkpt>
      <trkpt lat="43.18069" lon="3.18812">
        <ele>17</ele>
        <time>2024-03-31T13:28:50.550Z</time>
      </trkpt>
      <trkpt lat="43.18073" lon="3.18815">
        <ele>16</ele>
        <time>2024-03-31T13:28:54.550Z</time>
      </trkpt>
      <trkpt lat="43.18077" lon="3.18816">
        <ele>16</ele>
        <time>2024-03-31T13:28:59.550Z</time>
      </trkpt>
      <trkpt lat="43.18082" lon="3.18819">
        <ele>16</ele>
        <time>2024-03-31T13:29:04.550Z</time>
      </trkpt>
      <trkpt lat="43.18084" lon="3.18826">
        <ele>14</ele>
        <time>2024-03-31T13:29:09.550Z</time>
      </trkpt>
      <trkpt lat="43.18087" lon="3.18829">
        <ele>14</ele>
        <time>2024-03-31T13:29:14.550Z</time>
      </trkpt>
      <trkpt lat="43.18091" lon="3.18828">
        <ele>14</ele>
        <time>2024-03-31T13:29:18.550Z</time>
      </trkpt>
      <trkpt lat="43.18098" lon="3.18827">
        <ele>14</ele>
        <time>2024-03-31T13:29:23.550Z</time>
      </trkpt>
      <trkpt lat="43.18102" lon="3.18828">
        <ele>14</ele>
        <time>2024-03-31T13:29:27.550Z</time>
      </trkpt>
      <trkpt lat="43.18106" lon="3.18831">
        <ele>14</ele>
        <time>2024-03-31T13:29:32.550Z</time>
      </trkpt>
      <trkpt lat="43.1811" lon="3.18836">
        <ele>14</ele>
        <time>2024-03-31T13:29:37.550Z</time>
      </trkpt>
      <trkpt lat="43.18115" lon="3.18841">
        <ele>14</ele>
        <time>2024-03-31T13:29:42.550Z</time>
      </trkpt>
      <trkpt lat="43.18115" lon="3.18848">
        <ele>14</ele>
        <time>2024-03-31T13:29:47.550Z</time>
      </trkpt>
      <trkpt lat="43.18116" lon="3.18853">
        <ele>14</ele>
        <time>2024-03-31T13:29:51.550Z</time>
      </trkpt>
      <trkpt lat="43.18115" lon="3.18859">
        <ele>14</ele>
        <time>2024-03-31T13:29:55.550Z</time>
      </trkpt>
      <trkpt lat="43.18115" lon="3.18867">
        <ele>14</ele>
        <time>2024-03-31T13:30:00.550Z</time>
      </trkpt>
      <trkpt lat="43.18116" lon="3.18874">
        <ele>14</ele>
        <time>2024-03-31T13:30:05.550Z</time>
      </trkpt>
      <trkpt lat="43.18116" lon="3.1888">
        <ele>14</ele>
        <time>2024-03-31T13:30:09.550Z</time>
      </trkpt>
      <trkpt lat="43.18116" lon="3.18886">
        <ele>14</ele>
        <time>2024-03-31T13:30:14.550Z</time>
      </trkpt>
      <trkpt lat="43.18115" lon="3.18894">
        <ele>14</ele>
        <time>2024-03-31T13:30:19.550Z</time>
      </trkpt>
      <trkpt lat="43.18111" lon="3.18901">
        <ele>14</ele>
        <time>2024-03-31T13:30:24.550Z</time>
      </trkpt>
      <trkpt lat="43.18108" lon="3.18907">
        <ele>14</ele>
        <time>2024-03-31T13:30:29.550Z</time>
      </trkpt>
      <trkpt lat="43.18107" lon="3.18912">
        <ele>14</ele>
        <time>2024-03-31T13:30:34.550Z</time>
      </trkpt>
      <trkpt lat="43.18109" lon="3.18918">
        <ele>14</ele>
        <time>2024-03-31T13:30:39.550Z</time>
      </trkpt>
      <trkpt lat="43.18113" lon="3.18922">
        <ele>14</ele>
        <time>2024-03-31T13:30:44.550Z</time>
      </trkpt>
      <trkpt lat="43.1812" lon="3.18925">
        <ele>14</ele>
        <time>2024-03-31T13:30:49.550Z</time>
      </trkpt>
      <trkpt lat="43.18126" lon="3.18928">
        <ele>15</ele>
        <time>2024-03-31T13:30:54.550Z</time>
      </trkpt>
      <trkpt lat="43.18132" lon="3.18931">
        <ele>14</ele>
        <time>2024-03-31T13:30:59.550Z</time>
      </trkpt>
      <trkpt lat="43.18136" lon="3.18936">
        <ele>14</ele>
        <time>2024-03-31T13:31:04.550Z</time>
      </trkpt>
      <trkpt lat="43.18138" lon="3.1894">
        <ele>14</ele>
        <time>2024-03-31T13:31:08.550Z</time>
      </trkpt>
      <trkpt lat="43.18144" lon="3.18941">
        <ele>14</ele>
        <time>2024-03-31T13:31:13.550Z</time>
      </trkpt>
      <trkpt lat="43.18148" lon="3.18946">
        <ele>14</ele>
        <time>2024-03-31T13:31:18.550Z</time>
      </trkpt>
      <trkpt lat="43.18152" lon="3.1895">
        <ele>14</ele>
        <time>2024-03-31T13:31:23.550Z</time>
      </trkpt>
      <trkpt lat="43.18155" lon="3.18952">
        <ele>16</ele>
        <time>2024-03-31T13:31:27.550Z</time>
      </trkpt>
      <trkpt lat="43.18158" lon="3.18957">
        <ele>16</ele>
        <time>2024-03-31T13:31:32.550Z</time>
      </trkpt>
      <trkpt lat="43.18162" lon="3.18968">
        <ele>15</ele>
        <time>2024-03-31T13:33:28.551Z</time>
      </trkpt>
      <trkpt lat="43.18163" lon="3.18969">
        <ele>15</ele>
        <time>2024-03-31T13:33:32.551Z</time>
      </trkpt>
      <trkpt lat="43.18163" lon="3.18969">
        <ele>15</ele>
        <time>2024-03-31T13:33:37.551Z</time>
      </trkpt>
      <trkpt lat="43.1817" lon="3.18967">
        <ele>15</ele>
        <time>2024-03-31T13:34:23.551Z</time>
      </trkpt>
      <trkpt lat="43.18171" lon="3.18967">
        <ele>15</ele>
        <time>2024-03-31T13:34:27.551Z</time>
      </trkpt>
    </trkseg>
  </trk>
</gpx>